<?xml version="1.0" encoding="UTF-8" standalone="no" ?>
<gpx xmlns="http://www.topografix.com/GPX/1/1" xmlns:xsi="http://www.w3.org/2001/XMLSchema-instance" xsi:schemaLocation="http://www.topografix.com/GPX/1/1 http://www.topografix.com/GPX/1/1/gpx.xsd" version="1.1" creator="VisuGPX - https://www.visugpx.com">
  <metadata>
    <name>Le circuit des 25 bosses - Fontainebleau</name>
    <desc><![CDATA[effectué sous 33 degrés]]></desc>
  </metadata>
  <trk>
    <name><![CDATA[SityTrail - Le circuit des 25 bosses]]></name>
    <desc><![CDATA[effectué sous 33 degrés]]></desc>
    <trkseg>
      <trkpt lat="48.38787" lon="2.51924">
        <ele>73</ele>
        <time>2022-08-10T05:40:19.478Z</time>
      </trkpt>
      <trkpt lat="48.38789" lon="2.5193">
        <ele>73</ele>
        <time>2022-08-10T05:40:20.657Z</time>
      </trkpt>
      <trkpt lat="48.38796" lon="2.51941">
        <ele>75</ele>
        <time>2022-08-10T05:40:24.668Z</time>
      </trkpt>
      <trkpt lat="48.38796" lon="2.51944">
        <ele>75</ele>
        <time>2022-08-10T05:40:29.664Z</time>
      </trkpt>
      <trkpt lat="48.38798" lon="2.51944">
        <ele>75</ele>
        <time>2022-08-10T05:40:33.657Z</time>
      </trkpt>
      <trkpt lat="48.38798" lon="2.5194">
        <ele>75</ele>
        <time>2022-08-10T05:41:19.665Z</time>
      </trkpt>
      <trkpt lat="48.38799" lon="2.51937">
        <ele>75</ele>
        <time>2022-08-10T05:41:24.678Z</time>
      </trkpt>
      <trkpt lat="48.38797" lon="2.51934">
        <ele>75</ele>
        <time>2022-08-10T05:41:29.663Z</time>
      </trkpt>
      <trkpt lat="48.38795" lon="2.5193">
        <ele>75</ele>
        <time>2022-08-10T05:41:33.665Z</time>
      </trkpt>
      <trkpt lat="48.38794" lon="2.51926">
        <ele>75</ele>
        <time>2022-08-10T05:41:37.665Z</time>
      </trkpt>
      <trkpt lat="48.38784" lon="2.51927">
        <ele>73</ele>
        <time>2022-08-10T05:42:00.661Z</time>
      </trkpt>
      <trkpt lat="48.38783" lon="2.5193">
        <ele>73</ele>
        <time>2022-08-10T05:42:04.684Z</time>
      </trkpt>
      <trkpt lat="48.38781" lon="2.51932">
        <ele>73</ele>
        <time>2022-08-10T05:42:09.649Z</time>
      </trkpt>
      <trkpt lat="48.38779" lon="2.51933">
        <ele>73</ele>
        <time>2022-08-10T05:42:13.653Z</time>
      </trkpt>
      <trkpt lat="48.38779" lon="2.51934">
        <ele>73</ele>
        <time>2022-08-10T05:42:17.664Z</time>
      </trkpt>
      <trkpt lat="48.38782" lon="2.51935">
        <ele>73</ele>
        <time>2022-08-10T05:45:22.646Z</time>
      </trkpt>
      <trkpt lat="48.3878" lon="2.51942">
        <ele>73</ele>
        <time>2022-08-10T05:45:27.649Z</time>
      </trkpt>
      <trkpt lat="48.38777" lon="2.51949">
        <ele>73</ele>
        <time>2022-08-10T05:45:32.651Z</time>
      </trkpt>
      <trkpt lat="48.38777" lon="2.51956">
        <ele>73</ele>
        <time>2022-08-10T05:45:36.650Z</time>
      </trkpt>
      <trkpt lat="48.38773" lon="2.51965">
        <ele>74</ele>
        <time>2022-08-10T05:45:40.639Z</time>
      </trkpt>
      <trkpt lat="48.3877" lon="2.51976">
        <ele>74</ele>
        <time>2022-08-10T05:45:45.644Z</time>
      </trkpt>
      <trkpt lat="48.38768" lon="2.51985">
        <ele>74</ele>
        <time>2022-08-10T05:45:50.654Z</time>
      </trkpt>
      <trkpt lat="48.38765" lon="2.51992">
        <ele>76</ele>
        <time>2022-08-10T05:45:55.666Z</time>
      </trkpt>
      <trkpt lat="48.38761" lon="2.52">
        <ele>73</ele>
        <time>2022-08-10T05:46:00.650Z</time>
      </trkpt>
      <trkpt lat="48.38759" lon="2.52009">
        <ele>73</ele>
        <time>2022-08-10T05:46:04.668Z</time>
      </trkpt>
      <trkpt lat="48.38754" lon="2.52019">
        <ele>75</ele>
        <time>2022-08-10T05:46:09.653Z</time>
      </trkpt>
      <trkpt lat="48.38751" lon="2.52027">
        <ele>75</ele>
        <time>2022-08-10T05:46:13.659Z</time>
      </trkpt>
      <trkpt lat="48.38747" lon="2.52037">
        <ele>75</ele>
        <time>2022-08-10T05:46:18.656Z</time>
      </trkpt>
      <trkpt lat="48.38745" lon="2.52043">
        <ele>76</ele>
        <time>2022-08-10T05:46:22.645Z</time>
      </trkpt>
      <trkpt lat="48.38744" lon="2.52047">
        <ele>76</ele>
        <time>2022-08-10T05:46:26.654Z</time>
      </trkpt>
      <trkpt lat="48.38741" lon="2.52055">
        <ele>76</ele>
        <time>2022-08-10T05:46:31.655Z</time>
      </trkpt>
      <trkpt lat="48.38738" lon="2.52061">
        <ele>76</ele>
        <time>2022-08-10T05:46:35.652Z</time>
      </trkpt>
      <trkpt lat="48.38736" lon="2.52069">
        <ele>74</ele>
        <time>2022-08-10T05:46:40.662Z</time>
      </trkpt>
      <trkpt lat="48.38731" lon="2.52077">
        <ele>75</ele>
        <time>2022-08-10T05:46:44.657Z</time>
      </trkpt>
      <trkpt lat="48.38728" lon="2.52086">
        <ele>75</ele>
        <time>2022-08-10T05:46:49.643Z</time>
      </trkpt>
      <trkpt lat="48.38725" lon="2.52098">
        <ele>75</ele>
        <time>2022-08-10T05:46:54.655Z</time>
      </trkpt>
      <trkpt lat="48.38722" lon="2.52109">
        <ele>75</ele>
        <time>2022-08-10T05:46:59.649Z</time>
      </trkpt>
      <trkpt lat="48.38721" lon="2.52122">
        <ele>75</ele>
        <time>2022-08-10T05:47:04.663Z</time>
      </trkpt>
      <trkpt lat="48.38719" lon="2.52134">
        <ele>76</ele>
        <time>2022-08-10T05:47:09.652Z</time>
      </trkpt>
      <trkpt lat="48.38718" lon="2.52142">
        <ele>76</ele>
        <time>2022-08-10T05:47:14.654Z</time>
      </trkpt>
      <trkpt lat="48.38717" lon="2.52151">
        <ele>76</ele>
        <time>2022-08-10T05:47:18.653Z</time>
      </trkpt>
      <trkpt lat="48.38714" lon="2.52161">
        <ele>76</ele>
        <time>2022-08-10T05:47:23.660Z</time>
      </trkpt>
      <trkpt lat="48.38713" lon="2.5217">
        <ele>76</ele>
        <time>2022-08-10T05:47:28.669Z</time>
      </trkpt>
      <trkpt lat="48.38712" lon="2.5218">
        <ele>76</ele>
        <time>2022-08-10T05:47:33.646Z</time>
      </trkpt>
      <trkpt lat="48.38712" lon="2.52191">
        <ele>77</ele>
        <time>2022-08-10T05:47:38.654Z</time>
      </trkpt>
      <trkpt lat="48.38713" lon="2.52201">
        <ele>77</ele>
        <time>2022-08-10T05:47:43.644Z</time>
      </trkpt>
      <trkpt lat="48.38711" lon="2.52214">
        <ele>78</ele>
        <time>2022-08-10T05:47:48.702Z</time>
      </trkpt>
      <trkpt lat="48.38708" lon="2.5223">
        <ele>77</ele>
        <time>2022-08-10T05:47:53.674Z</time>
      </trkpt>
      <trkpt lat="48.38707" lon="2.52245">
        <ele>78</ele>
        <time>2022-08-10T05:47:58.650Z</time>
      </trkpt>
      <trkpt lat="48.38705" lon="2.52253">
        <ele>78</ele>
        <time>2022-08-10T05:48:02.648Z</time>
      </trkpt>
      <trkpt lat="48.38703" lon="2.52257">
        <ele>78</ele>
        <time>2022-08-10T05:48:06.657Z</time>
      </trkpt>
      <trkpt lat="48.38702" lon="2.52266">
        <ele>79</ele>
        <time>2022-08-10T05:48:11.655Z</time>
      </trkpt>
      <trkpt lat="48.38702" lon="2.52278">
        <ele>79</ele>
        <time>2022-08-10T05:48:16.647Z</time>
      </trkpt>
      <trkpt lat="48.38698" lon="2.5229">
        <ele>79</ele>
        <time>2022-08-10T05:48:20.664Z</time>
      </trkpt>
      <trkpt lat="48.38695" lon="2.52298">
        <ele>79</ele>
        <time>2022-08-10T05:48:24.675Z</time>
      </trkpt>
      <trkpt lat="48.38691" lon="2.52308">
        <ele>79</ele>
        <time>2022-08-10T05:48:29.682Z</time>
      </trkpt>
      <trkpt lat="48.38686" lon="2.52315">
        <ele>79</ele>
        <time>2022-08-10T05:48:34.642Z</time>
      </trkpt>
      <trkpt lat="48.38683" lon="2.52317">
        <ele>79</ele>
        <time>2022-08-10T05:48:38.646Z</time>
      </trkpt>
      <trkpt lat="48.38678" lon="2.52318">
        <ele>78</ele>
        <time>2022-08-10T05:48:43.638Z</time>
      </trkpt>
      <trkpt lat="48.38674" lon="2.52316">
        <ele>78</ele>
        <time>2022-08-10T05:48:47.651Z</time>
      </trkpt>
      <trkpt lat="48.38668" lon="2.52315">
        <ele>78</ele>
        <time>2022-08-10T05:48:52.649Z</time>
      </trkpt>
      <trkpt lat="48.38665" lon="2.52313">
        <ele>78</ele>
        <time>2022-08-10T05:48:57.639Z</time>
      </trkpt>
      <trkpt lat="48.38657" lon="2.52312">
        <ele>78</ele>
        <time>2022-08-10T05:49:01.654Z</time>
      </trkpt>
      <trkpt lat="48.38653" lon="2.52311">
        <ele>78</ele>
        <time>2022-08-10T05:49:06.645Z</time>
      </trkpt>
      <trkpt lat="48.38648" lon="2.52311">
        <ele>79</ele>
        <time>2022-08-10T05:49:11.646Z</time>
      </trkpt>
      <trkpt lat="48.38645" lon="2.52311">
        <ele>79</ele>
        <time>2022-08-10T05:49:15.650Z</time>
      </trkpt>
      <trkpt lat="48.38642" lon="2.52313">
        <ele>79</ele>
        <time>2022-08-10T05:49:20.654Z</time>
      </trkpt>
      <trkpt lat="48.3864" lon="2.52312">
        <ele>79</ele>
        <time>2022-08-10T05:49:25.646Z</time>
      </trkpt>
      <trkpt lat="48.38635" lon="2.52311">
        <ele>79</ele>
        <time>2022-08-10T05:49:30.657Z</time>
      </trkpt>
      <trkpt lat="48.38629" lon="2.52309">
        <ele>79</ele>
        <time>2022-08-10T05:49:44.652Z</time>
      </trkpt>
      <trkpt lat="48.38627" lon="2.52311">
        <ele>79</ele>
        <time>2022-08-10T05:49:49.643Z</time>
      </trkpt>
      <trkpt lat="48.38626" lon="2.52312">
        <ele>79</ele>
        <time>2022-08-10T05:49:53.656Z</time>
      </trkpt>
      <trkpt lat="48.38624" lon="2.52313">
        <ele>82</ele>
        <time>2022-08-10T05:49:58.653Z</time>
      </trkpt>
      <trkpt lat="48.38621" lon="2.52311">
        <ele>82</ele>
        <time>2022-08-10T05:50:03.641Z</time>
      </trkpt>
      <trkpt lat="48.38617" lon="2.52312">
        <ele>82</ele>
        <time>2022-08-10T05:50:07.640Z</time>
      </trkpt>
      <trkpt lat="48.38614" lon="2.52315">
        <ele>82</ele>
        <time>2022-08-10T05:50:11.653Z</time>
      </trkpt>
      <trkpt lat="48.38612" lon="2.52317">
        <ele>82</ele>
        <time>2022-08-10T05:50:16.654Z</time>
      </trkpt>
      <trkpt lat="48.38611" lon="2.52318">
        <ele>82</ele>
        <time>2022-08-10T05:50:20.655Z</time>
      </trkpt>
      <trkpt lat="48.38608" lon="2.5232">
        <ele>84</ele>
        <time>2022-08-10T05:50:24.666Z</time>
      </trkpt>
      <trkpt lat="48.38603" lon="2.52324">
        <ele>84</ele>
        <time>2022-08-10T05:50:34.657Z</time>
      </trkpt>
      <trkpt lat="48.38602" lon="2.52323">
        <ele>84</ele>
        <time>2022-08-10T05:50:38.661Z</time>
      </trkpt>
      <trkpt lat="48.386" lon="2.52316">
        <ele>82</ele>
        <time>2022-08-10T05:50:43.666Z</time>
      </trkpt>
      <trkpt lat="48.38599" lon="2.52315">
        <ele>82</ele>
        <time>2022-08-10T05:50:47.658Z</time>
      </trkpt>
      <trkpt lat="48.38597" lon="2.52313">
        <ele>87</ele>
        <time>2022-08-10T05:50:52.649Z</time>
      </trkpt>
      <trkpt lat="48.38598" lon="2.52312">
        <ele>82</ele>
        <time>2022-08-10T05:50:56.675Z</time>
      </trkpt>
      <trkpt lat="48.38597" lon="2.5231">
        <ele>87</ele>
        <time>2022-08-10T05:51:01.650Z</time>
      </trkpt>
      <trkpt lat="48.38592" lon="2.52309">
        <ele>87</ele>
        <time>2022-08-10T05:51:06.645Z</time>
      </trkpt>
      <trkpt lat="48.38585" lon="2.52306">
        <ele>87</ele>
        <time>2022-08-10T05:51:11.638Z</time>
      </trkpt>
      <trkpt lat="48.38585" lon="2.52307">
        <ele>87</ele>
        <time>2022-08-10T05:51:15.645Z</time>
      </trkpt>
      <trkpt lat="48.38582" lon="2.52304">
        <ele>87</ele>
        <time>2022-08-10T05:51:20.647Z</time>
      </trkpt>
      <trkpt lat="48.3858" lon="2.52301">
        <ele>87</ele>
        <time>2022-08-10T05:51:25.649Z</time>
      </trkpt>
      <trkpt lat="48.38579" lon="2.52298">
        <ele>87</ele>
        <time>2022-08-10T05:51:30.648Z</time>
      </trkpt>
      <trkpt lat="48.38573" lon="2.52294">
        <ele>87</ele>
        <time>2022-08-10T05:51:35.645Z</time>
      </trkpt>
      <trkpt lat="48.38569" lon="2.52292">
        <ele>95</ele>
        <time>2022-08-10T05:51:43.701Z</time>
      </trkpt>
      <trkpt lat="48.3857" lon="2.52294">
        <ele>87</ele>
        <time>2022-08-10T05:51:48.701Z</time>
      </trkpt>
      <trkpt lat="48.38566" lon="2.52295">
        <ele>95</ele>
        <time>2022-08-10T05:51:53.677Z</time>
      </trkpt>
      <trkpt lat="48.38563" lon="2.52292">
        <ele>92</ele>
        <time>2022-08-10T05:51:58.670Z</time>
      </trkpt>
      <trkpt lat="48.38561" lon="2.52291">
        <ele>92</ele>
        <time>2022-08-10T05:52:03.646Z</time>
      </trkpt>
      <trkpt lat="48.38559" lon="2.52293">
        <ele>95</ele>
        <time>2022-08-10T05:52:08.640Z</time>
      </trkpt>
      <trkpt lat="48.38558" lon="2.52299">
        <ele>95</ele>
        <time>2022-08-10T05:52:12.645Z</time>
      </trkpt>
      <trkpt lat="48.38554" lon="2.52303">
        <ele>95</ele>
        <time>2022-08-10T05:52:16.652Z</time>
      </trkpt>
      <trkpt lat="48.38551" lon="2.52307">
        <ele>95</ele>
        <time>2022-08-10T05:52:20.654Z</time>
      </trkpt>
      <trkpt lat="48.3854" lon="2.52312">
        <ele>105</ele>
        <time>2022-08-10T05:52:48.667Z</time>
      </trkpt>
      <trkpt lat="48.38539" lon="2.52307">
        <ele>105</ele>
        <time>2022-08-10T05:52:53.643Z</time>
      </trkpt>
      <trkpt lat="48.38537" lon="2.52308">
        <ele>105</ele>
        <time>2022-08-10T05:52:57.651Z</time>
      </trkpt>
      <trkpt lat="48.38535" lon="2.52304">
        <ele>105</ele>
        <time>2022-08-10T05:53:02.644Z</time>
      </trkpt>
      <trkpt lat="48.38532" lon="2.52302">
        <ele>105</ele>
        <time>2022-08-10T05:53:06.656Z</time>
      </trkpt>
      <trkpt lat="48.38527" lon="2.52305">
        <ele>105</ele>
        <time>2022-08-10T05:53:19.673Z</time>
      </trkpt>
      <trkpt lat="48.38526" lon="2.52308">
        <ele>105</ele>
        <time>2022-08-10T05:53:24.654Z</time>
      </trkpt>
      <trkpt lat="48.38524" lon="2.5231">
        <ele>105</ele>
        <time>2022-08-10T05:53:29.639Z</time>
      </trkpt>
      <trkpt lat="48.38523" lon="2.52309">
        <ele>105</ele>
        <time>2022-08-10T05:53:34.642Z</time>
      </trkpt>
      <trkpt lat="48.38522" lon="2.52313">
        <ele>105</ele>
        <time>2022-08-10T05:53:38.649Z</time>
      </trkpt>
      <trkpt lat="48.38519" lon="2.5232">
        <ele>105</ele>
        <time>2022-08-10T05:54:20.642Z</time>
      </trkpt>
      <trkpt lat="48.38517" lon="2.52319">
        <ele>105</ele>
        <time>2022-08-10T05:54:24.650Z</time>
      </trkpt>
      <trkpt lat="48.38515" lon="2.52316">
        <ele>105</ele>
        <time>2022-08-10T05:54:29.644Z</time>
      </trkpt>
      <trkpt lat="48.38512" lon="2.52314">
        <ele>110</ele>
        <time>2022-08-10T05:54:33.646Z</time>
      </trkpt>
      <trkpt lat="48.3851" lon="2.52315">
        <ele>110</ele>
        <time>2022-08-10T05:54:38.653Z</time>
      </trkpt>
      <trkpt lat="48.38512" lon="2.52312">
        <ele>110</ele>
        <time>2022-08-10T05:56:10.653Z</time>
      </trkpt>
      <trkpt lat="48.38511" lon="2.52313">
        <ele>110</ele>
        <time>2022-08-10T05:56:14.665Z</time>
      </trkpt>
      <trkpt lat="48.38509" lon="2.52313">
        <ele>110</ele>
        <time>2022-08-10T05:56:18.654Z</time>
      </trkpt>
      <trkpt lat="48.38507" lon="2.52317">
        <ele>110</ele>
        <time>2022-08-10T05:56:23.658Z</time>
      </trkpt>
      <trkpt lat="48.38503" lon="2.52319">
        <ele>110</ele>
        <time>2022-08-10T05:56:28.656Z</time>
      </trkpt>
      <trkpt lat="48.38502" lon="2.5232">
        <ele>109</ele>
        <time>2022-08-10T05:56:33.652Z</time>
      </trkpt>
      <trkpt lat="48.38499" lon="2.52321">
        <ele>109</ele>
        <time>2022-08-10T05:56:37.657Z</time>
      </trkpt>
      <trkpt lat="48.38491" lon="2.52326">
        <ele>109</ele>
        <time>2022-08-10T05:56:42.660Z</time>
      </trkpt>
      <trkpt lat="48.38483" lon="2.52324">
        <ele>106</ele>
        <time>2022-08-10T05:56:47.661Z</time>
      </trkpt>
      <trkpt lat="48.38479" lon="2.52323">
        <ele>106</ele>
        <time>2022-08-10T05:56:51.660Z</time>
      </trkpt>
      <trkpt lat="48.38476" lon="2.52321">
        <ele>106</ele>
        <time>2022-08-10T05:56:56.662Z</time>
      </trkpt>
      <trkpt lat="48.38473" lon="2.52317">
        <ele>110</ele>
        <time>2022-08-10T05:57:01.658Z</time>
      </trkpt>
      <trkpt lat="48.38473" lon="2.52314">
        <ele>110</ele>
        <time>2022-08-10T05:57:06.665Z</time>
      </trkpt>
      <trkpt lat="48.38471" lon="2.52308">
        <ele>110</ele>
        <time>2022-08-10T05:57:11.646Z</time>
      </trkpt>
      <trkpt lat="48.3847" lon="2.52309">
        <ele>110</ele>
        <time>2022-08-10T05:57:15.650Z</time>
      </trkpt>
      <trkpt lat="48.38473" lon="2.52316">
        <ele>110</ele>
        <time>2022-08-10T05:57:19.656Z</time>
      </trkpt>
      <trkpt lat="48.38477" lon="2.52319">
        <ele>110</ele>
        <time>2022-08-10T05:57:24.654Z</time>
      </trkpt>
      <trkpt lat="48.3848" lon="2.52319">
        <ele>110</ele>
        <time>2022-08-10T05:57:29.648Z</time>
      </trkpt>
      <trkpt lat="48.38481" lon="2.52318">
        <ele>110</ele>
        <time>2022-08-10T05:58:01.650Z</time>
      </trkpt>
      <trkpt lat="48.3848" lon="2.52313">
        <ele>110</ele>
        <time>2022-08-10T05:58:06.657Z</time>
      </trkpt>
      <trkpt lat="48.38482" lon="2.52311">
        <ele>110</ele>
        <time>2022-08-10T05:58:11.648Z</time>
      </trkpt>
      <trkpt lat="48.3848" lon="2.52311">
        <ele>110</ele>
        <time>2022-08-10T05:58:15.654Z</time>
      </trkpt>
      <trkpt lat="48.38475" lon="2.52314">
        <ele>110</ele>
        <time>2022-08-10T05:58:20.678Z</time>
      </trkpt>
      <trkpt lat="48.38465" lon="2.52317">
        <ele>110</ele>
        <time>2022-08-10T06:00:46.678Z</time>
      </trkpt>
      <trkpt lat="48.38464" lon="2.52314">
        <ele>110</ele>
        <time>2022-08-10T06:00:50.704Z</time>
      </trkpt>
      <trkpt lat="48.38463" lon="2.52313">
        <ele>110</ele>
        <time>2022-08-10T06:00:55.697Z</time>
      </trkpt>
      <trkpt lat="48.38461" lon="2.52313">
        <ele>110</ele>
        <time>2022-08-10T06:00:59.712Z</time>
      </trkpt>
      <trkpt lat="48.38461" lon="2.52312">
        <ele>110</ele>
        <time>2022-08-10T06:01:04.697Z</time>
      </trkpt>
      <trkpt lat="48.38456" lon="2.52308">
        <ele>101</ele>
        <time>2022-08-10T06:01:27.652Z</time>
      </trkpt>
      <trkpt lat="48.38455" lon="2.52309">
        <ele>101</ele>
        <time>2022-08-10T06:01:31.699Z</time>
      </trkpt>
      <trkpt lat="48.38454" lon="2.52311">
        <ele>101</ele>
        <time>2022-08-10T06:01:36.702Z</time>
      </trkpt>
      <trkpt lat="48.38452" lon="2.52312">
        <ele>101</ele>
        <time>2022-08-10T06:01:41.706Z</time>
      </trkpt>
      <trkpt lat="48.3845" lon="2.52309">
        <ele>101</ele>
        <time>2022-08-10T06:01:46.713Z</time>
      </trkpt>
      <trkpt lat="48.38442" lon="2.52301">
        <ele>101</ele>
        <time>2022-08-10T06:02:40.657Z</time>
      </trkpt>
      <trkpt lat="48.38442" lon="2.52302">
        <ele>101</ele>
        <time>2022-08-10T06:02:44.650Z</time>
      </trkpt>
      <trkpt lat="48.38441" lon="2.52301">
        <ele>101</ele>
        <time>2022-08-10T06:02:49.651Z</time>
      </trkpt>
      <trkpt lat="48.38441" lon="2.523">
        <ele>101</ele>
        <time>2022-08-10T06:02:53.648Z</time>
      </trkpt>
      <trkpt lat="48.3844" lon="2.52301">
        <ele>101</ele>
        <time>2022-08-10T06:02:58.645Z</time>
      </trkpt>
      <trkpt lat="48.38432" lon="2.52298">
        <ele>101</ele>
        <time>2022-08-10T06:03:25.659Z</time>
      </trkpt>
      <trkpt lat="48.38431" lon="2.52295">
        <ele>101</ele>
        <time>2022-08-10T06:03:30.670Z</time>
      </trkpt>
      <trkpt lat="48.38432" lon="2.52293">
        <ele>101</ele>
        <time>2022-08-10T06:03:35.652Z</time>
      </trkpt>
      <trkpt lat="48.38431" lon="2.52292">
        <ele>101</ele>
        <time>2022-08-10T06:03:39.652Z</time>
      </trkpt>
      <trkpt lat="48.38429" lon="2.52291">
        <ele>96</ele>
        <time>2022-08-10T06:03:44.649Z</time>
      </trkpt>
      <trkpt lat="48.38423" lon="2.52297">
        <ele>94</ele>
        <time>2022-08-10T06:04:21.645Z</time>
      </trkpt>
      <trkpt lat="48.38422" lon="2.52298">
        <ele>94</ele>
        <time>2022-08-10T06:04:25.658Z</time>
      </trkpt>
      <trkpt lat="48.3842" lon="2.52298">
        <ele>94</ele>
        <time>2022-08-10T06:04:30.660Z</time>
      </trkpt>
      <trkpt lat="48.38419" lon="2.52299">
        <ele>94</ele>
        <time>2022-08-10T06:04:35.645Z</time>
      </trkpt>
      <trkpt lat="48.38418" lon="2.52301">
        <ele>94</ele>
        <time>2022-08-10T06:04:39.660Z</time>
      </trkpt>
      <trkpt lat="48.38419" lon="2.52293">
        <ele>94</ele>
        <time>2022-08-10T06:05:18.663Z</time>
      </trkpt>
      <trkpt lat="48.38418" lon="2.52293">
        <ele>94</ele>
        <time>2022-08-10T06:05:22.669Z</time>
      </trkpt>
      <trkpt lat="48.38418" lon="2.52291">
        <ele>96</ele>
        <time>2022-08-10T06:05:27.664Z</time>
      </trkpt>
      <trkpt lat="48.38418" lon="2.52289">
        <ele>96</ele>
        <time>2022-08-10T06:05:32.645Z</time>
      </trkpt>
      <trkpt lat="48.38415" lon="2.52286">
        <ele>96</ele>
        <time>2022-08-10T06:05:36.656Z</time>
      </trkpt>
      <trkpt lat="48.38412" lon="2.52282">
        <ele>96</ele>
        <time>2022-08-10T06:05:40.651Z</time>
      </trkpt>
      <trkpt lat="48.38412" lon="2.52278">
        <ele>96</ele>
        <time>2022-08-10T06:05:45.647Z</time>
      </trkpt>
      <trkpt lat="48.38412" lon="2.52272">
        <ele>96</ele>
        <time>2022-08-10T06:05:49.653Z</time>
      </trkpt>
      <trkpt lat="48.38411" lon="2.52269">
        <ele>96</ele>
        <time>2022-08-10T06:05:54.653Z</time>
      </trkpt>
      <trkpt lat="48.38409" lon="2.52267">
        <ele>96</ele>
        <time>2022-08-10T06:05:58.652Z</time>
      </trkpt>
      <trkpt lat="48.38405" lon="2.5226">
        <ele>99</ele>
        <time>2022-08-10T06:06:30.657Z</time>
      </trkpt>
      <trkpt lat="48.38406" lon="2.52258">
        <ele>99</ele>
        <time>2022-08-10T06:06:34.673Z</time>
      </trkpt>
      <trkpt lat="48.38405" lon="2.52257">
        <ele>99</ele>
        <time>2022-08-10T06:06:38.662Z</time>
      </trkpt>
      <trkpt lat="48.38405" lon="2.52255">
        <ele>99</ele>
        <time>2022-08-10T06:06:43.646Z</time>
      </trkpt>
      <trkpt lat="48.38405" lon="2.52254">
        <ele>99</ele>
        <time>2022-08-10T06:06:47.642Z</time>
      </trkpt>
      <trkpt lat="48.38403" lon="2.52246">
        <ele>103</ele>
        <time>2022-08-10T06:07:15.654Z</time>
      </trkpt>
      <trkpt lat="48.38404" lon="2.52244">
        <ele>99</ele>
        <time>2022-08-10T06:07:20.653Z</time>
      </trkpt>
      <trkpt lat="48.38404" lon="2.52241">
        <ele>99</ele>
        <time>2022-08-10T06:07:25.653Z</time>
      </trkpt>
      <trkpt lat="48.38405" lon="2.52239">
        <ele>99</ele>
        <time>2022-08-10T06:07:30.652Z</time>
      </trkpt>
      <trkpt lat="48.38406" lon="2.52238">
        <ele>99</ele>
        <time>2022-08-10T06:07:34.686Z</time>
      </trkpt>
      <trkpt lat="48.38402" lon="2.52225">
        <ele>108</ele>
        <time>2022-08-10T06:08:16.651Z</time>
      </trkpt>
      <trkpt lat="48.38402" lon="2.52224">
        <ele>108</ele>
        <time>2022-08-10T06:08:20.714Z</time>
      </trkpt>
      <trkpt lat="48.38398" lon="2.52223">
        <ele>108</ele>
        <time>2022-08-10T06:08:25.665Z</time>
      </trkpt>
      <trkpt lat="48.38396" lon="2.52224">
        <ele>108</ele>
        <time>2022-08-10T06:08:30.649Z</time>
      </trkpt>
      <trkpt lat="48.38397" lon="2.52221">
        <ele>108</ele>
        <time>2022-08-10T06:08:34.669Z</time>
      </trkpt>
      <trkpt lat="48.38398" lon="2.52215">
        <ele>108</ele>
        <time>2022-08-10T06:09:09.695Z</time>
      </trkpt>
      <trkpt lat="48.38399" lon="2.52212">
        <ele>108</ele>
        <time>2022-08-10T06:09:14.669Z</time>
      </trkpt>
      <trkpt lat="48.38395" lon="2.52212">
        <ele>108</ele>
        <time>2022-08-10T06:09:18.686Z</time>
      </trkpt>
      <trkpt lat="48.38393" lon="2.5221">
        <ele>108</ele>
        <time>2022-08-10T06:09:23.672Z</time>
      </trkpt>
      <trkpt lat="48.38392" lon="2.52209">
        <ele>108</ele>
        <time>2022-08-10T06:09:27.693Z</time>
      </trkpt>
      <trkpt lat="48.3839" lon="2.52196">
        <ele>112</ele>
        <time>2022-08-10T06:09:59.670Z</time>
      </trkpt>
      <trkpt lat="48.38388" lon="2.52194">
        <ele>112</ele>
        <time>2022-08-10T06:10:04.698Z</time>
      </trkpt>
      <trkpt lat="48.38384" lon="2.52194">
        <ele>112</ele>
        <time>2022-08-10T06:10:08.709Z</time>
      </trkpt>
      <trkpt lat="48.3838" lon="2.52193">
        <ele>112</ele>
        <time>2022-08-10T06:10:12.708Z</time>
      </trkpt>
      <trkpt lat="48.38377" lon="2.52197">
        <ele>112</ele>
        <time>2022-08-10T06:10:17.692Z</time>
      </trkpt>
      <trkpt lat="48.38373" lon="2.52201">
        <ele>111</ele>
        <time>2022-08-10T06:10:22.713Z</time>
      </trkpt>
      <trkpt lat="48.38368" lon="2.52201">
        <ele>111</ele>
        <time>2022-08-10T06:10:27.700Z</time>
      </trkpt>
      <trkpt lat="48.38365" lon="2.52199">
        <ele>111</ele>
        <time>2022-08-10T06:10:32.711Z</time>
      </trkpt>
      <trkpt lat="48.38364" lon="2.52197">
        <ele>111</ele>
        <time>2022-08-10T06:10:37.644Z</time>
      </trkpt>
      <trkpt lat="48.38365" lon="2.52196">
        <ele>111</ele>
        <time>2022-08-10T06:11:00.647Z</time>
      </trkpt>
      <trkpt lat="48.38364" lon="2.52192">
        <ele>111</ele>
        <time>2022-08-10T06:11:05.653Z</time>
      </trkpt>
      <trkpt lat="48.38363" lon="2.52184">
        <ele>111</ele>
        <time>2022-08-10T06:11:10.646Z</time>
      </trkpt>
      <trkpt lat="48.38364" lon="2.52181">
        <ele>111</ele>
        <time>2022-08-10T06:11:14.648Z</time>
      </trkpt>
      <trkpt lat="48.38367" lon="2.52181">
        <ele>111</ele>
        <time>2022-08-10T06:11:19.654Z</time>
      </trkpt>
      <trkpt lat="48.38367" lon="2.52176">
        <ele>112</ele>
        <time>2022-08-10T06:11:24.657Z</time>
      </trkpt>
      <trkpt lat="48.38369" lon="2.52169">
        <ele>112</ele>
        <time>2022-08-10T06:11:28.648Z</time>
      </trkpt>
      <trkpt lat="48.38368" lon="2.5216">
        <ele>112</ele>
        <time>2022-08-10T06:11:33.663Z</time>
      </trkpt>
      <trkpt lat="48.3837" lon="2.52154">
        <ele>112</ele>
        <time>2022-08-10T06:11:37.652Z</time>
      </trkpt>
      <trkpt lat="48.38374" lon="2.52146">
        <ele>111</ele>
        <time>2022-08-10T06:11:42.655Z</time>
      </trkpt>
      <trkpt lat="48.38377" lon="2.5214">
        <ele>112</ele>
        <time>2022-08-10T06:11:46.663Z</time>
      </trkpt>
      <trkpt lat="48.38379" lon="2.52132">
        <ele>112</ele>
        <time>2022-08-10T06:11:51.657Z</time>
      </trkpt>
      <trkpt lat="48.38381" lon="2.52128">
        <ele>112</ele>
        <time>2022-08-10T06:11:55.651Z</time>
      </trkpt>
      <trkpt lat="48.38388" lon="2.5212">
        <ele>109</ele>
        <time>2022-08-10T06:12:28.659Z</time>
      </trkpt>
      <trkpt lat="48.38388" lon="2.52115">
        <ele>109</ele>
        <time>2022-08-10T06:12:33.649Z</time>
      </trkpt>
      <trkpt lat="48.38389" lon="2.52114">
        <ele>109</ele>
        <time>2022-08-10T06:12:37.661Z</time>
      </trkpt>
      <trkpt lat="48.38389" lon="2.52111">
        <ele>109</ele>
        <time>2022-08-10T06:12:42.656Z</time>
      </trkpt>
      <trkpt lat="48.3839" lon="2.52111">
        <ele>109</ele>
        <time>2022-08-10T06:12:47.642Z</time>
      </trkpt>
      <trkpt lat="48.38391" lon="2.52109">
        <ele>109</ele>
        <time>2022-08-10T06:13:01.654Z</time>
      </trkpt>
      <trkpt lat="48.3839" lon="2.52106">
        <ele>109</ele>
        <time>2022-08-10T06:13:06.651Z</time>
      </trkpt>
      <trkpt lat="48.38392" lon="2.52105">
        <ele>109</ele>
        <time>2022-08-10T06:13:10.656Z</time>
      </trkpt>
      <trkpt lat="48.38395" lon="2.52103">
        <ele>109</ele>
        <time>2022-08-10T06:13:15.642Z</time>
      </trkpt>
      <trkpt lat="48.38395" lon="2.52099">
        <ele>109</ele>
        <time>2022-08-10T06:13:20.661Z</time>
      </trkpt>
      <trkpt lat="48.38397" lon="2.52094">
        <ele>103</ele>
        <time>2022-08-10T06:13:33.649Z</time>
      </trkpt>
      <trkpt lat="48.38398" lon="2.52092">
        <ele>103</ele>
        <time>2022-08-10T06:13:37.669Z</time>
      </trkpt>
      <trkpt lat="48.38399" lon="2.52092">
        <ele>103</ele>
        <time>2022-08-10T06:13:42.657Z</time>
      </trkpt>
      <trkpt lat="48.38402" lon="2.52089">
        <ele>103</ele>
        <time>2022-08-10T06:13:47.648Z</time>
      </trkpt>
      <trkpt lat="48.38402" lon="2.52088">
        <ele>103</ele>
        <time>2022-08-10T06:13:52.659Z</time>
      </trkpt>
      <trkpt lat="48.38405" lon="2.52085">
        <ele>102</ele>
        <time>2022-08-10T06:14:11.652Z</time>
      </trkpt>
      <trkpt lat="48.38405" lon="2.52083">
        <ele>102</ele>
        <time>2022-08-10T06:14:16.649Z</time>
      </trkpt>
      <trkpt lat="48.38407" lon="2.52079">
        <ele>102</ele>
        <time>2022-08-10T06:14:21.683Z</time>
      </trkpt>
      <trkpt lat="48.38407" lon="2.52077">
        <ele>102</ele>
        <time>2022-08-10T06:14:26.658Z</time>
      </trkpt>
      <trkpt lat="48.38409" lon="2.52074">
        <ele>102</ele>
        <time>2022-08-10T06:14:31.689Z</time>
      </trkpt>
      <trkpt lat="48.38412" lon="2.52071">
        <ele>102</ele>
        <time>2022-08-10T06:14:36.681Z</time>
      </trkpt>
      <trkpt lat="48.38415" lon="2.5207">
        <ele>102</ele>
        <time>2022-08-10T06:14:40.691Z</time>
      </trkpt>
      <trkpt lat="48.38417" lon="2.5207">
        <ele>102</ele>
        <time>2022-08-10T06:14:44.708Z</time>
      </trkpt>
      <trkpt lat="48.38421" lon="2.52067">
        <ele>98</ele>
        <time>2022-08-10T06:14:49.649Z</time>
      </trkpt>
      <trkpt lat="48.38424" lon="2.52063">
        <ele>98</ele>
        <time>2022-08-10T06:14:53.689Z</time>
      </trkpt>
      <trkpt lat="48.38429" lon="2.52054">
        <ele>98</ele>
        <time>2022-08-10T06:15:12.694Z</time>
      </trkpt>
      <trkpt lat="48.38432" lon="2.52055">
        <ele>95</ele>
        <time>2022-08-10T06:15:16.708Z</time>
      </trkpt>
      <trkpt lat="48.38433" lon="2.52048">
        <ele>95</ele>
        <time>2022-08-10T06:15:21.692Z</time>
      </trkpt>
      <trkpt lat="48.38434" lon="2.52044">
        <ele>95</ele>
        <time>2022-08-10T06:15:26.685Z</time>
      </trkpt>
      <trkpt lat="48.38437" lon="2.52041">
        <ele>94</ele>
        <time>2022-08-10T06:15:31.693Z</time>
      </trkpt>
      <trkpt lat="48.3844" lon="2.52039">
        <ele>94</ele>
        <time>2022-08-10T06:15:36.705Z</time>
      </trkpt>
      <trkpt lat="48.38442" lon="2.52033">
        <ele>94</ele>
        <time>2022-08-10T06:15:41.691Z</time>
      </trkpt>
      <trkpt lat="48.38443" lon="2.52027">
        <ele>94</ele>
        <time>2022-08-10T06:15:46.689Z</time>
      </trkpt>
      <trkpt lat="48.38446" lon="2.52021">
        <ele>94</ele>
        <time>2022-08-10T06:15:51.689Z</time>
      </trkpt>
      <trkpt lat="48.38448" lon="2.52017">
        <ele>94</ele>
        <time>2022-08-10T06:15:56.702Z</time>
      </trkpt>
      <trkpt lat="48.38452" lon="2.52013">
        <ele>92</ele>
        <time>2022-08-10T06:16:01.691Z</time>
      </trkpt>
      <trkpt lat="48.38455" lon="2.52007">
        <ele>92</ele>
        <time>2022-08-10T06:16:06.698Z</time>
      </trkpt>
      <trkpt lat="48.38457" lon="2.52">
        <ele>92</ele>
        <time>2022-08-10T06:16:11.643Z</time>
      </trkpt>
      <trkpt lat="48.38459" lon="2.51997">
        <ele>92</ele>
        <time>2022-08-10T06:16:15.677Z</time>
      </trkpt>
      <trkpt lat="48.38463" lon="2.51995">
        <ele>92</ele>
        <time>2022-08-10T06:16:20.671Z</time>
      </trkpt>
      <trkpt lat="48.38466" lon="2.51989">
        <ele>92</ele>
        <time>2022-08-10T06:16:24.711Z</time>
      </trkpt>
      <trkpt lat="48.38468" lon="2.5198">
        <ele>93</ele>
        <time>2022-08-10T06:16:29.651Z</time>
      </trkpt>
      <trkpt lat="48.38469" lon="2.51976">
        <ele>93</ele>
        <time>2022-08-10T06:16:33.681Z</time>
      </trkpt>
      <trkpt lat="48.38472" lon="2.51971">
        <ele>93</ele>
        <time>2022-08-10T06:16:38.679Z</time>
      </trkpt>
      <trkpt lat="48.38472" lon="2.51966">
        <ele>93</ele>
        <time>2022-08-10T06:16:42.694Z</time>
      </trkpt>
      <trkpt lat="48.38472" lon="2.5196">
        <ele>93</ele>
        <time>2022-08-10T06:16:47.697Z</time>
      </trkpt>
      <trkpt lat="48.38476" lon="2.51952">
        <ele>93</ele>
        <time>2022-08-10T06:17:02.688Z</time>
      </trkpt>
      <trkpt lat="48.38477" lon="2.51951">
        <ele>93</ele>
        <time>2022-08-10T06:17:07.698Z</time>
      </trkpt>
      <trkpt lat="48.38476" lon="2.51949">
        <ele>93</ele>
        <time>2022-08-10T06:17:12.670Z</time>
      </trkpt>
      <trkpt lat="48.38476" lon="2.51948">
        <ele>93</ele>
        <time>2022-08-10T06:17:16.674Z</time>
      </trkpt>
      <trkpt lat="48.3848" lon="2.51945">
        <ele>93</ele>
        <time>2022-08-10T06:17:20.691Z</time>
      </trkpt>
      <trkpt lat="48.38483" lon="2.51944">
        <ele>93</ele>
        <time>2022-08-10T06:17:34.708Z</time>
      </trkpt>
      <trkpt lat="48.38484" lon="2.5194">
        <ele>93</ele>
        <time>2022-08-10T06:17:39.670Z</time>
      </trkpt>
      <trkpt lat="48.38485" lon="2.51938">
        <ele>93</ele>
        <time>2022-08-10T06:17:43.710Z</time>
      </trkpt>
      <trkpt lat="48.38482" lon="2.51935">
        <ele>93</ele>
        <time>2022-08-10T06:17:48.713Z</time>
      </trkpt>
      <trkpt lat="48.38481" lon="2.51929">
        <ele>93</ele>
        <time>2022-08-10T06:17:53.654Z</time>
      </trkpt>
      <trkpt lat="48.3848" lon="2.5192">
        <ele>93</ele>
        <time>2022-08-10T06:18:33.657Z</time>
      </trkpt>
      <trkpt lat="48.3848" lon="2.51915">
        <ele>93</ele>
        <time>2022-08-10T06:18:38.658Z</time>
      </trkpt>
      <trkpt lat="48.38479" lon="2.5191">
        <ele>93</ele>
        <time>2022-08-10T06:18:43.655Z</time>
      </trkpt>
      <trkpt lat="48.38478" lon="2.51908">
        <ele>93</ele>
        <time>2022-08-10T06:18:47.659Z</time>
      </trkpt>
      <trkpt lat="48.38478" lon="2.51904">
        <ele>93</ele>
        <time>2022-08-10T06:18:52.666Z</time>
      </trkpt>
      <trkpt lat="48.38478" lon="2.51901">
        <ele>92</ele>
        <time>2022-08-10T06:18:57.666Z</time>
      </trkpt>
      <trkpt lat="48.38479" lon="2.51898">
        <ele>92</ele>
        <time>2022-08-10T06:19:01.651Z</time>
      </trkpt>
      <trkpt lat="48.3848" lon="2.5189">
        <ele>92</ele>
        <time>2022-08-10T06:19:06.660Z</time>
      </trkpt>
      <trkpt lat="48.3848" lon="2.51887">
        <ele>92</ele>
        <time>2022-08-10T06:19:11.656Z</time>
      </trkpt>
      <trkpt lat="48.38482" lon="2.51882">
        <ele>92</ele>
        <time>2022-08-10T06:19:21.650Z</time>
      </trkpt>
      <trkpt lat="48.38479" lon="2.51882">
        <ele>92</ele>
        <time>2022-08-10T06:19:26.654Z</time>
      </trkpt>
      <trkpt lat="48.38479" lon="2.5188">
        <ele>92</ele>
        <time>2022-08-10T06:19:31.644Z</time>
      </trkpt>
      <trkpt lat="48.38476" lon="2.51877">
        <ele>92</ele>
        <time>2022-08-10T06:19:35.662Z</time>
      </trkpt>
      <trkpt lat="48.38475" lon="2.51872">
        <ele>88</ele>
        <time>2022-08-10T06:19:40.661Z</time>
      </trkpt>
      <trkpt lat="48.38473" lon="2.5187">
        <ele>88</ele>
        <time>2022-08-10T06:19:44.652Z</time>
      </trkpt>
      <trkpt lat="48.38472" lon="2.51864">
        <ele>88</ele>
        <time>2022-08-10T06:19:49.667Z</time>
      </trkpt>
      <trkpt lat="48.3847" lon="2.51858">
        <ele>88</ele>
        <time>2022-08-10T06:19:54.650Z</time>
      </trkpt>
      <trkpt lat="48.38468" lon="2.51856">
        <ele>88</ele>
        <time>2022-08-10T06:19:59.650Z</time>
      </trkpt>
      <trkpt lat="48.38467" lon="2.51854">
        <ele>88</ele>
        <time>2022-08-10T06:20:13.679Z</time>
      </trkpt>
      <trkpt lat="48.38467" lon="2.51854">
        <ele>88</ele>
        <time>2022-08-10T06:20:17.675Z</time>
      </trkpt>
      <trkpt lat="48.38465" lon="2.5185">
        <ele>88</ele>
        <time>2022-08-10T06:20:22.694Z</time>
      </trkpt>
      <trkpt lat="48.38465" lon="2.51848">
        <ele>88</ele>
        <time>2022-08-10T06:20:26.697Z</time>
      </trkpt>
      <trkpt lat="48.38462" lon="2.51842">
        <ele>85</ele>
        <time>2022-08-10T06:20:31.688Z</time>
      </trkpt>
      <trkpt lat="48.38465" lon="2.51835">
        <ele>85</ele>
        <time>2022-08-10T06:20:35.681Z</time>
      </trkpt>
      <trkpt lat="48.38462" lon="2.51833">
        <ele>85</ele>
        <time>2022-08-10T06:20:40.679Z</time>
      </trkpt>
      <trkpt lat="48.3846" lon="2.51829">
        <ele>85</ele>
        <time>2022-08-10T06:20:44.681Z</time>
      </trkpt>
      <trkpt lat="48.38455" lon="2.51827">
        <ele>83</ele>
        <time>2022-08-10T06:20:49.666Z</time>
      </trkpt>
      <trkpt lat="48.38451" lon="2.51831">
        <ele>83</ele>
        <time>2022-08-10T06:20:53.699Z</time>
      </trkpt>
      <trkpt lat="48.38448" lon="2.51831">
        <ele>83</ele>
        <time>2022-08-10T06:20:58.705Z</time>
      </trkpt>
      <trkpt lat="48.38445" lon="2.51831">
        <ele>83</ele>
        <time>2022-08-10T06:21:02.689Z</time>
      </trkpt>
      <trkpt lat="48.38441" lon="2.51826">
        <ele>83</ele>
        <time>2022-08-10T06:21:07.662Z</time>
      </trkpt>
      <trkpt lat="48.38439" lon="2.51818">
        <ele>81</ele>
        <time>2022-08-10T06:21:11.689Z</time>
      </trkpt>
      <trkpt lat="48.38438" lon="2.5181">
        <ele>81</ele>
        <time>2022-08-10T06:21:15.713Z</time>
      </trkpt>
      <trkpt lat="48.38432" lon="2.51808">
        <ele>81</ele>
        <time>2022-08-10T06:21:20.709Z</time>
      </trkpt>
      <trkpt lat="48.38427" lon="2.51806">
        <ele>83</ele>
        <time>2022-08-10T06:21:25.706Z</time>
      </trkpt>
      <trkpt lat="48.38422" lon="2.51802">
        <ele>83</ele>
        <time>2022-08-10T06:21:40.645Z</time>
      </trkpt>
      <trkpt lat="48.38421" lon="2.51799">
        <ele>83</ele>
        <time>2022-08-10T06:21:44.642Z</time>
      </trkpt>
      <trkpt lat="48.38415" lon="2.51797">
        <ele>83</ele>
        <time>2022-08-10T06:21:48.661Z</time>
      </trkpt>
      <trkpt lat="48.3841" lon="2.51795">
        <ele>83</ele>
        <time>2022-08-10T06:21:53.648Z</time>
      </trkpt>
      <trkpt lat="48.38408" lon="2.51792">
        <ele>83</ele>
        <time>2022-08-10T06:21:57.664Z</time>
      </trkpt>
      <trkpt lat="48.38402" lon="2.51783">
        <ele>87</ele>
        <time>2022-08-10T06:22:06.660Z</time>
      </trkpt>
      <trkpt lat="48.38402" lon="2.5178">
        <ele>87</ele>
        <time>2022-08-10T06:22:10.701Z</time>
      </trkpt>
      <trkpt lat="48.384" lon="2.51779">
        <ele>87</ele>
        <time>2022-08-10T06:22:15.694Z</time>
      </trkpt>
      <trkpt lat="48.38398" lon="2.51781">
        <ele>87</ele>
        <time>2022-08-10T06:22:20.645Z</time>
      </trkpt>
      <trkpt lat="48.38396" lon="2.51779">
        <ele>87</ele>
        <time>2022-08-10T06:22:24.662Z</time>
      </trkpt>
      <trkpt lat="48.38394" lon="2.51774">
        <ele>87</ele>
        <time>2022-08-10T06:22:37.703Z</time>
      </trkpt>
      <trkpt lat="48.38393" lon="2.51772">
        <ele>87</ele>
        <time>2022-08-10T06:22:41.699Z</time>
      </trkpt>
      <trkpt lat="48.38392" lon="2.51771">
        <ele>87</ele>
        <time>2022-08-10T06:22:46.687Z</time>
      </trkpt>
      <trkpt lat="48.3839" lon="2.5177">
        <ele>87</ele>
        <time>2022-08-10T06:22:51.703Z</time>
      </trkpt>
      <trkpt lat="48.38387" lon="2.51771">
        <ele>87</ele>
        <time>2022-08-10T06:22:56.688Z</time>
      </trkpt>
      <trkpt lat="48.38379" lon="2.5177">
        <ele>87</ele>
        <time>2022-08-10T06:23:52.645Z</time>
      </trkpt>
      <trkpt lat="48.38378" lon="2.51775">
        <ele>87</ele>
        <time>2022-08-10T06:23:56.676Z</time>
      </trkpt>
      <trkpt lat="48.38376" lon="2.51776">
        <ele>87</ele>
        <time>2022-08-10T06:24:00.692Z</time>
      </trkpt>
      <trkpt lat="48.38375" lon="2.51779">
        <ele>93</ele>
        <time>2022-08-10T06:24:04.707Z</time>
      </trkpt>
      <trkpt lat="48.38371" lon="2.51785">
        <ele>93</ele>
        <time>2022-08-10T06:24:09.710Z</time>
      </trkpt>
      <trkpt lat="48.38366" lon="2.51786">
        <ele>93</ele>
        <time>2022-08-10T06:24:18.711Z</time>
      </trkpt>
      <trkpt lat="48.38366" lon="2.51784">
        <ele>93</ele>
        <time>2022-08-10T06:24:23.674Z</time>
      </trkpt>
      <trkpt lat="48.38364" lon="2.51783">
        <ele>93</ele>
        <time>2022-08-10T06:24:27.693Z</time>
      </trkpt>
      <trkpt lat="48.38362" lon="2.51782">
        <ele>93</ele>
        <time>2022-08-10T06:24:31.689Z</time>
      </trkpt>
      <trkpt lat="48.38358" lon="2.51782">
        <ele>93</ele>
        <time>2022-08-10T06:24:36.668Z</time>
      </trkpt>
      <trkpt lat="48.38356" lon="2.51776">
        <ele>93</ele>
        <time>2022-08-10T06:25:33.647Z</time>
      </trkpt>
      <trkpt lat="48.38356" lon="2.51773">
        <ele>93</ele>
        <time>2022-08-10T06:25:37.654Z</time>
      </trkpt>
      <trkpt lat="48.38353" lon="2.51771">
        <ele>93</ele>
        <time>2022-08-10T06:25:42.656Z</time>
      </trkpt>
      <trkpt lat="48.38354" lon="2.51768">
        <ele>93</ele>
        <time>2022-08-10T06:25:46.652Z</time>
      </trkpt>
      <trkpt lat="48.38354" lon="2.51765">
        <ele>93</ele>
        <time>2022-08-10T06:25:50.655Z</time>
      </trkpt>
      <trkpt lat="48.3835" lon="2.51764">
        <ele>93</ele>
        <time>2022-08-10T06:25:55.654Z</time>
      </trkpt>
      <trkpt lat="48.38349" lon="2.51764">
        <ele>93</ele>
        <time>2022-08-10T06:26:00.662Z</time>
      </trkpt>
      <trkpt lat="48.38346" lon="2.51762">
        <ele>101</ele>
        <time>2022-08-10T06:26:04.654Z</time>
      </trkpt>
      <trkpt lat="48.38344" lon="2.5176">
        <ele>101</ele>
        <time>2022-08-10T06:26:09.652Z</time>
      </trkpt>
      <trkpt lat="48.3834" lon="2.51757">
        <ele>101</ele>
        <time>2022-08-10T06:26:14.659Z</time>
      </trkpt>
      <trkpt lat="48.38341" lon="2.51756">
        <ele>101</ele>
        <time>2022-08-10T06:26:24.668Z</time>
      </trkpt>
      <trkpt lat="48.38339" lon="2.51754">
        <ele>101</ele>
        <time>2022-08-10T06:26:29.658Z</time>
      </trkpt>
      <trkpt lat="48.38339" lon="2.51751">
        <ele>101</ele>
        <time>2022-08-10T06:26:34.662Z</time>
      </trkpt>
      <trkpt lat="48.38338" lon="2.51748">
        <ele>101</ele>
        <time>2022-08-10T06:26:39.656Z</time>
      </trkpt>
      <trkpt lat="48.38337" lon="2.51746">
        <ele>101</ele>
        <time>2022-08-10T06:26:44.652Z</time>
      </trkpt>
      <trkpt lat="48.3833" lon="2.5174">
        <ele>101</ele>
        <time>2022-08-10T06:27:25.649Z</time>
      </trkpt>
      <trkpt lat="48.3833" lon="2.51734">
        <ele>104</ele>
        <time>2022-08-10T06:27:29.653Z</time>
      </trkpt>
      <trkpt lat="48.3833" lon="2.51732">
        <ele>104</ele>
        <time>2022-08-10T06:27:33.670Z</time>
      </trkpt>
      <trkpt lat="48.38329" lon="2.51732">
        <ele>104</ele>
        <time>2022-08-10T06:27:38.659Z</time>
      </trkpt>
      <trkpt lat="48.38328" lon="2.5173">
        <ele>104</ele>
        <time>2022-08-10T06:27:42.657Z</time>
      </trkpt>
      <trkpt lat="48.38328" lon="2.51728">
        <ele>104</ele>
        <time>2022-08-10T06:29:52.655Z</time>
      </trkpt>
      <trkpt lat="48.38325" lon="2.51729">
        <ele>104</ele>
        <time>2022-08-10T06:29:56.654Z</time>
      </trkpt>
      <trkpt lat="48.38323" lon="2.51734">
        <ele>104</ele>
        <time>2022-08-10T06:30:01.652Z</time>
      </trkpt>
      <trkpt lat="48.38321" lon="2.51734">
        <ele>104</ele>
        <time>2022-08-10T06:30:05.650Z</time>
      </trkpt>
      <trkpt lat="48.38317" lon="2.51734">
        <ele>103</ele>
        <time>2022-08-10T06:30:10.643Z</time>
      </trkpt>
      <trkpt lat="48.38313" lon="2.51736">
        <ele>103</ele>
        <time>2022-08-10T06:30:14.646Z</time>
      </trkpt>
      <trkpt lat="48.38311" lon="2.51734">
        <ele>103</ele>
        <time>2022-08-10T06:30:19.650Z</time>
      </trkpt>
      <trkpt lat="48.38308" lon="2.51737">
        <ele>102</ele>
        <time>2022-08-10T06:30:23.657Z</time>
      </trkpt>
      <trkpt lat="48.38305" lon="2.51737">
        <ele>102</ele>
        <time>2022-08-10T06:30:28.664Z</time>
      </trkpt>
      <trkpt lat="48.38303" lon="2.51736">
        <ele>103</ele>
        <time>2022-08-10T06:30:32.670Z</time>
      </trkpt>
      <trkpt lat="48.38298" lon="2.5173">
        <ele>103</ele>
        <time>2022-08-10T06:31:36.644Z</time>
      </trkpt>
      <trkpt lat="48.38298" lon="2.51729">
        <ele>103</ele>
        <time>2022-08-10T06:31:40.666Z</time>
      </trkpt>
      <trkpt lat="48.38299" lon="2.51722">
        <ele>103</ele>
        <time>2022-08-10T06:31:44.649Z</time>
      </trkpt>
      <trkpt lat="48.38299" lon="2.5172">
        <ele>103</ele>
        <time>2022-08-10T06:31:48.659Z</time>
      </trkpt>
      <trkpt lat="48.38298" lon="2.51719">
        <ele>103</ele>
        <time>2022-08-10T06:31:53.638Z</time>
      </trkpt>
      <trkpt lat="48.38295" lon="2.51712">
        <ele>103</ele>
        <time>2022-08-10T06:31:57.647Z</time>
      </trkpt>
      <trkpt lat="48.38303" lon="2.51719">
        <ele>103</ele>
        <time>2022-08-10T06:32:02.634Z</time>
      </trkpt>
      <trkpt lat="48.38305" lon="2.51728">
        <ele>103</ele>
        <time>2022-08-10T06:32:07.634Z</time>
      </trkpt>
      <trkpt lat="48.38305" lon="2.51739">
        <ele>102</ele>
        <time>2022-08-10T06:32:11.638Z</time>
      </trkpt>
      <trkpt lat="48.38301" lon="2.51737">
        <ele>102</ele>
        <time>2022-08-10T06:32:30.662Z</time>
      </trkpt>
      <trkpt lat="48.383" lon="2.51729">
        <ele>103</ele>
        <time>2022-08-10T06:32:35.656Z</time>
      </trkpt>
      <trkpt lat="48.38299" lon="2.51726">
        <ele>103</ele>
        <time>2022-08-10T06:32:39.659Z</time>
      </trkpt>
      <trkpt lat="48.38302" lon="2.51723">
        <ele>103</ele>
        <time>2022-08-10T06:32:44.655Z</time>
      </trkpt>
      <trkpt lat="48.38303" lon="2.51721">
        <ele>103</ele>
        <time>2022-08-10T06:32:49.649Z</time>
      </trkpt>
      <trkpt lat="48.38302" lon="2.51719">
        <ele>103</ele>
        <time>2022-08-10T06:33:25.656Z</time>
      </trkpt>
      <trkpt lat="48.383" lon="2.51713">
        <ele>103</ele>
        <time>2022-08-10T06:33:30.646Z</time>
      </trkpt>
      <trkpt lat="48.38299" lon="2.5171">
        <ele>103</ele>
        <time>2022-08-10T06:33:34.653Z</time>
      </trkpt>
      <trkpt lat="48.38301" lon="2.51708">
        <ele>101</ele>
        <time>2022-08-10T06:33:38.648Z</time>
      </trkpt>
      <trkpt lat="48.38301" lon="2.51705">
        <ele>101</ele>
        <time>2022-08-10T06:33:42.655Z</time>
      </trkpt>
      <trkpt lat="48.38304" lon="2.51691">
        <ele>101</ele>
        <time>2022-08-10T06:34:12.650Z</time>
      </trkpt>
      <trkpt lat="48.38303" lon="2.51688">
        <ele>101</ele>
        <time>2022-08-10T06:34:17.642Z</time>
      </trkpt>
      <trkpt lat="48.38306" lon="2.51686">
        <ele>101</ele>
        <time>2022-08-10T06:34:22.659Z</time>
      </trkpt>
      <trkpt lat="48.38307" lon="2.5168">
        <ele>98</ele>
        <time>2022-08-10T06:34:26.660Z</time>
      </trkpt>
      <trkpt lat="48.38305" lon="2.51678">
        <ele>98</ele>
        <time>2022-08-10T06:34:31.644Z</time>
      </trkpt>
      <trkpt lat="48.38307" lon="2.51676">
        <ele>98</ele>
        <time>2022-08-10T06:34:45.647Z</time>
      </trkpt>
      <trkpt lat="48.38306" lon="2.5167">
        <ele>98</ele>
        <time>2022-08-10T06:34:50.652Z</time>
      </trkpt>
      <trkpt lat="48.38308" lon="2.51666">
        <ele>98</ele>
        <time>2022-08-10T06:34:54.651Z</time>
      </trkpt>
      <trkpt lat="48.38305" lon="2.51664">
        <ele>98</ele>
        <time>2022-08-10T06:34:58.650Z</time>
      </trkpt>
      <trkpt lat="48.38306" lon="2.51662">
        <ele>98</ele>
        <time>2022-08-10T06:35:03.646Z</time>
      </trkpt>
      <trkpt lat="48.38313" lon="2.51655">
        <ele>98</ele>
        <time>2022-08-10T06:35:54.662Z</time>
      </trkpt>
      <trkpt lat="48.38315" lon="2.51654">
        <ele>98</ele>
        <time>2022-08-10T06:35:59.651Z</time>
      </trkpt>
      <trkpt lat="48.38315" lon="2.51653">
        <ele>98</ele>
        <time>2022-08-10T06:36:03.651Z</time>
      </trkpt>
      <trkpt lat="48.38315" lon="2.51648">
        <ele>95</ele>
        <time>2022-08-10T06:36:07.656Z</time>
      </trkpt>
      <trkpt lat="48.38315" lon="2.51646">
        <ele>95</ele>
        <time>2022-08-10T06:36:11.659Z</time>
      </trkpt>
      <trkpt lat="48.38316" lon="2.51642">
        <ele>95</ele>
        <time>2022-08-10T06:36:59.646Z</time>
      </trkpt>
      <trkpt lat="48.3832" lon="2.51637">
        <ele>94</ele>
        <time>2022-08-10T06:37:04.671Z</time>
      </trkpt>
      <trkpt lat="48.38323" lon="2.51639">
        <ele>94</ele>
        <time>2022-08-10T06:37:09.654Z</time>
      </trkpt>
      <trkpt lat="48.38324" lon="2.51635">
        <ele>94</ele>
        <time>2022-08-10T06:37:13.655Z</time>
      </trkpt>
      <trkpt lat="48.38326" lon="2.51634">
        <ele>94</ele>
        <time>2022-08-10T06:37:18.649Z</time>
      </trkpt>
      <trkpt lat="48.3833" lon="2.51633">
        <ele>94</ele>
        <time>2022-08-10T06:37:41.657Z</time>
      </trkpt>
      <trkpt lat="48.38329" lon="2.51631">
        <ele>94</ele>
        <time>2022-08-10T06:37:45.646Z</time>
      </trkpt>
      <trkpt lat="48.38329" lon="2.51628">
        <ele>94</ele>
        <time>2022-08-10T06:37:50.652Z</time>
      </trkpt>
      <trkpt lat="48.3833" lon="2.51623">
        <ele>92</ele>
        <time>2022-08-10T06:37:54.653Z</time>
      </trkpt>
      <trkpt lat="48.3833" lon="2.51617">
        <ele>92</ele>
        <time>2022-08-10T06:37:58.664Z</time>
      </trkpt>
      <trkpt lat="48.38331" lon="2.51614">
        <ele>92</ele>
        <time>2022-08-10T06:38:03.660Z</time>
      </trkpt>
      <trkpt lat="48.38331" lon="2.51612">
        <ele>92</ele>
        <time>2022-08-10T06:38:08.650Z</time>
      </trkpt>
      <trkpt lat="48.38339" lon="2.51604">
        <ele>92</ele>
        <time>2022-08-10T06:38:13.681Z</time>
      </trkpt>
      <trkpt lat="48.38341" lon="2.51601">
        <ele>92</ele>
        <time>2022-08-10T06:38:18.648Z</time>
      </trkpt>
      <trkpt lat="48.38343" lon="2.5159">
        <ele>91</ele>
        <time>2022-08-10T06:38:22.675Z</time>
      </trkpt>
      <trkpt lat="48.38342" lon="2.51578">
        <ele>91</ele>
        <time>2022-08-10T06:38:27.674Z</time>
      </trkpt>
      <trkpt lat="48.38341" lon="2.51569">
        <ele>92</ele>
        <time>2022-08-10T06:38:31.690Z</time>
      </trkpt>
      <trkpt lat="48.3834" lon="2.51559">
        <ele>92</ele>
        <time>2022-08-10T06:38:36.663Z</time>
      </trkpt>
      <trkpt lat="48.38343" lon="2.51554">
        <ele>92</ele>
        <time>2022-08-10T06:38:41.646Z</time>
      </trkpt>
      <trkpt lat="48.38344" lon="2.5155">
        <ele>92</ele>
        <time>2022-08-10T06:38:46.653Z</time>
      </trkpt>
      <trkpt lat="48.38346" lon="2.51548">
        <ele>92</ele>
        <time>2022-08-10T06:38:50.671Z</time>
      </trkpt>
      <trkpt lat="48.38348" lon="2.51545">
        <ele>88</ele>
        <time>2022-08-10T06:38:55.649Z</time>
      </trkpt>
      <trkpt lat="48.38351" lon="2.51544">
        <ele>88</ele>
        <time>2022-08-10T06:39:00.645Z</time>
      </trkpt>
      <trkpt lat="48.38352" lon="2.5154">
        <ele>92</ele>
        <time>2022-08-10T06:39:09.641Z</time>
      </trkpt>
      <trkpt lat="48.38352" lon="2.51537">
        <ele>92</ele>
        <time>2022-08-10T06:39:13.654Z</time>
      </trkpt>
      <trkpt lat="48.38352" lon="2.51533">
        <ele>92</ele>
        <time>2022-08-10T06:39:17.691Z</time>
      </trkpt>
      <trkpt lat="48.38352" lon="2.51529">
        <ele>92</ele>
        <time>2022-08-10T06:39:22.647Z</time>
      </trkpt>
      <trkpt lat="48.38354" lon="2.51526">
        <ele>92</ele>
        <time>2022-08-10T06:39:27.659Z</time>
      </trkpt>
      <trkpt lat="48.38358" lon="2.51525">
        <ele>92</ele>
        <time>2022-08-10T06:39:31.678Z</time>
      </trkpt>
      <trkpt lat="48.38351" lon="2.51526">
        <ele>92</ele>
        <time>2022-08-10T06:39:36.658Z</time>
      </trkpt>
      <trkpt lat="48.3835" lon="2.51525">
        <ele>92</ele>
        <time>2022-08-10T06:39:40.700Z</time>
      </trkpt>
      <trkpt lat="48.38349" lon="2.51522">
        <ele>92</ele>
        <time>2022-08-10T06:39:45.677Z</time>
      </trkpt>
      <trkpt lat="48.38348" lon="2.51518">
        <ele>92</ele>
        <time>2022-08-10T06:39:49.670Z</time>
      </trkpt>
      <trkpt lat="48.38348" lon="2.51514">
        <ele>92</ele>
        <time>2022-08-10T06:39:54.693Z</time>
      </trkpt>
      <trkpt lat="48.38349" lon="2.51511">
        <ele>95</ele>
        <time>2022-08-10T06:39:59.658Z</time>
      </trkpt>
      <trkpt lat="48.38351" lon="2.51507">
        <ele>95</ele>
        <time>2022-08-10T06:40:04.670Z</time>
      </trkpt>
      <trkpt lat="48.38356" lon="2.51505">
        <ele>95</ele>
        <time>2022-08-10T06:40:09.675Z</time>
      </trkpt>
      <trkpt lat="48.38356" lon="2.51502">
        <ele>95</ele>
        <time>2022-08-10T06:40:19.645Z</time>
      </trkpt>
      <trkpt lat="48.38356" lon="2.51496">
        <ele>95</ele>
        <time>2022-08-10T06:40:23.643Z</time>
      </trkpt>
      <trkpt lat="48.38355" lon="2.51495">
        <ele>95</ele>
        <time>2022-08-10T06:40:28.656Z</time>
      </trkpt>
      <trkpt lat="48.38354" lon="2.51491">
        <ele>95</ele>
        <time>2022-08-10T06:40:33.649Z</time>
      </trkpt>
      <trkpt lat="48.38352" lon="2.51489">
        <ele>95</ele>
        <time>2022-08-10T06:40:37.645Z</time>
      </trkpt>
      <trkpt lat="48.38351" lon="2.51481">
        <ele>96</ele>
        <time>2022-08-10T06:40:42.650Z</time>
      </trkpt>
      <trkpt lat="48.3835" lon="2.51475">
        <ele>96</ele>
        <time>2022-08-10T06:40:46.657Z</time>
      </trkpt>
      <trkpt lat="48.38348" lon="2.51467">
        <ele>96</ele>
        <time>2022-08-10T06:40:51.662Z</time>
      </trkpt>
      <trkpt lat="48.38346" lon="2.51459">
        <ele>95</ele>
        <time>2022-08-10T06:40:56.646Z</time>
      </trkpt>
      <trkpt lat="48.38344" lon="2.51453">
        <ele>94</ele>
        <time>2022-08-10T06:41:01.652Z</time>
      </trkpt>
      <trkpt lat="48.38342" lon="2.51449">
        <ele>94</ele>
        <time>2022-08-10T06:41:06.666Z</time>
      </trkpt>
      <trkpt lat="48.38339" lon="2.51443">
        <ele>94</ele>
        <time>2022-08-10T06:41:11.641Z</time>
      </trkpt>
      <trkpt lat="48.38338" lon="2.51435">
        <ele>94</ele>
        <time>2022-08-10T06:41:16.648Z</time>
      </trkpt>
      <trkpt lat="48.38338" lon="2.51426">
        <ele>93</ele>
        <time>2022-08-10T06:41:20.666Z</time>
      </trkpt>
      <trkpt lat="48.38338" lon="2.51415">
        <ele>93</ele>
        <time>2022-08-10T06:41:25.662Z</time>
      </trkpt>
      <trkpt lat="48.38337" lon="2.51414">
        <ele>93</ele>
        <time>2022-08-10T06:41:30.656Z</time>
      </trkpt>
      <trkpt lat="48.38331" lon="2.51411">
        <ele>93</ele>
        <time>2022-08-10T06:41:35.652Z</time>
      </trkpt>
      <trkpt lat="48.38331" lon="2.51407">
        <ele>93</ele>
        <time>2022-08-10T06:41:39.646Z</time>
      </trkpt>
      <trkpt lat="48.38328" lon="2.51401">
        <ele>91</ele>
        <time>2022-08-10T06:41:44.649Z</time>
      </trkpt>
      <trkpt lat="48.38325" lon="2.51395">
        <ele>91</ele>
        <time>2022-08-10T06:41:49.664Z</time>
      </trkpt>
      <trkpt lat="48.38324" lon="2.51396">
        <ele>91</ele>
        <time>2022-08-10T06:41:54.651Z</time>
      </trkpt>
      <trkpt lat="48.38321" lon="2.51389">
        <ele>91</ele>
        <time>2022-08-10T06:42:22.647Z</time>
      </trkpt>
      <trkpt lat="48.38317" lon="2.51384">
        <ele>85</ele>
        <time>2022-08-10T06:42:26.669Z</time>
      </trkpt>
      <trkpt lat="48.38312" lon="2.51381">
        <ele>85</ele>
        <time>2022-08-10T06:42:31.681Z</time>
      </trkpt>
      <trkpt lat="48.38308" lon="2.51379">
        <ele>85</ele>
        <time>2022-08-10T06:42:35.686Z</time>
      </trkpt>
      <trkpt lat="48.38304" lon="2.51381">
        <ele>85</ele>
        <time>2022-08-10T06:42:40.674Z</time>
      </trkpt>
      <trkpt lat="48.38302" lon="2.51374">
        <ele>84</ele>
        <time>2022-08-10T06:42:50.668Z</time>
      </trkpt>
      <trkpt lat="48.38299" lon="2.51371">
        <ele>84</ele>
        <time>2022-08-10T06:42:55.650Z</time>
      </trkpt>
      <trkpt lat="48.38298" lon="2.51372">
        <ele>84</ele>
        <time>2022-08-10T06:42:59.694Z</time>
      </trkpt>
      <trkpt lat="48.383" lon="2.51368">
        <ele>84</ele>
        <time>2022-08-10T06:43:04.652Z</time>
      </trkpt>
      <trkpt lat="48.383" lon="2.51358">
        <ele>84</ele>
        <time>2022-08-10T06:43:09.649Z</time>
      </trkpt>
      <trkpt lat="48.383" lon="2.51352">
        <ele>84</ele>
        <time>2022-08-10T06:43:14.652Z</time>
      </trkpt>
      <trkpt lat="48.38301" lon="2.51348">
        <ele>84</ele>
        <time>2022-08-10T06:43:18.686Z</time>
      </trkpt>
      <trkpt lat="48.38299" lon="2.5134">
        <ele>83</ele>
        <time>2022-08-10T06:43:23.667Z</time>
      </trkpt>
      <trkpt lat="48.38298" lon="2.51332">
        <ele>83</ele>
        <time>2022-08-10T06:43:28.651Z</time>
      </trkpt>
      <trkpt lat="48.38295" lon="2.51328">
        <ele>83</ele>
        <time>2022-08-10T06:43:32.688Z</time>
      </trkpt>
      <trkpt lat="48.38289" lon="2.51327">
        <ele>81</ele>
        <time>2022-08-10T06:43:37.684Z</time>
      </trkpt>
      <trkpt lat="48.38285" lon="2.51325">
        <ele>81</ele>
        <time>2022-08-10T06:43:41.693Z</time>
      </trkpt>
      <trkpt lat="48.38284" lon="2.51324">
        <ele>81</ele>
        <time>2022-08-10T06:43:45.690Z</time>
      </trkpt>
      <trkpt lat="48.3828" lon="2.51321">
        <ele>81</ele>
        <time>2022-08-10T06:43:50.661Z</time>
      </trkpt>
      <trkpt lat="48.38278" lon="2.5132">
        <ele>81</ele>
        <time>2022-08-10T06:43:54.664Z</time>
      </trkpt>
      <trkpt lat="48.38276" lon="2.51318">
        <ele>82</ele>
        <time>2022-08-10T06:43:58.697Z</time>
      </trkpt>
      <trkpt lat="48.38275" lon="2.51313">
        <ele>82</ele>
        <time>2022-08-10T06:44:03.710Z</time>
      </trkpt>
      <trkpt lat="48.38274" lon="2.51308">
        <ele>82</ele>
        <time>2022-08-10T06:44:08.683Z</time>
      </trkpt>
      <trkpt lat="48.38271" lon="2.51302">
        <ele>82</ele>
        <time>2022-08-10T06:44:13.699Z</time>
      </trkpt>
      <trkpt lat="48.38268" lon="2.51297">
        <ele>82</ele>
        <time>2022-08-10T06:44:17.696Z</time>
      </trkpt>
      <trkpt lat="48.38264" lon="2.51295">
        <ele>82</ele>
        <time>2022-08-10T06:44:22.703Z</time>
      </trkpt>
      <trkpt lat="48.38261" lon="2.51291">
        <ele>83</ele>
        <time>2022-08-10T06:44:27.698Z</time>
      </trkpt>
      <trkpt lat="48.38257" lon="2.51282">
        <ele>83</ele>
        <time>2022-08-10T06:44:32.656Z</time>
      </trkpt>
      <trkpt lat="48.38255" lon="2.51279">
        <ele>83</ele>
        <time>2022-08-10T06:44:36.696Z</time>
      </trkpt>
      <trkpt lat="48.38251" lon="2.51274">
        <ele>83</ele>
        <time>2022-08-10T06:44:41.699Z</time>
      </trkpt>
      <trkpt lat="48.38247" lon="2.5127">
        <ele>83</ele>
        <time>2022-08-10T06:44:46.709Z</time>
      </trkpt>
      <trkpt lat="48.38235" lon="2.51264">
        <ele>89</ele>
        <time>2022-08-10T06:45:00.688Z</time>
      </trkpt>
      <trkpt lat="48.38235" lon="2.51263">
        <ele>89</ele>
        <time>2022-08-10T06:45:05.697Z</time>
      </trkpt>
      <trkpt lat="48.38235" lon="2.51263">
        <ele>89</ele>
        <time>2022-08-10T06:45:09.696Z</time>
      </trkpt>
      <trkpt lat="48.38235" lon="2.51262">
        <ele>89</ele>
        <time>2022-08-10T06:45:14.709Z</time>
      </trkpt>
      <trkpt lat="48.38232" lon="2.51262">
        <ele>89</ele>
        <time>2022-08-10T06:45:19.689Z</time>
      </trkpt>
      <trkpt lat="48.38229" lon="2.51262">
        <ele>89</ele>
        <time>2022-08-10T06:45:24.700Z</time>
      </trkpt>
      <trkpt lat="48.38227" lon="2.51257">
        <ele>89</ele>
        <time>2022-08-10T06:45:29.700Z</time>
      </trkpt>
      <trkpt lat="48.38226" lon="2.51253">
        <ele>89</ele>
        <time>2022-08-10T06:45:34.690Z</time>
      </trkpt>
      <trkpt lat="48.38224" lon="2.51253">
        <ele>89</ele>
        <time>2022-08-10T06:45:38.692Z</time>
      </trkpt>
      <trkpt lat="48.38222" lon="2.51253">
        <ele>89</ele>
        <time>2022-08-10T06:45:43.682Z</time>
      </trkpt>
      <trkpt lat="48.38219" lon="2.51255">
        <ele>89</ele>
        <time>2022-08-10T06:45:48.699Z</time>
      </trkpt>
      <trkpt lat="48.38214" lon="2.51254">
        <ele>89</ele>
        <time>2022-08-10T06:45:53.704Z</time>
      </trkpt>
      <trkpt lat="48.38211" lon="2.51251">
        <ele>89</ele>
        <time>2022-08-10T06:45:58.721Z</time>
      </trkpt>
      <trkpt lat="48.38209" lon="2.51251">
        <ele>89</ele>
        <time>2022-08-10T06:46:03.702Z</time>
      </trkpt>
      <trkpt lat="48.38202" lon="2.51251">
        <ele>98</ele>
        <time>2022-08-10T06:46:22.692Z</time>
      </trkpt>
      <trkpt lat="48.38202" lon="2.51249">
        <ele>98</ele>
        <time>2022-08-10T06:46:27.700Z</time>
      </trkpt>
      <trkpt lat="48.382" lon="2.51246">
        <ele>98</ele>
        <time>2022-08-10T06:46:32.700Z</time>
      </trkpt>
      <trkpt lat="48.382" lon="2.51245">
        <ele>98</ele>
        <time>2022-08-10T06:46:36.709Z</time>
      </trkpt>
      <trkpt lat="48.38198" lon="2.51243">
        <ele>98</ele>
        <time>2022-08-10T06:46:41.653Z</time>
      </trkpt>
      <trkpt lat="48.38197" lon="2.51245">
        <ele>98</ele>
        <time>2022-08-10T06:46:45.693Z</time>
      </trkpt>
      <trkpt lat="48.38196" lon="2.51246">
        <ele>98</ele>
        <time>2022-08-10T06:46:50.703Z</time>
      </trkpt>
      <trkpt lat="48.38195" lon="2.51248">
        <ele>98</ele>
        <time>2022-08-10T06:46:55.650Z</time>
      </trkpt>
      <trkpt lat="48.38187" lon="2.51253">
        <ele>98</ele>
        <time>2022-08-10T06:47:00.651Z</time>
      </trkpt>
      <trkpt lat="48.38185" lon="2.51247">
        <ele>98</ele>
        <time>2022-08-10T06:47:27.652Z</time>
      </trkpt>
      <trkpt lat="48.38183" lon="2.51246">
        <ele>98</ele>
        <time>2022-08-10T06:47:32.658Z</time>
      </trkpt>
      <trkpt lat="48.38181" lon="2.51246">
        <ele>98</ele>
        <time>2022-08-10T06:47:37.661Z</time>
      </trkpt>
      <trkpt lat="48.3818" lon="2.51253">
        <ele>103</ele>
        <time>2022-08-10T06:47:42.656Z</time>
      </trkpt>
      <trkpt lat="48.38178" lon="2.51256">
        <ele>103</ele>
        <time>2022-08-10T06:47:47.647Z</time>
      </trkpt>
      <trkpt lat="48.38173" lon="2.51258">
        <ele>103</ele>
        <time>2022-08-10T06:51:01.710Z</time>
      </trkpt>
      <trkpt lat="48.38172" lon="2.5126">
        <ele>103</ele>
        <time>2022-08-10T06:51:06.706Z</time>
      </trkpt>
      <trkpt lat="48.38171" lon="2.51261">
        <ele>103</ele>
        <time>2022-08-10T06:51:11.649Z</time>
      </trkpt>
      <trkpt lat="48.38167" lon="2.51262">
        <ele>103</ele>
        <time>2022-08-10T06:51:16.659Z</time>
      </trkpt>
      <trkpt lat="48.38163" lon="2.51261">
        <ele>103</ele>
        <time>2022-08-10T06:51:20.651Z</time>
      </trkpt>
      <trkpt lat="48.38155" lon="2.5126">
        <ele>103</ele>
        <time>2022-08-10T06:51:43.659Z</time>
      </trkpt>
      <trkpt lat="48.38154" lon="2.5126">
        <ele>103</ele>
        <time>2022-08-10T06:51:48.650Z</time>
      </trkpt>
      <trkpt lat="48.38153" lon="2.51261">
        <ele>105</ele>
        <time>2022-08-10T06:51:52.674Z</time>
      </trkpt>
      <trkpt lat="48.38151" lon="2.51261">
        <ele>105</ele>
        <time>2022-08-10T06:51:56.719Z</time>
      </trkpt>
      <trkpt lat="48.38149" lon="2.51259">
        <ele>105</ele>
        <time>2022-08-10T06:52:01.702Z</time>
      </trkpt>
      <trkpt lat="48.38146" lon="2.51255">
        <ele>105</ele>
        <time>2022-08-10T06:52:33.661Z</time>
      </trkpt>
      <trkpt lat="48.38144" lon="2.51253">
        <ele>105</ele>
        <time>2022-08-10T06:52:38.652Z</time>
      </trkpt>
      <trkpt lat="48.38142" lon="2.51251">
        <ele>105</ele>
        <time>2022-08-10T06:52:42.653Z</time>
      </trkpt>
      <trkpt lat="48.38142" lon="2.51252">
        <ele>105</ele>
        <time>2022-08-10T06:52:46.660Z</time>
      </trkpt>
      <trkpt lat="48.38142" lon="2.51251">
        <ele>105</ele>
        <time>2022-08-10T06:52:51.654Z</time>
      </trkpt>
      <trkpt lat="48.38132" lon="2.51248">
        <ele>105</ele>
        <time>2022-08-10T06:53:31.650Z</time>
      </trkpt>
      <trkpt lat="48.38132" lon="2.51246">
        <ele>105</ele>
        <time>2022-08-10T06:53:35.650Z</time>
      </trkpt>
      <trkpt lat="48.38132" lon="2.51244">
        <ele>105</ele>
        <time>2022-08-10T06:53:39.660Z</time>
      </trkpt>
      <trkpt lat="48.38132" lon="2.51243">
        <ele>105</ele>
        <time>2022-08-10T06:53:43.669Z</time>
      </trkpt>
      <trkpt lat="48.38131" lon="2.51242">
        <ele>105</ele>
        <time>2022-08-10T06:53:47.657Z</time>
      </trkpt>
      <trkpt lat="48.38124" lon="2.51249">
        <ele>100</ele>
        <time>2022-08-10T06:56:31.646Z</time>
      </trkpt>
      <trkpt lat="48.38122" lon="2.5125">
        <ele>100</ele>
        <time>2022-08-10T06:56:35.643Z</time>
      </trkpt>
      <trkpt lat="48.38123" lon="2.51254">
        <ele>100</ele>
        <time>2022-08-10T06:56:40.661Z</time>
      </trkpt>
      <trkpt lat="48.38122" lon="2.51254">
        <ele>100</ele>
        <time>2022-08-10T06:56:45.651Z</time>
      </trkpt>
      <trkpt lat="48.3812" lon="2.51254">
        <ele>100</ele>
        <time>2022-08-10T06:56:50.654Z</time>
      </trkpt>
      <trkpt lat="48.38118" lon="2.51248">
        <ele>100</ele>
        <time>2022-08-10T06:56:58.665Z</time>
      </trkpt>
      <trkpt lat="48.38116" lon="2.51247">
        <ele>100</ele>
        <time>2022-08-10T06:57:03.654Z</time>
      </trkpt>
      <trkpt lat="48.38113" lon="2.51249">
        <ele>100</ele>
        <time>2022-08-10T06:57:08.653Z</time>
      </trkpt>
      <trkpt lat="48.38112" lon="2.51244">
        <ele>100</ele>
        <time>2022-08-10T06:57:13.653Z</time>
      </trkpt>
      <trkpt lat="48.3811" lon="2.51238">
        <ele>100</ele>
        <time>2022-08-10T06:57:18.641Z</time>
      </trkpt>
      <trkpt lat="48.38103" lon="2.5124">
        <ele>100</ele>
        <time>2022-08-10T06:57:40.646Z</time>
      </trkpt>
      <trkpt lat="48.38102" lon="2.51239">
        <ele>100</ele>
        <time>2022-08-10T06:57:44.665Z</time>
      </trkpt>
      <trkpt lat="48.381" lon="2.51237">
        <ele>100</ele>
        <time>2022-08-10T06:57:48.670Z</time>
      </trkpt>
      <trkpt lat="48.38099" lon="2.51237">
        <ele>100</ele>
        <time>2022-08-10T06:57:53.659Z</time>
      </trkpt>
      <trkpt lat="48.38097" lon="2.51237">
        <ele>100</ele>
        <time>2022-08-10T06:57:57.658Z</time>
      </trkpt>
      <trkpt lat="48.38098" lon="2.51239">
        <ele>100</ele>
        <time>2022-08-10T06:58:11.657Z</time>
      </trkpt>
      <trkpt lat="48.38096" lon="2.51239">
        <ele>94</ele>
        <time>2022-08-10T06:58:16.650Z</time>
      </trkpt>
      <trkpt lat="48.38094" lon="2.51239">
        <ele>94</ele>
        <time>2022-08-10T06:58:20.657Z</time>
      </trkpt>
      <trkpt lat="48.3809" lon="2.51241">
        <ele>94</ele>
        <time>2022-08-10T06:58:25.650Z</time>
      </trkpt>
      <trkpt lat="48.38088" lon="2.5124">
        <ele>94</ele>
        <time>2022-08-10T06:58:29.699Z</time>
      </trkpt>
      <trkpt lat="48.38086" lon="2.51237">
        <ele>94</ele>
        <time>2022-08-10T06:58:34.706Z</time>
      </trkpt>
      <trkpt lat="48.38085" lon="2.51233">
        <ele>98</ele>
        <time>2022-08-10T06:58:39.689Z</time>
      </trkpt>
      <trkpt lat="48.38083" lon="2.51228">
        <ele>98</ele>
        <time>2022-08-10T06:58:44.695Z</time>
      </trkpt>
      <trkpt lat="48.38081" lon="2.51224">
        <ele>98</ele>
        <time>2022-08-10T06:58:48.702Z</time>
      </trkpt>
      <trkpt lat="48.38077" lon="2.51216">
        <ele>98</ele>
        <time>2022-08-10T06:59:35.652Z</time>
      </trkpt>
      <trkpt lat="48.38075" lon="2.51214">
        <ele>98</ele>
        <time>2022-08-10T06:59:40.663Z</time>
      </trkpt>
      <trkpt lat="48.38074" lon="2.51213">
        <ele>98</ele>
        <time>2022-08-10T06:59:44.660Z</time>
      </trkpt>
      <trkpt lat="48.38075" lon="2.51212">
        <ele>98</ele>
        <time>2022-08-10T06:59:48.687Z</time>
      </trkpt>
      <trkpt lat="48.38074" lon="2.5121">
        <ele>98</ele>
        <time>2022-08-10T06:59:53.645Z</time>
      </trkpt>
      <trkpt lat="48.38073" lon="2.51207">
        <ele>99</ele>
        <time>2022-08-10T07:00:02.658Z</time>
      </trkpt>
      <trkpt lat="48.38074" lon="2.51206">
        <ele>99</ele>
        <time>2022-08-10T07:00:06.671Z</time>
      </trkpt>
      <trkpt lat="48.38075" lon="2.51203">
        <ele>99</ele>
        <time>2022-08-10T07:00:11.671Z</time>
      </trkpt>
      <trkpt lat="48.38074" lon="2.51198">
        <ele>99</ele>
        <time>2022-08-10T07:00:16.653Z</time>
      </trkpt>
      <trkpt lat="48.38072" lon="2.51194">
        <ele>99</ele>
        <time>2022-08-10T07:00:20.645Z</time>
      </trkpt>
      <trkpt lat="48.38074" lon="2.51191">
        <ele>99</ele>
        <time>2022-08-10T07:00:25.659Z</time>
      </trkpt>
      <trkpt lat="48.38072" lon="2.5119">
        <ele>99</ele>
        <time>2022-08-10T07:00:30.654Z</time>
      </trkpt>
      <trkpt lat="48.3807" lon="2.51189">
        <ele>99</ele>
        <time>2022-08-10T07:00:34.659Z</time>
      </trkpt>
      <trkpt lat="48.38066" lon="2.51186">
        <ele>95</ele>
        <time>2022-08-10T07:00:39.656Z</time>
      </trkpt>
      <trkpt lat="48.38062" lon="2.51183">
        <ele>95</ele>
        <time>2022-08-10T07:00:44.668Z</time>
      </trkpt>
      <trkpt lat="48.38057" lon="2.51179">
        <ele>97</ele>
        <time>2022-08-10T07:00:49.644Z</time>
      </trkpt>
      <trkpt lat="48.38055" lon="2.51174">
        <ele>97</ele>
        <time>2022-08-10T07:00:54.648Z</time>
      </trkpt>
      <trkpt lat="48.38053" lon="2.5117">
        <ele>97</ele>
        <time>2022-08-10T07:00:58.643Z</time>
      </trkpt>
      <trkpt lat="48.38052" lon="2.51165">
        <ele>97</ele>
        <time>2022-08-10T07:01:02.654Z</time>
      </trkpt>
      <trkpt lat="48.38051" lon="2.51162">
        <ele>97</ele>
        <time>2022-08-10T07:01:06.667Z</time>
      </trkpt>
      <trkpt lat="48.38047" lon="2.51157">
        <ele>97</ele>
        <time>2022-08-10T07:01:11.649Z</time>
      </trkpt>
      <trkpt lat="48.38044" lon="2.51154">
        <ele>97</ele>
        <time>2022-08-10T07:01:15.650Z</time>
      </trkpt>
      <trkpt lat="48.38044" lon="2.51152">
        <ele>97</ele>
        <time>2022-08-10T07:01:20.648Z</time>
      </trkpt>
      <trkpt lat="48.38042" lon="2.5115">
        <ele>97</ele>
        <time>2022-08-10T07:01:29.666Z</time>
      </trkpt>
      <trkpt lat="48.38041" lon="2.51149">
        <ele>95</ele>
        <time>2022-08-10T07:01:33.655Z</time>
      </trkpt>
      <trkpt lat="48.38041" lon="2.51147">
        <ele>95</ele>
        <time>2022-08-10T07:01:38.656Z</time>
      </trkpt>
      <trkpt lat="48.38039" lon="2.51143">
        <ele>95</ele>
        <time>2022-08-10T07:01:43.643Z</time>
      </trkpt>
      <trkpt lat="48.38036" lon="2.5114">
        <ele>95</ele>
        <time>2022-08-10T07:01:47.657Z</time>
      </trkpt>
      <trkpt lat="48.38029" lon="2.51136">
        <ele>95</ele>
        <time>2022-08-10T07:02:15.647Z</time>
      </trkpt>
      <trkpt lat="48.38027" lon="2.51133">
        <ele>95</ele>
        <time>2022-08-10T07:02:19.664Z</time>
      </trkpt>
      <trkpt lat="48.38026" lon="2.51131">
        <ele>95</ele>
        <time>2022-08-10T07:02:23.654Z</time>
      </trkpt>
      <trkpt lat="48.38026" lon="2.51127">
        <ele>95</ele>
        <time>2022-08-10T07:02:28.648Z</time>
      </trkpt>
      <trkpt lat="48.38026" lon="2.51125">
        <ele>95</ele>
        <time>2022-08-10T07:02:32.664Z</time>
      </trkpt>
      <trkpt lat="48.38023" lon="2.51122">
        <ele>98</ele>
        <time>2022-08-10T07:02:41.674Z</time>
      </trkpt>
      <trkpt lat="48.38022" lon="2.5112">
        <ele>98</ele>
        <time>2022-08-10T07:02:46.644Z</time>
      </trkpt>
      <trkpt lat="48.3802" lon="2.51117">
        <ele>98</ele>
        <time>2022-08-10T07:02:50.646Z</time>
      </trkpt>
      <trkpt lat="48.38017" lon="2.51117">
        <ele>98</ele>
        <time>2022-08-10T07:02:55.641Z</time>
      </trkpt>
      <trkpt lat="48.38017" lon="2.51117">
        <ele>98</ele>
        <time>2022-08-10T07:02:59.653Z</time>
      </trkpt>
      <trkpt lat="48.38014" lon="2.51113">
        <ele>94</ele>
        <time>2022-08-10T07:03:22.656Z</time>
      </trkpt>
      <trkpt lat="48.38013" lon="2.51112">
        <ele>94</ele>
        <time>2022-08-10T07:03:26.660Z</time>
      </trkpt>
      <trkpt lat="48.38012" lon="2.51109">
        <ele>94</ele>
        <time>2022-08-10T07:03:31.656Z</time>
      </trkpt>
      <trkpt lat="48.38011" lon="2.51107">
        <ele>94</ele>
        <time>2022-08-10T07:03:36.657Z</time>
      </trkpt>
      <trkpt lat="48.3801" lon="2.51104">
        <ele>94</ele>
        <time>2022-08-10T07:03:41.648Z</time>
      </trkpt>
      <trkpt lat="48.38009" lon="2.51102">
        <ele>94</ele>
        <time>2022-08-10T07:03:45.653Z</time>
      </trkpt>
      <trkpt lat="48.38009" lon="2.51098">
        <ele>94</ele>
        <time>2022-08-10T07:03:50.666Z</time>
      </trkpt>
      <trkpt lat="48.38009" lon="2.51092">
        <ele>96</ele>
        <time>2022-08-10T07:03:55.653Z</time>
      </trkpt>
      <trkpt lat="48.38008" lon="2.5109">
        <ele>96</ele>
        <time>2022-08-10T07:04:00.654Z</time>
      </trkpt>
      <trkpt lat="48.38007" lon="2.51087">
        <ele>96</ele>
        <time>2022-08-10T07:04:05.647Z</time>
      </trkpt>
      <trkpt lat="48.38004" lon="2.51086">
        <ele>96</ele>
        <time>2022-08-10T07:04:19.657Z</time>
      </trkpt>
      <trkpt lat="48.38003" lon="2.51085">
        <ele>96</ele>
        <time>2022-08-10T07:04:23.673Z</time>
      </trkpt>
      <trkpt lat="48.38001" lon="2.51085">
        <ele>96</ele>
        <time>2022-08-10T07:04:27.720Z</time>
      </trkpt>
      <trkpt lat="48.38" lon="2.51077">
        <ele>96</ele>
        <time>2022-08-10T07:04:32.682Z</time>
      </trkpt>
      <trkpt lat="48.38" lon="2.51071">
        <ele>96</ele>
        <time>2022-08-10T07:04:36.712Z</time>
      </trkpt>
      <trkpt lat="48.37996" lon="2.51063">
        <ele>97</ele>
        <time>2022-08-10T07:05:27.694Z</time>
      </trkpt>
      <trkpt lat="48.37994" lon="2.51065">
        <ele>97</ele>
        <time>2022-08-10T07:05:31.705Z</time>
      </trkpt>
      <trkpt lat="48.37991" lon="2.51067">
        <ele>97</ele>
        <time>2022-08-10T07:05:36.683Z</time>
      </trkpt>
      <trkpt lat="48.37987" lon="2.51068">
        <ele>97</ele>
        <time>2022-08-10T07:05:40.680Z</time>
      </trkpt>
      <trkpt lat="48.37984" lon="2.51071">
        <ele>89</ele>
        <time>2022-08-10T07:05:44.692Z</time>
      </trkpt>
      <trkpt lat="48.37983" lon="2.51075">
        <ele>89</ele>
        <time>2022-08-10T07:06:18.664Z</time>
      </trkpt>
      <trkpt lat="48.37982" lon="2.51075">
        <ele>89</ele>
        <time>2022-08-10T07:06:22.657Z</time>
      </trkpt>
      <trkpt lat="48.37981" lon="2.51076">
        <ele>89</ele>
        <time>2022-08-10T07:06:27.639Z</time>
      </trkpt>
      <trkpt lat="48.37978" lon="2.51077">
        <ele>89</ele>
        <time>2022-08-10T07:06:32.653Z</time>
      </trkpt>
      <trkpt lat="48.37977" lon="2.5108">
        <ele>89</ele>
        <time>2022-08-10T07:06:36.651Z</time>
      </trkpt>
      <trkpt lat="48.37975" lon="2.51079">
        <ele>89</ele>
        <time>2022-08-10T07:07:09.673Z</time>
      </trkpt>
      <trkpt lat="48.37974" lon="2.51078">
        <ele>89</ele>
        <time>2022-08-10T07:07:13.688Z</time>
      </trkpt>
      <trkpt lat="48.37969" lon="2.51077">
        <ele>89</ele>
        <time>2022-08-10T07:07:17.691Z</time>
      </trkpt>
      <trkpt lat="48.37968" lon="2.51078">
        <ele>89</ele>
        <time>2022-08-10T07:07:22.688Z</time>
      </trkpt>
      <trkpt lat="48.37967" lon="2.51078">
        <ele>89</ele>
        <time>2022-08-10T07:07:27.680Z</time>
      </trkpt>
      <trkpt lat="48.37964" lon="2.51083">
        <ele>89</ele>
        <time>2022-08-10T07:07:46.684Z</time>
      </trkpt>
      <trkpt lat="48.37964" lon="2.51083">
        <ele>89</ele>
        <time>2022-08-10T07:07:50.708Z</time>
      </trkpt>
      <trkpt lat="48.37962" lon="2.51082">
        <ele>89</ele>
        <time>2022-08-10T07:07:55.720Z</time>
      </trkpt>
      <trkpt lat="48.37958" lon="2.51079">
        <ele>82</ele>
        <time>2022-08-10T07:08:00.676Z</time>
      </trkpt>
      <trkpt lat="48.37957" lon="2.51076">
        <ele>82</ele>
        <time>2022-08-10T07:08:04.692Z</time>
      </trkpt>
      <trkpt lat="48.37954" lon="2.51073">
        <ele>82</ele>
        <time>2022-08-10T07:08:37.680Z</time>
      </trkpt>
      <trkpt lat="48.37952" lon="2.51075">
        <ele>82</ele>
        <time>2022-08-10T07:08:41.664Z</time>
      </trkpt>
      <trkpt lat="48.37949" lon="2.51073">
        <ele>82</ele>
        <time>2022-08-10T07:08:46.686Z</time>
      </trkpt>
      <trkpt lat="48.37948" lon="2.51072">
        <ele>82</ele>
        <time>2022-08-10T07:08:50.697Z</time>
      </trkpt>
      <trkpt lat="48.37946" lon="2.51075">
        <ele>82</ele>
        <time>2022-08-10T07:08:54.685Z</time>
      </trkpt>
      <trkpt lat="48.37943" lon="2.5108">
        <ele>82</ele>
        <time>2022-08-10T07:09:08.693Z</time>
      </trkpt>
      <trkpt lat="48.37942" lon="2.51079">
        <ele>82</ele>
        <time>2022-08-10T07:09:13.656Z</time>
      </trkpt>
      <trkpt lat="48.37941" lon="2.51079">
        <ele>82</ele>
        <time>2022-08-10T07:09:17.678Z</time>
      </trkpt>
      <trkpt lat="48.37938" lon="2.51078">
        <ele>82</ele>
        <time>2022-08-10T07:09:22.686Z</time>
      </trkpt>
      <trkpt lat="48.37935" lon="2.51081">
        <ele>82</ele>
        <time>2022-08-10T07:09:27.680Z</time>
      </trkpt>
      <trkpt lat="48.37932" lon="2.51083">
        <ele>82</ele>
        <time>2022-08-10T07:09:31.697Z</time>
      </trkpt>
      <trkpt lat="48.37928" lon="2.51085">
        <ele>76</ele>
        <time>2022-08-10T07:09:36.686Z</time>
      </trkpt>
      <trkpt lat="48.37924" lon="2.51084">
        <ele>76</ele>
        <time>2022-08-10T07:09:41.671Z</time>
      </trkpt>
      <trkpt lat="48.37923" lon="2.51082">
        <ele>76</ele>
        <time>2022-08-10T07:09:45.690Z</time>
      </trkpt>
      <trkpt lat="48.37919" lon="2.51077">
        <ele>76</ele>
        <time>2022-08-10T07:09:55.677Z</time>
      </trkpt>
      <trkpt lat="48.37918" lon="2.5108">
        <ele>76</ele>
        <time>2022-08-10T07:10:00.676Z</time>
      </trkpt>
      <trkpt lat="48.37916" lon="2.51079">
        <ele>76</ele>
        <time>2022-08-10T07:10:04.676Z</time>
      </trkpt>
      <trkpt lat="48.37912" lon="2.51079">
        <ele>76</ele>
        <time>2022-08-10T07:10:09.677Z</time>
      </trkpt>
      <trkpt lat="48.37909" lon="2.51081">
        <ele>76</ele>
        <time>2022-08-10T07:10:13.685Z</time>
      </trkpt>
      <trkpt lat="48.37903" lon="2.51082">
        <ele>76</ele>
        <time>2022-08-10T07:10:18.693Z</time>
      </trkpt>
      <trkpt lat="48.37899" lon="2.5108">
        <ele>73</ele>
        <time>2022-08-10T07:10:22.710Z</time>
      </trkpt>
      <trkpt lat="48.37894" lon="2.51082">
        <ele>73</ele>
        <time>2022-08-10T07:10:27.660Z</time>
      </trkpt>
      <trkpt lat="48.37892" lon="2.51082">
        <ele>73</ele>
        <time>2022-08-10T07:10:32.650Z</time>
      </trkpt>
      <trkpt lat="48.37892" lon="2.51082">
        <ele>73</ele>
        <time>2022-08-10T07:10:56.662Z</time>
      </trkpt>
      <trkpt lat="48.37888" lon="2.51088">
        <ele>73</ele>
        <time>2022-08-10T07:11:01.659Z</time>
      </trkpt>
      <trkpt lat="48.37883" lon="2.51091">
        <ele>73</ele>
        <time>2022-08-10T07:11:05.688Z</time>
      </trkpt>
      <trkpt lat="48.37879" lon="2.511">
        <ele>72</ele>
        <time>2022-08-10T07:11:10.663Z</time>
      </trkpt>
      <trkpt lat="48.37878" lon="2.51108">
        <ele>72</ele>
        <time>2022-08-10T07:11:14.664Z</time>
      </trkpt>
      <trkpt lat="48.37875" lon="2.51116">
        <ele>72</ele>
        <time>2022-08-10T07:11:18.671Z</time>
      </trkpt>
      <trkpt lat="48.37874" lon="2.51122">
        <ele>73</ele>
        <time>2022-08-10T07:11:22.685Z</time>
      </trkpt>
      <trkpt lat="48.37871" lon="2.51128">
        <ele>72</ele>
        <time>2022-08-10T07:11:27.684Z</time>
      </trkpt>
      <trkpt lat="48.37868" lon="2.51136">
        <ele>72</ele>
        <time>2022-08-10T07:11:32.683Z</time>
      </trkpt>
      <trkpt lat="48.37865" lon="2.51142">
        <ele>72</ele>
        <time>2022-08-10T07:11:36.691Z</time>
      </trkpt>
      <trkpt lat="48.37861" lon="2.51151">
        <ele>72</ele>
        <time>2022-08-10T07:11:41.711Z</time>
      </trkpt>
      <trkpt lat="48.37857" lon="2.51158">
        <ele>71</ele>
        <time>2022-08-10T07:11:46.709Z</time>
      </trkpt>
      <trkpt lat="48.37853" lon="2.51166">
        <ele>71</ele>
        <time>2022-08-10T07:11:51.689Z</time>
      </trkpt>
      <trkpt lat="48.37846" lon="2.51172">
        <ele>73</ele>
        <time>2022-08-10T07:11:56.686Z</time>
      </trkpt>
      <trkpt lat="48.3784" lon="2.51179">
        <ele>73</ele>
        <time>2022-08-10T07:12:01.671Z</time>
      </trkpt>
      <trkpt lat="48.37836" lon="2.51185">
        <ele>72</ele>
        <time>2022-08-10T07:12:05.682Z</time>
      </trkpt>
      <trkpt lat="48.3783" lon="2.51189">
        <ele>72</ele>
        <time>2022-08-10T07:12:10.674Z</time>
      </trkpt>
      <trkpt lat="48.37826" lon="2.51191">
        <ele>72</ele>
        <time>2022-08-10T07:12:14.686Z</time>
      </trkpt>
      <trkpt lat="48.3782" lon="2.51192">
        <ele>72</ele>
        <time>2022-08-10T07:12:19.690Z</time>
      </trkpt>
      <trkpt lat="48.37816" lon="2.51196">
        <ele>72</ele>
        <time>2022-08-10T07:12:23.691Z</time>
      </trkpt>
      <trkpt lat="48.37811" lon="2.51205">
        <ele>72</ele>
        <time>2022-08-10T07:12:28.664Z</time>
      </trkpt>
      <trkpt lat="48.37806" lon="2.51212">
        <ele>72</ele>
        <time>2022-08-10T07:12:32.673Z</time>
      </trkpt>
      <trkpt lat="48.37798" lon="2.51218">
        <ele>72</ele>
        <time>2022-08-10T07:12:37.684Z</time>
      </trkpt>
      <trkpt lat="48.37793" lon="2.51226">
        <ele>72</ele>
        <time>2022-08-10T07:12:42.667Z</time>
      </trkpt>
      <trkpt lat="48.37786" lon="2.51236">
        <ele>74</ele>
        <time>2022-08-10T07:12:47.702Z</time>
      </trkpt>
      <trkpt lat="48.37782" lon="2.51242">
        <ele>73</ele>
        <time>2022-08-10T07:12:51.724Z</time>
      </trkpt>
      <trkpt lat="48.37778" lon="2.5125">
        <ele>73</ele>
        <time>2022-08-10T07:12:56.696Z</time>
      </trkpt>
      <trkpt lat="48.37774" lon="2.51256">
        <ele>73</ele>
        <time>2022-08-10T07:13:01.700Z</time>
      </trkpt>
      <trkpt lat="48.37768" lon="2.51263">
        <ele>73</ele>
        <time>2022-08-10T07:13:06.705Z</time>
      </trkpt>
      <trkpt lat="48.37763" lon="2.51269">
        <ele>74</ele>
        <time>2022-08-10T07:13:11.693Z</time>
      </trkpt>
      <trkpt lat="48.37758" lon="2.51274">
        <ele>74</ele>
        <time>2022-08-10T07:13:16.690Z</time>
      </trkpt>
      <trkpt lat="48.37753" lon="2.5128">
        <ele>74</ele>
        <time>2022-08-10T07:13:21.692Z</time>
      </trkpt>
      <trkpt lat="48.37748" lon="2.51286">
        <ele>74</ele>
        <time>2022-08-10T07:13:25.708Z</time>
      </trkpt>
      <trkpt lat="48.37744" lon="2.5129">
        <ele>74</ele>
        <time>2022-08-10T07:13:30.696Z</time>
      </trkpt>
      <trkpt lat="48.3774" lon="2.51293">
        <ele>74</ele>
        <time>2022-08-10T07:13:35.688Z</time>
      </trkpt>
      <trkpt lat="48.37739" lon="2.51301">
        <ele>74</ele>
        <time>2022-08-10T07:13:40.699Z</time>
      </trkpt>
      <trkpt lat="48.37739" lon="2.51303">
        <ele>74</ele>
        <time>2022-08-10T07:13:45.678Z</time>
      </trkpt>
      <trkpt lat="48.37731" lon="2.51301">
        <ele>74</ele>
        <time>2022-08-10T07:14:21.652Z</time>
      </trkpt>
      <trkpt lat="48.37731" lon="2.51298">
        <ele>74</ele>
        <time>2022-08-10T07:14:25.648Z</time>
      </trkpt>
      <trkpt lat="48.3773" lon="2.51297">
        <ele>74</ele>
        <time>2022-08-10T07:14:30.649Z</time>
      </trkpt>
      <trkpt lat="48.37728" lon="2.51292">
        <ele>74</ele>
        <time>2022-08-10T07:14:35.647Z</time>
      </trkpt>
      <trkpt lat="48.37724" lon="2.51289">
        <ele>74</ele>
        <time>2022-08-10T07:14:39.670Z</time>
      </trkpt>
      <trkpt lat="48.37721" lon="2.51287">
        <ele>74</ele>
        <time>2022-08-10T07:14:44.653Z</time>
      </trkpt>
      <trkpt lat="48.37717" lon="2.51284">
        <ele>74</ele>
        <time>2022-08-10T07:14:48.654Z</time>
      </trkpt>
      <trkpt lat="48.37715" lon="2.5128">
        <ele>74</ele>
        <time>2022-08-10T07:14:53.651Z</time>
      </trkpt>
      <trkpt lat="48.37711" lon="2.51274">
        <ele>74</ele>
        <time>2022-08-10T07:14:58.651Z</time>
      </trkpt>
      <trkpt lat="48.37706" lon="2.51269">
        <ele>74</ele>
        <time>2022-08-10T07:15:02.654Z</time>
      </trkpt>
      <trkpt lat="48.37699" lon="2.51263">
        <ele>75</ele>
        <time>2022-08-10T07:15:07.648Z</time>
      </trkpt>
      <trkpt lat="48.37696" lon="2.51264">
        <ele>75</ele>
        <time>2022-08-10T07:15:11.668Z</time>
      </trkpt>
      <trkpt lat="48.37692" lon="2.51263">
        <ele>75</ele>
        <time>2022-08-10T07:15:15.659Z</time>
      </trkpt>
      <trkpt lat="48.37684" lon="2.51264">
        <ele>75</ele>
        <time>2022-08-10T07:15:20.651Z</time>
      </trkpt>
      <trkpt lat="48.37679" lon="2.51267">
        <ele>75</ele>
        <time>2022-08-10T07:15:24.730Z</time>
      </trkpt>
      <trkpt lat="48.37672" lon="2.51271">
        <ele>75</ele>
        <time>2022-08-10T07:15:29.651Z</time>
      </trkpt>
      <trkpt lat="48.37666" lon="2.51274">
        <ele>75</ele>
        <time>2022-08-10T07:15:34.657Z</time>
      </trkpt>
      <trkpt lat="48.37659" lon="2.51277">
        <ele>75</ele>
        <time>2022-08-10T07:15:39.650Z</time>
      </trkpt>
      <trkpt lat="48.37654" lon="2.51279">
        <ele>75</ele>
        <time>2022-08-10T07:15:44.656Z</time>
      </trkpt>
      <trkpt lat="48.37648" lon="2.51279">
        <ele>74</ele>
        <time>2022-08-10T07:15:49.658Z</time>
      </trkpt>
      <trkpt lat="48.37642" lon="2.5128">
        <ele>74</ele>
        <time>2022-08-10T07:15:54.661Z</time>
      </trkpt>
      <trkpt lat="48.37636" lon="2.51278">
        <ele>74</ele>
        <time>2022-08-10T07:15:59.657Z</time>
      </trkpt>
      <trkpt lat="48.37628" lon="2.51276">
        <ele>74</ele>
        <time>2022-08-10T07:16:04.655Z</time>
      </trkpt>
      <trkpt lat="48.37623" lon="2.51275">
        <ele>73</ele>
        <time>2022-08-10T07:16:09.660Z</time>
      </trkpt>
      <trkpt lat="48.37616" lon="2.51273">
        <ele>73</ele>
        <time>2022-08-10T07:16:13.654Z</time>
      </trkpt>
      <trkpt lat="48.37609" lon="2.51275">
        <ele>73</ele>
        <time>2022-08-10T07:16:17.666Z</time>
      </trkpt>
      <trkpt lat="48.37596" lon="2.51283">
        <ele>73</ele>
        <time>2022-08-10T07:16:22.664Z</time>
      </trkpt>
      <trkpt lat="48.37589" lon="2.5129">
        <ele>73</ele>
        <time>2022-08-10T07:16:27.657Z</time>
      </trkpt>
      <trkpt lat="48.37585" lon="2.513">
        <ele>73</ele>
        <time>2022-08-10T07:16:32.657Z</time>
      </trkpt>
      <trkpt lat="48.37582" lon="2.51307">
        <ele>73</ele>
        <time>2022-08-10T07:18:18.668Z</time>
      </trkpt>
      <trkpt lat="48.37581" lon="2.51317">
        <ele>73</ele>
        <time>2022-08-10T07:18:23.664Z</time>
      </trkpt>
      <trkpt lat="48.37579" lon="2.51325">
        <ele>74</ele>
        <time>2022-08-10T07:18:28.662Z</time>
      </trkpt>
      <trkpt lat="48.37578" lon="2.51331">
        <ele>74</ele>
        <time>2022-08-10T07:18:32.668Z</time>
      </trkpt>
      <trkpt lat="48.37575" lon="2.51338">
        <ele>74</ele>
        <time>2022-08-10T07:18:36.677Z</time>
      </trkpt>
      <trkpt lat="48.37572" lon="2.51347">
        <ele>74</ele>
        <time>2022-08-10T07:18:41.687Z</time>
      </trkpt>
      <trkpt lat="48.37565" lon="2.51356">
        <ele>77</ele>
        <time>2022-08-10T07:18:45.682Z</time>
      </trkpt>
      <trkpt lat="48.3756" lon="2.51364">
        <ele>77</ele>
        <time>2022-08-10T07:18:50.670Z</time>
      </trkpt>
      <trkpt lat="48.37556" lon="2.51367">
        <ele>77</ele>
        <time>2022-08-10T07:18:55.647Z</time>
      </trkpt>
      <trkpt lat="48.3755" lon="2.51372">
        <ele>77</ele>
        <time>2022-08-10T07:19:00.651Z</time>
      </trkpt>
      <trkpt lat="48.37545" lon="2.51369">
        <ele>77</ele>
        <time>2022-08-10T07:19:04.658Z</time>
      </trkpt>
      <trkpt lat="48.3754" lon="2.5137">
        <ele>77</ele>
        <time>2022-08-10T07:19:09.648Z</time>
      </trkpt>
      <trkpt lat="48.37538" lon="2.51372">
        <ele>77</ele>
        <time>2022-08-10T07:19:14.684Z</time>
      </trkpt>
      <trkpt lat="48.37535" lon="2.51376">
        <ele>79</ele>
        <time>2022-08-10T07:19:19.651Z</time>
      </trkpt>
      <trkpt lat="48.37532" lon="2.51379">
        <ele>79</ele>
        <time>2022-08-10T07:19:23.704Z</time>
      </trkpt>
      <trkpt lat="48.3753" lon="2.51384">
        <ele>79</ele>
        <time>2022-08-10T07:19:28.674Z</time>
      </trkpt>
      <trkpt lat="48.37531" lon="2.51394">
        <ele>79</ele>
        <time>2022-08-10T07:19:33.654Z</time>
      </trkpt>
      <trkpt lat="48.37528" lon="2.51398">
        <ele>79</ele>
        <time>2022-08-10T07:19:37.655Z</time>
      </trkpt>
      <trkpt lat="48.37526" lon="2.51403">
        <ele>79</ele>
        <time>2022-08-10T07:19:41.659Z</time>
      </trkpt>
      <trkpt lat="48.37522" lon="2.51403">
        <ele>79</ele>
        <time>2022-08-10T07:19:46.662Z</time>
      </trkpt>
      <trkpt lat="48.37518" lon="2.51406">
        <ele>79</ele>
        <time>2022-08-10T07:19:51.652Z</time>
      </trkpt>
      <trkpt lat="48.37515" lon="2.51408">
        <ele>79</ele>
        <time>2022-08-10T07:20:00.663Z</time>
      </trkpt>
      <trkpt lat="48.37514" lon="2.51407">
        <ele>79</ele>
        <time>2022-08-10T07:20:04.689Z</time>
      </trkpt>
      <trkpt lat="48.37511" lon="2.51406">
        <ele>81</ele>
        <time>2022-08-10T07:20:09.711Z</time>
      </trkpt>
      <trkpt lat="48.3751" lon="2.5141">
        <ele>81</ele>
        <time>2022-08-10T07:20:14.675Z</time>
      </trkpt>
      <trkpt lat="48.37507" lon="2.51416">
        <ele>81</ele>
        <time>2022-08-10T07:20:19.667Z</time>
      </trkpt>
      <trkpt lat="48.37505" lon="2.51418">
        <ele>81</ele>
        <time>2022-08-10T07:20:37.652Z</time>
      </trkpt>
      <trkpt lat="48.375" lon="2.5142">
        <ele>81</ele>
        <time>2022-08-10T07:20:42.650Z</time>
      </trkpt>
      <trkpt lat="48.37498" lon="2.51418">
        <ele>81</ele>
        <time>2022-08-10T07:20:47.656Z</time>
      </trkpt>
      <trkpt lat="48.37496" lon="2.51416">
        <ele>81</ele>
        <time>2022-08-10T07:20:52.664Z</time>
      </trkpt>
      <trkpt lat="48.37496" lon="2.51415">
        <ele>81</ele>
        <time>2022-08-10T07:20:57.656Z</time>
      </trkpt>
      <trkpt lat="48.37495" lon="2.51424">
        <ele>81</ele>
        <time>2022-08-10T07:21:32.644Z</time>
      </trkpt>
      <trkpt lat="48.37495" lon="2.51424">
        <ele>81</ele>
        <time>2022-08-10T07:21:36.647Z</time>
      </trkpt>
      <trkpt lat="48.37494" lon="2.51425">
        <ele>81</ele>
        <time>2022-08-10T07:21:40.662Z</time>
      </trkpt>
      <trkpt lat="48.37491" lon="2.51426">
        <ele>81</ele>
        <time>2022-08-10T07:21:44.652Z</time>
      </trkpt>
      <trkpt lat="48.37484" lon="2.5143">
        <ele>84</ele>
        <time>2022-08-10T07:21:49.645Z</time>
      </trkpt>
      <trkpt lat="48.37479" lon="2.51434">
        <ele>83</ele>
        <time>2022-08-10T07:21:53.655Z</time>
      </trkpt>
      <trkpt lat="48.37476" lon="2.51435">
        <ele>83</ele>
        <time>2022-08-10T07:21:57.670Z</time>
      </trkpt>
      <trkpt lat="48.37471" lon="2.51437">
        <ele>83</ele>
        <time>2022-08-10T07:22:02.655Z</time>
      </trkpt>
      <trkpt lat="48.37465" lon="2.5144">
        <ele>83</ele>
        <time>2022-08-10T07:22:06.659Z</time>
      </trkpt>
      <trkpt lat="48.3746" lon="2.5144">
        <ele>83</ele>
        <time>2022-08-10T07:22:11.658Z</time>
      </trkpt>
      <trkpt lat="48.37454" lon="2.51442">
        <ele>84</ele>
        <time>2022-08-10T07:22:16.657Z</time>
      </trkpt>
      <trkpt lat="48.3745" lon="2.51445">
        <ele>84</ele>
        <time>2022-08-10T07:22:20.656Z</time>
      </trkpt>
      <trkpt lat="48.37448" lon="2.51442">
        <ele>84</ele>
        <time>2022-08-10T07:22:25.651Z</time>
      </trkpt>
      <trkpt lat="48.37447" lon="2.51437">
        <ele>84</ele>
        <time>2022-08-10T07:22:29.637Z</time>
      </trkpt>
      <trkpt lat="48.37444" lon="2.51436">
        <ele>84</ele>
        <time>2022-08-10T07:22:34.653Z</time>
      </trkpt>
      <trkpt lat="48.37436" lon="2.5144">
        <ele>84</ele>
        <time>2022-08-10T07:22:39.657Z</time>
      </trkpt>
      <trkpt lat="48.3743" lon="2.51442">
        <ele>85</ele>
        <time>2022-08-10T07:22:44.647Z</time>
      </trkpt>
      <trkpt lat="48.37419" lon="2.51447">
        <ele>85</ele>
        <time>2022-08-10T07:23:02.649Z</time>
      </trkpt>
      <trkpt lat="48.37418" lon="2.51451">
        <ele>85</ele>
        <time>2022-08-10T07:23:07.658Z</time>
      </trkpt>
      <trkpt lat="48.37419" lon="2.51455">
        <ele>85</ele>
        <time>2022-08-10T07:23:12.647Z</time>
      </trkpt>
      <trkpt lat="48.37422" lon="2.5146">
        <ele>85</ele>
        <time>2022-08-10T07:23:17.643Z</time>
      </trkpt>
      <trkpt lat="48.37424" lon="2.51466">
        <ele>85</ele>
        <time>2022-08-10T07:23:21.645Z</time>
      </trkpt>
      <trkpt lat="48.37426" lon="2.5147">
        <ele>85</ele>
        <time>2022-08-10T07:23:26.654Z</time>
      </trkpt>
      <trkpt lat="48.37423" lon="2.51475">
        <ele>85</ele>
        <time>2022-08-10T07:23:30.677Z</time>
      </trkpt>
      <trkpt lat="48.37419" lon="2.51479">
        <ele>85</ele>
        <time>2022-08-10T07:23:35.657Z</time>
      </trkpt>
      <trkpt lat="48.37416" lon="2.51485">
        <ele>85</ele>
        <time>2022-08-10T07:23:40.653Z</time>
      </trkpt>
      <trkpt lat="48.37414" lon="2.51489">
        <ele>86</ele>
        <time>2022-08-10T07:23:44.668Z</time>
      </trkpt>
      <trkpt lat="48.37412" lon="2.51495">
        <ele>86</ele>
        <time>2022-08-10T07:23:49.653Z</time>
      </trkpt>
      <trkpt lat="48.37408" lon="2.51499">
        <ele>86</ele>
        <time>2022-08-10T07:23:54.656Z</time>
      </trkpt>
      <trkpt lat="48.37407" lon="2.51506">
        <ele>86</ele>
        <time>2022-08-10T07:23:59.648Z</time>
      </trkpt>
      <trkpt lat="48.37408" lon="2.51512">
        <ele>86</ele>
        <time>2022-08-10T07:24:03.655Z</time>
      </trkpt>
      <trkpt lat="48.3741" lon="2.51519">
        <ele>89</ele>
        <time>2022-08-10T07:24:08.657Z</time>
      </trkpt>
      <trkpt lat="48.37412" lon="2.51527">
        <ele>89</ele>
        <time>2022-08-10T07:24:13.656Z</time>
      </trkpt>
      <trkpt lat="48.37414" lon="2.51533">
        <ele>89</ele>
        <time>2022-08-10T07:24:17.658Z</time>
      </trkpt>
      <trkpt lat="48.37417" lon="2.5154">
        <ele>89</ele>
        <time>2022-08-10T07:24:22.658Z</time>
      </trkpt>
      <trkpt lat="48.3742" lon="2.51548">
        <ele>92</ele>
        <time>2022-08-10T07:24:26.675Z</time>
      </trkpt>
      <trkpt lat="48.37425" lon="2.51555">
        <ele>92</ele>
        <time>2022-08-10T07:24:30.656Z</time>
      </trkpt>
      <trkpt lat="48.37429" lon="2.51561">
        <ele>92</ele>
        <time>2022-08-10T07:24:35.660Z</time>
      </trkpt>
      <trkpt lat="48.37433" lon="2.51567">
        <ele>89</ele>
        <time>2022-08-10T07:24:40.665Z</time>
      </trkpt>
      <trkpt lat="48.37435" lon="2.51572">
        <ele>91</ele>
        <time>2022-08-10T07:24:44.663Z</time>
      </trkpt>
      <trkpt lat="48.37437" lon="2.51579">
        <ele>91</ele>
        <time>2022-08-10T07:24:49.655Z</time>
      </trkpt>
      <trkpt lat="48.37439" lon="2.51585">
        <ele>91</ele>
        <time>2022-08-10T07:24:54.652Z</time>
      </trkpt>
      <trkpt lat="48.37444" lon="2.51591">
        <ele>91</ele>
        <time>2022-08-10T07:24:59.647Z</time>
      </trkpt>
      <trkpt lat="48.37446" lon="2.51595">
        <ele>91</ele>
        <time>2022-08-10T07:25:03.651Z</time>
      </trkpt>
      <trkpt lat="48.37448" lon="2.516">
        <ele>95</ele>
        <time>2022-08-10T07:25:08.652Z</time>
      </trkpt>
      <trkpt lat="48.3745" lon="2.51608">
        <ele>95</ele>
        <time>2022-08-10T07:25:13.656Z</time>
      </trkpt>
      <trkpt lat="48.37454" lon="2.51614">
        <ele>95</ele>
        <time>2022-08-10T07:25:18.650Z</time>
      </trkpt>
      <trkpt lat="48.37457" lon="2.51618">
        <ele>95</ele>
        <time>2022-08-10T07:25:22.658Z</time>
      </trkpt>
      <trkpt lat="48.37462" lon="2.51624">
        <ele>93</ele>
        <time>2022-08-10T07:25:27.654Z</time>
      </trkpt>
      <trkpt lat="48.37465" lon="2.51632">
        <ele>96</ele>
        <time>2022-08-10T07:25:32.654Z</time>
      </trkpt>
      <trkpt lat="48.37469" lon="2.51636">
        <ele>96</ele>
        <time>2022-08-10T07:25:36.656Z</time>
      </trkpt>
      <trkpt lat="48.37473" lon="2.51642">
        <ele>96</ele>
        <time>2022-08-10T07:25:41.666Z</time>
      </trkpt>
      <trkpt lat="48.37475" lon="2.51648">
        <ele>96</ele>
        <time>2022-08-10T07:25:46.663Z</time>
      </trkpt>
      <trkpt lat="48.37478" lon="2.51655">
        <ele>100</ele>
        <time>2022-08-10T07:25:51.677Z</time>
      </trkpt>
      <trkpt lat="48.3748" lon="2.51663">
        <ele>100</ele>
        <time>2022-08-10T07:25:56.664Z</time>
      </trkpt>
      <trkpt lat="48.37482" lon="2.51668">
        <ele>100</ele>
        <time>2022-08-10T07:26:01.650Z</time>
      </trkpt>
      <trkpt lat="48.37484" lon="2.51673">
        <ele>100</ele>
        <time>2022-08-10T07:26:06.678Z</time>
      </trkpt>
      <trkpt lat="48.37488" lon="2.51678">
        <ele>98</ele>
        <time>2022-08-10T07:26:11.681Z</time>
      </trkpt>
      <trkpt lat="48.3749" lon="2.51683">
        <ele>102</ele>
        <time>2022-08-10T07:26:16.668Z</time>
      </trkpt>
      <trkpt lat="48.37491" lon="2.51689">
        <ele>102</ele>
        <time>2022-08-10T07:26:21.653Z</time>
      </trkpt>
      <trkpt lat="48.37493" lon="2.51693">
        <ele>102</ele>
        <time>2022-08-10T07:26:25.652Z</time>
      </trkpt>
      <trkpt lat="48.37496" lon="2.51699">
        <ele>102</ele>
        <time>2022-08-10T07:26:30.664Z</time>
      </trkpt>
      <trkpt lat="48.37499" lon="2.51707">
        <ele>102</ele>
        <time>2022-08-10T07:26:35.662Z</time>
      </trkpt>
      <trkpt lat="48.37502" lon="2.51713">
        <ele>105</ele>
        <time>2022-08-10T07:26:40.661Z</time>
      </trkpt>
      <trkpt lat="48.37506" lon="2.51718">
        <ele>105</ele>
        <time>2022-08-10T07:26:45.653Z</time>
      </trkpt>
      <trkpt lat="48.37507" lon="2.51725">
        <ele>105</ele>
        <time>2022-08-10T07:26:49.665Z</time>
      </trkpt>
      <trkpt lat="48.37505" lon="2.51729">
        <ele>105</ele>
        <time>2022-08-10T07:26:53.659Z</time>
      </trkpt>
      <trkpt lat="48.37504" lon="2.51735">
        <ele>105</ele>
        <time>2022-08-10T07:26:58.671Z</time>
      </trkpt>
      <trkpt lat="48.37502" lon="2.51742">
        <ele>106</ele>
        <time>2022-08-10T07:27:03.670Z</time>
      </trkpt>
      <trkpt lat="48.37499" lon="2.51748">
        <ele>106</ele>
        <time>2022-08-10T07:27:07.664Z</time>
      </trkpt>
      <trkpt lat="48.37498" lon="2.51753">
        <ele>106</ele>
        <time>2022-08-10T07:27:12.659Z</time>
      </trkpt>
      <trkpt lat="48.37496" lon="2.51758">
        <ele>106</ele>
        <time>2022-08-10T07:27:16.681Z</time>
      </trkpt>
      <trkpt lat="48.37497" lon="2.51767">
        <ele>106</ele>
        <time>2022-08-10T07:27:21.653Z</time>
      </trkpt>
      <trkpt lat="48.37496" lon="2.51775">
        <ele>106</ele>
        <time>2022-08-10T07:27:26.669Z</time>
      </trkpt>
      <trkpt lat="48.37495" lon="2.51783">
        <ele>106</ele>
        <time>2022-08-10T07:27:31.675Z</time>
      </trkpt>
      <trkpt lat="48.37494" lon="2.51791">
        <ele>106</ele>
        <time>2022-08-10T07:27:36.676Z</time>
      </trkpt>
      <trkpt lat="48.37492" lon="2.51797">
        <ele>104</ele>
        <time>2022-08-10T07:27:41.660Z</time>
      </trkpt>
      <trkpt lat="48.37491" lon="2.51803">
        <ele>104</ele>
        <time>2022-08-10T07:27:45.657Z</time>
      </trkpt>
      <trkpt lat="48.3749" lon="2.51806">
        <ele>104</ele>
        <time>2022-08-10T07:27:49.668Z</time>
      </trkpt>
      <trkpt lat="48.3749" lon="2.51813">
        <ele>104</ele>
        <time>2022-08-10T07:27:54.668Z</time>
      </trkpt>
      <trkpt lat="48.37486" lon="2.51818">
        <ele>104</ele>
        <time>2022-08-10T07:27:59.658Z</time>
      </trkpt>
      <trkpt lat="48.37484" lon="2.5182">
        <ele>104</ele>
        <time>2022-08-10T07:28:03.659Z</time>
      </trkpt>
      <trkpt lat="48.3748" lon="2.5182">
        <ele>104</ele>
        <time>2022-08-10T07:28:08.662Z</time>
      </trkpt>
      <trkpt lat="48.37476" lon="2.51819">
        <ele>107</ele>
        <time>2022-08-10T07:28:12.665Z</time>
      </trkpt>
      <trkpt lat="48.37472" lon="2.5182">
        <ele>104</ele>
        <time>2022-08-10T07:28:17.670Z</time>
      </trkpt>
      <trkpt lat="48.37469" lon="2.51817">
        <ele>107</ele>
        <time>2022-08-10T07:28:22.658Z</time>
      </trkpt>
      <trkpt lat="48.37462" lon="2.51816">
        <ele>107</ele>
        <time>2022-08-10T07:28:27.667Z</time>
      </trkpt>
      <trkpt lat="48.37459" lon="2.51811">
        <ele>107</ele>
        <time>2022-08-10T07:28:32.685Z</time>
      </trkpt>
      <trkpt lat="48.37457" lon="2.51806">
        <ele>107</ele>
        <time>2022-08-10T07:28:37.670Z</time>
      </trkpt>
      <trkpt lat="48.37454" lon="2.51798">
        <ele>107</ele>
        <time>2022-08-10T07:28:42.662Z</time>
      </trkpt>
      <trkpt lat="48.37451" lon="2.51793">
        <ele>107</ele>
        <time>2022-08-10T07:28:47.660Z</time>
      </trkpt>
      <trkpt lat="48.37447" lon="2.51788">
        <ele>110</ele>
        <time>2022-08-10T07:28:52.665Z</time>
      </trkpt>
      <trkpt lat="48.37443" lon="2.51784">
        <ele>110</ele>
        <time>2022-08-10T07:28:56.712Z</time>
      </trkpt>
      <trkpt lat="48.37437" lon="2.51784">
        <ele>110</ele>
        <time>2022-08-10T07:29:01.675Z</time>
      </trkpt>
      <trkpt lat="48.3743" lon="2.51775">
        <ele>108</ele>
        <time>2022-08-10T07:29:06.698Z</time>
      </trkpt>
      <trkpt lat="48.37426" lon="2.5177">
        <ele>108</ele>
        <time>2022-08-10T07:29:11.687Z</time>
      </trkpt>
      <trkpt lat="48.37421" lon="2.51768">
        <ele>108</ele>
        <time>2022-08-10T07:29:15.687Z</time>
      </trkpt>
      <trkpt lat="48.37413" lon="2.51767">
        <ele>108</ele>
        <time>2022-08-10T07:29:20.692Z</time>
      </trkpt>
      <trkpt lat="48.37409" lon="2.51768">
        <ele>108</ele>
        <time>2022-08-10T07:29:25.659Z</time>
      </trkpt>
      <trkpt lat="48.37403" lon="2.51768">
        <ele>108</ele>
        <time>2022-08-10T07:29:30.649Z</time>
      </trkpt>
      <trkpt lat="48.37398" lon="2.5177">
        <ele>106</ele>
        <time>2022-08-10T07:29:34.670Z</time>
      </trkpt>
      <trkpt lat="48.37393" lon="2.51773">
        <ele>106</ele>
        <time>2022-08-10T07:29:39.656Z</time>
      </trkpt>
      <trkpt lat="48.37389" lon="2.5178">
        <ele>106</ele>
        <time>2022-08-10T07:29:43.695Z</time>
      </trkpt>
      <trkpt lat="48.37384" lon="2.51787">
        <ele>106</ele>
        <time>2022-08-10T07:29:48.653Z</time>
      </trkpt>
      <trkpt lat="48.37381" lon="2.51791">
        <ele>106</ele>
        <time>2022-08-10T07:29:53.650Z</time>
      </trkpt>
      <trkpt lat="48.37375" lon="2.51789">
        <ele>102</ele>
        <time>2022-08-10T07:29:57.655Z</time>
      </trkpt>
      <trkpt lat="48.3737" lon="2.51797">
        <ele>99</ele>
        <time>2022-08-10T07:31:49.693Z</time>
      </trkpt>
      <trkpt lat="48.37368" lon="2.51798">
        <ele>99</ele>
        <time>2022-08-10T07:31:53.701Z</time>
      </trkpt>
      <trkpt lat="48.37366" lon="2.51802">
        <ele>99</ele>
        <time>2022-08-10T07:31:58.710Z</time>
      </trkpt>
      <trkpt lat="48.37365" lon="2.51806">
        <ele>99</ele>
        <time>2022-08-10T07:32:02.702Z</time>
      </trkpt>
      <trkpt lat="48.37364" lon="2.51811">
        <ele>99</ele>
        <time>2022-08-10T07:32:07.694Z</time>
      </trkpt>
      <trkpt lat="48.37362" lon="2.51812">
        <ele>99</ele>
        <time>2022-08-10T07:32:12.707Z</time>
      </trkpt>
      <trkpt lat="48.37361" lon="2.51815">
        <ele>99</ele>
        <time>2022-08-10T07:32:17.670Z</time>
      </trkpt>
      <trkpt lat="48.37359" lon="2.51816">
        <ele>99</ele>
        <time>2022-08-10T07:32:22.692Z</time>
      </trkpt>
      <trkpt lat="48.37355" lon="2.51816">
        <ele>99</ele>
        <time>2022-08-10T07:32:27.706Z</time>
      </trkpt>
      <trkpt lat="48.37352" lon="2.51817">
        <ele>99</ele>
        <time>2022-08-10T07:32:32.690Z</time>
      </trkpt>
      <trkpt lat="48.3735" lon="2.5182">
        <ele>93</ele>
        <time>2022-08-10T07:32:42.720Z</time>
      </trkpt>
      <trkpt lat="48.37348" lon="2.5182">
        <ele>93</ele>
        <time>2022-08-10T07:32:47.699Z</time>
      </trkpt>
      <trkpt lat="48.37346" lon="2.51818">
        <ele>93</ele>
        <time>2022-08-10T07:32:51.701Z</time>
      </trkpt>
      <trkpt lat="48.37342" lon="2.51819">
        <ele>93</ele>
        <time>2022-08-10T07:32:55.710Z</time>
      </trkpt>
      <trkpt lat="48.3734" lon="2.51819">
        <ele>93</ele>
        <time>2022-08-10T07:33:00.653Z</time>
      </trkpt>
      <trkpt lat="48.37338" lon="2.51821">
        <ele>88</ele>
        <time>2022-08-10T07:33:05.649Z</time>
      </trkpt>
      <trkpt lat="48.37342" lon="2.51826">
        <ele>88</ele>
        <time>2022-08-10T07:33:09.668Z</time>
      </trkpt>
      <trkpt lat="48.37342" lon="2.5183">
        <ele>88</ele>
        <time>2022-08-10T07:33:14.651Z</time>
      </trkpt>
      <trkpt lat="48.37342" lon="2.51835">
        <ele>88</ele>
        <time>2022-08-10T07:33:19.651Z</time>
      </trkpt>
      <trkpt lat="48.37342" lon="2.51848">
        <ele>84</ele>
        <time>2022-08-10T07:33:36.662Z</time>
      </trkpt>
      <trkpt lat="48.37342" lon="2.51848">
        <ele>84</ele>
        <time>2022-08-10T07:33:40.648Z</time>
      </trkpt>
      <trkpt lat="48.37342" lon="2.51849">
        <ele>84</ele>
        <time>2022-08-10T07:33:45.647Z</time>
      </trkpt>
      <trkpt lat="48.3734" lon="2.51849">
        <ele>84</ele>
        <time>2022-08-10T07:33:50.650Z</time>
      </trkpt>
      <trkpt lat="48.37338" lon="2.51852">
        <ele>84</ele>
        <time>2022-08-10T07:33:54.658Z</time>
      </trkpt>
      <trkpt lat="48.37339" lon="2.51855">
        <ele>84</ele>
        <time>2022-08-10T07:33:58.656Z</time>
      </trkpt>
      <trkpt lat="48.3734" lon="2.51862">
        <ele>84</ele>
        <time>2022-08-10T07:34:03.649Z</time>
      </trkpt>
      <trkpt lat="48.37341" lon="2.51868">
        <ele>84</ele>
        <time>2022-08-10T07:34:08.655Z</time>
      </trkpt>
      <trkpt lat="48.37342" lon="2.51874">
        <ele>84</ele>
        <time>2022-08-10T07:34:13.647Z</time>
      </trkpt>
      <trkpt lat="48.37342" lon="2.51878">
        <ele>83</ele>
        <time>2022-08-10T07:34:17.653Z</time>
      </trkpt>
      <trkpt lat="48.3734" lon="2.5188">
        <ele>83</ele>
        <time>2022-08-10T07:34:21.658Z</time>
      </trkpt>
      <trkpt lat="48.3734" lon="2.51887">
        <ele>83</ele>
        <time>2022-08-10T07:34:26.656Z</time>
      </trkpt>
      <trkpt lat="48.37339" lon="2.51895">
        <ele>83</ele>
        <time>2022-08-10T07:34:31.643Z</time>
      </trkpt>
      <trkpt lat="48.37334" lon="2.51901">
        <ele>83</ele>
        <time>2022-08-10T07:34:36.647Z</time>
      </trkpt>
      <trkpt lat="48.37329" lon="2.51906">
        <ele>81</ele>
        <time>2022-08-10T07:34:40.662Z</time>
      </trkpt>
      <trkpt lat="48.37322" lon="2.5191">
        <ele>81</ele>
        <time>2022-08-10T07:34:45.674Z</time>
      </trkpt>
      <trkpt lat="48.37316" lon="2.51914">
        <ele>80</ele>
        <time>2022-08-10T07:34:49.693Z</time>
      </trkpt>
      <trkpt lat="48.3731" lon="2.5192">
        <ele>80</ele>
        <time>2022-08-10T07:34:54.684Z</time>
      </trkpt>
      <trkpt lat="48.37305" lon="2.51926">
        <ele>80</ele>
        <time>2022-08-10T07:34:59.688Z</time>
      </trkpt>
      <trkpt lat="48.37299" lon="2.51932">
        <ele>77</ele>
        <time>2022-08-10T07:35:04.650Z</time>
      </trkpt>
      <trkpt lat="48.37295" lon="2.51935">
        <ele>77</ele>
        <time>2022-08-10T07:35:08.679Z</time>
      </trkpt>
      <trkpt lat="48.37291" lon="2.51936">
        <ele>76</ele>
        <time>2022-08-10T07:35:12.693Z</time>
      </trkpt>
      <trkpt lat="48.37285" lon="2.5194">
        <ele>76</ele>
        <time>2022-08-10T07:35:17.700Z</time>
      </trkpt>
      <trkpt lat="48.37278" lon="2.51943">
        <ele>76</ele>
        <time>2022-08-10T07:35:22.690Z</time>
      </trkpt>
      <trkpt lat="48.37274" lon="2.51946">
        <ele>76</ele>
        <time>2022-08-10T07:35:26.691Z</time>
      </trkpt>
      <trkpt lat="48.37266" lon="2.51952">
        <ele>76</ele>
        <time>2022-08-10T07:35:31.696Z</time>
      </trkpt>
      <trkpt lat="48.3726" lon="2.51957">
        <ele>75</ele>
        <time>2022-08-10T07:35:36.708Z</time>
      </trkpt>
      <trkpt lat="48.37253" lon="2.51965">
        <ele>75</ele>
        <time>2022-08-10T07:35:41.662Z</time>
      </trkpt>
      <trkpt lat="48.37248" lon="2.51968">
        <ele>75</ele>
        <time>2022-08-10T07:35:45.674Z</time>
      </trkpt>
      <trkpt lat="48.3724" lon="2.51972">
        <ele>75</ele>
        <time>2022-08-10T07:35:50.659Z</time>
      </trkpt>
      <trkpt lat="48.37235" lon="2.51978">
        <ele>74</ele>
        <time>2022-08-10T07:35:55.662Z</time>
      </trkpt>
      <trkpt lat="48.37232" lon="2.51983">
        <ele>74</ele>
        <time>2022-08-10T07:35:59.708Z</time>
      </trkpt>
      <trkpt lat="48.37226" lon="2.51988">
        <ele>75</ele>
        <time>2022-08-10T07:36:04.720Z</time>
      </trkpt>
      <trkpt lat="48.37219" lon="2.51994">
        <ele>75</ele>
        <time>2022-08-10T07:36:09.686Z</time>
      </trkpt>
      <trkpt lat="48.37213" lon="2.51999">
        <ele>75</ele>
        <time>2022-08-10T07:36:14.695Z</time>
      </trkpt>
      <trkpt lat="48.37205" lon="2.52004">
        <ele>76</ele>
        <time>2022-08-10T07:36:19.692Z</time>
      </trkpt>
      <trkpt lat="48.372" lon="2.52007">
        <ele>76</ele>
        <time>2022-08-10T07:36:23.691Z</time>
      </trkpt>
      <trkpt lat="48.37192" lon="2.5201">
        <ele>76</ele>
        <time>2022-08-10T07:36:28.684Z</time>
      </trkpt>
      <trkpt lat="48.37185" lon="2.52013">
        <ele>76</ele>
        <time>2022-08-10T07:36:33.696Z</time>
      </trkpt>
      <trkpt lat="48.3718" lon="2.52014">
        <ele>77</ele>
        <time>2022-08-10T07:36:37.697Z</time>
      </trkpt>
      <trkpt lat="48.37175" lon="2.52018">
        <ele>77</ele>
        <time>2022-08-10T07:36:41.704Z</time>
      </trkpt>
      <trkpt lat="48.37169" lon="2.52022">
        <ele>77</ele>
        <time>2022-08-10T07:36:46.697Z</time>
      </trkpt>
      <trkpt lat="48.37162" lon="2.52027">
        <ele>77</ele>
        <time>2022-08-10T07:36:51.654Z</time>
      </trkpt>
      <trkpt lat="48.37156" lon="2.5203">
        <ele>77</ele>
        <time>2022-08-10T07:36:55.695Z</time>
      </trkpt>
      <trkpt lat="48.37156" lon="2.52041">
        <ele>77</ele>
        <time>2022-08-10T07:37:00.694Z</time>
      </trkpt>
      <trkpt lat="48.37158" lon="2.52049">
        <ele>77</ele>
        <time>2022-08-10T07:37:05.692Z</time>
      </trkpt>
      <trkpt lat="48.3716" lon="2.52057">
        <ele>77</ele>
        <time>2022-08-10T07:37:10.709Z</time>
      </trkpt>
      <trkpt lat="48.37161" lon="2.52068">
        <ele>77</ele>
        <time>2022-08-10T07:37:15.673Z</time>
      </trkpt>
      <trkpt lat="48.37162" lon="2.52074">
        <ele>76</ele>
        <time>2022-08-10T07:37:19.697Z</time>
      </trkpt>
      <trkpt lat="48.37164" lon="2.52081">
        <ele>76</ele>
        <time>2022-08-10T07:37:23.704Z</time>
      </trkpt>
      <trkpt lat="48.37166" lon="2.52088">
        <ele>76</ele>
        <time>2022-08-10T07:37:28.705Z</time>
      </trkpt>
      <trkpt lat="48.37169" lon="2.52098">
        <ele>76</ele>
        <time>2022-08-10T07:37:33.681Z</time>
      </trkpt>
      <trkpt lat="48.37171" lon="2.52108">
        <ele>76</ele>
        <time>2022-08-10T07:37:38.701Z</time>
      </trkpt>
      <trkpt lat="48.37172" lon="2.52117">
        <ele>76</ele>
        <time>2022-08-10T07:37:43.672Z</time>
      </trkpt>
      <trkpt lat="48.37173" lon="2.52125">
        <ele>76</ele>
        <time>2022-08-10T07:37:47.696Z</time>
      </trkpt>
      <trkpt lat="48.37176" lon="2.52134">
        <ele>76</ele>
        <time>2022-08-10T07:37:52.709Z</time>
      </trkpt>
      <trkpt lat="48.37178" lon="2.52141">
        <ele>76</ele>
        <time>2022-08-10T07:37:56.706Z</time>
      </trkpt>
      <trkpt lat="48.37178" lon="2.5215">
        <ele>76</ele>
        <time>2022-08-10T07:38:01.704Z</time>
      </trkpt>
      <trkpt lat="48.37173" lon="2.52157">
        <ele>77</ele>
        <time>2022-08-10T07:38:06.700Z</time>
      </trkpt>
      <trkpt lat="48.37169" lon="2.52164">
        <ele>77</ele>
        <time>2022-08-10T07:38:10.707Z</time>
      </trkpt>
      <trkpt lat="48.37162" lon="2.52171">
        <ele>77</ele>
        <time>2022-08-10T07:38:15.690Z</time>
      </trkpt>
      <trkpt lat="48.37156" lon="2.52179">
        <ele>77</ele>
        <time>2022-08-10T07:38:20.660Z</time>
      </trkpt>
      <trkpt lat="48.37151" lon="2.52186">
        <ele>76</ele>
        <time>2022-08-10T07:38:24.702Z</time>
      </trkpt>
      <trkpt lat="48.37144" lon="2.52191">
        <ele>76</ele>
        <time>2022-08-10T07:38:29.692Z</time>
      </trkpt>
      <trkpt lat="48.37138" lon="2.52195">
        <ele>76</ele>
        <time>2022-08-10T07:38:33.705Z</time>
      </trkpt>
      <trkpt lat="48.3713" lon="2.522">
        <ele>76</ele>
        <time>2022-08-10T07:38:38.702Z</time>
      </trkpt>
      <trkpt lat="48.37126" lon="2.52203">
        <ele>76</ele>
        <time>2022-08-10T07:38:42.710Z</time>
      </trkpt>
      <trkpt lat="48.37121" lon="2.52206">
        <ele>75</ele>
        <time>2022-08-10T07:38:47.693Z</time>
      </trkpt>
      <trkpt lat="48.37115" lon="2.5221">
        <ele>76</ele>
        <time>2022-08-10T07:38:52.679Z</time>
      </trkpt>
      <trkpt lat="48.3711" lon="2.52215">
        <ele>76</ele>
        <time>2022-08-10T07:38:56.684Z</time>
      </trkpt>
      <trkpt lat="48.37106" lon="2.5222">
        <ele>76</ele>
        <time>2022-08-10T07:39:00.703Z</time>
      </trkpt>
      <trkpt lat="48.37098" lon="2.52226">
        <ele>76</ele>
        <time>2022-08-10T07:39:05.699Z</time>
      </trkpt>
      <trkpt lat="48.37092" lon="2.52233">
        <ele>76</ele>
        <time>2022-08-10T07:39:10.644Z</time>
      </trkpt>
      <trkpt lat="48.37086" lon="2.52238">
        <ele>76</ele>
        <time>2022-08-10T07:39:14.711Z</time>
      </trkpt>
      <trkpt lat="48.3708" lon="2.52243">
        <ele>76</ele>
        <time>2022-08-10T07:39:19.651Z</time>
      </trkpt>
      <trkpt lat="48.37077" lon="2.52246">
        <ele>76</ele>
        <time>2022-08-10T07:39:23.672Z</time>
      </trkpt>
      <trkpt lat="48.37071" lon="2.52249">
        <ele>76</ele>
        <time>2022-08-10T07:39:28.694Z</time>
      </trkpt>
      <trkpt lat="48.37067" lon="2.5225">
        <ele>75</ele>
        <time>2022-08-10T07:39:32.685Z</time>
      </trkpt>
      <trkpt lat="48.3706" lon="2.52255">
        <ele>75</ele>
        <time>2022-08-10T07:39:37.694Z</time>
      </trkpt>
      <trkpt lat="48.37054" lon="2.52259">
        <ele>75</ele>
        <time>2022-08-10T07:39:42.651Z</time>
      </trkpt>
      <trkpt lat="48.37048" lon="2.52262">
        <ele>75</ele>
        <time>2022-08-10T07:39:46.656Z</time>
      </trkpt>
      <trkpt lat="48.37044" lon="2.52265">
        <ele>75</ele>
        <time>2022-08-10T07:39:50.659Z</time>
      </trkpt>
      <trkpt lat="48.37035" lon="2.52269">
        <ele>75</ele>
        <time>2022-08-10T07:39:55.653Z</time>
      </trkpt>
      <trkpt lat="48.37021" lon="2.52281">
        <ele>75</ele>
        <time>2022-08-10T07:39:59.655Z</time>
      </trkpt>
      <trkpt lat="48.37018" lon="2.52278">
        <ele>75</ele>
        <time>2022-08-10T07:40:04.646Z</time>
      </trkpt>
      <trkpt lat="48.3701" lon="2.52282">
        <ele>75</ele>
        <time>2022-08-10T07:40:09.651Z</time>
      </trkpt>
      <trkpt lat="48.37006" lon="2.52283">
        <ele>75</ele>
        <time>2022-08-10T07:40:13.648Z</time>
      </trkpt>
      <trkpt lat="48.37002" lon="2.52289">
        <ele>75</ele>
        <time>2022-08-10T07:40:17.646Z</time>
      </trkpt>
      <trkpt lat="48.36996" lon="2.52292">
        <ele>76</ele>
        <time>2022-08-10T07:40:22.664Z</time>
      </trkpt>
      <trkpt lat="48.36989" lon="2.52297">
        <ele>76</ele>
        <time>2022-08-10T07:40:27.644Z</time>
      </trkpt>
      <trkpt lat="48.36983" lon="2.523">
        <ele>76</ele>
        <time>2022-08-10T07:40:32.652Z</time>
      </trkpt>
      <trkpt lat="48.36978" lon="2.52305">
        <ele>76</ele>
        <time>2022-08-10T07:40:37.648Z</time>
      </trkpt>
      <trkpt lat="48.36972" lon="2.52312">
        <ele>76</ele>
        <time>2022-08-10T07:40:42.661Z</time>
      </trkpt>
      <trkpt lat="48.36952" lon="2.52322">
        <ele>77</ele>
        <time>2022-08-10T07:42:30.697Z</time>
      </trkpt>
      <trkpt lat="48.36949" lon="2.52317">
        <ele>76</ele>
        <time>2022-08-10T07:42:35.690Z</time>
      </trkpt>
      <trkpt lat="48.36949" lon="2.52316">
        <ele>76</ele>
        <time>2022-08-10T07:42:39.712Z</time>
      </trkpt>
      <trkpt lat="48.36948" lon="2.52313">
        <ele>76</ele>
        <time>2022-08-10T07:42:44.666Z</time>
      </trkpt>
      <trkpt lat="48.36947" lon="2.52314">
        <ele>76</ele>
        <time>2022-08-10T07:42:49.693Z</time>
      </trkpt>
      <trkpt lat="48.36946" lon="2.52314">
        <ele>76</ele>
        <time>2022-08-10T07:43:16.686Z</time>
      </trkpt>
      <trkpt lat="48.36946" lon="2.52315">
        <ele>76</ele>
        <time>2022-08-10T07:43:20.706Z</time>
      </trkpt>
      <trkpt lat="48.36945" lon="2.52314">
        <ele>76</ele>
        <time>2022-08-10T07:43:25.697Z</time>
      </trkpt>
      <trkpt lat="48.36941" lon="2.5231">
        <ele>76</ele>
        <time>2022-08-10T07:43:30.708Z</time>
      </trkpt>
      <trkpt lat="48.36937" lon="2.52306">
        <ele>76</ele>
        <time>2022-08-10T07:43:35.707Z</time>
      </trkpt>
      <trkpt lat="48.36935" lon="2.52298">
        <ele>76</ele>
        <time>2022-08-10T07:43:40.662Z</time>
      </trkpt>
      <trkpt lat="48.36933" lon="2.52286">
        <ele>76</ele>
        <time>2022-08-10T07:43:45.658Z</time>
      </trkpt>
      <trkpt lat="48.36929" lon="2.52276">
        <ele>75</ele>
        <time>2022-08-10T07:43:50.714Z</time>
      </trkpt>
      <trkpt lat="48.36924" lon="2.52268">
        <ele>75</ele>
        <time>2022-08-10T07:43:55.693Z</time>
      </trkpt>
      <trkpt lat="48.36921" lon="2.52262">
        <ele>74</ele>
        <time>2022-08-10T07:44:00.720Z</time>
      </trkpt>
      <trkpt lat="48.3692" lon="2.52255">
        <ele>74</ele>
        <time>2022-08-10T07:44:05.707Z</time>
      </trkpt>
      <trkpt lat="48.36918" lon="2.52247">
        <ele>74</ele>
        <time>2022-08-10T07:44:10.697Z</time>
      </trkpt>
      <trkpt lat="48.36913" lon="2.52236">
        <ele>74</ele>
        <time>2022-08-10T07:44:15.686Z</time>
      </trkpt>
      <trkpt lat="48.36909" lon="2.52228">
        <ele>74</ele>
        <time>2022-08-10T07:44:19.685Z</time>
      </trkpt>
      <trkpt lat="48.36907" lon="2.52221">
        <ele>74</ele>
        <time>2022-08-10T07:44:23.716Z</time>
      </trkpt>
      <trkpt lat="48.36905" lon="2.52212">
        <ele>74</ele>
        <time>2022-08-10T07:44:28.723Z</time>
      </trkpt>
      <trkpt lat="48.36903" lon="2.52202">
        <ele>74</ele>
        <time>2022-08-10T07:44:33.696Z</time>
      </trkpt>
      <trkpt lat="48.369" lon="2.52192">
        <ele>74</ele>
        <time>2022-08-10T07:44:38.696Z</time>
      </trkpt>
      <trkpt lat="48.36896" lon="2.52187">
        <ele>74</ele>
        <time>2022-08-10T07:44:42.705Z</time>
      </trkpt>
      <trkpt lat="48.36891" lon="2.5218">
        <ele>74</ele>
        <time>2022-08-10T07:44:47.708Z</time>
      </trkpt>
      <trkpt lat="48.36884" lon="2.52173">
        <ele>74</ele>
        <time>2022-08-10T07:44:52.688Z</time>
      </trkpt>
      <trkpt lat="48.36879" lon="2.52169">
        <ele>74</ele>
        <time>2022-08-10T07:44:56.697Z</time>
      </trkpt>
      <trkpt lat="48.36873" lon="2.52162">
        <ele>75</ele>
        <time>2022-08-10T07:45:01.719Z</time>
      </trkpt>
      <trkpt lat="48.36866" lon="2.52157">
        <ele>75</ele>
        <time>2022-08-10T07:45:06.678Z</time>
      </trkpt>
      <trkpt lat="48.36861" lon="2.52156">
        <ele>75</ele>
        <time>2022-08-10T07:45:10.708Z</time>
      </trkpt>
      <trkpt lat="48.36856" lon="2.52152">
        <ele>75</ele>
        <time>2022-08-10T07:45:15.675Z</time>
      </trkpt>
      <trkpt lat="48.36851" lon="2.52147">
        <ele>75</ele>
        <time>2022-08-10T07:45:20.682Z</time>
      </trkpt>
      <trkpt lat="48.36844" lon="2.52145">
        <ele>76</ele>
        <time>2022-08-10T07:45:24.713Z</time>
      </trkpt>
      <trkpt lat="48.36837" lon="2.52144">
        <ele>76</ele>
        <time>2022-08-10T07:45:29.700Z</time>
      </trkpt>
      <trkpt lat="48.36833" lon="2.52143">
        <ele>76</ele>
        <time>2022-08-10T07:45:33.698Z</time>
      </trkpt>
      <trkpt lat="48.36827" lon="2.52142">
        <ele>76</ele>
        <time>2022-08-10T07:45:37.703Z</time>
      </trkpt>
      <trkpt lat="48.3682" lon="2.52141">
        <ele>76</ele>
        <time>2022-08-10T07:45:42.702Z</time>
      </trkpt>
      <trkpt lat="48.36812" lon="2.52142">
        <ele>76</ele>
        <time>2022-08-10T07:45:47.693Z</time>
      </trkpt>
      <trkpt lat="48.36806" lon="2.52145">
        <ele>76</ele>
        <time>2022-08-10T07:45:52.702Z</time>
      </trkpt>
      <trkpt lat="48.36798" lon="2.52148">
        <ele>76</ele>
        <time>2022-08-10T07:45:57.677Z</time>
      </trkpt>
      <trkpt lat="48.36791" lon="2.5215">
        <ele>76</ele>
        <time>2022-08-10T07:46:02.657Z</time>
      </trkpt>
      <trkpt lat="48.36785" lon="2.52149">
        <ele>76</ele>
        <time>2022-08-10T07:46:06.700Z</time>
      </trkpt>
      <trkpt lat="48.3678" lon="2.52148">
        <ele>76</ele>
        <time>2022-08-10T07:46:10.715Z</time>
      </trkpt>
      <trkpt lat="48.36773" lon="2.52145">
        <ele>76</ele>
        <time>2022-08-10T07:46:15.703Z</time>
      </trkpt>
      <trkpt lat="48.36765" lon="2.52144">
        <ele>76</ele>
        <time>2022-08-10T07:46:20.649Z</time>
      </trkpt>
      <trkpt lat="48.36758" lon="2.52145">
        <ele>76</ele>
        <time>2022-08-10T07:46:24.681Z</time>
      </trkpt>
      <trkpt lat="48.36754" lon="2.52148">
        <ele>76</ele>
        <time>2022-08-10T07:46:28.676Z</time>
      </trkpt>
      <trkpt lat="48.36749" lon="2.52154">
        <ele>77</ele>
        <time>2022-08-10T07:46:33.694Z</time>
      </trkpt>
      <trkpt lat="48.36743" lon="2.52159">
        <ele>77</ele>
        <time>2022-08-10T07:46:37.698Z</time>
      </trkpt>
      <trkpt lat="48.36737" lon="2.52165">
        <ele>77</ele>
        <time>2022-08-10T07:46:42.708Z</time>
      </trkpt>
      <trkpt lat="48.36731" lon="2.52168">
        <ele>77</ele>
        <time>2022-08-10T07:46:47.688Z</time>
      </trkpt>
      <trkpt lat="48.36728" lon="2.52173">
        <ele>77</ele>
        <time>2022-08-10T07:46:52.646Z</time>
      </trkpt>
      <trkpt lat="48.36726" lon="2.52181">
        <ele>78</ele>
        <time>2022-08-10T07:46:56.689Z</time>
      </trkpt>
      <trkpt lat="48.36724" lon="2.52185">
        <ele>78</ele>
        <time>2022-08-10T07:47:01.682Z</time>
      </trkpt>
      <trkpt lat="48.3672" lon="2.52188">
        <ele>78</ele>
        <time>2022-08-10T07:47:06.693Z</time>
      </trkpt>
      <trkpt lat="48.36716" lon="2.52194">
        <ele>78</ele>
        <time>2022-08-10T07:47:11.698Z</time>
      </trkpt>
      <trkpt lat="48.36713" lon="2.52196">
        <ele>78</ele>
        <time>2022-08-10T07:47:16.701Z</time>
      </trkpt>
      <trkpt lat="48.36713" lon="2.52197">
        <ele>78</ele>
        <time>2022-08-10T07:47:21.678Z</time>
      </trkpt>
      <trkpt lat="48.36709" lon="2.52203">
        <ele>78</ele>
        <time>2022-08-10T07:47:26.654Z</time>
      </trkpt>
      <trkpt lat="48.36709" lon="2.52207">
        <ele>78</ele>
        <time>2022-08-10T07:47:31.648Z</time>
      </trkpt>
      <trkpt lat="48.36709" lon="2.52213">
        <ele>79</ele>
        <time>2022-08-10T07:47:36.653Z</time>
      </trkpt>
      <trkpt lat="48.36706" lon="2.52218">
        <ele>80</ele>
        <time>2022-08-10T07:47:40.652Z</time>
      </trkpt>
      <trkpt lat="48.36703" lon="2.52221">
        <ele>80</ele>
        <time>2022-08-10T07:47:45.643Z</time>
      </trkpt>
      <trkpt lat="48.36699" lon="2.52229">
        <ele>80</ele>
        <time>2022-08-10T07:47:50.654Z</time>
      </trkpt>
      <trkpt lat="48.36697" lon="2.52238">
        <ele>81</ele>
        <time>2022-08-10T07:47:54.659Z</time>
      </trkpt>
      <trkpt lat="48.36694" lon="2.52246">
        <ele>81</ele>
        <time>2022-08-10T07:47:58.656Z</time>
      </trkpt>
      <trkpt lat="48.36688" lon="2.52249">
        <ele>81</ele>
        <time>2022-08-10T07:48:03.669Z</time>
      </trkpt>
      <trkpt lat="48.36683" lon="2.52256">
        <ele>81</ele>
        <time>2022-08-10T07:48:08.668Z</time>
      </trkpt>
      <trkpt lat="48.36679" lon="2.5226">
        <ele>82</ele>
        <time>2022-08-10T07:48:13.658Z</time>
      </trkpt>
      <trkpt lat="48.36676" lon="2.52262">
        <ele>82</ele>
        <time>2022-08-10T07:48:18.658Z</time>
      </trkpt>
      <trkpt lat="48.36673" lon="2.52268">
        <ele>85</ele>
        <time>2022-08-10T07:48:22.663Z</time>
      </trkpt>
      <trkpt lat="48.3667" lon="2.52271">
        <ele>85</ele>
        <time>2022-08-10T07:48:27.663Z</time>
      </trkpt>
      <trkpt lat="48.36668" lon="2.52272">
        <ele>85</ele>
        <time>2022-08-10T07:48:32.645Z</time>
      </trkpt>
      <trkpt lat="48.36665" lon="2.52274">
        <ele>85</ele>
        <time>2022-08-10T07:48:36.676Z</time>
      </trkpt>
      <trkpt lat="48.36665" lon="2.52279">
        <ele>85</ele>
        <time>2022-08-10T07:48:41.653Z</time>
      </trkpt>
      <trkpt lat="48.36664" lon="2.52283">
        <ele>85</ele>
        <time>2022-08-10T07:48:46.672Z</time>
      </trkpt>
      <trkpt lat="48.36665" lon="2.52288">
        <ele>85</ele>
        <time>2022-08-10T07:48:51.652Z</time>
      </trkpt>
      <trkpt lat="48.36666" lon="2.52293">
        <ele>88</ele>
        <time>2022-08-10T07:48:56.662Z</time>
      </trkpt>
      <trkpt lat="48.36667" lon="2.52296">
        <ele>88</ele>
        <time>2022-08-10T07:49:01.646Z</time>
      </trkpt>
      <trkpt lat="48.36667" lon="2.523">
        <ele>88</ele>
        <time>2022-08-10T07:49:06.656Z</time>
      </trkpt>
      <trkpt lat="48.36664" lon="2.52304">
        <ele>88</ele>
        <time>2022-08-10T07:49:11.663Z</time>
      </trkpt>
      <trkpt lat="48.36664" lon="2.5231">
        <ele>88</ele>
        <time>2022-08-10T07:49:20.667Z</time>
      </trkpt>
      <trkpt lat="48.36665" lon="2.5231">
        <ele>88</ele>
        <time>2022-08-10T07:49:25.653Z</time>
      </trkpt>
      <trkpt lat="48.36665" lon="2.52318">
        <ele>88</ele>
        <time>2022-08-10T07:49:30.670Z</time>
      </trkpt>
      <trkpt lat="48.36667" lon="2.52321">
        <ele>92</ele>
        <time>2022-08-10T07:49:35.653Z</time>
      </trkpt>
      <trkpt lat="48.36664" lon="2.52323">
        <ele>92</ele>
        <time>2022-08-10T07:49:40.663Z</time>
      </trkpt>
      <trkpt lat="48.36667" lon="2.52328">
        <ele>92</ele>
        <time>2022-08-10T07:49:54.662Z</time>
      </trkpt>
      <trkpt lat="48.36668" lon="2.52332">
        <ele>92</ele>
        <time>2022-08-10T07:49:58.666Z</time>
      </trkpt>
      <trkpt lat="48.36665" lon="2.52335">
        <ele>92</ele>
        <time>2022-08-10T07:50:03.650Z</time>
      </trkpt>
      <trkpt lat="48.36665" lon="2.52337">
        <ele>92</ele>
        <time>2022-08-10T07:50:08.659Z</time>
      </trkpt>
      <trkpt lat="48.36665" lon="2.5234">
        <ele>92</ele>
        <time>2022-08-10T07:50:13.647Z</time>
      </trkpt>
      <trkpt lat="48.36659" lon="2.52345">
        <ele>92</ele>
        <time>2022-08-10T07:50:30.663Z</time>
      </trkpt>
      <trkpt lat="48.36659" lon="2.52344">
        <ele>92</ele>
        <time>2022-08-10T07:50:35.657Z</time>
      </trkpt>
      <trkpt lat="48.36657" lon="2.52344">
        <ele>92</ele>
        <time>2022-08-10T07:50:40.658Z</time>
      </trkpt>
      <trkpt lat="48.36655" lon="2.52343">
        <ele>92</ele>
        <time>2022-08-10T07:50:44.661Z</time>
      </trkpt>
      <trkpt lat="48.36649" lon="2.52344">
        <ele>96</ele>
        <time>2022-08-10T07:50:49.668Z</time>
      </trkpt>
      <trkpt lat="48.36644" lon="2.52343">
        <ele>96</ele>
        <time>2022-08-10T07:50:59.653Z</time>
      </trkpt>
      <trkpt lat="48.36642" lon="2.52344">
        <ele>96</ele>
        <time>2022-08-10T07:51:04.652Z</time>
      </trkpt>
      <trkpt lat="48.3664" lon="2.52343">
        <ele>96</ele>
        <time>2022-08-10T07:51:09.661Z</time>
      </trkpt>
      <trkpt lat="48.36637" lon="2.52344">
        <ele>96</ele>
        <time>2022-08-10T07:51:14.664Z</time>
      </trkpt>
      <trkpt lat="48.36636" lon="2.52346">
        <ele>96</ele>
        <time>2022-08-10T07:51:18.677Z</time>
      </trkpt>
      <trkpt lat="48.36634" lon="2.52359">
        <ele>100</ele>
        <time>2022-08-10T07:52:23.673Z</time>
      </trkpt>
      <trkpt lat="48.36637" lon="2.52361">
        <ele>100</ele>
        <time>2022-08-10T07:52:27.689Z</time>
      </trkpt>
      <trkpt lat="48.36639" lon="2.52361">
        <ele>100</ele>
        <time>2022-08-10T07:52:32.692Z</time>
      </trkpt>
      <trkpt lat="48.36642" lon="2.52364">
        <ele>100</ele>
        <time>2022-08-10T07:52:36.712Z</time>
      </trkpt>
      <trkpt lat="48.36643" lon="2.52369">
        <ele>100</ele>
        <time>2022-08-10T07:52:41.669Z</time>
      </trkpt>
      <trkpt lat="48.36647" lon="2.52373">
        <ele>100</ele>
        <time>2022-08-10T07:52:54.651Z</time>
      </trkpt>
      <trkpt lat="48.36648" lon="2.52372">
        <ele>100</ele>
        <time>2022-08-10T07:52:59.654Z</time>
      </trkpt>
      <trkpt lat="48.36651" lon="2.52372">
        <ele>100</ele>
        <time>2022-08-10T07:53:03.658Z</time>
      </trkpt>
      <trkpt lat="48.36651" lon="2.52374">
        <ele>100</ele>
        <time>2022-08-10T07:53:08.657Z</time>
      </trkpt>
      <trkpt lat="48.36656" lon="2.52378">
        <ele>98</ele>
        <time>2022-08-10T07:53:13.698Z</time>
      </trkpt>
      <trkpt lat="48.36649" lon="2.52383">
        <ele>99</ele>
        <time>2022-08-10T07:54:02.719Z</time>
      </trkpt>
      <trkpt lat="48.36648" lon="2.52382">
        <ele>99</ele>
        <time>2022-08-10T07:54:07.676Z</time>
      </trkpt>
      <trkpt lat="48.36648" lon="2.52383">
        <ele>99</ele>
        <time>2022-08-10T07:54:11.681Z</time>
      </trkpt>
      <trkpt lat="48.36648" lon="2.52383">
        <ele>99</ele>
        <time>2022-08-10T07:54:15.682Z</time>
      </trkpt>
      <trkpt lat="48.36648" lon="2.52382">
        <ele>99</ele>
        <time>2022-08-10T07:54:19.715Z</time>
      </trkpt>
      <trkpt lat="48.36655" lon="2.52382">
        <ele>98</ele>
        <time>2022-08-10T08:02:14.725Z</time>
      </trkpt>
      <trkpt lat="48.36657" lon="2.52378">
        <ele>98</ele>
        <time>2022-08-10T08:02:19.681Z</time>
      </trkpt>
      <trkpt lat="48.36659" lon="2.52381">
        <ele>98</ele>
        <time>2022-08-10T08:02:23.691Z</time>
      </trkpt>
      <trkpt lat="48.36662" lon="2.52384">
        <ele>98</ele>
        <time>2022-08-10T08:02:28.696Z</time>
      </trkpt>
      <trkpt lat="48.36663" lon="2.52388">
        <ele>98</ele>
        <time>2022-08-10T08:02:33.714Z</time>
      </trkpt>
      <trkpt lat="48.36664" lon="2.52397">
        <ele>98</ele>
        <time>2022-08-10T08:02:48.715Z</time>
      </trkpt>
      <trkpt lat="48.36665" lon="2.52397">
        <ele>98</ele>
        <time>2022-08-10T08:02:53.650Z</time>
      </trkpt>
      <trkpt lat="48.36667" lon="2.52398">
        <ele>98</ele>
        <time>2022-08-10T08:02:57.721Z</time>
      </trkpt>
      <trkpt lat="48.36667" lon="2.524">
        <ele>98</ele>
        <time>2022-08-10T08:03:02.708Z</time>
      </trkpt>
      <trkpt lat="48.36669" lon="2.52402">
        <ele>98</ele>
        <time>2022-08-10T08:03:06.698Z</time>
      </trkpt>
      <trkpt lat="48.3667" lon="2.52406">
        <ele>96</ele>
        <time>2022-08-10T08:03:11.713Z</time>
      </trkpt>
      <trkpt lat="48.36671" lon="2.52411">
        <ele>96</ele>
        <time>2022-08-10T08:03:16.700Z</time>
      </trkpt>
      <trkpt lat="48.36671" lon="2.52415">
        <ele>96</ele>
        <time>2022-08-10T08:03:21.666Z</time>
      </trkpt>
      <trkpt lat="48.3667" lon="2.52419">
        <ele>96</ele>
        <time>2022-08-10T08:03:25.718Z</time>
      </trkpt>
      <trkpt lat="48.36671" lon="2.52424">
        <ele>96</ele>
        <time>2022-08-10T08:03:34.720Z</time>
      </trkpt>
      <trkpt lat="48.36672" lon="2.52427">
        <ele>96</ele>
        <time>2022-08-10T08:03:39.706Z</time>
      </trkpt>
      <trkpt lat="48.36671" lon="2.52428">
        <ele>96</ele>
        <time>2022-08-10T08:03:43.697Z</time>
      </trkpt>
      <trkpt lat="48.36672" lon="2.52434">
        <ele>92</ele>
        <time>2022-08-10T08:03:48.722Z</time>
      </trkpt>
      <trkpt lat="48.36677" lon="2.52439">
        <ele>92</ele>
        <time>2022-08-10T08:03:53.729Z</time>
      </trkpt>
      <trkpt lat="48.36678" lon="2.52444">
        <ele>92</ele>
        <time>2022-08-10T08:03:58.697Z</time>
      </trkpt>
      <trkpt lat="48.36675" lon="2.52452">
        <ele>92</ele>
        <time>2022-08-10T08:04:02.709Z</time>
      </trkpt>
      <trkpt lat="48.36673" lon="2.52455">
        <ele>92</ele>
        <time>2022-08-10T08:04:07.689Z</time>
      </trkpt>
      <trkpt lat="48.36673" lon="2.52459">
        <ele>89</ele>
        <time>2022-08-10T08:04:11.702Z</time>
      </trkpt>
      <trkpt lat="48.36673" lon="2.52462">
        <ele>89</ele>
        <time>2022-08-10T08:04:16.704Z</time>
      </trkpt>
      <trkpt lat="48.36674" lon="2.52462">
        <ele>89</ele>
        <time>2022-08-10T08:04:20.723Z</time>
      </trkpt>
      <trkpt lat="48.36676" lon="2.52463">
        <ele>89</ele>
        <time>2022-08-10T08:04:25.670Z</time>
      </trkpt>
      <trkpt lat="48.36679" lon="2.52463">
        <ele>89</ele>
        <time>2022-08-10T08:04:29.695Z</time>
      </trkpt>
      <trkpt lat="48.36683" lon="2.52464">
        <ele>86</ele>
        <time>2022-08-10T08:04:34.701Z</time>
      </trkpt>
      <trkpt lat="48.36688" lon="2.52464">
        <ele>86</ele>
        <time>2022-08-10T08:04:39.696Z</time>
      </trkpt>
      <trkpt lat="48.3669" lon="2.52466">
        <ele>86</ele>
        <time>2022-08-10T08:04:44.698Z</time>
      </trkpt>
      <trkpt lat="48.36691" lon="2.52467">
        <ele>86</ele>
        <time>2022-08-10T08:04:49.681Z</time>
      </trkpt>
      <trkpt lat="48.36694" lon="2.52469">
        <ele>86</ele>
        <time>2022-08-10T08:04:53.709Z</time>
      </trkpt>
      <trkpt lat="48.367" lon="2.52472">
        <ele>86</ele>
        <time>2022-08-10T08:04:58.861Z</time>
      </trkpt>
      <trkpt lat="48.36706" lon="2.52472">
        <ele>86</ele>
        <time>2022-08-10T08:05:03.698Z</time>
      </trkpt>
      <trkpt lat="48.3671" lon="2.52472">
        <ele>83</ele>
        <time>2022-08-10T08:05:07.705Z</time>
      </trkpt>
      <trkpt lat="48.36714" lon="2.52472">
        <ele>83</ele>
        <time>2022-08-10T08:05:12.722Z</time>
      </trkpt>
      <trkpt lat="48.36717" lon="2.52471">
        <ele>83</ele>
        <time>2022-08-10T08:05:17.721Z</time>
      </trkpt>
      <trkpt lat="48.36721" lon="2.52474">
        <ele>83</ele>
        <time>2022-08-10T08:05:22.714Z</time>
      </trkpt>
      <trkpt lat="48.36723" lon="2.52477">
        <ele>83</ele>
        <time>2022-08-10T08:05:26.726Z</time>
      </trkpt>
      <trkpt lat="48.36728" lon="2.52481">
        <ele>83</ele>
        <time>2022-08-10T08:05:31.695Z</time>
      </trkpt>
      <trkpt lat="48.36733" lon="2.52487">
        <ele>81</ele>
        <time>2022-08-10T08:05:36.701Z</time>
      </trkpt>
      <trkpt lat="48.36737" lon="2.52489">
        <ele>79</ele>
        <time>2022-08-10T08:05:40.735Z</time>
      </trkpt>
      <trkpt lat="48.36742" lon="2.52494">
        <ele>79</ele>
        <time>2022-08-10T08:05:45.721Z</time>
      </trkpt>
      <trkpt lat="48.36746" lon="2.52499">
        <ele>79</ele>
        <time>2022-08-10T08:05:50.657Z</time>
      </trkpt>
      <trkpt lat="48.36749" lon="2.52503">
        <ele>79</ele>
        <time>2022-08-10T08:05:54.710Z</time>
      </trkpt>
      <trkpt lat="48.36756" lon="2.52511">
        <ele>79</ele>
        <time>2022-08-10T08:06:28.685Z</time>
      </trkpt>
      <trkpt lat="48.36758" lon="2.52513">
        <ele>79</ele>
        <time>2022-08-10T08:06:32.707Z</time>
      </trkpt>
      <trkpt lat="48.36758" lon="2.52515">
        <ele>77</ele>
        <time>2022-08-10T08:06:37.703Z</time>
      </trkpt>
      <trkpt lat="48.36759" lon="2.52514">
        <ele>77</ele>
        <time>2022-08-10T08:06:42.666Z</time>
      </trkpt>
      <trkpt lat="48.3676" lon="2.52516">
        <ele>77</ele>
        <time>2022-08-10T08:06:47.685Z</time>
      </trkpt>
      <trkpt lat="48.36762" lon="2.52517">
        <ele>77</ele>
        <time>2022-08-10T08:06:51.694Z</time>
      </trkpt>
      <trkpt lat="48.36764" lon="2.5252">
        <ele>77</ele>
        <time>2022-08-10T08:06:56.672Z</time>
      </trkpt>
      <trkpt lat="48.36768" lon="2.52525">
        <ele>76</ele>
        <time>2022-08-10T08:07:01.706Z</time>
      </trkpt>
      <trkpt lat="48.36772" lon="2.52528">
        <ele>76</ele>
        <time>2022-08-10T08:07:06.708Z</time>
      </trkpt>
      <trkpt lat="48.36776" lon="2.52532">
        <ele>76</ele>
        <time>2022-08-10T08:07:11.673Z</time>
      </trkpt>
      <trkpt lat="48.3678" lon="2.52535">
        <ele>76</ele>
        <time>2022-08-10T08:07:15.696Z</time>
      </trkpt>
      <trkpt lat="48.36784" lon="2.52538">
        <ele>76</ele>
        <time>2022-08-10T08:07:20.720Z</time>
      </trkpt>
      <trkpt lat="48.36788" lon="2.52542">
        <ele>76</ele>
        <time>2022-08-10T08:07:25.710Z</time>
      </trkpt>
      <trkpt lat="48.36791" lon="2.52547">
        <ele>76</ele>
        <time>2022-08-10T08:07:30.690Z</time>
      </trkpt>
      <trkpt lat="48.36796" lon="2.52553">
        <ele>78</ele>
        <time>2022-08-10T08:07:34.717Z</time>
      </trkpt>
      <trkpt lat="48.368" lon="2.52563">
        <ele>78</ele>
        <time>2022-08-10T08:07:39.706Z</time>
      </trkpt>
      <trkpt lat="48.36805" lon="2.52569">
        <ele>78</ele>
        <time>2022-08-10T08:07:44.709Z</time>
      </trkpt>
      <trkpt lat="48.3681" lon="2.52576">
        <ele>79</ele>
        <time>2022-08-10T08:08:13.701Z</time>
      </trkpt>
      <trkpt lat="48.36806" lon="2.52571">
        <ele>79</ele>
        <time>2022-08-10T08:08:18.684Z</time>
      </trkpt>
      <trkpt lat="48.36805" lon="2.52569">
        <ele>78</ele>
        <time>2022-08-10T08:08:23.712Z</time>
      </trkpt>
      <trkpt lat="48.36803" lon="2.52568">
        <ele>78</ele>
        <time>2022-08-10T08:08:28.690Z</time>
      </trkpt>
      <trkpt lat="48.36798" lon="2.52571">
        <ele>79</ele>
        <time>2022-08-10T08:08:32.697Z</time>
      </trkpt>
      <trkpt lat="48.36793" lon="2.52577">
        <ele>79</ele>
        <time>2022-08-10T08:08:37.693Z</time>
      </trkpt>
      <trkpt lat="48.3679" lon="2.52584">
        <ele>76</ele>
        <time>2022-08-10T08:08:42.690Z</time>
      </trkpt>
      <trkpt lat="48.36783" lon="2.5259">
        <ele>76</ele>
        <time>2022-08-10T08:08:47.669Z</time>
      </trkpt>
      <trkpt lat="48.36778" lon="2.52594">
        <ele>76</ele>
        <time>2022-08-10T08:08:52.671Z</time>
      </trkpt>
      <trkpt lat="48.36772" lon="2.52601">
        <ele>77</ele>
        <time>2022-08-10T08:08:57.699Z</time>
      </trkpt>
      <trkpt lat="48.36768" lon="2.52606">
        <ele>77</ele>
        <time>2022-08-10T08:09:02.658Z</time>
      </trkpt>
      <trkpt lat="48.36764" lon="2.52611">
        <ele>77</ele>
        <time>2022-08-10T08:09:06.680Z</time>
      </trkpt>
      <trkpt lat="48.36758" lon="2.52616">
        <ele>76</ele>
        <time>2022-08-10T08:09:11.669Z</time>
      </trkpt>
      <trkpt lat="48.36754" lon="2.52621">
        <ele>76</ele>
        <time>2022-08-10T08:09:15.671Z</time>
      </trkpt>
      <trkpt lat="48.3675" lon="2.52629">
        <ele>77</ele>
        <time>2022-08-10T08:09:20.686Z</time>
      </trkpt>
      <trkpt lat="48.36746" lon="2.52635">
        <ele>77</ele>
        <time>2022-08-10T08:09:24.716Z</time>
      </trkpt>
      <trkpt lat="48.36741" lon="2.52643">
        <ele>77</ele>
        <time>2022-08-10T08:09:29.681Z</time>
      </trkpt>
      <trkpt lat="48.36734" lon="2.52648">
        <ele>77</ele>
        <time>2022-08-10T08:09:34.706Z</time>
      </trkpt>
      <trkpt lat="48.36725" lon="2.5265">
        <ele>77</ele>
        <time>2022-08-10T08:09:39.680Z</time>
      </trkpt>
      <trkpt lat="48.3672" lon="2.52652">
        <ele>77</ele>
        <time>2022-08-10T08:09:44.697Z</time>
      </trkpt>
      <trkpt lat="48.36713" lon="2.52651">
        <ele>77</ele>
        <time>2022-08-10T08:09:48.694Z</time>
      </trkpt>
      <trkpt lat="48.36705" lon="2.5265">
        <ele>77</ele>
        <time>2022-08-10T08:09:53.708Z</time>
      </trkpt>
      <trkpt lat="48.36698" lon="2.52649">
        <ele>77</ele>
        <time>2022-08-10T08:09:58.719Z</time>
      </trkpt>
      <trkpt lat="48.36692" lon="2.52648">
        <ele>77</ele>
        <time>2022-08-10T08:10:03.725Z</time>
      </trkpt>
      <trkpt lat="48.36683" lon="2.52647">
        <ele>77</ele>
        <time>2022-08-10T08:10:08.712Z</time>
      </trkpt>
      <trkpt lat="48.36678" lon="2.52646">
        <ele>77</ele>
        <time>2022-08-10T08:10:12.696Z</time>
      </trkpt>
      <trkpt lat="48.36672" lon="2.52646">
        <ele>77</ele>
        <time>2022-08-10T08:10:17.681Z</time>
      </trkpt>
      <trkpt lat="48.36666" lon="2.52645">
        <ele>77</ele>
        <time>2022-08-10T08:10:21.668Z</time>
      </trkpt>
      <trkpt lat="48.36658" lon="2.52643">
        <ele>77</ele>
        <time>2022-08-10T08:10:25.713Z</time>
      </trkpt>
      <trkpt lat="48.3665" lon="2.52642">
        <ele>76</ele>
        <time>2022-08-10T08:10:30.704Z</time>
      </trkpt>
      <trkpt lat="48.36645" lon="2.52644">
        <ele>76</ele>
        <time>2022-08-10T08:10:35.711Z</time>
      </trkpt>
      <trkpt lat="48.36637" lon="2.52645">
        <ele>76</ele>
        <time>2022-08-10T08:10:40.689Z</time>
      </trkpt>
      <trkpt lat="48.36628" lon="2.52644">
        <ele>76</ele>
        <time>2022-08-10T08:10:45.704Z</time>
      </trkpt>
      <trkpt lat="48.36621" lon="2.52645">
        <ele>75</ele>
        <time>2022-08-10T08:10:50.679Z</time>
      </trkpt>
      <trkpt lat="48.36614" lon="2.52646">
        <ele>75</ele>
        <time>2022-08-10T08:10:55.669Z</time>
      </trkpt>
      <trkpt lat="48.36609" lon="2.52649">
        <ele>75</ele>
        <time>2022-08-10T08:11:00.700Z</time>
      </trkpt>
      <trkpt lat="48.36602" lon="2.52655">
        <ele>76</ele>
        <time>2022-08-10T08:11:05.699Z</time>
      </trkpt>
      <trkpt lat="48.36595" lon="2.52659">
        <ele>75</ele>
        <time>2022-08-10T08:11:10.677Z</time>
      </trkpt>
      <trkpt lat="48.3659" lon="2.52667">
        <ele>75</ele>
        <time>2022-08-10T08:11:15.686Z</time>
      </trkpt>
      <trkpt lat="48.36586" lon="2.52679">
        <ele>75</ele>
        <time>2022-08-10T08:11:20.697Z</time>
      </trkpt>
      <trkpt lat="48.36584" lon="2.52687">
        <ele>77</ele>
        <time>2022-08-10T08:11:24.699Z</time>
      </trkpt>
      <trkpt lat="48.36582" lon="2.52695">
        <ele>77</ele>
        <time>2022-08-10T08:11:29.688Z</time>
      </trkpt>
      <trkpt lat="48.36581" lon="2.52701">
        <ele>77</ele>
        <time>2022-08-10T08:11:33.724Z</time>
      </trkpt>
      <trkpt lat="48.3658" lon="2.5271">
        <ele>78</ele>
        <time>2022-08-10T08:11:38.699Z</time>
      </trkpt>
      <trkpt lat="48.36579" lon="2.5272">
        <ele>78</ele>
        <time>2022-08-10T08:11:43.740Z</time>
      </trkpt>
      <trkpt lat="48.3658" lon="2.52732">
        <ele>78</ele>
        <time>2022-08-10T08:11:48.652Z</time>
      </trkpt>
      <trkpt lat="48.36584" lon="2.52735">
        <ele>78</ele>
        <time>2022-08-10T08:11:53.644Z</time>
      </trkpt>
      <trkpt lat="48.36581" lon="2.52751">
        <ele>79</ele>
        <time>2022-08-10T08:11:58.646Z</time>
      </trkpt>
      <trkpt lat="48.36578" lon="2.52758">
        <ele>79</ele>
        <time>2022-08-10T08:12:03.647Z</time>
      </trkpt>
      <trkpt lat="48.36578" lon="2.52756">
        <ele>79</ele>
        <time>2022-08-10T08:12:07.679Z</time>
      </trkpt>
      <trkpt lat="48.36577" lon="2.52755">
        <ele>79</ele>
        <time>2022-08-10T08:12:12.658Z</time>
      </trkpt>
      <trkpt lat="48.36575" lon="2.52755">
        <ele>79</ele>
        <time>2022-08-10T08:12:17.659Z</time>
      </trkpt>
      <trkpt lat="48.36573" lon="2.52757">
        <ele>79</ele>
        <time>2022-08-10T08:12:22.650Z</time>
      </trkpt>
      <trkpt lat="48.36569" lon="2.52766">
        <ele>78</ele>
        <time>2022-08-10T08:12:26.655Z</time>
      </trkpt>
      <trkpt lat="48.36568" lon="2.52771">
        <ele>78</ele>
        <time>2022-08-10T08:12:31.657Z</time>
      </trkpt>
      <trkpt lat="48.3657" lon="2.52782">
        <ele>79</ele>
        <time>2022-08-10T08:12:36.646Z</time>
      </trkpt>
      <trkpt lat="48.36571" lon="2.52789">
        <ele>79</ele>
        <time>2022-08-10T08:12:41.646Z</time>
      </trkpt>
      <trkpt lat="48.36572" lon="2.52794">
        <ele>78</ele>
        <time>2022-08-10T08:12:45.659Z</time>
      </trkpt>
      <trkpt lat="48.36572" lon="2.52803">
        <ele>78</ele>
        <time>2022-08-10T08:12:50.648Z</time>
      </trkpt>
      <trkpt lat="48.36569" lon="2.52809">
        <ele>78</ele>
        <time>2022-08-10T08:12:54.653Z</time>
      </trkpt>
      <trkpt lat="48.36568" lon="2.52818">
        <ele>78</ele>
        <time>2022-08-10T08:12:58.657Z</time>
      </trkpt>
      <trkpt lat="48.36566" lon="2.52826">
        <ele>77</ele>
        <time>2022-08-10T08:13:03.662Z</time>
      </trkpt>
      <trkpt lat="48.36564" lon="2.52836">
        <ele>77</ele>
        <time>2022-08-10T08:13:08.653Z</time>
      </trkpt>
      <trkpt lat="48.36562" lon="2.52842">
        <ele>77</ele>
        <time>2022-08-10T08:13:12.667Z</time>
      </trkpt>
      <trkpt lat="48.36559" lon="2.52848">
        <ele>77</ele>
        <time>2022-08-10T08:13:17.669Z</time>
      </trkpt>
      <trkpt lat="48.36553" lon="2.52853">
        <ele>77</ele>
        <time>2022-08-10T08:13:22.661Z</time>
      </trkpt>
      <trkpt lat="48.36551" lon="2.52858">
        <ele>77</ele>
        <time>2022-08-10T08:13:27.655Z</time>
      </trkpt>
      <trkpt lat="48.3655" lon="2.5287">
        <ele>77</ele>
        <time>2022-08-10T08:13:32.659Z</time>
      </trkpt>
      <trkpt lat="48.36548" lon="2.52879">
        <ele>77</ele>
        <time>2022-08-10T08:13:37.651Z</time>
      </trkpt>
      <trkpt lat="48.36545" lon="2.52885">
        <ele>77</ele>
        <time>2022-08-10T08:13:41.658Z</time>
      </trkpt>
      <trkpt lat="48.3654" lon="2.52893">
        <ele>76</ele>
        <time>2022-08-10T08:13:46.658Z</time>
      </trkpt>
      <trkpt lat="48.36536" lon="2.52897">
        <ele>76</ele>
        <time>2022-08-10T08:13:50.659Z</time>
      </trkpt>
      <trkpt lat="48.36531" lon="2.52904">
        <ele>76</ele>
        <time>2022-08-10T08:13:55.705Z</time>
      </trkpt>
      <trkpt lat="48.36525" lon="2.52912">
        <ele>76</ele>
        <time>2022-08-10T08:14:00.708Z</time>
      </trkpt>
      <trkpt lat="48.36519" lon="2.52918">
        <ele>76</ele>
        <time>2022-08-10T08:14:05.668Z</time>
      </trkpt>
      <trkpt lat="48.36513" lon="2.52924">
        <ele>75</ele>
        <time>2022-08-10T08:14:10.657Z</time>
      </trkpt>
      <trkpt lat="48.36511" lon="2.5293">
        <ele>75</ele>
        <time>2022-08-10T08:14:14.659Z</time>
      </trkpt>
      <trkpt lat="48.36507" lon="2.52938">
        <ele>74</ele>
        <time>2022-08-10T08:14:19.653Z</time>
      </trkpt>
      <trkpt lat="48.36504" lon="2.52947">
        <ele>74</ele>
        <time>2022-08-10T08:14:23.669Z</time>
      </trkpt>
      <trkpt lat="48.36505" lon="2.52959">
        <ele>76</ele>
        <time>2022-08-10T08:14:28.653Z</time>
      </trkpt>
      <trkpt lat="48.36505" lon="2.52967">
        <ele>76</ele>
        <time>2022-08-10T08:14:32.678Z</time>
      </trkpt>
      <trkpt lat="48.36502" lon="2.52975">
        <ele>76</ele>
        <time>2022-08-10T08:14:37.664Z</time>
      </trkpt>
      <trkpt lat="48.36499" lon="2.52978">
        <ele>76</ele>
        <time>2022-08-10T08:14:41.658Z</time>
      </trkpt>
      <trkpt lat="48.36494" lon="2.52982">
        <ele>76</ele>
        <time>2022-08-10T08:14:46.665Z</time>
      </trkpt>
      <trkpt lat="48.36492" lon="2.52991">
        <ele>77</ele>
        <time>2022-08-10T08:14:51.679Z</time>
      </trkpt>
      <trkpt lat="48.3649" lon="2.52999">
        <ele>77</ele>
        <time>2022-08-10T08:14:56.681Z</time>
      </trkpt>
      <trkpt lat="48.36488" lon="2.53002">
        <ele>77</ele>
        <time>2022-08-10T08:15:01.684Z</time>
      </trkpt>
      <trkpt lat="48.36483" lon="2.53006">
        <ele>77</ele>
        <time>2022-08-10T08:15:06.698Z</time>
      </trkpt>
      <trkpt lat="48.36478" lon="2.53006">
        <ele>77</ele>
        <time>2022-08-10T08:15:11.670Z</time>
      </trkpt>
      <trkpt lat="48.36474" lon="2.53008">
        <ele>77</ele>
        <time>2022-08-10T08:15:15.689Z</time>
      </trkpt>
      <trkpt lat="48.36471" lon="2.53014">
        <ele>77</ele>
        <time>2022-08-10T08:15:20.698Z</time>
      </trkpt>
      <trkpt lat="48.3647" lon="2.53022">
        <ele>78</ele>
        <time>2022-08-10T08:15:24.699Z</time>
      </trkpt>
      <trkpt lat="48.3647" lon="2.53027">
        <ele>78</ele>
        <time>2022-08-10T08:15:29.689Z</time>
      </trkpt>
      <trkpt lat="48.36465" lon="2.53027">
        <ele>78</ele>
        <time>2022-08-10T08:15:34.706Z</time>
      </trkpt>
      <trkpt lat="48.3646" lon="2.53031">
        <ele>78</ele>
        <time>2022-08-10T08:15:38.704Z</time>
      </trkpt>
      <trkpt lat="48.36457" lon="2.53042">
        <ele>79</ele>
        <time>2022-08-10T08:15:43.712Z</time>
      </trkpt>
      <trkpt lat="48.36454" lon="2.5305">
        <ele>79</ele>
        <time>2022-08-10T08:15:48.668Z</time>
      </trkpt>
      <trkpt lat="48.36451" lon="2.53055">
        <ele>79</ele>
        <time>2022-08-10T08:15:52.720Z</time>
      </trkpt>
      <trkpt lat="48.36447" lon="2.5306">
        <ele>79</ele>
        <time>2022-08-10T08:15:57.691Z</time>
      </trkpt>
      <trkpt lat="48.36445" lon="2.53064">
        <ele>79</ele>
        <time>2022-08-10T08:16:01.706Z</time>
      </trkpt>
      <trkpt lat="48.3644" lon="2.53067">
        <ele>79</ele>
        <time>2022-08-10T08:16:05.725Z</time>
      </trkpt>
      <trkpt lat="48.36435" lon="2.53072">
        <ele>80</ele>
        <time>2022-08-10T08:16:10.709Z</time>
      </trkpt>
      <trkpt lat="48.36432" lon="2.53081">
        <ele>80</ele>
        <time>2022-08-10T08:16:15.711Z</time>
      </trkpt>
      <trkpt lat="48.36433" lon="2.53084">
        <ele>80</ele>
        <time>2022-08-10T08:16:20.646Z</time>
      </trkpt>
      <trkpt lat="48.36433" lon="2.53088">
        <ele>80</ele>
        <time>2022-08-10T08:16:24.656Z</time>
      </trkpt>
      <trkpt lat="48.36437" lon="2.53099">
        <ele>82</ele>
        <time>2022-08-10T08:16:29.647Z</time>
      </trkpt>
      <trkpt lat="48.36433" lon="2.53103">
        <ele>82</ele>
        <time>2022-08-10T08:16:33.650Z</time>
      </trkpt>
      <trkpt lat="48.36433" lon="2.53109">
        <ele>82</ele>
        <time>2022-08-10T08:16:38.650Z</time>
      </trkpt>
      <trkpt lat="48.36434" lon="2.53113">
        <ele>82</ele>
        <time>2022-08-10T08:16:43.668Z</time>
      </trkpt>
      <trkpt lat="48.3643" lon="2.53114">
        <ele>80</ele>
        <time>2022-08-10T08:16:47.699Z</time>
      </trkpt>
      <trkpt lat="48.36426" lon="2.53111">
        <ele>80</ele>
        <time>2022-08-10T08:16:51.706Z</time>
      </trkpt>
      <trkpt lat="48.36424" lon="2.53117">
        <ele>80</ele>
        <time>2022-08-10T08:16:56.698Z</time>
      </trkpt>
      <trkpt lat="48.36423" lon="2.53124">
        <ele>80</ele>
        <time>2022-08-10T08:17:01.689Z</time>
      </trkpt>
      <trkpt lat="48.36419" lon="2.53124">
        <ele>80</ele>
        <time>2022-08-10T08:17:06.705Z</time>
      </trkpt>
      <trkpt lat="48.36412" lon="2.53129">
        <ele>80</ele>
        <time>2022-08-10T08:17:11.654Z</time>
      </trkpt>
      <trkpt lat="48.36409" lon="2.53135">
        <ele>80</ele>
        <time>2022-08-10T08:17:16.663Z</time>
      </trkpt>
      <trkpt lat="48.36406" lon="2.53135">
        <ele>80</ele>
        <time>2022-08-10T08:17:21.652Z</time>
      </trkpt>
      <trkpt lat="48.36401" lon="2.53134">
        <ele>78</ele>
        <time>2022-08-10T08:17:25.669Z</time>
      </trkpt>
      <trkpt lat="48.36395" lon="2.53133">
        <ele>78</ele>
        <time>2022-08-10T08:17:30.653Z</time>
      </trkpt>
      <trkpt lat="48.36389" lon="2.53132">
        <ele>78</ele>
        <time>2022-08-10T08:17:34.660Z</time>
      </trkpt>
      <trkpt lat="48.36381" lon="2.53133">
        <ele>78</ele>
        <time>2022-08-10T08:17:39.689Z</time>
      </trkpt>
      <trkpt lat="48.36375" lon="2.53135">
        <ele>78</ele>
        <time>2022-08-10T08:17:43.704Z</time>
      </trkpt>
      <trkpt lat="48.36369" lon="2.53134">
        <ele>77</ele>
        <time>2022-08-10T08:17:48.702Z</time>
      </trkpt>
      <trkpt lat="48.36363" lon="2.53135">
        <ele>77</ele>
        <time>2022-08-10T08:17:53.697Z</time>
      </trkpt>
      <trkpt lat="48.36357" lon="2.53137">
        <ele>77</ele>
        <time>2022-08-10T08:17:58.718Z</time>
      </trkpt>
      <trkpt lat="48.36347" lon="2.53144">
        <ele>77</ele>
        <time>2022-08-10T08:18:03.642Z</time>
      </trkpt>
      <trkpt lat="48.3634" lon="2.53136">
        <ele>77</ele>
        <time>2022-08-10T08:18:08.651Z</time>
      </trkpt>
      <trkpt lat="48.3634" lon="2.53139">
        <ele>77</ele>
        <time>2022-08-10T08:18:13.653Z</time>
      </trkpt>
      <trkpt lat="48.36335" lon="2.53144">
        <ele>77</ele>
        <time>2022-08-10T08:18:18.656Z</time>
      </trkpt>
      <trkpt lat="48.36329" lon="2.53146">
        <ele>77</ele>
        <time>2022-08-10T08:18:23.652Z</time>
      </trkpt>
      <trkpt lat="48.36325" lon="2.53147">
        <ele>77</ele>
        <time>2022-08-10T08:18:27.657Z</time>
      </trkpt>
      <trkpt lat="48.36323" lon="2.53156">
        <ele>79</ele>
        <time>2022-08-10T08:18:32.658Z</time>
      </trkpt>
      <trkpt lat="48.36324" lon="2.53164">
        <ele>79</ele>
        <time>2022-08-10T08:18:36.660Z</time>
      </trkpt>
      <trkpt lat="48.36324" lon="2.5317">
        <ele>79</ele>
        <time>2022-08-10T08:18:41.661Z</time>
      </trkpt>
      <trkpt lat="48.36321" lon="2.53175">
        <ele>79</ele>
        <time>2022-08-10T08:18:46.648Z</time>
      </trkpt>
      <trkpt lat="48.3632" lon="2.53181">
        <ele>83</ele>
        <time>2022-08-10T08:18:51.657Z</time>
      </trkpt>
      <trkpt lat="48.36318" lon="2.5319">
        <ele>83</ele>
        <time>2022-08-10T08:18:56.666Z</time>
      </trkpt>
      <trkpt lat="48.36316" lon="2.53197">
        <ele>83</ele>
        <time>2022-08-10T08:19:01.649Z</time>
      </trkpt>
      <trkpt lat="48.36314" lon="2.53199">
        <ele>83</ele>
        <time>2022-08-10T08:19:05.647Z</time>
      </trkpt>
      <trkpt lat="48.36313" lon="2.53202">
        <ele>83</ele>
        <time>2022-08-10T08:19:10.662Z</time>
      </trkpt>
      <trkpt lat="48.3631" lon="2.53209">
        <ele>85</ele>
        <time>2022-08-10T08:19:15.666Z</time>
      </trkpt>
      <trkpt lat="48.36311" lon="2.53214">
        <ele>85</ele>
        <time>2022-08-10T08:19:20.658Z</time>
      </trkpt>
      <trkpt lat="48.36308" lon="2.53217">
        <ele>85</ele>
        <time>2022-08-10T08:19:24.657Z</time>
      </trkpt>
      <trkpt lat="48.36304" lon="2.53221">
        <ele>85</ele>
        <time>2022-08-10T08:19:29.662Z</time>
      </trkpt>
      <trkpt lat="48.36302" lon="2.53225">
        <ele>85</ele>
        <time>2022-08-10T08:19:33.659Z</time>
      </trkpt>
      <trkpt lat="48.36298" lon="2.53228">
        <ele>85</ele>
        <time>2022-08-10T08:19:38.662Z</time>
      </trkpt>
      <trkpt lat="48.36296" lon="2.5323">
        <ele>85</ele>
        <time>2022-08-10T08:19:42.653Z</time>
      </trkpt>
      <trkpt lat="48.36294" lon="2.53235">
        <ele>85</ele>
        <time>2022-08-10T08:19:47.643Z</time>
      </trkpt>
      <trkpt lat="48.36295" lon="2.53241">
        <ele>89</ele>
        <time>2022-08-10T08:19:51.654Z</time>
      </trkpt>
      <trkpt lat="48.36292" lon="2.53245">
        <ele>89</ele>
        <time>2022-08-10T08:19:56.662Z</time>
      </trkpt>
      <trkpt lat="48.36292" lon="2.53249">
        <ele>88</ele>
        <time>2022-08-10T08:20:01.667Z</time>
      </trkpt>
      <trkpt lat="48.36291" lon="2.53254">
        <ele>88</ele>
        <time>2022-08-10T08:20:06.660Z</time>
      </trkpt>
      <trkpt lat="48.36287" lon="2.53258">
        <ele>88</ele>
        <time>2022-08-10T08:20:11.661Z</time>
      </trkpt>
      <trkpt lat="48.36284" lon="2.53259">
        <ele>88</ele>
        <time>2022-08-10T08:20:16.663Z</time>
      </trkpt>
      <trkpt lat="48.36285" lon="2.53265">
        <ele>90</ele>
        <time>2022-08-10T08:20:21.672Z</time>
      </trkpt>
      <trkpt lat="48.36283" lon="2.53267">
        <ele>90</ele>
        <time>2022-08-10T08:20:26.656Z</time>
      </trkpt>
      <trkpt lat="48.36281" lon="2.5327">
        <ele>90</ele>
        <time>2022-08-10T08:20:31.658Z</time>
      </trkpt>
      <trkpt lat="48.36276" lon="2.5327">
        <ele>90</ele>
        <time>2022-08-10T08:20:36.669Z</time>
      </trkpt>
      <trkpt lat="48.3627" lon="2.53275">
        <ele>90</ele>
        <time>2022-08-10T08:20:41.669Z</time>
      </trkpt>
      <trkpt lat="48.36267" lon="2.53278">
        <ele>90</ele>
        <time>2022-08-10T08:20:45.683Z</time>
      </trkpt>
      <trkpt lat="48.36263" lon="2.53281">
        <ele>90</ele>
        <time>2022-08-10T08:20:49.686Z</time>
      </trkpt>
      <trkpt lat="48.36258" lon="2.53285">
        <ele>90</ele>
        <time>2022-08-10T08:20:54.710Z</time>
      </trkpt>
      <trkpt lat="48.36254" lon="2.53291">
        <ele>90</ele>
        <time>2022-08-10T08:20:59.695Z</time>
      </trkpt>
      <trkpt lat="48.36252" lon="2.53298">
        <ele>91</ele>
        <time>2022-08-10T08:21:04.670Z</time>
      </trkpt>
      <trkpt lat="48.36253" lon="2.53301">
        <ele>91</ele>
        <time>2022-08-10T08:21:08.666Z</time>
      </trkpt>
      <trkpt lat="48.36255" lon="2.53306">
        <ele>91</ele>
        <time>2022-08-10T08:21:13.657Z</time>
      </trkpt>
      <trkpt lat="48.36257" lon="2.53308">
        <ele>91</ele>
        <time>2022-08-10T08:21:18.662Z</time>
      </trkpt>
      <trkpt lat="48.36259" lon="2.53313">
        <ele>91</ele>
        <time>2022-08-10T08:21:23.708Z</time>
      </trkpt>
      <trkpt lat="48.36259" lon="2.53313">
        <ele>91</ele>
        <time>2022-08-10T08:21:28.708Z</time>
      </trkpt>
      <trkpt lat="48.36255" lon="2.53314">
        <ele>91</ele>
        <time>2022-08-10T08:21:33.704Z</time>
      </trkpt>
      <trkpt lat="48.36252" lon="2.53316">
        <ele>91</ele>
        <time>2022-08-10T08:21:38.692Z</time>
      </trkpt>
      <trkpt lat="48.36249" lon="2.53321">
        <ele>95</ele>
        <time>2022-08-10T08:21:43.693Z</time>
      </trkpt>
      <trkpt lat="48.36245" lon="2.53325">
        <ele>95</ele>
        <time>2022-08-10T08:21:48.703Z</time>
      </trkpt>
      <trkpt lat="48.3624" lon="2.53329">
        <ele>95</ele>
        <time>2022-08-10T08:21:53.694Z</time>
      </trkpt>
      <trkpt lat="48.36234" lon="2.53331">
        <ele>96</ele>
        <time>2022-08-10T08:21:58.695Z</time>
      </trkpt>
      <trkpt lat="48.3623" lon="2.53335">
        <ele>96</ele>
        <time>2022-08-10T08:22:03.640Z</time>
      </trkpt>
      <trkpt lat="48.36221" lon="2.53339">
        <ele>96</ele>
        <time>2022-08-10T08:22:21.656Z</time>
      </trkpt>
      <trkpt lat="48.3622" lon="2.53339">
        <ele>96</ele>
        <time>2022-08-10T08:22:25.691Z</time>
      </trkpt>
      <trkpt lat="48.36217" lon="2.53341">
        <ele>96</ele>
        <time>2022-08-10T08:22:30.670Z</time>
      </trkpt>
      <trkpt lat="48.36216" lon="2.53342">
        <ele>96</ele>
        <time>2022-08-10T08:22:35.649Z</time>
      </trkpt>
      <trkpt lat="48.36211" lon="2.53342">
        <ele>96</ele>
        <time>2022-08-10T08:22:39.697Z</time>
      </trkpt>
      <trkpt lat="48.36208" lon="2.53347">
        <ele>98</ele>
        <time>2022-08-10T08:22:44.675Z</time>
      </trkpt>
      <trkpt lat="48.36205" lon="2.53349">
        <ele>101</ele>
        <time>2022-08-10T08:22:48.690Z</time>
      </trkpt>
      <trkpt lat="48.362" lon="2.53348">
        <ele>101</ele>
        <time>2022-08-10T08:22:53.651Z</time>
      </trkpt>
      <trkpt lat="48.36196" lon="2.53349">
        <ele>101</ele>
        <time>2022-08-10T08:22:58.653Z</time>
      </trkpt>
      <trkpt lat="48.36192" lon="2.53351">
        <ele>101</ele>
        <time>2022-08-10T08:23:02.671Z</time>
      </trkpt>
      <trkpt lat="48.36188" lon="2.53351">
        <ele>101</ele>
        <time>2022-08-10T08:23:06.683Z</time>
      </trkpt>
      <trkpt lat="48.36185" lon="2.53356">
        <ele>101</ele>
        <time>2022-08-10T08:23:11.689Z</time>
      </trkpt>
      <trkpt lat="48.36183" lon="2.5336">
        <ele>101</ele>
        <time>2022-08-10T08:23:16.671Z</time>
      </trkpt>
      <trkpt lat="48.36166" lon="2.53379">
        <ele>105</ele>
        <time>2022-08-10T08:24:59.672Z</time>
      </trkpt>
      <trkpt lat="48.36166" lon="2.53381">
        <ele>105</ele>
        <time>2022-08-10T08:25:03.689Z</time>
      </trkpt>
      <trkpt lat="48.36164" lon="2.53382">
        <ele>105</ele>
        <time>2022-08-10T08:25:07.692Z</time>
      </trkpt>
      <trkpt lat="48.36162" lon="2.5338">
        <ele>105</ele>
        <time>2022-08-10T08:25:12.709Z</time>
      </trkpt>
      <trkpt lat="48.36163" lon="2.53382">
        <ele>105</ele>
        <time>2022-08-10T08:25:17.690Z</time>
      </trkpt>
      <trkpt lat="48.36166" lon="2.53388">
        <ele>105</ele>
        <time>2022-08-10T08:25:26.728Z</time>
      </trkpt>
      <trkpt lat="48.36167" lon="2.53392">
        <ele>105</ele>
        <time>2022-08-10T08:25:31.699Z</time>
      </trkpt>
      <trkpt lat="48.36166" lon="2.53393">
        <ele>105</ele>
        <time>2022-08-10T08:25:35.707Z</time>
      </trkpt>
      <trkpt lat="48.36163" lon="2.53396">
        <ele>105</ele>
        <time>2022-08-10T08:25:40.693Z</time>
      </trkpt>
      <trkpt lat="48.36166" lon="2.53398">
        <ele>105</ele>
        <time>2022-08-10T08:25:45.662Z</time>
      </trkpt>
      <trkpt lat="48.36168" lon="2.53399">
        <ele>105</ele>
        <time>2022-08-10T08:28:28.649Z</time>
      </trkpt>
      <trkpt lat="48.36172" lon="2.534">
        <ele>105</ele>
        <time>2022-08-10T08:28:33.655Z</time>
      </trkpt>
      <trkpt lat="48.3617" lon="2.53408">
        <ele>109</ele>
        <time>2022-08-10T08:28:38.657Z</time>
      </trkpt>
      <trkpt lat="48.36169" lon="2.53409">
        <ele>109</ele>
        <time>2022-08-10T08:28:43.646Z</time>
      </trkpt>
      <trkpt lat="48.36168" lon="2.53411">
        <ele>109</ele>
        <time>2022-08-10T08:28:48.650Z</time>
      </trkpt>
      <trkpt lat="48.36166" lon="2.53409">
        <ele>109</ele>
        <time>2022-08-10T08:28:52.664Z</time>
      </trkpt>
      <trkpt lat="48.36165" lon="2.53409">
        <ele>109</ele>
        <time>2022-08-10T08:28:56.662Z</time>
      </trkpt>
      <trkpt lat="48.36163" lon="2.53414">
        <ele>109</ele>
        <time>2022-08-10T08:29:01.651Z</time>
      </trkpt>
      <trkpt lat="48.36161" lon="2.5342">
        <ele>109</ele>
        <time>2022-08-10T08:29:06.663Z</time>
      </trkpt>
      <trkpt lat="48.3616" lon="2.53424">
        <ele>109</ele>
        <time>2022-08-10T08:29:11.655Z</time>
      </trkpt>
      <trkpt lat="48.36161" lon="2.53425">
        <ele>109</ele>
        <time>2022-08-10T08:29:16.651Z</time>
      </trkpt>
      <trkpt lat="48.36161" lon="2.53428">
        <ele>109</ele>
        <time>2022-08-10T08:29:20.655Z</time>
      </trkpt>
      <trkpt lat="48.36163" lon="2.53434">
        <ele>110</ele>
        <time>2022-08-10T08:29:25.654Z</time>
      </trkpt>
      <trkpt lat="48.3616" lon="2.53439">
        <ele>110</ele>
        <time>2022-08-10T08:29:29.652Z</time>
      </trkpt>
      <trkpt lat="48.36151" lon="2.5344">
        <ele>107</ele>
        <time>2022-08-10T08:29:53.652Z</time>
      </trkpt>
      <trkpt lat="48.3615" lon="2.53442">
        <ele>107</ele>
        <time>2022-08-10T08:29:57.647Z</time>
      </trkpt>
      <trkpt lat="48.3615" lon="2.5345">
        <ele>107</ele>
        <time>2022-08-10T08:30:02.659Z</time>
      </trkpt>
      <trkpt lat="48.36151" lon="2.53457">
        <ele>107</ele>
        <time>2022-08-10T08:30:07.653Z</time>
      </trkpt>
      <trkpt lat="48.3615" lon="2.53463">
        <ele>108</ele>
        <time>2022-08-10T08:30:11.647Z</time>
      </trkpt>
      <trkpt lat="48.36148" lon="2.53468">
        <ele>108</ele>
        <time>2022-08-10T08:30:15.655Z</time>
      </trkpt>
      <trkpt lat="48.36148" lon="2.53473">
        <ele>108</ele>
        <time>2022-08-10T08:30:20.651Z</time>
      </trkpt>
      <trkpt lat="48.36148" lon="2.53478">
        <ele>108</ele>
        <time>2022-08-10T08:30:24.660Z</time>
      </trkpt>
      <trkpt lat="48.3615" lon="2.53487">
        <ele>108</ele>
        <time>2022-08-10T08:30:29.650Z</time>
      </trkpt>
      <trkpt lat="48.36151" lon="2.53495">
        <ele>108</ele>
        <time>2022-08-10T08:30:33.669Z</time>
      </trkpt>
      <trkpt lat="48.36153" lon="2.53502">
        <ele>111</ele>
        <time>2022-08-10T08:30:37.697Z</time>
      </trkpt>
      <trkpt lat="48.36155" lon="2.53506">
        <ele>111</ele>
        <time>2022-08-10T08:30:42.649Z</time>
      </trkpt>
      <trkpt lat="48.36156" lon="2.53508">
        <ele>111</ele>
        <time>2022-08-10T08:30:46.654Z</time>
      </trkpt>
      <trkpt lat="48.36155" lon="2.53515">
        <ele>110</ele>
        <time>2022-08-10T08:31:01.658Z</time>
      </trkpt>
      <trkpt lat="48.36155" lon="2.53513">
        <ele>111</ele>
        <time>2022-08-10T08:31:06.648Z</time>
      </trkpt>
      <trkpt lat="48.36155" lon="2.53515">
        <ele>110</ele>
        <time>2022-08-10T08:31:10.663Z</time>
      </trkpt>
      <trkpt lat="48.36159" lon="2.53519">
        <ele>110</ele>
        <time>2022-08-10T08:31:15.658Z</time>
      </trkpt>
      <trkpt lat="48.36164" lon="2.53524">
        <ele>110</ele>
        <time>2022-08-10T08:31:20.661Z</time>
      </trkpt>
      <trkpt lat="48.36165" lon="2.53532">
        <ele>110</ele>
        <time>2022-08-10T08:31:25.653Z</time>
      </trkpt>
      <trkpt lat="48.36167" lon="2.53537">
        <ele>110</ele>
        <time>2022-08-10T08:31:29.657Z</time>
      </trkpt>
      <trkpt lat="48.3617" lon="2.53541">
        <ele>110</ele>
        <time>2022-08-10T08:31:34.658Z</time>
      </trkpt>
      <trkpt lat="48.36171" lon="2.53549">
        <ele>107</ele>
        <time>2022-08-10T08:31:39.661Z</time>
      </trkpt>
      <trkpt lat="48.36171" lon="2.53553">
        <ele>107</ele>
        <time>2022-08-10T08:31:44.658Z</time>
      </trkpt>
      <trkpt lat="48.3617" lon="2.53558">
        <ele>107</ele>
        <time>2022-08-10T08:31:49.654Z</time>
      </trkpt>
      <trkpt lat="48.36169" lon="2.53567">
        <ele>107</ele>
        <time>2022-08-10T08:31:54.644Z</time>
      </trkpt>
      <trkpt lat="48.36167" lon="2.53573">
        <ele>105</ele>
        <time>2022-08-10T08:31:58.690Z</time>
      </trkpt>
      <trkpt lat="48.36155" lon="2.53576">
        <ele>105</ele>
        <time>2022-08-10T08:32:30.657Z</time>
      </trkpt>
      <trkpt lat="48.36154" lon="2.53577">
        <ele>105</ele>
        <time>2022-08-10T08:32:34.660Z</time>
      </trkpt>
      <trkpt lat="48.36154" lon="2.53581">
        <ele>105</ele>
        <time>2022-08-10T08:32:39.662Z</time>
      </trkpt>
      <trkpt lat="48.36152" lon="2.53581">
        <ele>98</ele>
        <time>2022-08-10T08:32:43.708Z</time>
      </trkpt>
      <trkpt lat="48.36151" lon="2.5359">
        <ele>98</ele>
        <time>2022-08-10T08:32:48.647Z</time>
      </trkpt>
      <trkpt lat="48.36152" lon="2.53595">
        <ele>98</ele>
        <time>2022-08-10T08:32:52.682Z</time>
      </trkpt>
      <trkpt lat="48.36148" lon="2.53598">
        <ele>95</ele>
        <time>2022-08-10T08:32:57.650Z</time>
      </trkpt>
      <trkpt lat="48.36145" lon="2.53601">
        <ele>95</ele>
        <time>2022-08-10T08:33:01.652Z</time>
      </trkpt>
      <trkpt lat="48.3614" lon="2.53602">
        <ele>95</ele>
        <time>2022-08-10T08:33:06.652Z</time>
      </trkpt>
      <trkpt lat="48.36136" lon="2.53605">
        <ele>95</ele>
        <time>2022-08-10T08:33:10.684Z</time>
      </trkpt>
      <trkpt lat="48.36131" lon="2.53609">
        <ele>95</ele>
        <time>2022-08-10T08:33:15.688Z</time>
      </trkpt>
      <trkpt lat="48.36127" lon="2.53613">
        <ele>95</ele>
        <time>2022-08-10T08:33:20.694Z</time>
      </trkpt>
      <trkpt lat="48.36122" lon="2.53616">
        <ele>89</ele>
        <time>2022-08-10T08:33:25.705Z</time>
      </trkpt>
      <trkpt lat="48.36109" lon="2.53624">
        <ele>89</ele>
        <time>2022-08-10T08:34:17.648Z</time>
      </trkpt>
      <trkpt lat="48.36109" lon="2.53624">
        <ele>89</ele>
        <time>2022-08-10T08:34:21.659Z</time>
      </trkpt>
      <trkpt lat="48.36109" lon="2.53624">
        <ele>89</ele>
        <time>2022-08-10T08:34:25.690Z</time>
      </trkpt>
      <trkpt lat="48.36109" lon="2.53624">
        <ele>89</ele>
        <time>2022-08-10T08:34:29.685Z</time>
      </trkpt>
      <trkpt lat="48.36108" lon="2.53624">
        <ele>89</ele>
        <time>2022-08-10T08:34:34.658Z</time>
      </trkpt>
      <trkpt lat="48.36113" lon="2.53666">
        <ele>90</ele>
        <time>2022-08-10T08:44:42.700Z</time>
      </trkpt>
      <trkpt lat="48.36115" lon="2.5367">
        <ele>90</ele>
        <time>2022-08-10T08:44:47.687Z</time>
      </trkpt>
      <trkpt lat="48.36117" lon="2.53673">
        <ele>90</ele>
        <time>2022-08-10T08:44:52.694Z</time>
      </trkpt>
      <trkpt lat="48.36117" lon="2.53675">
        <ele>90</ele>
        <time>2022-08-10T08:44:57.649Z</time>
      </trkpt>
      <trkpt lat="48.36116" lon="2.53679">
        <ele>90</ele>
        <time>2022-08-10T08:45:02.717Z</time>
      </trkpt>
      <trkpt lat="48.36113" lon="2.53684">
        <ele>93</ele>
        <time>2022-08-10T08:45:58.656Z</time>
      </trkpt>
      <trkpt lat="48.36111" lon="2.53687">
        <ele>93</ele>
        <time>2022-08-10T08:46:02.689Z</time>
      </trkpt>
      <trkpt lat="48.36107" lon="2.53689">
        <ele>93</ele>
        <time>2022-08-10T08:46:07.647Z</time>
      </trkpt>
      <trkpt lat="48.36107" lon="2.53694">
        <ele>93</ele>
        <time>2022-08-10T08:46:11.693Z</time>
      </trkpt>
      <trkpt lat="48.36107" lon="2.53696">
        <ele>93</ele>
        <time>2022-08-10T08:46:16.658Z</time>
      </trkpt>
      <trkpt lat="48.36107" lon="2.53699">
        <ele>93</ele>
        <time>2022-08-10T08:46:30.657Z</time>
      </trkpt>
      <trkpt lat="48.36107" lon="2.53703">
        <ele>93</ele>
        <time>2022-08-10T08:46:34.696Z</time>
      </trkpt>
      <trkpt lat="48.36109" lon="2.53707">
        <ele>93</ele>
        <time>2022-08-10T08:46:38.697Z</time>
      </trkpt>
      <trkpt lat="48.3611" lon="2.5371">
        <ele>97</ele>
        <time>2022-08-10T08:46:43.708Z</time>
      </trkpt>
      <trkpt lat="48.3611" lon="2.53715">
        <ele>97</ele>
        <time>2022-08-10T08:46:47.712Z</time>
      </trkpt>
      <trkpt lat="48.36113" lon="2.53716">
        <ele>97</ele>
        <time>2022-08-10T08:46:52.675Z</time>
      </trkpt>
      <trkpt lat="48.36114" lon="2.53722">
        <ele>97</ele>
        <time>2022-08-10T08:46:56.695Z</time>
      </trkpt>
      <trkpt lat="48.36116" lon="2.53727">
        <ele>97</ele>
        <time>2022-08-10T08:47:00.711Z</time>
      </trkpt>
      <trkpt lat="48.36117" lon="2.53734">
        <ele>97</ele>
        <time>2022-08-10T08:47:04.714Z</time>
      </trkpt>
      <trkpt lat="48.36119" lon="2.53741">
        <ele>99</ele>
        <time>2022-08-10T08:47:09.720Z</time>
      </trkpt>
      <trkpt lat="48.3612" lon="2.53747">
        <ele>99</ele>
        <time>2022-08-10T08:47:14.694Z</time>
      </trkpt>
      <trkpt lat="48.36123" lon="2.53741">
        <ele>99</ele>
        <time>2022-08-10T08:47:19.653Z</time>
      </trkpt>
      <trkpt lat="48.36127" lon="2.53744">
        <ele>101</ele>
        <time>2022-08-10T08:47:24.652Z</time>
      </trkpt>
      <trkpt lat="48.36128" lon="2.53744">
        <ele>101</ele>
        <time>2022-08-10T08:47:28.693Z</time>
      </trkpt>
      <trkpt lat="48.36128" lon="2.53738">
        <ele>101</ele>
        <time>2022-08-10T08:48:00.705Z</time>
      </trkpt>
      <trkpt lat="48.36128" lon="2.53738">
        <ele>101</ele>
        <time>2022-08-10T08:48:04.696Z</time>
      </trkpt>
      <trkpt lat="48.3613" lon="2.53735">
        <ele>98</ele>
        <time>2022-08-10T08:48:09.693Z</time>
      </trkpt>
      <trkpt lat="48.36134" lon="2.53731">
        <ele>98</ele>
        <time>2022-08-10T08:48:14.691Z</time>
      </trkpt>
      <trkpt lat="48.36135" lon="2.5373">
        <ele>98</ele>
        <time>2022-08-10T08:48:19.665Z</time>
      </trkpt>
      <trkpt lat="48.36134" lon="2.53733">
        <ele>98</ele>
        <time>2022-08-10T08:48:23.682Z</time>
      </trkpt>
      <trkpt lat="48.36132" lon="2.53737">
        <ele>101</ele>
        <time>2022-08-10T08:48:27.698Z</time>
      </trkpt>
      <trkpt lat="48.36128" lon="2.53742">
        <ele>101</ele>
        <time>2022-08-10T08:48:32.701Z</time>
      </trkpt>
      <trkpt lat="48.36124" lon="2.53745">
        <ele>99</ele>
        <time>2022-08-10T08:48:36.694Z</time>
      </trkpt>
      <trkpt lat="48.36121" lon="2.5375">
        <ele>99</ele>
        <time>2022-08-10T08:48:40.703Z</time>
      </trkpt>
      <trkpt lat="48.36118" lon="2.53755">
        <ele>99</ele>
        <time>2022-08-10T08:48:45.696Z</time>
      </trkpt>
      <trkpt lat="48.36117" lon="2.5376">
        <ele>99</ele>
        <time>2022-08-10T08:48:50.720Z</time>
      </trkpt>
      <trkpt lat="48.36116" lon="2.53761">
        <ele>99</ele>
        <time>2022-08-10T08:48:55.692Z</time>
      </trkpt>
      <trkpt lat="48.36114" lon="2.53761">
        <ele>99</ele>
        <time>2022-08-10T08:49:00.707Z</time>
      </trkpt>
      <trkpt lat="48.3611" lon="2.53761">
        <ele>99</ele>
        <time>2022-08-10T08:49:04.705Z</time>
      </trkpt>
      <trkpt lat="48.36106" lon="2.53764">
        <ele>101</ele>
        <time>2022-08-10T08:49:09.707Z</time>
      </trkpt>
      <trkpt lat="48.36105" lon="2.53768">
        <ele>101</ele>
        <time>2022-08-10T08:49:14.684Z</time>
      </trkpt>
      <trkpt lat="48.36102" lon="2.53768">
        <ele>101</ele>
        <time>2022-08-10T08:49:19.657Z</time>
      </trkpt>
      <trkpt lat="48.36097" lon="2.53767">
        <ele>94</ele>
        <time>2022-08-10T08:49:23.646Z</time>
      </trkpt>
      <trkpt lat="48.36098" lon="2.53778">
        <ele>101</ele>
        <time>2022-08-10T08:49:28.650Z</time>
      </trkpt>
      <trkpt lat="48.36097" lon="2.53787">
        <ele>101</ele>
        <time>2022-08-10T08:49:33.647Z</time>
      </trkpt>
      <trkpt lat="48.36097" lon="2.53791">
        <ele>101</ele>
        <time>2022-08-10T08:49:37.660Z</time>
      </trkpt>
      <trkpt lat="48.36099" lon="2.53798">
        <ele>102</ele>
        <time>2022-08-10T08:49:42.685Z</time>
      </trkpt>
      <trkpt lat="48.36104" lon="2.53803">
        <ele>102</ele>
        <time>2022-08-10T08:49:47.708Z</time>
      </trkpt>
      <trkpt lat="48.36109" lon="2.53806">
        <ele>102</ele>
        <time>2022-08-10T08:49:52.700Z</time>
      </trkpt>
      <trkpt lat="48.36114" lon="2.53809">
        <ele>102</ele>
        <time>2022-08-10T08:49:57.683Z</time>
      </trkpt>
      <trkpt lat="48.36114" lon="2.53816">
        <ele>102</ele>
        <time>2022-08-10T08:50:02.646Z</time>
      </trkpt>
      <trkpt lat="48.36113" lon="2.53821">
        <ele>105</ele>
        <time>2022-08-10T08:50:06.666Z</time>
      </trkpt>
      <trkpt lat="48.36113" lon="2.53828">
        <ele>105</ele>
        <time>2022-08-10T08:50:11.653Z</time>
      </trkpt>
      <trkpt lat="48.36115" lon="2.53832">
        <ele>105</ele>
        <time>2022-08-10T08:50:15.660Z</time>
      </trkpt>
      <trkpt lat="48.36117" lon="2.53836">
        <ele>105</ele>
        <time>2022-08-10T08:50:20.672Z</time>
      </trkpt>
      <trkpt lat="48.36117" lon="2.53841">
        <ele>105</ele>
        <time>2022-08-10T08:50:24.699Z</time>
      </trkpt>
      <trkpt lat="48.36119" lon="2.53843">
        <ele>105</ele>
        <time>2022-08-10T08:50:29.699Z</time>
      </trkpt>
      <trkpt lat="48.36115" lon="2.53848">
        <ele>108</ele>
        <time>2022-08-10T08:50:34.680Z</time>
      </trkpt>
      <trkpt lat="48.36113" lon="2.53854">
        <ele>108</ele>
        <time>2022-08-10T08:50:38.712Z</time>
      </trkpt>
      <trkpt lat="48.3611" lon="2.53859">
        <ele>108</ele>
        <time>2022-08-10T08:50:43.715Z</time>
      </trkpt>
      <trkpt lat="48.3611" lon="2.53865">
        <ele>108</ele>
        <time>2022-08-10T08:50:48.716Z</time>
      </trkpt>
      <trkpt lat="48.3611" lon="2.53869">
        <ele>108</ele>
        <time>2022-08-10T08:50:53.647Z</time>
      </trkpt>
      <trkpt lat="48.36109" lon="2.53872">
        <ele>108</ele>
        <time>2022-08-10T08:50:57.702Z</time>
      </trkpt>
      <trkpt lat="48.36111" lon="2.53875">
        <ele>108</ele>
        <time>2022-08-10T08:51:02.658Z</time>
      </trkpt>
      <trkpt lat="48.3611" lon="2.53885">
        <ele>108</ele>
        <time>2022-08-10T08:51:26.646Z</time>
      </trkpt>
      <trkpt lat="48.36108" lon="2.53891">
        <ele>108</ele>
        <time>2022-08-10T08:51:30.668Z</time>
      </trkpt>
      <trkpt lat="48.36109" lon="2.53893">
        <ele>108</ele>
        <time>2022-08-10T08:51:35.650Z</time>
      </trkpt>
      <trkpt lat="48.3611" lon="2.53893">
        <ele>108</ele>
        <time>2022-08-10T08:51:39.645Z</time>
      </trkpt>
      <trkpt lat="48.36108" lon="2.53894">
        <ele>108</ele>
        <time>2022-08-10T08:51:44.646Z</time>
      </trkpt>
      <trkpt lat="48.36114" lon="2.53887">
        <ele>108</ele>
        <time>2022-08-10T08:52:16.650Z</time>
      </trkpt>
      <trkpt lat="48.36116" lon="2.53888">
        <ele>108</ele>
        <time>2022-08-10T08:52:21.652Z</time>
      </trkpt>
      <trkpt lat="48.36112" lon="2.5389">
        <ele>108</ele>
        <time>2022-08-10T08:52:26.646Z</time>
      </trkpt>
      <trkpt lat="48.36111" lon="2.53895">
        <ele>108</ele>
        <time>2022-08-10T08:52:30.657Z</time>
      </trkpt>
      <trkpt lat="48.36114" lon="2.53902">
        <ele>108</ele>
        <time>2022-08-10T08:52:34.658Z</time>
      </trkpt>
      <trkpt lat="48.36114" lon="2.539">
        <ele>108</ele>
        <time>2022-08-10T08:52:49.653Z</time>
      </trkpt>
      <trkpt lat="48.36114" lon="2.53898">
        <ele>108</ele>
        <time>2022-08-10T08:52:53.647Z</time>
      </trkpt>
      <trkpt lat="48.36114" lon="2.53897">
        <ele>108</ele>
        <time>2022-08-10T08:52:58.663Z</time>
      </trkpt>
      <trkpt lat="48.36114" lon="2.53897">
        <ele>108</ele>
        <time>2022-08-10T08:53:03.693Z</time>
      </trkpt>
      <trkpt lat="48.36109" lon="2.539">
        <ele>108</ele>
        <time>2022-08-10T08:53:08.647Z</time>
      </trkpt>
      <trkpt lat="48.36108" lon="2.53901">
        <ele>108</ele>
        <time>2022-08-10T08:53:13.645Z</time>
      </trkpt>
      <trkpt lat="48.3611" lon="2.53905">
        <ele>107</ele>
        <time>2022-08-10T08:53:17.645Z</time>
      </trkpt>
      <trkpt lat="48.36112" lon="2.53901">
        <ele>108</ele>
        <time>2022-08-10T08:53:21.658Z</time>
      </trkpt>
      <trkpt lat="48.36114" lon="2.53902">
        <ele>108</ele>
        <time>2022-08-10T08:53:27.683Z</time>
      </trkpt>
      <trkpt lat="48.36116" lon="2.53906">
        <ele>107</ele>
        <time>2022-08-10T08:53:32.668Z</time>
      </trkpt>
      <trkpt lat="48.36121" lon="2.53912">
        <ele>107</ele>
        <time>2022-08-10T08:53:37.682Z</time>
      </trkpt>
      <trkpt lat="48.36123" lon="2.53915">
        <ele>107</ele>
        <time>2022-08-10T08:53:41.679Z</time>
      </trkpt>
      <trkpt lat="48.36127" lon="2.53917">
        <ele>111</ele>
        <time>2022-08-10T08:53:46.696Z</time>
      </trkpt>
      <trkpt lat="48.36134" lon="2.53918">
        <ele>111</ele>
        <time>2022-08-10T08:53:51.709Z</time>
      </trkpt>
      <trkpt lat="48.3614" lon="2.53923">
        <ele>111</ele>
        <time>2022-08-10T08:54:00.711Z</time>
      </trkpt>
      <trkpt lat="48.36141" lon="2.53923">
        <ele>111</ele>
        <time>2022-08-10T08:54:04.698Z</time>
      </trkpt>
      <trkpt lat="48.36141" lon="2.53925">
        <ele>111</ele>
        <time>2022-08-10T08:54:09.706Z</time>
      </trkpt>
      <trkpt lat="48.36144" lon="2.53929">
        <ele>111</ele>
        <time>2022-08-10T08:54:14.693Z</time>
      </trkpt>
      <trkpt lat="48.36149" lon="2.53933">
        <ele>111</ele>
        <time>2022-08-10T08:54:19.687Z</time>
      </trkpt>
      <trkpt lat="48.36154" lon="2.53939">
        <ele>114</ele>
        <time>2022-08-10T08:54:28.669Z</time>
      </trkpt>
      <trkpt lat="48.36154" lon="2.53939">
        <ele>114</ele>
        <time>2022-08-10T08:54:32.674Z</time>
      </trkpt>
      <trkpt lat="48.36157" lon="2.53938">
        <ele>114</ele>
        <time>2022-08-10T08:54:36.719Z</time>
      </trkpt>
      <trkpt lat="48.36159" lon="2.53937">
        <ele>114</ele>
        <time>2022-08-10T08:54:41.679Z</time>
      </trkpt>
      <trkpt lat="48.36161" lon="2.53942">
        <ele>114</ele>
        <time>2022-08-10T08:54:46.652Z</time>
      </trkpt>
      <trkpt lat="48.36161" lon="2.53949">
        <ele>114</ele>
        <time>2022-08-10T08:54:50.665Z</time>
      </trkpt>
      <trkpt lat="48.36162" lon="2.53957">
        <ele>114</ele>
        <time>2022-08-10T08:54:55.657Z</time>
      </trkpt>
      <trkpt lat="48.36166" lon="2.53965">
        <ele>114</ele>
        <time>2022-08-10T08:55:00.667Z</time>
      </trkpt>
      <trkpt lat="48.36172" lon="2.53965">
        <ele>114</ele>
        <time>2022-08-10T08:55:05.654Z</time>
      </trkpt>
      <trkpt lat="48.36174" lon="2.53959">
        <ele>114</ele>
        <time>2022-08-10T08:55:09.666Z</time>
      </trkpt>
      <trkpt lat="48.36172" lon="2.53953">
        <ele>114</ele>
        <time>2022-08-10T08:55:14.665Z</time>
      </trkpt>
      <trkpt lat="48.36171" lon="2.53947">
        <ele>114</ele>
        <time>2022-08-10T08:55:18.684Z</time>
      </trkpt>
      <trkpt lat="48.36171" lon="2.53943">
        <ele>114</ele>
        <time>2022-08-10T08:55:23.648Z</time>
      </trkpt>
      <trkpt lat="48.36172" lon="2.53942">
        <ele>114</ele>
        <time>2022-08-10T08:55:27.651Z</time>
      </trkpt>
      <trkpt lat="48.36167" lon="2.53934">
        <ele>114</ele>
        <time>2022-08-10T08:55:31.648Z</time>
      </trkpt>
      <trkpt lat="48.36168" lon="2.53928">
        <ele>115</ele>
        <time>2022-08-10T08:55:35.654Z</time>
      </trkpt>
      <trkpt lat="48.36165" lon="2.53922">
        <ele>115</ele>
        <time>2022-08-10T08:55:40.653Z</time>
      </trkpt>
      <trkpt lat="48.36165" lon="2.5392">
        <ele>115</ele>
        <time>2022-08-10T08:55:45.649Z</time>
      </trkpt>
      <trkpt lat="48.36166" lon="2.53913">
        <ele>115</ele>
        <time>2022-08-10T08:55:49.671Z</time>
      </trkpt>
      <trkpt lat="48.36167" lon="2.53908">
        <ele>115</ele>
        <time>2022-08-10T08:55:54.677Z</time>
      </trkpt>
      <trkpt lat="48.36168" lon="2.53902">
        <ele>115</ele>
        <time>2022-08-10T08:55:58.674Z</time>
      </trkpt>
      <trkpt lat="48.36169" lon="2.539">
        <ele>115</ele>
        <time>2022-08-10T08:56:21.725Z</time>
      </trkpt>
      <trkpt lat="48.36168" lon="2.53908">
        <ele>115</ele>
        <time>2022-08-10T08:56:26.718Z</time>
      </trkpt>
      <trkpt lat="48.36166" lon="2.53918">
        <ele>115</ele>
        <time>2022-08-10T08:56:31.707Z</time>
      </trkpt>
      <trkpt lat="48.36166" lon="2.53926">
        <ele>115</ele>
        <time>2022-08-10T08:56:36.711Z</time>
      </trkpt>
      <trkpt lat="48.36161" lon="2.53927">
        <ele>115</ele>
        <time>2022-08-10T08:56:41.686Z</time>
      </trkpt>
      <trkpt lat="48.36159" lon="2.53928">
        <ele>115</ele>
        <time>2022-08-10T08:56:46.707Z</time>
      </trkpt>
      <trkpt lat="48.36156" lon="2.53922">
        <ele>115</ele>
        <time>2022-08-10T08:56:50.718Z</time>
      </trkpt>
      <trkpt lat="48.36154" lon="2.53918">
        <ele>115</ele>
        <time>2022-08-10T08:56:55.678Z</time>
      </trkpt>
      <trkpt lat="48.36153" lon="2.53918">
        <ele>115</ele>
        <time>2022-08-10T08:56:59.689Z</time>
      </trkpt>
      <trkpt lat="48.36154" lon="2.53915">
        <ele>115</ele>
        <time>2022-08-10T08:57:04.650Z</time>
      </trkpt>
      <trkpt lat="48.36153" lon="2.53915">
        <ele>115</ele>
        <time>2022-08-10T08:57:08.672Z</time>
      </trkpt>
      <trkpt lat="48.36152" lon="2.53908">
        <ele>111</ele>
        <time>2022-08-10T08:57:12.674Z</time>
      </trkpt>
      <trkpt lat="48.3615" lon="2.53904">
        <ele>111</ele>
        <time>2022-08-10T08:57:16.686Z</time>
      </trkpt>
      <trkpt lat="48.36148" lon="2.53895">
        <ele>112</ele>
        <time>2022-08-10T08:57:21.699Z</time>
      </trkpt>
      <trkpt lat="48.36145" lon="2.53886">
        <ele>112</ele>
        <time>2022-08-10T08:57:26.683Z</time>
      </trkpt>
      <trkpt lat="48.36144" lon="2.53879">
        <ele>112</ele>
        <time>2022-08-10T08:57:30.706Z</time>
      </trkpt>
      <trkpt lat="48.36142" lon="2.53871">
        <ele>111</ele>
        <time>2022-08-10T08:57:35.684Z</time>
      </trkpt>
      <trkpt lat="48.36139" lon="2.53866">
        <ele>111</ele>
        <time>2022-08-10T08:57:39.686Z</time>
      </trkpt>
      <trkpt lat="48.3614" lon="2.53851">
        <ele>111</ele>
        <time>2022-08-10T08:58:17.683Z</time>
      </trkpt>
      <trkpt lat="48.36141" lon="2.5385">
        <ele>111</ele>
        <time>2022-08-10T08:58:22.682Z</time>
      </trkpt>
      <trkpt lat="48.36146" lon="2.53845">
        <ele>109</ele>
        <time>2022-08-10T08:58:27.687Z</time>
      </trkpt>
      <trkpt lat="48.36149" lon="2.53842">
        <ele>109</ele>
        <time>2022-08-10T08:58:31.696Z</time>
      </trkpt>
      <trkpt lat="48.36151" lon="2.5384">
        <ele>109</ele>
        <time>2022-08-10T08:58:35.695Z</time>
      </trkpt>
      <trkpt lat="48.36157" lon="2.53835">
        <ele>112</ele>
        <time>2022-08-10T08:59:12.684Z</time>
      </trkpt>
      <trkpt lat="48.36158" lon="2.53834">
        <ele>112</ele>
        <time>2022-08-10T08:59:17.700Z</time>
      </trkpt>
      <trkpt lat="48.36158" lon="2.53828">
        <ele>112</ele>
        <time>2022-08-10T08:59:22.689Z</time>
      </trkpt>
      <trkpt lat="48.36158" lon="2.53826">
        <ele>112</ele>
        <time>2022-08-10T08:59:26.680Z</time>
      </trkpt>
      <trkpt lat="48.3616" lon="2.53825">
        <ele>112</ele>
        <time>2022-08-10T08:59:31.687Z</time>
      </trkpt>
      <trkpt lat="48.36161" lon="2.53826">
        <ele>112</ele>
        <time>2022-08-10T09:02:50.673Z</time>
      </trkpt>
      <trkpt lat="48.36163" lon="2.53827">
        <ele>112</ele>
        <time>2022-08-10T09:02:54.663Z</time>
      </trkpt>
      <trkpt lat="48.36166" lon="2.53827">
        <ele>112</ele>
        <time>2022-08-10T09:02:58.705Z</time>
      </trkpt>
      <trkpt lat="48.36168" lon="2.53824">
        <ele>112</ele>
        <time>2022-08-10T09:03:02.709Z</time>
      </trkpt>
      <trkpt lat="48.36172" lon="2.5382">
        <ele>112</ele>
        <time>2022-08-10T09:03:07.708Z</time>
      </trkpt>
      <trkpt lat="48.36176" lon="2.53816">
        <ele>109</ele>
        <time>2022-08-10T09:03:32.691Z</time>
      </trkpt>
      <trkpt lat="48.36177" lon="2.53817">
        <ele>109</ele>
        <time>2022-08-10T09:03:37.706Z</time>
      </trkpt>
      <trkpt lat="48.3618" lon="2.5382">
        <ele>112</ele>
        <time>2022-08-10T09:03:41.705Z</time>
      </trkpt>
      <trkpt lat="48.36182" lon="2.5382">
        <ele>114</ele>
        <time>2022-08-10T09:03:46.647Z</time>
      </trkpt>
      <trkpt lat="48.36183" lon="2.53815">
        <ele>113</ele>
        <time>2022-08-10T09:03:50.683Z</time>
      </trkpt>
      <trkpt lat="48.36183" lon="2.53815">
        <ele>113</ele>
        <time>2022-08-10T09:03:55.686Z</time>
      </trkpt>
      <trkpt lat="48.36184" lon="2.5381">
        <ele>113</ele>
        <time>2022-08-10T09:04:00.691Z</time>
      </trkpt>
      <trkpt lat="48.36183" lon="2.53806">
        <ele>113</ele>
        <time>2022-08-10T09:04:04.707Z</time>
      </trkpt>
      <trkpt lat="48.36184" lon="2.53799">
        <ele>113</ele>
        <time>2022-08-10T09:04:09.697Z</time>
      </trkpt>
      <trkpt lat="48.36184" lon="2.53793">
        <ele>113</ele>
        <time>2022-08-10T09:04:14.687Z</time>
      </trkpt>
      <trkpt lat="48.36185" lon="2.53794">
        <ele>113</ele>
        <time>2022-08-10T09:04:18.711Z</time>
      </trkpt>
      <trkpt lat="48.36187" lon="2.53796">
        <ele>113</ele>
        <time>2022-08-10T09:04:23.682Z</time>
      </trkpt>
      <trkpt lat="48.36188" lon="2.53789">
        <ele>111</ele>
        <time>2022-08-10T09:04:28.703Z</time>
      </trkpt>
      <trkpt lat="48.36191" lon="2.53784">
        <ele>111</ele>
        <time>2022-08-10T09:04:33.694Z</time>
      </trkpt>
      <trkpt lat="48.36193" lon="2.53779">
        <ele>111</ele>
        <time>2022-08-10T09:04:38.707Z</time>
      </trkpt>
      <trkpt lat="48.36197" lon="2.53777">
        <ele>111</ele>
        <time>2022-08-10T09:04:43.643Z</time>
      </trkpt>
      <trkpt lat="48.36198" lon="2.53776">
        <ele>111</ele>
        <time>2022-08-10T09:04:48.649Z</time>
      </trkpt>
      <trkpt lat="48.36202" lon="2.53772">
        <ele>111</ele>
        <time>2022-08-10T09:04:53.648Z</time>
      </trkpt>
      <trkpt lat="48.36205" lon="2.53764">
        <ele>111</ele>
        <time>2022-08-10T09:05:07.639Z</time>
      </trkpt>
      <trkpt lat="48.36205" lon="2.53754">
        <ele>108</ele>
        <time>2022-08-10T09:05:11.652Z</time>
      </trkpt>
      <trkpt lat="48.36205" lon="2.53745">
        <ele>108</ele>
        <time>2022-08-10T09:05:15.645Z</time>
      </trkpt>
      <trkpt lat="48.36209" lon="2.53738">
        <ele>112</ele>
        <time>2022-08-10T09:05:20.651Z</time>
      </trkpt>
      <trkpt lat="48.36213" lon="2.53731">
        <ele>111</ele>
        <time>2022-08-10T09:05:25.650Z</time>
      </trkpt>
      <trkpt lat="48.36215" lon="2.53725">
        <ele>111</ele>
        <time>2022-08-10T09:05:30.659Z</time>
      </trkpt>
      <trkpt lat="48.36214" lon="2.53718">
        <ele>111</ele>
        <time>2022-08-10T09:05:35.660Z</time>
      </trkpt>
      <trkpt lat="48.36215" lon="2.53711">
        <ele>111</ele>
        <time>2022-08-10T09:05:40.653Z</time>
      </trkpt>
      <trkpt lat="48.36215" lon="2.53706">
        <ele>109</ele>
        <time>2022-08-10T09:05:45.651Z</time>
      </trkpt>
      <trkpt lat="48.36215" lon="2.53699">
        <ele>109</ele>
        <time>2022-08-10T09:05:50.660Z</time>
      </trkpt>
      <trkpt lat="48.36217" lon="2.53695">
        <ele>109</ele>
        <time>2022-08-10T09:05:54.658Z</time>
      </trkpt>
      <trkpt lat="48.36218" lon="2.53692">
        <ele>109</ele>
        <time>2022-08-10T09:05:58.662Z</time>
      </trkpt>
      <trkpt lat="48.36219" lon="2.53687">
        <ele>109</ele>
        <time>2022-08-10T09:06:03.659Z</time>
      </trkpt>
      <trkpt lat="48.3622" lon="2.53684">
        <ele>109</ele>
        <time>2022-08-10T09:06:08.659Z</time>
      </trkpt>
      <trkpt lat="48.36219" lon="2.53684">
        <ele>109</ele>
        <time>2022-08-10T09:06:12.670Z</time>
      </trkpt>
      <trkpt lat="48.36216" lon="2.5368">
        <ele>108</ele>
        <time>2022-08-10T09:06:17.657Z</time>
      </trkpt>
      <trkpt lat="48.36217" lon="2.53677">
        <ele>108</ele>
        <time>2022-08-10T09:06:21.653Z</time>
      </trkpt>
      <trkpt lat="48.36218" lon="2.53675">
        <ele>108</ele>
        <time>2022-08-10T09:06:26.651Z</time>
      </trkpt>
      <trkpt lat="48.36218" lon="2.53669">
        <ele>108</ele>
        <time>2022-08-10T09:06:30.674Z</time>
      </trkpt>
      <trkpt lat="48.3622" lon="2.53664">
        <ele>108</ele>
        <time>2022-08-10T09:06:34.652Z</time>
      </trkpt>
      <trkpt lat="48.36218" lon="2.53652">
        <ele>109</ele>
        <time>2022-08-10T09:06:39.654Z</time>
      </trkpt>
      <trkpt lat="48.36218" lon="2.53643">
        <ele>109</ele>
        <time>2022-08-10T09:06:44.653Z</time>
      </trkpt>
      <trkpt lat="48.36219" lon="2.5364">
        <ele>109</ele>
        <time>2022-08-10T09:06:49.645Z</time>
      </trkpt>
      <trkpt lat="48.36219" lon="2.53635">
        <ele>109</ele>
        <time>2022-08-10T09:06:53.658Z</time>
      </trkpt>
      <trkpt lat="48.36216" lon="2.53629">
        <ele>109</ele>
        <time>2022-08-10T09:06:58.657Z</time>
      </trkpt>
      <trkpt lat="48.36215" lon="2.53623">
        <ele>111</ele>
        <time>2022-08-10T09:07:02.658Z</time>
      </trkpt>
      <trkpt lat="48.36214" lon="2.5362">
        <ele>111</ele>
        <time>2022-08-10T09:07:06.668Z</time>
      </trkpt>
      <trkpt lat="48.36213" lon="2.53612">
        <ele>111</ele>
        <time>2022-08-10T09:07:47.647Z</time>
      </trkpt>
      <trkpt lat="48.36213" lon="2.53609">
        <ele>111</ele>
        <time>2022-08-10T09:07:52.658Z</time>
      </trkpt>
      <trkpt lat="48.36213" lon="2.53603">
        <ele>111</ele>
        <time>2022-08-10T09:07:57.651Z</time>
      </trkpt>
      <trkpt lat="48.36214" lon="2.53598">
        <ele>111</ele>
        <time>2022-08-10T09:08:01.657Z</time>
      </trkpt>
      <trkpt lat="48.36213" lon="2.53591">
        <ele>112</ele>
        <time>2022-08-10T09:08:06.652Z</time>
      </trkpt>
      <trkpt lat="48.3621" lon="2.53588">
        <ele>112</ele>
        <time>2022-08-10T09:08:10.663Z</time>
      </trkpt>
      <trkpt lat="48.36206" lon="2.53583">
        <ele>110</ele>
        <time>2022-08-10T09:08:15.653Z</time>
      </trkpt>
      <trkpt lat="48.36207" lon="2.53574">
        <ele>110</ele>
        <time>2022-08-10T09:08:20.644Z</time>
      </trkpt>
      <trkpt lat="48.36206" lon="2.53569">
        <ele>111</ele>
        <time>2022-08-10T09:08:24.661Z</time>
      </trkpt>
      <trkpt lat="48.36203" lon="2.53566">
        <ele>111</ele>
        <time>2022-08-10T09:08:34.649Z</time>
      </trkpt>
      <trkpt lat="48.36201" lon="2.53563">
        <ele>111</ele>
        <time>2022-08-10T09:08:39.655Z</time>
      </trkpt>
      <trkpt lat="48.36202" lon="2.53561">
        <ele>111</ele>
        <time>2022-08-10T09:08:44.655Z</time>
      </trkpt>
      <trkpt lat="48.36202" lon="2.53556">
        <ele>111</ele>
        <time>2022-08-10T09:08:48.651Z</time>
      </trkpt>
      <trkpt lat="48.36202" lon="2.53554">
        <ele>111</ele>
        <time>2022-08-10T09:08:53.655Z</time>
      </trkpt>
      <trkpt lat="48.36205" lon="2.53552">
        <ele>111</ele>
        <time>2022-08-10T09:10:21.672Z</time>
      </trkpt>
      <trkpt lat="48.36208" lon="2.5355">
        <ele>111</ele>
        <time>2022-08-10T09:10:26.654Z</time>
      </trkpt>
      <trkpt lat="48.36209" lon="2.53548">
        <ele>113</ele>
        <time>2022-08-10T09:10:30.664Z</time>
      </trkpt>
      <trkpt lat="48.36209" lon="2.53544">
        <ele>113</ele>
        <time>2022-08-10T09:10:35.651Z</time>
      </trkpt>
      <trkpt lat="48.3621" lon="2.53544">
        <ele>113</ele>
        <time>2022-08-10T09:10:39.645Z</time>
      </trkpt>
      <trkpt lat="48.36209" lon="2.53541">
        <ele>113</ele>
        <time>2022-08-10T09:10:53.645Z</time>
      </trkpt>
      <trkpt lat="48.3621" lon="2.5354">
        <ele>113</ele>
        <time>2022-08-10T09:10:57.663Z</time>
      </trkpt>
      <trkpt lat="48.36209" lon="2.53539">
        <ele>113</ele>
        <time>2022-08-10T09:11:02.669Z</time>
      </trkpt>
      <trkpt lat="48.36211" lon="2.53534">
        <ele>113</ele>
        <time>2022-08-10T09:11:07.648Z</time>
      </trkpt>
      <trkpt lat="48.36214" lon="2.53532">
        <ele>113</ele>
        <time>2022-08-10T09:11:11.679Z</time>
      </trkpt>
      <trkpt lat="48.36215" lon="2.53529">
        <ele>113</ele>
        <time>2022-08-10T09:11:26.649Z</time>
      </trkpt>
      <trkpt lat="48.36215" lon="2.53529">
        <ele>113</ele>
        <time>2022-08-10T09:11:30.654Z</time>
      </trkpt>
      <trkpt lat="48.36218" lon="2.53524">
        <ele>113</ele>
        <time>2022-08-10T09:11:35.646Z</time>
      </trkpt>
      <trkpt lat="48.36219" lon="2.5352">
        <ele>113</ele>
        <time>2022-08-10T09:11:39.664Z</time>
      </trkpt>
      <trkpt lat="48.36217" lon="2.53515">
        <ele>113</ele>
        <time>2022-08-10T09:11:44.656Z</time>
      </trkpt>
      <trkpt lat="48.36214" lon="2.5351">
        <ele>112</ele>
        <time>2022-08-10T09:11:48.659Z</time>
      </trkpt>
      <trkpt lat="48.36215" lon="2.53499">
        <ele>112</ele>
        <time>2022-08-10T09:11:53.654Z</time>
      </trkpt>
      <trkpt lat="48.36216" lon="2.53491">
        <ele>112</ele>
        <time>2022-08-10T09:11:57.684Z</time>
      </trkpt>
      <trkpt lat="48.36215" lon="2.53483">
        <ele>110</ele>
        <time>2022-08-10T09:12:01.694Z</time>
      </trkpt>
      <trkpt lat="48.36215" lon="2.53473">
        <ele>110</ele>
        <time>2022-08-10T09:12:06.700Z</time>
      </trkpt>
      <trkpt lat="48.36219" lon="2.53467">
        <ele>110</ele>
        <time>2022-08-10T09:12:11.711Z</time>
      </trkpt>
      <trkpt lat="48.36221" lon="2.53464">
        <ele>110</ele>
        <time>2022-08-10T09:12:16.703Z</time>
      </trkpt>
      <trkpt lat="48.36222" lon="2.53461">
        <ele>110</ele>
        <time>2022-08-10T09:12:21.650Z</time>
      </trkpt>
      <trkpt lat="48.36224" lon="2.53457">
        <ele>108</ele>
        <time>2022-08-10T09:12:30.664Z</time>
      </trkpt>
      <trkpt lat="48.36226" lon="2.53457">
        <ele>108</ele>
        <time>2022-08-10T09:12:35.656Z</time>
      </trkpt>
      <trkpt lat="48.36227" lon="2.53451">
        <ele>108</ele>
        <time>2022-08-10T09:12:40.657Z</time>
      </trkpt>
      <trkpt lat="48.36227" lon="2.53449">
        <ele>108</ele>
        <time>2022-08-10T09:12:45.652Z</time>
      </trkpt>
      <trkpt lat="48.36226" lon="2.53446">
        <ele>108</ele>
        <time>2022-08-10T09:12:50.663Z</time>
      </trkpt>
      <trkpt lat="48.36227" lon="2.53444">
        <ele>108</ele>
        <time>2022-08-10T09:15:51.649Z</time>
      </trkpt>
      <trkpt lat="48.3623" lon="2.53443">
        <ele>108</ele>
        <time>2022-08-10T09:15:56.658Z</time>
      </trkpt>
      <trkpt lat="48.36233" lon="2.53436">
        <ele>108</ele>
        <time>2022-08-10T09:16:01.645Z</time>
      </trkpt>
      <trkpt lat="48.36233" lon="2.53434">
        <ele>108</ele>
        <time>2022-08-10T09:16:06.652Z</time>
      </trkpt>
      <trkpt lat="48.36234" lon="2.5343">
        <ele>105</ele>
        <time>2022-08-10T09:16:10.668Z</time>
      </trkpt>
      <trkpt lat="48.36236" lon="2.53423">
        <ele>105</ele>
        <time>2022-08-10T09:17:09.652Z</time>
      </trkpt>
      <trkpt lat="48.36237" lon="2.53422">
        <ele>105</ele>
        <time>2022-08-10T09:17:13.657Z</time>
      </trkpt>
      <trkpt lat="48.36238" lon="2.53421">
        <ele>105</ele>
        <time>2022-08-10T09:17:18.658Z</time>
      </trkpt>
      <trkpt lat="48.3624" lon="2.53423">
        <ele>105</ele>
        <time>2022-08-10T09:17:22.661Z</time>
      </trkpt>
      <trkpt lat="48.36242" lon="2.53419">
        <ele>105</ele>
        <time>2022-08-10T09:17:27.657Z</time>
      </trkpt>
      <trkpt lat="48.36245" lon="2.5342">
        <ele>105</ele>
        <time>2022-08-10T09:17:31.665Z</time>
      </trkpt>
      <trkpt lat="48.36248" lon="2.53417">
        <ele>105</ele>
        <time>2022-08-10T09:17:36.646Z</time>
      </trkpt>
      <trkpt lat="48.36249" lon="2.53413">
        <ele>105</ele>
        <time>2022-08-10T09:17:41.650Z</time>
      </trkpt>
      <trkpt lat="48.3625" lon="2.53411">
        <ele>105</ele>
        <time>2022-08-10T09:17:46.654Z</time>
      </trkpt>
      <trkpt lat="48.36251" lon="2.53409">
        <ele>105</ele>
        <time>2022-08-10T09:17:51.649Z</time>
      </trkpt>
      <trkpt lat="48.36251" lon="2.53409">
        <ele>105</ele>
        <time>2022-08-10T09:17:55.653Z</time>
      </trkpt>
      <trkpt lat="48.36254" lon="2.53405">
        <ele>105</ele>
        <time>2022-08-10T09:18:00.657Z</time>
      </trkpt>
      <trkpt lat="48.36256" lon="2.53399">
        <ele>102</ele>
        <time>2022-08-10T09:18:05.661Z</time>
      </trkpt>
      <trkpt lat="48.36258" lon="2.53392">
        <ele>102</ele>
        <time>2022-08-10T09:18:10.660Z</time>
      </trkpt>
      <trkpt lat="48.36269" lon="2.53385">
        <ele>101</ele>
        <time>2022-08-10T09:18:24.670Z</time>
      </trkpt>
      <trkpt lat="48.36271" lon="2.53382">
        <ele>101</ele>
        <time>2022-08-10T09:18:29.661Z</time>
      </trkpt>
      <trkpt lat="48.36276" lon="2.53379">
        <ele>101</ele>
        <time>2022-08-10T09:18:33.665Z</time>
      </trkpt>
      <trkpt lat="48.36281" lon="2.53379">
        <ele>101</ele>
        <time>2022-08-10T09:18:38.666Z</time>
      </trkpt>
      <trkpt lat="48.36287" lon="2.53379">
        <ele>101</ele>
        <time>2022-08-10T09:18:43.658Z</time>
      </trkpt>
      <trkpt lat="48.36291" lon="2.53378">
        <ele>101</ele>
        <time>2022-08-10T09:18:47.675Z</time>
      </trkpt>
      <trkpt lat="48.36293" lon="2.5337">
        <ele>97</ele>
        <time>2022-08-10T09:18:52.665Z</time>
      </trkpt>
      <trkpt lat="48.36296" lon="2.53368">
        <ele>97</ele>
        <time>2022-08-10T09:18:57.674Z</time>
      </trkpt>
      <trkpt lat="48.36298" lon="2.53364">
        <ele>97</ele>
        <time>2022-08-10T09:19:02.658Z</time>
      </trkpt>
      <trkpt lat="48.36301" lon="2.53359">
        <ele>97</ele>
        <time>2022-08-10T09:19:07.661Z</time>
      </trkpt>
      <trkpt lat="48.36303" lon="2.53354">
        <ele>97</ele>
        <time>2022-08-10T09:19:12.651Z</time>
      </trkpt>
      <trkpt lat="48.36304" lon="2.53349">
        <ele>97</ele>
        <time>2022-08-10T09:19:16.659Z</time>
      </trkpt>
      <trkpt lat="48.36306" lon="2.53346">
        <ele>96</ele>
        <time>2022-08-10T09:19:20.666Z</time>
      </trkpt>
      <trkpt lat="48.36309" lon="2.5334">
        <ele>96</ele>
        <time>2022-08-10T09:19:25.660Z</time>
      </trkpt>
      <trkpt lat="48.36313" lon="2.53334">
        <ele>96</ele>
        <time>2022-08-10T09:19:30.676Z</time>
      </trkpt>
      <trkpt lat="48.36316" lon="2.53326">
        <ele>96</ele>
        <time>2022-08-10T09:19:35.678Z</time>
      </trkpt>
      <trkpt lat="48.36319" lon="2.53323">
        <ele>96</ele>
        <time>2022-08-10T09:19:40.650Z</time>
      </trkpt>
      <trkpt lat="48.36325" lon="2.53326">
        <ele>94</ele>
        <time>2022-08-10T09:19:44.651Z</time>
      </trkpt>
      <trkpt lat="48.36328" lon="2.53326">
        <ele>94</ele>
        <time>2022-08-10T09:19:49.666Z</time>
      </trkpt>
      <trkpt lat="48.36333" lon="2.53326">
        <ele>94</ele>
        <time>2022-08-10T09:19:53.662Z</time>
      </trkpt>
      <trkpt lat="48.36337" lon="2.53325">
        <ele>94</ele>
        <time>2022-08-10T09:19:58.674Z</time>
      </trkpt>
      <trkpt lat="48.36341" lon="2.53323">
        <ele>94</ele>
        <time>2022-08-10T09:20:03.661Z</time>
      </trkpt>
      <trkpt lat="48.36343" lon="2.53323">
        <ele>94</ele>
        <time>2022-08-10T09:20:07.659Z</time>
      </trkpt>
      <trkpt lat="48.36346" lon="2.53326">
        <ele>94</ele>
        <time>2022-08-10T09:20:12.650Z</time>
      </trkpt>
      <trkpt lat="48.36349" lon="2.53327">
        <ele>91</ele>
        <time>2022-08-10T09:20:16.657Z</time>
      </trkpt>
      <trkpt lat="48.36353" lon="2.53326">
        <ele>91</ele>
        <time>2022-08-10T09:20:21.662Z</time>
      </trkpt>
      <trkpt lat="48.36357" lon="2.53325">
        <ele>91</ele>
        <time>2022-08-10T09:20:30.658Z</time>
      </trkpt>
      <trkpt lat="48.36357" lon="2.53324">
        <ele>91</ele>
        <time>2022-08-10T09:20:35.651Z</time>
      </trkpt>
      <trkpt lat="48.36361" lon="2.53326">
        <ele>91</ele>
        <time>2022-08-10T09:20:39.653Z</time>
      </trkpt>
      <trkpt lat="48.36364" lon="2.53328">
        <ele>91</ele>
        <time>2022-08-10T09:20:43.689Z</time>
      </trkpt>
      <trkpt lat="48.36366" lon="2.53326">
        <ele>91</ele>
        <time>2022-08-10T09:20:48.659Z</time>
      </trkpt>
      <trkpt lat="48.3637" lon="2.53335">
        <ele>91</ele>
        <time>2022-08-10T09:23:03.694Z</time>
      </trkpt>
      <trkpt lat="48.36372" lon="2.53336">
        <ele>91</ele>
        <time>2022-08-10T09:23:08.674Z</time>
      </trkpt>
      <trkpt lat="48.36374" lon="2.53337">
        <ele>91</ele>
        <time>2022-08-10T09:23:12.679Z</time>
      </trkpt>
      <trkpt lat="48.36374" lon="2.53337">
        <ele>91</ele>
        <time>2022-08-10T09:23:16.676Z</time>
      </trkpt>
      <trkpt lat="48.36378" lon="2.53339">
        <ele>89</ele>
        <time>2022-08-10T09:23:21.660Z</time>
      </trkpt>
      <trkpt lat="48.36381" lon="2.53339">
        <ele>89</ele>
        <time>2022-08-10T09:23:25.680Z</time>
      </trkpt>
      <trkpt lat="48.36382" lon="2.53345">
        <ele>89</ele>
        <time>2022-08-10T09:23:29.707Z</time>
      </trkpt>
      <trkpt lat="48.36386" lon="2.5335">
        <ele>90</ele>
        <time>2022-08-10T09:23:34.675Z</time>
      </trkpt>
      <trkpt lat="48.36389" lon="2.53352">
        <ele>90</ele>
        <time>2022-08-10T09:23:39.695Z</time>
      </trkpt>
      <trkpt lat="48.36396" lon="2.5335">
        <ele>90</ele>
        <time>2022-08-10T09:23:49.646Z</time>
      </trkpt>
      <trkpt lat="48.36397" lon="2.53351">
        <ele>90</ele>
        <time>2022-08-10T09:23:53.691Z</time>
      </trkpt>
      <trkpt lat="48.36399" lon="2.53353">
        <ele>90</ele>
        <time>2022-08-10T09:23:58.681Z</time>
      </trkpt>
      <trkpt lat="48.36402" lon="2.53355">
        <ele>90</ele>
        <time>2022-08-10T09:24:03.676Z</time>
      </trkpt>
      <trkpt lat="48.36405" lon="2.53359">
        <ele>91</ele>
        <time>2022-08-10T09:24:07.728Z</time>
      </trkpt>
      <trkpt lat="48.36407" lon="2.5336">
        <ele>91</ele>
        <time>2022-08-10T09:24:12.661Z</time>
      </trkpt>
      <trkpt lat="48.36412" lon="2.53362">
        <ele>91</ele>
        <time>2022-08-10T09:24:17.663Z</time>
      </trkpt>
      <trkpt lat="48.36413" lon="2.53361">
        <ele>91</ele>
        <time>2022-08-10T09:24:22.669Z</time>
      </trkpt>
      <trkpt lat="48.36415" lon="2.53357">
        <ele>91</ele>
        <time>2022-08-10T09:24:26.667Z</time>
      </trkpt>
      <trkpt lat="48.36417" lon="2.53357">
        <ele>91</ele>
        <time>2022-08-10T09:24:30.675Z</time>
      </trkpt>
      <trkpt lat="48.36423" lon="2.53363">
        <ele>91</ele>
        <time>2022-08-10T09:24:35.675Z</time>
      </trkpt>
      <trkpt lat="48.36425" lon="2.53364">
        <ele>91</ele>
        <time>2022-08-10T09:24:39.665Z</time>
      </trkpt>
      <trkpt lat="48.36428" lon="2.53368">
        <ele>91</ele>
        <time>2022-08-10T09:24:44.680Z</time>
      </trkpt>
      <trkpt lat="48.3643" lon="2.5337">
        <ele>91</ele>
        <time>2022-08-10T09:24:49.672Z</time>
      </trkpt>
      <trkpt lat="48.36434" lon="2.53367">
        <ele>90</ele>
        <time>2022-08-10T09:24:54.682Z</time>
      </trkpt>
      <trkpt lat="48.36438" lon="2.53364">
        <ele>90</ele>
        <time>2022-08-10T09:24:59.691Z</time>
      </trkpt>
      <trkpt lat="48.36442" lon="2.53364">
        <ele>90</ele>
        <time>2022-08-10T09:25:04.662Z</time>
      </trkpt>
      <trkpt lat="48.36444" lon="2.53367">
        <ele>90</ele>
        <time>2022-08-10T09:25:08.685Z</time>
      </trkpt>
      <trkpt lat="48.36448" lon="2.53367">
        <ele>90</ele>
        <time>2022-08-10T09:25:13.664Z</time>
      </trkpt>
      <trkpt lat="48.36451" lon="2.53365">
        <ele>90</ele>
        <time>2022-08-10T09:25:17.686Z</time>
      </trkpt>
      <trkpt lat="48.36453" lon="2.53357">
        <ele>90</ele>
        <time>2022-08-10T09:25:22.661Z</time>
      </trkpt>
      <trkpt lat="48.36455" lon="2.53352">
        <ele>90</ele>
        <time>2022-08-10T09:25:27.676Z</time>
      </trkpt>
      <trkpt lat="48.36458" lon="2.53351">
        <ele>91</ele>
        <time>2022-08-10T09:25:31.692Z</time>
      </trkpt>
      <trkpt lat="48.36466" lon="2.53351">
        <ele>91</ele>
        <time>2022-08-10T09:25:36.675Z</time>
      </trkpt>
      <trkpt lat="48.36473" lon="2.53353">
        <ele>91</ele>
        <time>2022-08-10T09:25:41.659Z</time>
      </trkpt>
      <trkpt lat="48.36478" lon="2.53358">
        <ele>91</ele>
        <time>2022-08-10T09:25:46.661Z</time>
      </trkpt>
      <trkpt lat="48.36481" lon="2.53361">
        <ele>91</ele>
        <time>2022-08-10T09:25:50.658Z</time>
      </trkpt>
      <trkpt lat="48.36484" lon="2.53366">
        <ele>91</ele>
        <time>2022-08-10T09:25:54.673Z</time>
      </trkpt>
      <trkpt lat="48.36488" lon="2.5337">
        <ele>89</ele>
        <time>2022-08-10T09:25:58.674Z</time>
      </trkpt>
      <trkpt lat="48.3649" lon="2.53375">
        <ele>89</ele>
        <time>2022-08-10T09:26:02.686Z</time>
      </trkpt>
      <trkpt lat="48.36493" lon="2.53381">
        <ele>92</ele>
        <time>2022-08-10T09:26:07.662Z</time>
      </trkpt>
      <trkpt lat="48.36497" lon="2.53384">
        <ele>92</ele>
        <time>2022-08-10T09:26:34.666Z</time>
      </trkpt>
      <trkpt lat="48.36497" lon="2.53384">
        <ele>92</ele>
        <time>2022-08-10T09:26:39.653Z</time>
      </trkpt>
      <trkpt lat="48.365" lon="2.53387">
        <ele>92</ele>
        <time>2022-08-10T09:26:44.656Z</time>
      </trkpt>
      <trkpt lat="48.36499" lon="2.53392">
        <ele>92</ele>
        <time>2022-08-10T09:26:48.693Z</time>
      </trkpt>
      <trkpt lat="48.365" lon="2.53397">
        <ele>92</ele>
        <time>2022-08-10T09:26:53.668Z</time>
      </trkpt>
      <trkpt lat="48.36501" lon="2.53401">
        <ele>92</ele>
        <time>2022-08-10T09:26:57.667Z</time>
      </trkpt>
      <trkpt lat="48.36497" lon="2.53404">
        <ele>95</ele>
        <time>2022-08-10T09:27:02.648Z</time>
      </trkpt>
      <trkpt lat="48.36494" lon="2.5341">
        <ele>95</ele>
        <time>2022-08-10T09:27:07.661Z</time>
      </trkpt>
      <trkpt lat="48.36489" lon="2.53414">
        <ele>95</ele>
        <time>2022-08-10T09:27:12.653Z</time>
      </trkpt>
      <trkpt lat="48.36487" lon="2.53421">
        <ele>95</ele>
        <time>2022-08-10T09:27:17.655Z</time>
      </trkpt>
      <trkpt lat="48.36486" lon="2.53426">
        <ele>95</ele>
        <time>2022-08-10T09:27:21.661Z</time>
      </trkpt>
      <trkpt lat="48.36488" lon="2.53432">
        <ele>98</ele>
        <time>2022-08-10T09:27:25.681Z</time>
      </trkpt>
      <trkpt lat="48.3649" lon="2.5344">
        <ele>98</ele>
        <time>2022-08-10T09:27:29.687Z</time>
      </trkpt>
      <trkpt lat="48.36492" lon="2.53448">
        <ele>98</ele>
        <time>2022-08-10T09:27:33.690Z</time>
      </trkpt>
      <trkpt lat="48.36496" lon="2.53454">
        <ele>98</ele>
        <time>2022-08-10T09:27:38.679Z</time>
      </trkpt>
      <trkpt lat="48.36498" lon="2.53464">
        <ele>100</ele>
        <time>2022-08-10T09:27:43.686Z</time>
      </trkpt>
      <trkpt lat="48.36503" lon="2.53472">
        <ele>100</ele>
        <time>2022-08-10T09:27:48.674Z</time>
      </trkpt>
      <trkpt lat="48.36504" lon="2.5348">
        <ele>100</ele>
        <time>2022-08-10T09:27:53.663Z</time>
      </trkpt>
      <trkpt lat="48.36506" lon="2.53487">
        <ele>100</ele>
        <time>2022-08-10T09:27:58.656Z</time>
      </trkpt>
      <trkpt lat="48.36509" lon="2.53494">
        <ele>100</ele>
        <time>2022-08-10T09:28:03.666Z</time>
      </trkpt>
      <trkpt lat="48.36513" lon="2.53503">
        <ele>100</ele>
        <time>2022-08-10T09:28:08.667Z</time>
      </trkpt>
      <trkpt lat="48.36515" lon="2.53512">
        <ele>101</ele>
        <time>2022-08-10T09:28:13.667Z</time>
      </trkpt>
      <trkpt lat="48.36517" lon="2.53517">
        <ele>101</ele>
        <time>2022-08-10T09:28:18.666Z</time>
      </trkpt>
      <trkpt lat="48.3652" lon="2.53518">
        <ele>101</ele>
        <time>2022-08-10T09:28:23.649Z</time>
      </trkpt>
      <trkpt lat="48.36522" lon="2.5352">
        <ele>101</ele>
        <time>2022-08-10T09:28:27.675Z</time>
      </trkpt>
      <trkpt lat="48.36523" lon="2.53524">
        <ele>101</ele>
        <time>2022-08-10T09:28:32.650Z</time>
      </trkpt>
      <trkpt lat="48.36526" lon="2.53527">
        <ele>101</ele>
        <time>2022-08-10T09:28:36.668Z</time>
      </trkpt>
      <trkpt lat="48.3653" lon="2.5353">
        <ele>101</ele>
        <time>2022-08-10T09:28:40.658Z</time>
      </trkpt>
      <trkpt lat="48.36532" lon="2.53538">
        <ele>101</ele>
        <time>2022-08-10T09:28:45.683Z</time>
      </trkpt>
      <trkpt lat="48.36534" lon="2.53541">
        <ele>101</ele>
        <time>2022-08-10T09:28:49.705Z</time>
      </trkpt>
      <trkpt lat="48.36535" lon="2.53543">
        <ele>100</ele>
        <time>2022-08-10T09:29:03.671Z</time>
      </trkpt>
      <trkpt lat="48.36535" lon="2.53545">
        <ele>100</ele>
        <time>2022-08-10T09:29:07.687Z</time>
      </trkpt>
      <trkpt lat="48.36537" lon="2.53549">
        <ele>100</ele>
        <time>2022-08-10T09:29:12.654Z</time>
      </trkpt>
      <trkpt lat="48.36538" lon="2.53551">
        <ele>100</ele>
        <time>2022-08-10T09:29:16.650Z</time>
      </trkpt>
      <trkpt lat="48.3654" lon="2.53555">
        <ele>100</ele>
        <time>2022-08-10T09:29:20.650Z</time>
      </trkpt>
      <trkpt lat="48.36545" lon="2.53555">
        <ele>102</ele>
        <time>2022-08-10T09:29:30.658Z</time>
      </trkpt>
      <trkpt lat="48.36545" lon="2.53557">
        <ele>102</ele>
        <time>2022-08-10T09:29:35.638Z</time>
      </trkpt>
      <trkpt lat="48.36543" lon="2.53559">
        <ele>102</ele>
        <time>2022-08-10T09:29:39.634Z</time>
      </trkpt>
      <trkpt lat="48.36549" lon="2.53556">
        <ele>102</ele>
        <time>2022-08-10T09:29:44.671Z</time>
      </trkpt>
      <trkpt lat="48.36556" lon="2.53562">
        <ele>102</ele>
        <time>2022-08-10T09:29:49.643Z</time>
      </trkpt>
      <trkpt lat="48.36571" lon="2.53576">
        <ele>103</ele>
        <time>2022-08-10T09:30:40.644Z</time>
      </trkpt>
      <trkpt lat="48.36575" lon="2.53574">
        <ele>103</ele>
        <time>2022-08-10T09:30:44.654Z</time>
      </trkpt>
      <trkpt lat="48.3658" lon="2.53576">
        <ele>103</ele>
        <time>2022-08-10T09:30:49.656Z</time>
      </trkpt>
      <trkpt lat="48.36585" lon="2.53574">
        <ele>103</ele>
        <time>2022-08-10T09:30:54.667Z</time>
      </trkpt>
      <trkpt lat="48.36588" lon="2.53574">
        <ele>103</ele>
        <time>2022-08-10T09:30:58.662Z</time>
      </trkpt>
      <trkpt lat="48.36593" lon="2.53571">
        <ele>103</ele>
        <time>2022-08-10T09:31:03.658Z</time>
      </trkpt>
      <trkpt lat="48.366" lon="2.5357">
        <ele>104</ele>
        <time>2022-08-10T09:31:08.651Z</time>
      </trkpt>
      <trkpt lat="48.36606" lon="2.53569">
        <ele>105</ele>
        <time>2022-08-10T09:31:12.670Z</time>
      </trkpt>
      <trkpt lat="48.36609" lon="2.53577">
        <ele>104</ele>
        <time>2022-08-10T09:31:17.683Z</time>
      </trkpt>
      <trkpt lat="48.36614" lon="2.53582">
        <ele>104</ele>
        <time>2022-08-10T09:31:22.667Z</time>
      </trkpt>
      <trkpt lat="48.36619" lon="2.53587">
        <ele>104</ele>
        <time>2022-08-10T09:31:26.690Z</time>
      </trkpt>
      <trkpt lat="48.36624" lon="2.53593">
        <ele>104</ele>
        <time>2022-08-10T09:31:31.693Z</time>
      </trkpt>
      <trkpt lat="48.3663" lon="2.536">
        <ele>107</ele>
        <time>2022-08-10T09:31:36.710Z</time>
      </trkpt>
      <trkpt lat="48.36634" lon="2.53606">
        <ele>107</ele>
        <time>2022-08-10T09:31:41.676Z</time>
      </trkpt>
      <trkpt lat="48.36639" lon="2.53608">
        <ele>107</ele>
        <time>2022-08-10T09:31:45.691Z</time>
      </trkpt>
      <trkpt lat="48.36645" lon="2.53605">
        <ele>107</ele>
        <time>2022-08-10T09:31:50.674Z</time>
      </trkpt>
      <trkpt lat="48.36647" lon="2.53601">
        <ele>107</ele>
        <time>2022-08-10T09:31:54.699Z</time>
      </trkpt>
      <trkpt lat="48.36649" lon="2.53598">
        <ele>107</ele>
        <time>2022-08-10T09:31:59.667Z</time>
      </trkpt>
      <trkpt lat="48.36649" lon="2.53591">
        <ele>106</ele>
        <time>2022-08-10T09:32:04.673Z</time>
      </trkpt>
      <trkpt lat="48.36653" lon="2.53585">
        <ele>105</ele>
        <time>2022-08-10T09:32:09.683Z</time>
      </trkpt>
      <trkpt lat="48.36653" lon="2.53581">
        <ele>105</ele>
        <time>2022-08-10T09:32:14.653Z</time>
      </trkpt>
      <trkpt lat="48.36653" lon="2.53577">
        <ele>105</ele>
        <time>2022-08-10T09:32:19.649Z</time>
      </trkpt>
      <trkpt lat="48.36649" lon="2.53573">
        <ele>106</ele>
        <time>2022-08-10T09:32:24.649Z</time>
      </trkpt>
      <trkpt lat="48.36646" lon="2.53569">
        <ele>102</ele>
        <time>2022-08-10T09:32:28.664Z</time>
      </trkpt>
      <trkpt lat="48.36647" lon="2.53562">
        <ele>102</ele>
        <time>2022-08-10T09:32:33.646Z</time>
      </trkpt>
      <trkpt lat="48.36647" lon="2.53555">
        <ele>102</ele>
        <time>2022-08-10T09:32:38.652Z</time>
      </trkpt>
      <trkpt lat="48.36647" lon="2.53547">
        <ele>102</ele>
        <time>2022-08-10T09:32:42.653Z</time>
      </trkpt>
      <trkpt lat="48.36649" lon="2.53542">
        <ele>99</ele>
        <time>2022-08-10T09:32:47.658Z</time>
      </trkpt>
      <trkpt lat="48.36652" lon="2.53535">
        <ele>99</ele>
        <time>2022-08-10T09:32:52.648Z</time>
      </trkpt>
      <trkpt lat="48.36657" lon="2.53533">
        <ele>93</ele>
        <time>2022-08-10T09:32:56.677Z</time>
      </trkpt>
      <trkpt lat="48.3666" lon="2.53527">
        <ele>93</ele>
        <time>2022-08-10T09:33:01.653Z</time>
      </trkpt>
      <trkpt lat="48.36662" lon="2.5352">
        <ele>93</ele>
        <time>2022-08-10T09:33:05.681Z</time>
      </trkpt>
      <trkpt lat="48.36664" lon="2.53511">
        <ele>88</ele>
        <time>2022-08-10T09:33:10.648Z</time>
      </trkpt>
      <trkpt lat="48.36663" lon="2.53504">
        <ele>88</ele>
        <time>2022-08-10T09:33:14.660Z</time>
      </trkpt>
      <trkpt lat="48.36663" lon="2.53497">
        <ele>88</ele>
        <time>2022-08-10T09:33:18.677Z</time>
      </trkpt>
      <trkpt lat="48.36665" lon="2.53488">
        <ele>88</ele>
        <time>2022-08-10T09:33:23.683Z</time>
      </trkpt>
      <trkpt lat="48.36668" lon="2.53481">
        <ele>85</ele>
        <time>2022-08-10T09:33:28.651Z</time>
      </trkpt>
      <trkpt lat="48.36669" lon="2.53476">
        <ele>85</ele>
        <time>2022-08-10T09:33:32.654Z</time>
      </trkpt>
      <trkpt lat="48.36669" lon="2.53467">
        <ele>85</ele>
        <time>2022-08-10T09:33:36.668Z</time>
      </trkpt>
      <trkpt lat="48.36671" lon="2.5346">
        <ele>85</ele>
        <time>2022-08-10T09:33:40.681Z</time>
      </trkpt>
      <trkpt lat="48.36675" lon="2.53451">
        <ele>82</ele>
        <time>2022-08-10T09:33:45.683Z</time>
      </trkpt>
      <trkpt lat="48.36677" lon="2.53445">
        <ele>82</ele>
        <time>2022-08-10T09:33:49.679Z</time>
      </trkpt>
      <trkpt lat="48.3668" lon="2.53439">
        <ele>82</ele>
        <time>2022-08-10T09:33:53.688Z</time>
      </trkpt>
      <trkpt lat="48.36682" lon="2.53431">
        <ele>84</ele>
        <time>2022-08-10T09:33:58.682Z</time>
      </trkpt>
      <trkpt lat="48.36688" lon="2.53428">
        <ele>82</ele>
        <time>2022-08-10T09:35:15.633Z</time>
      </trkpt>
      <trkpt lat="48.36697" lon="2.53423">
        <ele>82</ele>
        <time>2022-08-10T09:35:39.636Z</time>
      </trkpt>
      <trkpt lat="48.36703" lon="2.53413">
        <ele>82</ele>
        <time>2022-08-10T09:35:44.641Z</time>
      </trkpt>
      <trkpt lat="48.36712" lon="2.53423">
        <ele>85</ele>
        <time>2022-08-10T09:35:48.666Z</time>
      </trkpt>
      <trkpt lat="48.36716" lon="2.53424">
        <ele>85</ele>
        <time>2022-08-10T09:35:53.650Z</time>
      </trkpt>
      <trkpt lat="48.36712" lon="2.53446">
        <ele>87</ele>
        <time>2022-08-10T09:35:58.642Z</time>
      </trkpt>
      <trkpt lat="48.36718" lon="2.5345">
        <ele>87</ele>
        <time>2022-08-10T09:36:20.675Z</time>
      </trkpt>
      <trkpt lat="48.36721" lon="2.53458">
        <ele>87</ele>
        <time>2022-08-10T09:36:25.666Z</time>
      </trkpt>
      <trkpt lat="48.36728" lon="2.53464">
        <ele>89</ele>
        <time>2022-08-10T09:36:29.681Z</time>
      </trkpt>
      <trkpt lat="48.36727" lon="2.5348">
        <ele>89</ele>
        <time>2022-08-10T09:36:33.690Z</time>
      </trkpt>
      <trkpt lat="48.36728" lon="2.53495">
        <ele>90</ele>
        <time>2022-08-10T09:36:38.639Z</time>
      </trkpt>
      <trkpt lat="48.36734" lon="2.53506">
        <ele>90</ele>
        <time>2022-08-10T09:37:09.637Z</time>
      </trkpt>
      <trkpt lat="48.36738" lon="2.53514">
        <ele>95</ele>
        <time>2022-08-10T09:37:14.655Z</time>
      </trkpt>
      <trkpt lat="48.36741" lon="2.53516">
        <ele>95</ele>
        <time>2022-08-10T09:37:19.650Z</time>
      </trkpt>
      <trkpt lat="48.36745" lon="2.53515">
        <ele>95</ele>
        <time>2022-08-10T09:37:23.656Z</time>
      </trkpt>
      <trkpt lat="48.36747" lon="2.5351">
        <ele>94</ele>
        <time>2022-08-10T09:37:27.685Z</time>
      </trkpt>
      <trkpt lat="48.3675" lon="2.53505">
        <ele>94</ele>
        <time>2022-08-10T09:37:32.652Z</time>
      </trkpt>
      <trkpt lat="48.36751" lon="2.53502">
        <ele>94</ele>
        <time>2022-08-10T09:37:37.639Z</time>
      </trkpt>
      <trkpt lat="48.36754" lon="2.53503">
        <ele>94</ele>
        <time>2022-08-10T09:37:41.657Z</time>
      </trkpt>
      <trkpt lat="48.36753" lon="2.53513">
        <ele>94</ele>
        <time>2022-08-10T09:37:46.653Z</time>
      </trkpt>
      <trkpt lat="48.36755" lon="2.53518">
        <ele>95</ele>
        <time>2022-08-10T09:37:51.670Z</time>
      </trkpt>
      <trkpt lat="48.36757" lon="2.53517">
        <ele>95</ele>
        <time>2022-08-10T09:37:56.644Z</time>
      </trkpt>
      <trkpt lat="48.36759" lon="2.53517">
        <ele>95</ele>
        <time>2022-08-10T09:38:00.653Z</time>
      </trkpt>
      <trkpt lat="48.36762" lon="2.53513">
        <ele>94</ele>
        <time>2022-08-10T09:38:05.651Z</time>
      </trkpt>
      <trkpt lat="48.36766" lon="2.53514">
        <ele>97</ele>
        <time>2022-08-10T09:38:09.679Z</time>
      </trkpt>
      <trkpt lat="48.36769" lon="2.53517">
        <ele>100</ele>
        <time>2022-08-10T09:38:14.668Z</time>
      </trkpt>
      <trkpt lat="48.36775" lon="2.53516">
        <ele>100</ele>
        <time>2022-08-10T09:38:18.671Z</time>
      </trkpt>
      <trkpt lat="48.36781" lon="2.53515">
        <ele>100</ele>
        <time>2022-08-10T09:38:23.686Z</time>
      </trkpt>
      <trkpt lat="48.36787" lon="2.53518">
        <ele>100</ele>
        <time>2022-08-10T09:38:27.698Z</time>
      </trkpt>
      <trkpt lat="48.36792" lon="2.53515">
        <ele>100</ele>
        <time>2022-08-10T09:38:32.665Z</time>
      </trkpt>
      <trkpt lat="48.36796" lon="2.53514">
        <ele>99</ele>
        <time>2022-08-10T09:38:37.638Z</time>
      </trkpt>
      <trkpt lat="48.368" lon="2.53514">
        <ele>101</ele>
        <time>2022-08-10T09:38:41.639Z</time>
      </trkpt>
      <trkpt lat="48.36804" lon="2.53516">
        <ele>101</ele>
        <time>2022-08-10T09:38:46.642Z</time>
      </trkpt>
      <trkpt lat="48.36807" lon="2.53516">
        <ele>101</ele>
        <time>2022-08-10T09:38:50.675Z</time>
      </trkpt>
      <trkpt lat="48.36809" lon="2.53516">
        <ele>101</ele>
        <time>2022-08-10T09:38:55.658Z</time>
      </trkpt>
      <trkpt lat="48.36816" lon="2.53516">
        <ele>101</ele>
        <time>2022-08-10T09:39:00.643Z</time>
      </trkpt>
      <trkpt lat="48.3682" lon="2.53514">
        <ele>98</ele>
        <time>2022-08-10T09:39:04.666Z</time>
      </trkpt>
      <trkpt lat="48.36823" lon="2.53515">
        <ele>98</ele>
        <time>2022-08-10T09:39:08.671Z</time>
      </trkpt>
      <trkpt lat="48.36826" lon="2.5351">
        <ele>95</ele>
        <time>2022-08-10T09:39:13.682Z</time>
      </trkpt>
      <trkpt lat="48.36833" lon="2.53505">
        <ele>95</ele>
        <time>2022-08-10T09:39:18.658Z</time>
      </trkpt>
      <trkpt lat="48.36836" lon="2.53507">
        <ele>95</ele>
        <time>2022-08-10T09:39:22.670Z</time>
      </trkpt>
      <trkpt lat="48.36841" lon="2.53504">
        <ele>95</ele>
        <time>2022-08-10T09:39:27.694Z</time>
      </trkpt>
      <trkpt lat="48.36846" lon="2.53503">
        <ele>95</ele>
        <time>2022-08-10T09:39:32.676Z</time>
      </trkpt>
      <trkpt lat="48.3685" lon="2.53505">
        <ele>90</ele>
        <time>2022-08-10T09:39:36.679Z</time>
      </trkpt>
      <trkpt lat="48.36853" lon="2.53503">
        <ele>90</ele>
        <time>2022-08-10T09:39:41.679Z</time>
      </trkpt>
      <trkpt lat="48.36853" lon="2.53497">
        <ele>90</ele>
        <time>2022-08-10T09:39:46.673Z</time>
      </trkpt>
      <trkpt lat="48.36853" lon="2.53493">
        <ele>90</ele>
        <time>2022-08-10T09:39:50.688Z</time>
      </trkpt>
      <trkpt lat="48.36858" lon="2.53495">
        <ele>90</ele>
        <time>2022-08-10T09:39:55.684Z</time>
      </trkpt>
      <trkpt lat="48.36861" lon="2.53493">
        <ele>90</ele>
        <time>2022-08-10T09:40:00.683Z</time>
      </trkpt>
      <trkpt lat="48.3686" lon="2.53494">
        <ele>90</ele>
        <time>2022-08-10T09:40:05.705Z</time>
      </trkpt>
      <trkpt lat="48.36861" lon="2.53495">
        <ele>90</ele>
        <time>2022-08-10T09:40:10.693Z</time>
      </trkpt>
      <trkpt lat="48.36862" lon="2.53489">
        <ele>90</ele>
        <time>2022-08-10T09:40:15.682Z</time>
      </trkpt>
      <trkpt lat="48.36867" lon="2.53485">
        <ele>88</ele>
        <time>2022-08-10T09:40:20.680Z</time>
      </trkpt>
      <trkpt lat="48.3687" lon="2.53491">
        <ele>90</ele>
        <time>2022-08-10T09:40:25.693Z</time>
      </trkpt>
      <trkpt lat="48.36873" lon="2.53494">
        <ele>90</ele>
        <time>2022-08-10T09:46:17.681Z</time>
      </trkpt>
      <trkpt lat="48.3688" lon="2.53489">
        <ele>85</ele>
        <time>2022-08-10T09:46:21.685Z</time>
      </trkpt>
      <trkpt lat="48.36883" lon="2.53488">
        <ele>85</ele>
        <time>2022-08-10T09:46:25.686Z</time>
      </trkpt>
      <trkpt lat="48.36895" lon="2.53487">
        <ele>85</ele>
        <time>2022-08-10T09:46:30.696Z</time>
      </trkpt>
      <trkpt lat="48.36896" lon="2.53489">
        <ele>85</ele>
        <time>2022-08-10T09:46:35.644Z</time>
      </trkpt>
      <trkpt lat="48.36897" lon="2.5349">
        <ele>85</ele>
        <time>2022-08-10T09:46:39.690Z</time>
      </trkpt>
      <trkpt lat="48.36898" lon="2.53491">
        <ele>85</ele>
        <time>2022-08-10T09:46:44.651Z</time>
      </trkpt>
      <trkpt lat="48.36902" lon="2.53491">
        <ele>85</ele>
        <time>2022-08-10T09:46:48.686Z</time>
      </trkpt>
      <trkpt lat="48.36905" lon="2.53493">
        <ele>83</ele>
        <time>2022-08-10T09:46:53.690Z</time>
      </trkpt>
      <trkpt lat="48.36906" lon="2.53495">
        <ele>83</ele>
        <time>2022-08-10T09:46:58.685Z</time>
      </trkpt>
      <trkpt lat="48.36907" lon="2.53498">
        <ele>83</ele>
        <time>2022-08-10T09:47:28.648Z</time>
      </trkpt>
      <trkpt lat="48.36912" lon="2.53501">
        <ele>83</ele>
        <time>2022-08-10T09:47:33.638Z</time>
      </trkpt>
      <trkpt lat="48.3692" lon="2.53504">
        <ele>83</ele>
        <time>2022-08-10T09:47:37.644Z</time>
      </trkpt>
      <trkpt lat="48.36931" lon="2.53504">
        <ele>79</ele>
        <time>2022-08-10T09:47:41.641Z</time>
      </trkpt>
      <trkpt lat="48.36934" lon="2.53508">
        <ele>79</ele>
        <time>2022-08-10T09:47:46.635Z</time>
      </trkpt>
      <trkpt lat="48.36936" lon="2.5351">
        <ele>79</ele>
        <time>2022-08-10T09:47:51.645Z</time>
      </trkpt>
      <trkpt lat="48.36937" lon="2.53511">
        <ele>79</ele>
        <time>2022-08-10T09:47:55.649Z</time>
      </trkpt>
      <trkpt lat="48.36937" lon="2.53514">
        <ele>84</ele>
        <time>2022-08-10T09:48:00.634Z</time>
      </trkpt>
      <trkpt lat="48.36937" lon="2.53517">
        <ele>84</ele>
        <time>2022-08-10T09:48:05.644Z</time>
      </trkpt>
      <trkpt lat="48.36935" lon="2.5352">
        <ele>84</ele>
        <time>2022-08-10T09:48:40.655Z</time>
      </trkpt>
      <trkpt lat="48.36933" lon="2.53523">
        <ele>84</ele>
        <time>2022-08-10T09:48:45.643Z</time>
      </trkpt>
      <trkpt lat="48.36929" lon="2.53526">
        <ele>87</ele>
        <time>2022-08-10T09:48:49.645Z</time>
      </trkpt>
      <trkpt lat="48.3693" lon="2.53533">
        <ele>87</ele>
        <time>2022-08-10T09:48:54.640Z</time>
      </trkpt>
      <trkpt lat="48.36932" lon="2.53533">
        <ele>84</ele>
        <time>2022-08-10T09:48:59.643Z</time>
      </trkpt>
      <trkpt lat="48.36934" lon="2.53535">
        <ele>84</ele>
        <time>2022-08-10T09:49:21.662Z</time>
      </trkpt>
      <trkpt lat="48.36935" lon="2.53538">
        <ele>84</ele>
        <time>2022-08-10T09:49:26.647Z</time>
      </trkpt>
      <trkpt lat="48.36936" lon="2.53543">
        <ele>90</ele>
        <time>2022-08-10T09:49:31.655Z</time>
      </trkpt>
      <trkpt lat="48.36934" lon="2.53549">
        <ele>90</ele>
        <time>2022-08-10T09:49:35.652Z</time>
      </trkpt>
      <trkpt lat="48.36937" lon="2.53551">
        <ele>90</ele>
        <time>2022-08-10T09:49:39.656Z</time>
      </trkpt>
      <trkpt lat="48.36937" lon="2.53554">
        <ele>90</ele>
        <time>2022-08-10T09:49:59.650Z</time>
      </trkpt>
      <trkpt lat="48.36936" lon="2.53558">
        <ele>90</ele>
        <time>2022-08-10T09:50:04.651Z</time>
      </trkpt>
      <trkpt lat="48.36934" lon="2.53559">
        <ele>90</ele>
        <time>2022-08-10T09:50:09.648Z</time>
      </trkpt>
      <trkpt lat="48.36935" lon="2.53569">
        <ele>90</ele>
        <time>2022-08-10T09:50:14.650Z</time>
      </trkpt>
      <trkpt lat="48.36936" lon="2.5357">
        <ele>95</ele>
        <time>2022-08-10T09:50:19.649Z</time>
      </trkpt>
      <trkpt lat="48.36936" lon="2.53572">
        <ele>95</ele>
        <time>2022-08-10T09:50:29.651Z</time>
      </trkpt>
      <trkpt lat="48.36934" lon="2.53576">
        <ele>95</ele>
        <time>2022-08-10T09:50:34.644Z</time>
      </trkpt>
      <trkpt lat="48.36938" lon="2.53582">
        <ele>95</ele>
        <time>2022-08-10T09:50:38.643Z</time>
      </trkpt>
      <trkpt lat="48.36941" lon="2.53587">
        <ele>95</ele>
        <time>2022-08-10T09:50:43.652Z</time>
      </trkpt>
      <trkpt lat="48.36939" lon="2.5359">
        <ele>95</ele>
        <time>2022-08-10T09:50:48.661Z</time>
      </trkpt>
      <trkpt lat="48.36941" lon="2.53593">
        <ele>95</ele>
        <time>2022-08-10T09:51:41.700Z</time>
      </trkpt>
      <trkpt lat="48.36942" lon="2.53599">
        <ele>99</ele>
        <time>2022-08-10T09:51:46.679Z</time>
      </trkpt>
      <trkpt lat="48.36945" lon="2.53603">
        <ele>99</ele>
        <time>2022-08-10T09:51:50.677Z</time>
      </trkpt>
      <trkpt lat="48.3695" lon="2.53608">
        <ele>99</ele>
        <time>2022-08-10T09:51:55.649Z</time>
      </trkpt>
      <trkpt lat="48.36953" lon="2.53606">
        <ele>99</ele>
        <time>2022-08-10T09:51:59.670Z</time>
      </trkpt>
      <trkpt lat="48.36955" lon="2.53608">
        <ele>99</ele>
        <time>2022-08-10T09:52:04.667Z</time>
      </trkpt>
      <trkpt lat="48.36958" lon="2.53609">
        <ele>99</ele>
        <time>2022-08-10T09:52:08.700Z</time>
      </trkpt>
      <trkpt lat="48.3696" lon="2.53607">
        <ele>95</ele>
        <time>2022-08-10T09:52:13.679Z</time>
      </trkpt>
      <trkpt lat="48.36962" lon="2.53608">
        <ele>95</ele>
        <time>2022-08-10T09:52:18.663Z</time>
      </trkpt>
      <trkpt lat="48.36963" lon="2.53609">
        <ele>95</ele>
        <time>2022-08-10T09:52:23.670Z</time>
      </trkpt>
      <trkpt lat="48.36965" lon="2.5361">
        <ele>95</ele>
        <time>2022-08-10T09:52:28.695Z</time>
      </trkpt>
      <trkpt lat="48.3697" lon="2.53609">
        <ele>95</ele>
        <time>2022-08-10T09:52:33.685Z</time>
      </trkpt>
      <trkpt lat="48.36972" lon="2.53606">
        <ele>95</ele>
        <time>2022-08-10T09:52:38.715Z</time>
      </trkpt>
      <trkpt lat="48.36976" lon="2.53604">
        <ele>95</ele>
        <time>2022-08-10T09:52:43.653Z</time>
      </trkpt>
      <trkpt lat="48.36981" lon="2.53605">
        <ele>95</ele>
        <time>2022-08-10T09:52:57.679Z</time>
      </trkpt>
      <trkpt lat="48.36987" lon="2.53608">
        <ele>92</ele>
        <time>2022-08-10T09:53:01.683Z</time>
      </trkpt>
      <trkpt lat="48.36991" lon="2.53612">
        <ele>92</ele>
        <time>2022-08-10T09:53:06.672Z</time>
      </trkpt>
      <trkpt lat="48.36992" lon="2.53624">
        <ele>92</ele>
        <time>2022-08-10T09:53:10.709Z</time>
      </trkpt>
      <trkpt lat="48.36993" lon="2.53625">
        <ele>97</ele>
        <time>2022-08-10T09:53:15.645Z</time>
      </trkpt>
      <trkpt lat="48.36991" lon="2.53627">
        <ele>97</ele>
        <time>2022-08-10T09:53:28.660Z</time>
      </trkpt>
      <trkpt lat="48.36991" lon="2.53628">
        <ele>97</ele>
        <time>2022-08-10T09:53:33.636Z</time>
      </trkpt>
      <trkpt lat="48.36992" lon="2.5363">
        <ele>97</ele>
        <time>2022-08-10T09:53:37.647Z</time>
      </trkpt>
      <trkpt lat="48.36991" lon="2.53639">
        <ele>97</ele>
        <time>2022-08-10T09:53:42.657Z</time>
      </trkpt>
      <trkpt lat="48.36992" lon="2.53641">
        <ele>97</ele>
        <time>2022-08-10T09:53:47.653Z</time>
      </trkpt>
      <trkpt lat="48.3699" lon="2.53643">
        <ele>97</ele>
        <time>2022-08-10T09:53:57.645Z</time>
      </trkpt>
      <trkpt lat="48.3699" lon="2.53645">
        <ele>97</ele>
        <time>2022-08-10T09:54:01.648Z</time>
      </trkpt>
      <trkpt lat="48.36991" lon="2.53648">
        <ele>97</ele>
        <time>2022-08-10T09:54:06.636Z</time>
      </trkpt>
      <trkpt lat="48.36988" lon="2.53649">
        <ele>97</ele>
        <time>2022-08-10T09:54:10.642Z</time>
      </trkpt>
      <trkpt lat="48.36989" lon="2.53649">
        <ele>97</ele>
        <time>2022-08-10T09:54:15.649Z</time>
      </trkpt>
      <trkpt lat="48.36991" lon="2.53646">
        <ele>97</ele>
        <time>2022-08-10T09:54:48.655Z</time>
      </trkpt>
      <trkpt lat="48.36993" lon="2.53643">
        <ele>97</ele>
        <time>2022-08-10T09:54:53.647Z</time>
      </trkpt>
      <trkpt lat="48.36997" lon="2.53643">
        <ele>97</ele>
        <time>2022-08-10T09:54:57.646Z</time>
      </trkpt>
      <trkpt lat="48.37003" lon="2.53646">
        <ele>97</ele>
        <time>2022-08-10T09:55:01.657Z</time>
      </trkpt>
      <trkpt lat="48.37004" lon="2.53646">
        <ele>97</ele>
        <time>2022-08-10T09:55:05.663Z</time>
      </trkpt>
      <trkpt lat="48.37006" lon="2.53646">
        <ele>97</ele>
        <time>2022-08-10T09:55:09.699Z</time>
      </trkpt>
      <trkpt lat="48.37007" lon="2.53649">
        <ele>97</ele>
        <time>2022-08-10T09:55:14.654Z</time>
      </trkpt>
      <trkpt lat="48.37009" lon="2.53653">
        <ele>97</ele>
        <time>2022-08-10T09:55:18.682Z</time>
      </trkpt>
      <trkpt lat="48.37012" lon="2.53654">
        <ele>101</ele>
        <time>2022-08-10T09:55:23.674Z</time>
      </trkpt>
      <trkpt lat="48.37015" lon="2.53659">
        <ele>100</ele>
        <time>2022-08-10T09:55:28.687Z</time>
      </trkpt>
      <trkpt lat="48.37017" lon="2.53667">
        <ele>100</ele>
        <time>2022-08-10T09:55:33.659Z</time>
      </trkpt>
      <trkpt lat="48.37017" lon="2.53672">
        <ele>100</ele>
        <time>2022-08-10T09:55:37.675Z</time>
      </trkpt>
      <trkpt lat="48.37016" lon="2.53678">
        <ele>100</ele>
        <time>2022-08-10T09:55:41.695Z</time>
      </trkpt>
      <trkpt lat="48.37016" lon="2.53684">
        <ele>104</ele>
        <time>2022-08-10T09:55:46.652Z</time>
      </trkpt>
      <trkpt lat="48.37017" lon="2.53688">
        <ele>104</ele>
        <time>2022-08-10T09:55:50.675Z</time>
      </trkpt>
      <trkpt lat="48.37017" lon="2.53689">
        <ele>104</ele>
        <time>2022-08-10T09:55:55.662Z</time>
      </trkpt>
      <trkpt lat="48.37017" lon="2.53693">
        <ele>104</ele>
        <time>2022-08-10T09:56:00.683Z</time>
      </trkpt>
      <trkpt lat="48.37014" lon="2.53695">
        <ele>104</ele>
        <time>2022-08-10T09:56:05.682Z</time>
      </trkpt>
      <trkpt lat="48.37015" lon="2.53701">
        <ele>104</ele>
        <time>2022-08-10T09:56:10.668Z</time>
      </trkpt>
      <trkpt lat="48.37013" lon="2.5371">
        <ele>107</ele>
        <time>2022-08-10T09:56:15.662Z</time>
      </trkpt>
      <trkpt lat="48.3701" lon="2.53719">
        <ele>107</ele>
        <time>2022-08-10T09:56:19.666Z</time>
      </trkpt>
      <trkpt lat="48.37012" lon="2.53728">
        <ele>107</ele>
        <time>2022-08-10T09:56:23.684Z</time>
      </trkpt>
      <trkpt lat="48.37012" lon="2.53736">
        <ele>107</ele>
        <time>2022-08-10T09:56:28.651Z</time>
      </trkpt>
      <trkpt lat="48.37013" lon="2.53744">
        <ele>108</ele>
        <time>2022-08-10T09:56:32.657Z</time>
      </trkpt>
      <trkpt lat="48.37014" lon="2.5375">
        <ele>109</ele>
        <time>2022-08-10T09:56:36.678Z</time>
      </trkpt>
      <trkpt lat="48.37018" lon="2.5376">
        <ele>109</ele>
        <time>2022-08-10T09:56:41.661Z</time>
      </trkpt>
      <trkpt lat="48.37021" lon="2.53765">
        <ele>109</ele>
        <time>2022-08-10T09:56:49.705Z</time>
      </trkpt>
      <trkpt lat="48.37025" lon="2.53772">
        <ele>109</ele>
        <time>2022-08-10T09:56:54.653Z</time>
      </trkpt>
      <trkpt lat="48.3703" lon="2.53777">
        <ele>109</ele>
        <time>2022-08-10T09:56:59.644Z</time>
      </trkpt>
      <trkpt lat="48.37035" lon="2.53783">
        <ele>109</ele>
        <time>2022-08-10T09:57:03.673Z</time>
      </trkpt>
      <trkpt lat="48.37035" lon="2.53784">
        <ele>109</ele>
        <time>2022-08-10T09:57:08.694Z</time>
      </trkpt>
      <trkpt lat="48.37035" lon="2.53786">
        <ele>109</ele>
        <time>2022-08-10T09:57:28.681Z</time>
      </trkpt>
      <trkpt lat="48.37035" lon="2.53793">
        <ele>106</ele>
        <time>2022-08-10T09:57:33.645Z</time>
      </trkpt>
      <trkpt lat="48.37033" lon="2.53799">
        <ele>106</ele>
        <time>2022-08-10T09:57:37.655Z</time>
      </trkpt>
      <trkpt lat="48.37039" lon="2.53809">
        <ele>106</ele>
        <time>2022-08-10T09:57:42.640Z</time>
      </trkpt>
      <trkpt lat="48.37041" lon="2.53815">
        <ele>106</ele>
        <time>2022-08-10T09:57:47.669Z</time>
      </trkpt>
      <trkpt lat="48.37042" lon="2.53818">
        <ele>106</ele>
        <time>2022-08-10T09:57:52.657Z</time>
      </trkpt>
      <trkpt lat="48.37044" lon="2.53824">
        <ele>104</ele>
        <time>2022-08-10T09:57:56.697Z</time>
      </trkpt>
      <trkpt lat="48.37047" lon="2.53832">
        <ele>104</ele>
        <time>2022-08-10T09:58:01.660Z</time>
      </trkpt>
      <trkpt lat="48.37051" lon="2.53838">
        <ele>104</ele>
        <time>2022-08-10T09:58:05.670Z</time>
      </trkpt>
      <trkpt lat="48.37054" lon="2.5384">
        <ele>104</ele>
        <time>2022-08-10T09:58:10.694Z</time>
      </trkpt>
      <trkpt lat="48.3706" lon="2.53838">
        <ele>104</ele>
        <time>2022-08-10T09:58:15.691Z</time>
      </trkpt>
      <trkpt lat="48.3706" lon="2.53838">
        <ele>104</ele>
        <time>2022-08-10T09:58:20.649Z</time>
      </trkpt>
      <trkpt lat="48.37066" lon="2.53843">
        <ele>104</ele>
        <time>2022-08-10T09:58:24.667Z</time>
      </trkpt>
      <trkpt lat="48.37071" lon="2.53851">
        <ele>103</ele>
        <time>2022-08-10T09:58:29.668Z</time>
      </trkpt>
      <trkpt lat="48.37074" lon="2.53854">
        <ele>103</ele>
        <time>2022-08-10T09:58:34.654Z</time>
      </trkpt>
      <trkpt lat="48.37077" lon="2.53855">
        <ele>103</ele>
        <time>2022-08-10T09:58:39.643Z</time>
      </trkpt>
      <trkpt lat="48.3708" lon="2.5386">
        <ele>103</ele>
        <time>2022-08-10T09:58:44.654Z</time>
      </trkpt>
      <trkpt lat="48.37082" lon="2.53861">
        <ele>103</ele>
        <time>2022-08-10T09:59:02.663Z</time>
      </trkpt>
      <trkpt lat="48.37088" lon="2.53861">
        <ele>103</ele>
        <time>2022-08-10T09:59:06.695Z</time>
      </trkpt>
      <trkpt lat="48.37092" lon="2.53865">
        <ele>103</ele>
        <time>2022-08-10T09:59:11.684Z</time>
      </trkpt>
      <trkpt lat="48.37098" lon="2.53869">
        <ele>98</ele>
        <time>2022-08-10T09:59:16.660Z</time>
      </trkpt>
      <trkpt lat="48.37099" lon="2.53872">
        <ele>98</ele>
        <time>2022-08-10T09:59:20.643Z</time>
      </trkpt>
      <trkpt lat="48.371" lon="2.53875">
        <ele>98</ele>
        <time>2022-08-10T09:59:59.651Z</time>
      </trkpt>
      <trkpt lat="48.37101" lon="2.53874">
        <ele>98</ele>
        <time>2022-08-10T10:00:04.661Z</time>
      </trkpt>
      <trkpt lat="48.37101" lon="2.53876">
        <ele>100</ele>
        <time>2022-08-10T10:00:09.700Z</time>
      </trkpt>
      <trkpt lat="48.37103" lon="2.53883">
        <ele>100</ele>
        <time>2022-08-10T10:00:14.662Z</time>
      </trkpt>
      <trkpt lat="48.37106" lon="2.53879">
        <ele>100</ele>
        <time>2022-08-10T10:00:18.678Z</time>
      </trkpt>
      <trkpt lat="48.37108" lon="2.53878">
        <ele>100</ele>
        <time>2022-08-10T10:00:32.677Z</time>
      </trkpt>
      <trkpt lat="48.37112" lon="2.53882">
        <ele>100</ele>
        <time>2022-08-10T10:00:37.666Z</time>
      </trkpt>
      <trkpt lat="48.37114" lon="2.53887">
        <ele>100</ele>
        <time>2022-08-10T10:00:41.666Z</time>
      </trkpt>
      <trkpt lat="48.37117" lon="2.53888">
        <ele>100</ele>
        <time>2022-08-10T10:00:46.679Z</time>
      </trkpt>
      <trkpt lat="48.37119" lon="2.53886">
        <ele>100</ele>
        <time>2022-08-10T10:00:50.655Z</time>
      </trkpt>
      <trkpt lat="48.3712" lon="2.53885">
        <ele>100</ele>
        <time>2022-08-10T10:01:13.651Z</time>
      </trkpt>
      <trkpt lat="48.37123" lon="2.53883">
        <ele>100</ele>
        <time>2022-08-10T10:01:18.644Z</time>
      </trkpt>
      <trkpt lat="48.37125" lon="2.53886">
        <ele>95</ele>
        <time>2022-08-10T10:01:23.654Z</time>
      </trkpt>
      <trkpt lat="48.37127" lon="2.53897">
        <ele>95</ele>
        <time>2022-08-10T10:01:28.659Z</time>
      </trkpt>
      <trkpt lat="48.37125" lon="2.539">
        <ele>100</ele>
        <time>2022-08-10T10:01:32.680Z</time>
      </trkpt>
      <trkpt lat="48.37126" lon="2.53902">
        <ele>95</ele>
        <time>2022-08-10T10:01:36.675Z</time>
      </trkpt>
      <trkpt lat="48.37124" lon="2.5391">
        <ele>99</ele>
        <time>2022-08-10T10:01:41.688Z</time>
      </trkpt>
      <trkpt lat="48.37124" lon="2.53916">
        <ele>99</ele>
        <time>2022-08-10T10:01:46.668Z</time>
      </trkpt>
      <trkpt lat="48.37127" lon="2.53922">
        <ele>97</ele>
        <time>2022-08-10T10:01:51.687Z</time>
      </trkpt>
      <trkpt lat="48.37132" lon="2.53927">
        <ele>97</ele>
        <time>2022-08-10T10:01:55.680Z</time>
      </trkpt>
      <trkpt lat="48.37141" lon="2.53928">
        <ele>97</ele>
        <time>2022-08-10T10:02:00.697Z</time>
      </trkpt>
      <trkpt lat="48.37145" lon="2.53932">
        <ele>97</ele>
        <time>2022-08-10T10:02:05.669Z</time>
      </trkpt>
      <trkpt lat="48.37149" lon="2.53936">
        <ele>97</ele>
        <time>2022-08-10T10:02:10.660Z</time>
      </trkpt>
      <trkpt lat="48.37154" lon="2.53936">
        <ele>93</ele>
        <time>2022-08-10T10:02:15.647Z</time>
      </trkpt>
      <trkpt lat="48.37159" lon="2.53935">
        <ele>93</ele>
        <time>2022-08-10T10:02:19.665Z</time>
      </trkpt>
      <trkpt lat="48.37165" lon="2.53936">
        <ele>93</ele>
        <time>2022-08-10T10:02:24.661Z</time>
      </trkpt>
      <trkpt lat="48.37173" lon="2.53941">
        <ele>93</ele>
        <time>2022-08-10T10:02:28.672Z</time>
      </trkpt>
      <trkpt lat="48.37178" lon="2.53946">
        <ele>93</ele>
        <time>2022-08-10T10:02:37.655Z</time>
      </trkpt>
      <trkpt lat="48.37182" lon="2.53949">
        <ele>89</ele>
        <time>2022-08-10T10:02:41.672Z</time>
      </trkpt>
      <trkpt lat="48.37187" lon="2.53951">
        <ele>89</ele>
        <time>2022-08-10T10:02:46.034Z</time>
      </trkpt>
      <trkpt lat="48.37197" lon="2.53955">
        <ele>89</ele>
        <time>2022-08-10T10:02:50.654Z</time>
      </trkpt>
      <trkpt lat="48.37198" lon="2.53954">
        <ele>89</ele>
        <time>2022-08-10T10:02:55.661Z</time>
      </trkpt>
      <trkpt lat="48.37199" lon="2.53951">
        <ele>89</ele>
        <time>2022-08-10T10:03:09.675Z</time>
      </trkpt>
      <trkpt lat="48.37201" lon="2.53951">
        <ele>89</ele>
        <time>2022-08-10T10:03:14.698Z</time>
      </trkpt>
      <trkpt lat="48.37202" lon="2.53953">
        <ele>89</ele>
        <time>2022-08-10T10:03:19.670Z</time>
      </trkpt>
      <trkpt lat="48.37206" lon="2.53954">
        <ele>89</ele>
        <time>2022-08-10T10:03:24.667Z</time>
      </trkpt>
      <trkpt lat="48.37207" lon="2.53959">
        <ele>88</ele>
        <time>2022-08-10T10:03:28.669Z</time>
      </trkpt>
      <trkpt lat="48.3721" lon="2.53966">
        <ele>87</ele>
        <time>2022-08-10T10:03:33.690Z</time>
      </trkpt>
      <trkpt lat="48.37212" lon="2.53969">
        <ele>87</ele>
        <time>2022-08-10T10:03:38.664Z</time>
      </trkpt>
      <trkpt lat="48.37213" lon="2.53969">
        <ele>87</ele>
        <time>2022-08-10T10:03:43.654Z</time>
      </trkpt>
      <trkpt lat="48.37216" lon="2.53968">
        <ele>87</ele>
        <time>2022-08-10T10:03:47.683Z</time>
      </trkpt>
      <trkpt lat="48.3722" lon="2.53969">
        <ele>87</ele>
        <time>2022-08-10T10:03:51.671Z</time>
      </trkpt>
      <trkpt lat="48.37218" lon="2.53978">
        <ele>87</ele>
        <time>2022-08-10T10:03:56.675Z</time>
      </trkpt>
      <trkpt lat="48.37218" lon="2.53983">
        <ele>87</ele>
        <time>2022-08-10T10:04:01.656Z</time>
      </trkpt>
      <trkpt lat="48.3722" lon="2.53991">
        <ele>87</ele>
        <time>2022-08-10T10:04:05.674Z</time>
      </trkpt>
      <trkpt lat="48.37216" lon="2.53998">
        <ele>87</ele>
        <time>2022-08-10T10:04:10.642Z</time>
      </trkpt>
      <trkpt lat="48.37215" lon="2.54008">
        <ele>87</ele>
        <time>2022-08-10T10:04:14.653Z</time>
      </trkpt>
      <trkpt lat="48.37218" lon="2.54012">
        <ele>87</ele>
        <time>2022-08-10T10:04:19.660Z</time>
      </trkpt>
      <trkpt lat="48.37221" lon="2.54014">
        <ele>88</ele>
        <time>2022-08-10T10:04:23.667Z</time>
      </trkpt>
      <trkpt lat="48.37222" lon="2.54021">
        <ele>88</ele>
        <time>2022-08-10T10:04:28.649Z</time>
      </trkpt>
      <trkpt lat="48.37224" lon="2.54029">
        <ele>88</ele>
        <time>2022-08-10T10:04:33.658Z</time>
      </trkpt>
      <trkpt lat="48.37226" lon="2.54033">
        <ele>88</ele>
        <time>2022-08-10T10:04:37.652Z</time>
      </trkpt>
      <trkpt lat="48.37229" lon="2.54039">
        <ele>88</ele>
        <time>2022-08-10T10:04:41.679Z</time>
      </trkpt>
      <trkpt lat="48.37231" lon="2.54044">
        <ele>88</ele>
        <time>2022-08-10T10:04:55.679Z</time>
      </trkpt>
      <trkpt lat="48.37233" lon="2.54049">
        <ele>88</ele>
        <time>2022-08-10T10:04:59.667Z</time>
      </trkpt>
      <trkpt lat="48.37234" lon="2.54056">
        <ele>88</ele>
        <time>2022-08-10T10:05:04.677Z</time>
      </trkpt>
      <trkpt lat="48.37235" lon="2.54066">
        <ele>88</ele>
        <time>2022-08-10T10:05:09.662Z</time>
      </trkpt>
      <trkpt lat="48.37235" lon="2.54066">
        <ele>88</ele>
        <time>2022-08-10T10:05:14.683Z</time>
      </trkpt>
      <trkpt lat="48.37236" lon="2.54069">
        <ele>88</ele>
        <time>2022-08-10T10:05:19.650Z</time>
      </trkpt>
      <trkpt lat="48.37237" lon="2.5407">
        <ele>92</ele>
        <time>2022-08-10T10:05:24.659Z</time>
      </trkpt>
      <trkpt lat="48.37239" lon="2.54073">
        <ele>92</ele>
        <time>2022-08-10T10:05:29.653Z</time>
      </trkpt>
      <trkpt lat="48.37244" lon="2.54074">
        <ele>92</ele>
        <time>2022-08-10T10:05:33.643Z</time>
      </trkpt>
      <trkpt lat="48.37246" lon="2.54073">
        <ele>92</ele>
        <time>2022-08-10T10:05:37.655Z</time>
      </trkpt>
      <trkpt lat="48.3725" lon="2.5407">
        <ele>92</ele>
        <time>2022-08-10T10:05:42.665Z</time>
      </trkpt>
      <trkpt lat="48.37254" lon="2.54072">
        <ele>92</ele>
        <time>2022-08-10T10:05:47.674Z</time>
      </trkpt>
      <trkpt lat="48.37257" lon="2.54075">
        <ele>92</ele>
        <time>2022-08-10T10:05:52.662Z</time>
      </trkpt>
      <trkpt lat="48.37259" lon="2.54074">
        <ele>92</ele>
        <time>2022-08-10T10:05:57.698Z</time>
      </trkpt>
      <trkpt lat="48.37261" lon="2.54072">
        <ele>92</ele>
        <time>2022-08-10T10:06:02.683Z</time>
      </trkpt>
      <trkpt lat="48.37264" lon="2.54071">
        <ele>92</ele>
        <time>2022-08-10T10:06:07.692Z</time>
      </trkpt>
      <trkpt lat="48.37267" lon="2.54068">
        <ele>90</ele>
        <time>2022-08-10T10:06:12.695Z</time>
      </trkpt>
      <trkpt lat="48.37271" lon="2.54065">
        <ele>90</ele>
        <time>2022-08-10T10:06:17.686Z</time>
      </trkpt>
      <trkpt lat="48.37278" lon="2.54064">
        <ele>90</ele>
        <time>2022-08-10T10:06:22.659Z</time>
      </trkpt>
      <trkpt lat="48.37284" lon="2.54065">
        <ele>90</ele>
        <time>2022-08-10T10:06:27.666Z</time>
      </trkpt>
      <trkpt lat="48.37288" lon="2.54064">
        <ele>90</ele>
        <time>2022-08-10T10:06:32.655Z</time>
      </trkpt>
      <trkpt lat="48.37294" lon="2.54067">
        <ele>89</ele>
        <time>2022-08-10T10:06:37.671Z</time>
      </trkpt>
      <trkpt lat="48.37299" lon="2.54069">
        <ele>89</ele>
        <time>2022-08-10T10:06:42.649Z</time>
      </trkpt>
      <trkpt lat="48.37305" lon="2.54073">
        <ele>91</ele>
        <time>2022-08-10T10:06:46.679Z</time>
      </trkpt>
      <trkpt lat="48.37311" lon="2.54076">
        <ele>91</ele>
        <time>2022-08-10T10:06:51.667Z</time>
      </trkpt>
      <trkpt lat="48.37317" lon="2.54076">
        <ele>91</ele>
        <time>2022-08-10T10:06:56.679Z</time>
      </trkpt>
      <trkpt lat="48.3732" lon="2.54075">
        <ele>90</ele>
        <time>2022-08-10T10:07:01.678Z</time>
      </trkpt>
      <trkpt lat="48.37325" lon="2.54076">
        <ele>90</ele>
        <time>2022-08-10T10:07:06.678Z</time>
      </trkpt>
      <trkpt lat="48.37332" lon="2.54081">
        <ele>90</ele>
        <time>2022-08-10T10:07:11.652Z</time>
      </trkpt>
      <trkpt lat="48.37341" lon="2.54087">
        <ele>90</ele>
        <time>2022-08-10T10:07:16.659Z</time>
      </trkpt>
      <trkpt lat="48.3735" lon="2.54089">
        <ele>87</ele>
        <time>2022-08-10T10:07:21.661Z</time>
      </trkpt>
      <trkpt lat="48.37356" lon="2.54091">
        <ele>87</ele>
        <time>2022-08-10T10:07:26.650Z</time>
      </trkpt>
      <trkpt lat="48.37362" lon="2.54088">
        <ele>87</ele>
        <time>2022-08-10T10:07:30.667Z</time>
      </trkpt>
      <trkpt lat="48.37366" lon="2.54085">
        <ele>87</ele>
        <time>2022-08-10T10:07:34.654Z</time>
      </trkpt>
      <trkpt lat="48.37372" lon="2.54088">
        <ele>87</ele>
        <time>2022-08-10T10:07:58.650Z</time>
      </trkpt>
      <trkpt lat="48.37375" lon="2.5409">
        <ele>83</ele>
        <time>2022-08-10T10:08:03.660Z</time>
      </trkpt>
      <trkpt lat="48.37379" lon="2.54091">
        <ele>83</ele>
        <time>2022-08-10T10:08:08.683Z</time>
      </trkpt>
      <trkpt lat="48.37395" lon="2.54094">
        <ele>83</ele>
        <time>2022-08-10T10:08:13.644Z</time>
      </trkpt>
      <trkpt lat="48.37401" lon="2.54093">
        <ele>83</ele>
        <time>2022-08-10T10:08:17.658Z</time>
      </trkpt>
      <trkpt lat="48.37408" lon="2.54088">
        <ele>81</ele>
        <time>2022-08-10T10:08:22.703Z</time>
      </trkpt>
      <trkpt lat="48.37413" lon="2.54086">
        <ele>81</ele>
        <time>2022-08-10T10:08:27.668Z</time>
      </trkpt>
      <trkpt lat="48.37418" lon="2.54082">
        <ele>81</ele>
        <time>2022-08-10T10:08:32.666Z</time>
      </trkpt>
      <trkpt lat="48.37421" lon="2.54076">
        <ele>81</ele>
        <time>2022-08-10T10:08:36.661Z</time>
      </trkpt>
      <trkpt lat="48.37423" lon="2.54067">
        <ele>81</ele>
        <time>2022-08-10T10:08:41.662Z</time>
      </trkpt>
      <trkpt lat="48.37424" lon="2.54058">
        <ele>81</ele>
        <time>2022-08-10T10:08:45.662Z</time>
      </trkpt>
      <trkpt lat="48.37427" lon="2.54051">
        <ele>81</ele>
        <time>2022-08-10T10:08:50.679Z</time>
      </trkpt>
      <trkpt lat="48.3743" lon="2.54042">
        <ele>81</ele>
        <time>2022-08-10T10:08:54.693Z</time>
      </trkpt>
      <trkpt lat="48.37434" lon="2.54037">
        <ele>81</ele>
        <time>2022-08-10T10:08:59.666Z</time>
      </trkpt>
      <trkpt lat="48.37438" lon="2.54031">
        <ele>81</ele>
        <time>2022-08-10T10:09:04.651Z</time>
      </trkpt>
      <trkpt lat="48.37441" lon="2.54027">
        <ele>81</ele>
        <time>2022-08-10T10:09:09.666Z</time>
      </trkpt>
      <trkpt lat="48.37445" lon="2.5402">
        <ele>81</ele>
        <time>2022-08-10T10:09:14.653Z</time>
      </trkpt>
      <trkpt lat="48.37448" lon="2.54013">
        <ele>81</ele>
        <time>2022-08-10T10:09:19.665Z</time>
      </trkpt>
      <trkpt lat="48.37449" lon="2.54007">
        <ele>81</ele>
        <time>2022-08-10T10:09:24.672Z</time>
      </trkpt>
      <trkpt lat="48.37451" lon="2.54005">
        <ele>81</ele>
        <time>2022-08-10T10:09:29.645Z</time>
      </trkpt>
      <trkpt lat="48.37454" lon="2.54002">
        <ele>81</ele>
        <time>2022-08-10T10:09:34.700Z</time>
      </trkpt>
      <trkpt lat="48.37459" lon="2.53999">
        <ele>83</ele>
        <time>2022-08-10T10:09:39.675Z</time>
      </trkpt>
      <trkpt lat="48.37462" lon="2.53995">
        <ele>83</ele>
        <time>2022-08-10T10:09:43.666Z</time>
      </trkpt>
      <trkpt lat="48.37466" lon="2.53992">
        <ele>83</ele>
        <time>2022-08-10T10:09:48.646Z</time>
      </trkpt>
      <trkpt lat="48.3747" lon="2.53994">
        <ele>83</ele>
        <time>2022-08-10T10:09:52.663Z</time>
      </trkpt>
      <trkpt lat="48.37476" lon="2.53996">
        <ele>83</ele>
        <time>2022-08-10T10:09:57.651Z</time>
      </trkpt>
      <trkpt lat="48.37482" lon="2.53998">
        <ele>83</ele>
        <time>2022-08-10T10:10:01.648Z</time>
      </trkpt>
      <trkpt lat="48.37487" lon="2.53998">
        <ele>87</ele>
        <time>2022-08-10T10:10:06.665Z</time>
      </trkpt>
      <trkpt lat="48.37492" lon="2.54">
        <ele>87</ele>
        <time>2022-08-10T10:10:11.678Z</time>
      </trkpt>
      <trkpt lat="48.37495" lon="2.54001">
        <ele>87</ele>
        <time>2022-08-10T10:10:16.653Z</time>
      </trkpt>
      <trkpt lat="48.37502" lon="2.54002">
        <ele>87</ele>
        <time>2022-08-10T10:10:20.651Z</time>
      </trkpt>
      <trkpt lat="48.37507" lon="2.53999">
        <ele>87</ele>
        <time>2022-08-10T10:10:24.674Z</time>
      </trkpt>
      <trkpt lat="48.37512" lon="2.54001">
        <ele>87</ele>
        <time>2022-08-10T10:10:28.684Z</time>
      </trkpt>
      <trkpt lat="48.37516" lon="2.54004">
        <ele>91</ele>
        <time>2022-08-10T10:10:33.664Z</time>
      </trkpt>
      <trkpt lat="48.3752" lon="2.54003">
        <ele>91</ele>
        <time>2022-08-10T10:10:38.683Z</time>
      </trkpt>
      <trkpt lat="48.37522" lon="2.54001">
        <ele>91</ele>
        <time>2022-08-10T10:10:43.636Z</time>
      </trkpt>
      <trkpt lat="48.37523" lon="2.53999">
        <ele>91</ele>
        <time>2022-08-10T10:10:48.656Z</time>
      </trkpt>
      <trkpt lat="48.37528" lon="2.53995">
        <ele>91</ele>
        <time>2022-08-10T10:10:52.668Z</time>
      </trkpt>
      <trkpt lat="48.37534" lon="2.53996">
        <ele>91</ele>
        <time>2022-08-10T10:10:56.650Z</time>
      </trkpt>
      <trkpt lat="48.37542" lon="2.54002">
        <ele>92</ele>
        <time>2022-08-10T10:11:01.650Z</time>
      </trkpt>
      <trkpt lat="48.37547" lon="2.54007">
        <ele>92</ele>
        <time>2022-08-10T10:11:05.669Z</time>
      </trkpt>
      <trkpt lat="48.3755" lon="2.54011">
        <ele>92</ele>
        <time>2022-08-10T10:11:10.680Z</time>
      </trkpt>
      <trkpt lat="48.37552" lon="2.54019">
        <ele>94</ele>
        <time>2022-08-10T10:11:15.659Z</time>
      </trkpt>
      <trkpt lat="48.37554" lon="2.54025">
        <ele>94</ele>
        <time>2022-08-10T10:11:20.687Z</time>
      </trkpt>
      <trkpt lat="48.37558" lon="2.54033">
        <ele>94</ele>
        <time>2022-08-10T10:11:25.652Z</time>
      </trkpt>
      <trkpt lat="48.37559" lon="2.54039">
        <ele>94</ele>
        <time>2022-08-10T10:11:29.674Z</time>
      </trkpt>
      <trkpt lat="48.3756" lon="2.54045">
        <ele>95</ele>
        <time>2022-08-10T10:11:34.652Z</time>
      </trkpt>
      <trkpt lat="48.37562" lon="2.54047">
        <ele>95</ele>
        <time>2022-08-10T10:11:38.666Z</time>
      </trkpt>
      <trkpt lat="48.37563" lon="2.54051">
        <ele>95</ele>
        <time>2022-08-10T10:11:42.660Z</time>
      </trkpt>
      <trkpt lat="48.37563" lon="2.54057">
        <ele>95</ele>
        <time>2022-08-10T10:11:47.671Z</time>
      </trkpt>
      <trkpt lat="48.37564" lon="2.54064">
        <ele>95</ele>
        <time>2022-08-10T10:11:52.685Z</time>
      </trkpt>
      <trkpt lat="48.37567" lon="2.54071">
        <ele>96</ele>
        <time>2022-08-10T10:11:57.676Z</time>
      </trkpt>
      <trkpt lat="48.3757" lon="2.54078">
        <ele>97</ele>
        <time>2022-08-10T10:12:02.648Z</time>
      </trkpt>
      <trkpt lat="48.37573" lon="2.54086">
        <ele>97</ele>
        <time>2022-08-10T10:12:21.668Z</time>
      </trkpt>
      <trkpt lat="48.37577" lon="2.54093">
        <ele>97</ele>
        <time>2022-08-10T10:12:25.666Z</time>
      </trkpt>
      <trkpt lat="48.3758" lon="2.54101">
        <ele>99</ele>
        <time>2022-08-10T10:12:30.655Z</time>
      </trkpt>
      <trkpt lat="48.37582" lon="2.54108">
        <ele>99</ele>
        <time>2022-08-10T10:12:35.645Z</time>
      </trkpt>
      <trkpt lat="48.37582" lon="2.54114">
        <ele>99</ele>
        <time>2022-08-10T10:12:39.655Z</time>
      </trkpt>
      <trkpt lat="48.37583" lon="2.54118">
        <ele>99</ele>
        <time>2022-08-10T10:12:43.662Z</time>
      </trkpt>
      <trkpt lat="48.37585" lon="2.54124">
        <ele>99</ele>
        <time>2022-08-10T10:12:48.657Z</time>
      </trkpt>
      <trkpt lat="48.37586" lon="2.5413">
        <ele>101</ele>
        <time>2022-08-10T10:12:53.669Z</time>
      </trkpt>
      <trkpt lat="48.37585" lon="2.54131">
        <ele>101</ele>
        <time>2022-08-10T10:12:57.680Z</time>
      </trkpt>
      <trkpt lat="48.37583" lon="2.54135">
        <ele>101</ele>
        <time>2022-08-10T10:13:02.669Z</time>
      </trkpt>
      <trkpt lat="48.37583" lon="2.54139">
        <ele>101</ele>
        <time>2022-08-10T10:13:07.670Z</time>
      </trkpt>
      <trkpt lat="48.37584" lon="2.54144">
        <ele>101</ele>
        <time>2022-08-10T10:13:12.717Z</time>
      </trkpt>
      <trkpt lat="48.37584" lon="2.54149">
        <ele>101</ele>
        <time>2022-08-10T10:13:17.662Z</time>
      </trkpt>
      <trkpt lat="48.37583" lon="2.54155">
        <ele>103</ele>
        <time>2022-08-10T10:13:22.650Z</time>
      </trkpt>
      <trkpt lat="48.37583" lon="2.54161">
        <ele>103</ele>
        <time>2022-08-10T10:13:27.660Z</time>
      </trkpt>
      <trkpt lat="48.37583" lon="2.54164">
        <ele>103</ele>
        <time>2022-08-10T10:13:41.633Z</time>
      </trkpt>
      <trkpt lat="48.37583" lon="2.54168">
        <ele>103</ele>
        <time>2022-08-10T10:13:45.641Z</time>
      </trkpt>
      <trkpt lat="48.37582" lon="2.54174">
        <ele>103</ele>
        <time>2022-08-10T10:13:50.633Z</time>
      </trkpt>
      <trkpt lat="48.37584" lon="2.5418">
        <ele>103</ele>
        <time>2022-08-10T10:13:54.643Z</time>
      </trkpt>
      <trkpt lat="48.37581" lon="2.54184">
        <ele>105</ele>
        <time>2022-08-10T10:13:58.650Z</time>
      </trkpt>
      <trkpt lat="48.3758" lon="2.54189">
        <ele>105</ele>
        <time>2022-08-10T10:14:25.650Z</time>
      </trkpt>
      <trkpt lat="48.37576" lon="2.54191">
        <ele>105</ele>
        <time>2022-08-10T10:14:30.643Z</time>
      </trkpt>
      <trkpt lat="48.37574" lon="2.54192">
        <ele>105</ele>
        <time>2022-08-10T10:14:35.643Z</time>
      </trkpt>
      <trkpt lat="48.37571" lon="2.54202">
        <ele>105</ele>
        <time>2022-08-10T10:14:40.646Z</time>
      </trkpt>
      <trkpt lat="48.3757" lon="2.54201">
        <ele>105</ele>
        <time>2022-08-10T10:14:45.647Z</time>
      </trkpt>
      <trkpt lat="48.37572" lon="2.54204">
        <ele>105</ele>
        <time>2022-08-10T10:18:50.631Z</time>
      </trkpt>
      <trkpt lat="48.37572" lon="2.54206">
        <ele>105</ele>
        <time>2022-08-10T10:18:54.640Z</time>
      </trkpt>
      <trkpt lat="48.37572" lon="2.54209">
        <ele>107</ele>
        <time>2022-08-10T10:18:58.640Z</time>
      </trkpt>
      <trkpt lat="48.37569" lon="2.54219">
        <ele>103</ele>
        <time>2022-08-10T10:19:03.645Z</time>
      </trkpt>
      <trkpt lat="48.37569" lon="2.5422">
        <ele>103</ele>
        <time>2022-08-10T10:19:08.643Z</time>
      </trkpt>
      <trkpt lat="48.37568" lon="2.54222">
        <ele>103</ele>
        <time>2022-08-10T10:19:30.651Z</time>
      </trkpt>
      <trkpt lat="48.37568" lon="2.54222">
        <ele>103</ele>
        <time>2022-08-10T10:19:35.671Z</time>
      </trkpt>
      <trkpt lat="48.37569" lon="2.54223">
        <ele>103</ele>
        <time>2022-08-10T10:19:40.652Z</time>
      </trkpt>
      <trkpt lat="48.37572" lon="2.54237">
        <ele>110</ele>
        <time>2022-08-10T10:19:45.698Z</time>
      </trkpt>
      <trkpt lat="48.37571" lon="2.54238">
        <ele>110</ele>
        <time>2022-08-10T10:19:50.667Z</time>
      </trkpt>
      <trkpt lat="48.37569" lon="2.54246">
        <ele>105</ele>
        <time>2022-08-10T10:19:55.705Z</time>
      </trkpt>
      <trkpt lat="48.3757" lon="2.5425">
        <ele>110</ele>
        <time>2022-08-10T10:20:00.680Z</time>
      </trkpt>
      <trkpt lat="48.37572" lon="2.54257">
        <ele>110</ele>
        <time>2022-08-10T10:20:05.687Z</time>
      </trkpt>
      <trkpt lat="48.37574" lon="2.54261">
        <ele>110</ele>
        <time>2022-08-10T10:20:09.678Z</time>
      </trkpt>
      <trkpt lat="48.37574" lon="2.54264">
        <ele>112</ele>
        <time>2022-08-10T10:20:14.655Z</time>
      </trkpt>
      <trkpt lat="48.37575" lon="2.5427">
        <ele>112</ele>
        <time>2022-08-10T10:20:18.667Z</time>
      </trkpt>
      <trkpt lat="48.37576" lon="2.54275">
        <ele>112</ele>
        <time>2022-08-10T10:20:22.668Z</time>
      </trkpt>
      <trkpt lat="48.37576" lon="2.54283">
        <ele>112</ele>
        <time>2022-08-10T10:20:26.672Z</time>
      </trkpt>
      <trkpt lat="48.37578" lon="2.54292">
        <ele>114</ele>
        <time>2022-08-10T10:20:30.702Z</time>
      </trkpt>
      <trkpt lat="48.37581" lon="2.54298">
        <ele>114</ele>
        <time>2022-08-10T10:20:35.659Z</time>
      </trkpt>
      <trkpt lat="48.37584" lon="2.54302">
        <ele>114</ele>
        <time>2022-08-10T10:20:39.669Z</time>
      </trkpt>
      <trkpt lat="48.37586" lon="2.54305">
        <ele>114</ele>
        <time>2022-08-10T10:20:43.688Z</time>
      </trkpt>
      <trkpt lat="48.37589" lon="2.54304">
        <ele>114</ele>
        <time>2022-08-10T10:20:47.706Z</time>
      </trkpt>
      <trkpt lat="48.3759" lon="2.54307">
        <ele>114</ele>
        <time>2022-08-10T10:20:52.654Z</time>
      </trkpt>
      <trkpt lat="48.37593" lon="2.54312">
        <ele>114</ele>
        <time>2022-08-10T10:20:56.687Z</time>
      </trkpt>
      <trkpt lat="48.37595" lon="2.54317">
        <ele>114</ele>
        <time>2022-08-10T10:21:01.682Z</time>
      </trkpt>
      <trkpt lat="48.37596" lon="2.54321">
        <ele>113</ele>
        <time>2022-08-10T10:21:05.669Z</time>
      </trkpt>
      <trkpt lat="48.37595" lon="2.54325">
        <ele>113</ele>
        <time>2022-08-10T10:21:10.650Z</time>
      </trkpt>
      <trkpt lat="48.37595" lon="2.54333">
        <ele>113</ele>
        <time>2022-08-10T10:21:15.641Z</time>
      </trkpt>
      <trkpt lat="48.37595" lon="2.54342">
        <ele>113</ele>
        <time>2022-08-10T10:21:19.674Z</time>
      </trkpt>
      <trkpt lat="48.37593" lon="2.54352">
        <ele>112</ele>
        <time>2022-08-10T10:21:24.659Z</time>
      </trkpt>
      <trkpt lat="48.37592" lon="2.54363">
        <ele>112</ele>
        <time>2022-08-10T10:21:46.670Z</time>
      </trkpt>
      <trkpt lat="48.37593" lon="2.54368">
        <ele>112</ele>
        <time>2022-08-10T10:21:51.645Z</time>
      </trkpt>
      <trkpt lat="48.37594" lon="2.54376">
        <ele>109</ele>
        <time>2022-08-10T10:21:55.674Z</time>
      </trkpt>
      <trkpt lat="48.37594" lon="2.54388">
        <ele>109</ele>
        <time>2022-08-10T10:22:00.675Z</time>
      </trkpt>
      <trkpt lat="48.37593" lon="2.5439">
        <ele>109</ele>
        <time>2022-08-10T10:22:05.697Z</time>
      </trkpt>
      <trkpt lat="48.37594" lon="2.54393">
        <ele>109</ele>
        <time>2022-08-10T10:22:10.695Z</time>
      </trkpt>
      <trkpt lat="48.37596" lon="2.544">
        <ele>109</ele>
        <time>2022-08-10T10:22:15.655Z</time>
      </trkpt>
      <trkpt lat="48.376" lon="2.54403">
        <ele>111</ele>
        <time>2022-08-10T10:22:19.675Z</time>
      </trkpt>
      <trkpt lat="48.37601" lon="2.54407">
        <ele>109</ele>
        <time>2022-08-10T10:22:24.659Z</time>
      </trkpt>
      <trkpt lat="48.37604" lon="2.5441">
        <ele>109</ele>
        <time>2022-08-10T10:22:29.660Z</time>
      </trkpt>
      <trkpt lat="48.37602" lon="2.54415">
        <ele>109</ele>
        <time>2022-08-10T10:22:33.674Z</time>
      </trkpt>
      <trkpt lat="48.37601" lon="2.54422">
        <ele>109</ele>
        <time>2022-08-10T10:22:37.664Z</time>
      </trkpt>
      <trkpt lat="48.37597" lon="2.54427">
        <ele>107</ele>
        <time>2022-08-10T10:22:42.654Z</time>
      </trkpt>
      <trkpt lat="48.37594" lon="2.54432">
        <ele>105</ele>
        <time>2022-08-10T10:22:46.679Z</time>
      </trkpt>
      <trkpt lat="48.37595" lon="2.54438">
        <ele>105</ele>
        <time>2022-08-10T10:22:51.653Z</time>
      </trkpt>
      <trkpt lat="48.37597" lon="2.54449">
        <ele>105</ele>
        <time>2022-08-10T10:22:55.657Z</time>
      </trkpt>
      <trkpt lat="48.37598" lon="2.54457">
        <ele>108</ele>
        <time>2022-08-10T10:22:59.666Z</time>
      </trkpt>
      <trkpt lat="48.37601" lon="2.54462">
        <ele>108</ele>
        <time>2022-08-10T10:23:04.644Z</time>
      </trkpt>
      <trkpt lat="48.37602" lon="2.54468">
        <ele>108</ele>
        <time>2022-08-10T10:23:08.677Z</time>
      </trkpt>
      <trkpt lat="48.37603" lon="2.54472">
        <ele>108</ele>
        <time>2022-08-10T10:23:13.670Z</time>
      </trkpt>
      <trkpt lat="48.37601" lon="2.54477">
        <ele>108</ele>
        <time>2022-08-10T10:23:18.660Z</time>
      </trkpt>
      <trkpt lat="48.376" lon="2.54479">
        <ele>108</ele>
        <time>2022-08-10T10:23:22.649Z</time>
      </trkpt>
      <trkpt lat="48.37601" lon="2.54485">
        <ele>108</ele>
        <time>2022-08-10T10:23:27.651Z</time>
      </trkpt>
      <trkpt lat="48.376" lon="2.54489">
        <ele>110</ele>
        <time>2022-08-10T10:23:32.651Z</time>
      </trkpt>
      <trkpt lat="48.37602" lon="2.54494">
        <ele>110</ele>
        <time>2022-08-10T10:23:36.665Z</time>
      </trkpt>
      <trkpt lat="48.37604" lon="2.54498">
        <ele>110</ele>
        <time>2022-08-10T10:23:41.669Z</time>
      </trkpt>
      <trkpt lat="48.37603" lon="2.545">
        <ele>110</ele>
        <time>2022-08-10T10:23:46.645Z</time>
      </trkpt>
      <trkpt lat="48.376" lon="2.54504">
        <ele>110</ele>
        <time>2022-08-10T10:24:03.668Z</time>
      </trkpt>
      <trkpt lat="48.376" lon="2.54509">
        <ele>110</ele>
        <time>2022-08-10T10:24:08.670Z</time>
      </trkpt>
      <trkpt lat="48.376" lon="2.54512">
        <ele>110</ele>
        <time>2022-08-10T10:24:13.697Z</time>
      </trkpt>
      <trkpt lat="48.37602" lon="2.54522">
        <ele>110</ele>
        <time>2022-08-10T10:24:18.694Z</time>
      </trkpt>
      <trkpt lat="48.37604" lon="2.54523">
        <ele>110</ele>
        <time>2022-08-10T10:24:23.645Z</time>
      </trkpt>
      <trkpt lat="48.37604" lon="2.54524">
        <ele>110</ele>
        <time>2022-08-10T10:24:42.636Z</time>
      </trkpt>
      <trkpt lat="48.37604" lon="2.54524">
        <ele>110</ele>
        <time>2022-08-10T10:24:47.641Z</time>
      </trkpt>
      <trkpt lat="48.37605" lon="2.54525">
        <ele>110</ele>
        <time>2022-08-10T10:24:52.646Z</time>
      </trkpt>
      <trkpt lat="48.37603" lon="2.54527">
        <ele>110</ele>
        <time>2022-08-10T10:24:57.640Z</time>
      </trkpt>
      <trkpt lat="48.37601" lon="2.54528">
        <ele>110</ele>
        <time>2022-08-10T10:25:01.637Z</time>
      </trkpt>
      <trkpt lat="48.37601" lon="2.54533">
        <ele>110</ele>
        <time>2022-08-10T10:25:06.648Z</time>
      </trkpt>
      <trkpt lat="48.376" lon="2.54536">
        <ele>110</ele>
        <time>2022-08-10T10:25:11.646Z</time>
      </trkpt>
      <trkpt lat="48.376" lon="2.54541">
        <ele>110</ele>
        <time>2022-08-10T10:25:15.666Z</time>
      </trkpt>
      <trkpt lat="48.37602" lon="2.54548">
        <ele>112</ele>
        <time>2022-08-10T10:25:20.637Z</time>
      </trkpt>
      <trkpt lat="48.37602" lon="2.54554">
        <ele>112</ele>
        <time>2022-08-10T10:25:39.645Z</time>
      </trkpt>
      <trkpt lat="48.37602" lon="2.54559">
        <ele>112</ele>
        <time>2022-08-10T10:25:44.638Z</time>
      </trkpt>
      <trkpt lat="48.37601" lon="2.54565">
        <ele>112</ele>
        <time>2022-08-10T10:25:48.658Z</time>
      </trkpt>
      <trkpt lat="48.376" lon="2.54578">
        <ele>109</ele>
        <time>2022-08-10T10:25:52.692Z</time>
      </trkpt>
      <trkpt lat="48.376" lon="2.5458">
        <ele>109</ele>
        <time>2022-08-10T10:25:57.633Z</time>
      </trkpt>
      <trkpt lat="48.37598" lon="2.54581">
        <ele>109</ele>
        <time>2022-08-10T10:26:02.656Z</time>
      </trkpt>
      <trkpt lat="48.37597" lon="2.54582">
        <ele>109</ele>
        <time>2022-08-10T10:26:07.646Z</time>
      </trkpt>
      <trkpt lat="48.37598" lon="2.54587">
        <ele>109</ele>
        <time>2022-08-10T10:26:11.656Z</time>
      </trkpt>
      <trkpt lat="48.37602" lon="2.5459">
        <ele>109</ele>
        <time>2022-08-10T10:26:16.643Z</time>
      </trkpt>
      <trkpt lat="48.37605" lon="2.54591">
        <ele>109</ele>
        <time>2022-08-10T10:26:21.669Z</time>
      </trkpt>
      <trkpt lat="48.37607" lon="2.54594">
        <ele>109</ele>
        <time>2022-08-10T10:26:26.673Z</time>
      </trkpt>
      <trkpt lat="48.37613" lon="2.54592">
        <ele>109</ele>
        <time>2022-08-10T10:26:31.658Z</time>
      </trkpt>
      <trkpt lat="48.37616" lon="2.54593">
        <ele>109</ele>
        <time>2022-08-10T10:26:35.679Z</time>
      </trkpt>
      <trkpt lat="48.37615" lon="2.54599">
        <ele>107</ele>
        <time>2022-08-10T10:26:40.663Z</time>
      </trkpt>
      <trkpt lat="48.37617" lon="2.54609">
        <ele>107</ele>
        <time>2022-08-10T10:26:44.677Z</time>
      </trkpt>
      <trkpt lat="48.37619" lon="2.54616">
        <ele>107</ele>
        <time>2022-08-10T10:26:49.681Z</time>
      </trkpt>
      <trkpt lat="48.37619" lon="2.54624">
        <ele>107</ele>
        <time>2022-08-10T10:26:54.659Z</time>
      </trkpt>
      <trkpt lat="48.3762" lon="2.54631">
        <ele>106</ele>
        <time>2022-08-10T10:26:59.646Z</time>
      </trkpt>
      <trkpt lat="48.37621" lon="2.54639">
        <ele>106</ele>
        <time>2022-08-10T10:27:03.638Z</time>
      </trkpt>
      <trkpt lat="48.37621" lon="2.54648">
        <ele>106</ele>
        <time>2022-08-10T10:27:08.642Z</time>
      </trkpt>
      <trkpt lat="48.37622" lon="2.54658">
        <ele>106</ele>
        <time>2022-08-10T10:27:13.680Z</time>
      </trkpt>
      <trkpt lat="48.37623" lon="2.54664">
        <ele>106</ele>
        <time>2022-08-10T10:27:18.682Z</time>
      </trkpt>
      <trkpt lat="48.37625" lon="2.54673">
        <ele>105</ele>
        <time>2022-08-10T10:27:23.691Z</time>
      </trkpt>
      <trkpt lat="48.37627" lon="2.54681">
        <ele>106</ele>
        <time>2022-08-10T10:27:28.658Z</time>
      </trkpt>
      <trkpt lat="48.3763" lon="2.54688">
        <ele>106</ele>
        <time>2022-08-10T10:27:32.678Z</time>
      </trkpt>
      <trkpt lat="48.37633" lon="2.5469">
        <ele>106</ele>
        <time>2022-08-10T10:27:37.648Z</time>
      </trkpt>
      <trkpt lat="48.37637" lon="2.54694">
        <ele>106</ele>
        <time>2022-08-10T10:27:41.660Z</time>
      </trkpt>
      <trkpt lat="48.3764" lon="2.54695">
        <ele>106</ele>
        <time>2022-08-10T10:27:46.674Z</time>
      </trkpt>
      <trkpt lat="48.37643" lon="2.54693">
        <ele>106</ele>
        <time>2022-08-10T10:27:51.656Z</time>
      </trkpt>
      <trkpt lat="48.37645" lon="2.54691">
        <ele>106</ele>
        <time>2022-08-10T10:27:56.643Z</time>
      </trkpt>
      <trkpt lat="48.3765" lon="2.54688">
        <ele>106</ele>
        <time>2022-08-10T10:28:00.647Z</time>
      </trkpt>
      <trkpt lat="48.37653" lon="2.54684">
        <ele>100</ele>
        <time>2022-08-10T10:28:05.681Z</time>
      </trkpt>
      <trkpt lat="48.37654" lon="2.54674">
        <ele>100</ele>
        <time>2022-08-10T10:28:09.695Z</time>
      </trkpt>
      <trkpt lat="48.37654" lon="2.54667">
        <ele>100</ele>
        <time>2022-08-10T10:28:14.671Z</time>
      </trkpt>
      <trkpt lat="48.37658" lon="2.54663">
        <ele>100</ele>
        <time>2022-08-10T10:28:19.656Z</time>
      </trkpt>
      <trkpt lat="48.37661" lon="2.54656">
        <ele>100</ele>
        <time>2022-08-10T10:28:24.675Z</time>
      </trkpt>
      <trkpt lat="48.37663" lon="2.54646">
        <ele>99</ele>
        <time>2022-08-10T10:28:29.682Z</time>
      </trkpt>
      <trkpt lat="48.37665" lon="2.54644">
        <ele>99</ele>
        <time>2022-08-10T10:28:34.694Z</time>
      </trkpt>
      <trkpt lat="48.37671" lon="2.54642">
        <ele>99</ele>
        <time>2022-08-10T10:28:39.651Z</time>
      </trkpt>
      <trkpt lat="48.37676" lon="2.54641">
        <ele>99</ele>
        <time>2022-08-10T10:28:43.669Z</time>
      </trkpt>
      <trkpt lat="48.37679" lon="2.54638">
        <ele>99</ele>
        <time>2022-08-10T10:28:48.644Z</time>
      </trkpt>
      <trkpt lat="48.37683" lon="2.54638">
        <ele>98</ele>
        <time>2022-08-10T10:28:52.698Z</time>
      </trkpt>
      <trkpt lat="48.37685" lon="2.54638">
        <ele>98</ele>
        <time>2022-08-10T10:28:57.690Z</time>
      </trkpt>
      <trkpt lat="48.37688" lon="2.54635">
        <ele>98</ele>
        <time>2022-08-10T10:29:02.671Z</time>
      </trkpt>
      <trkpt lat="48.37691" lon="2.54633">
        <ele>98</ele>
        <time>2022-08-10T10:29:07.697Z</time>
      </trkpt>
      <trkpt lat="48.37693" lon="2.54626">
        <ele>98</ele>
        <time>2022-08-10T10:29:12.681Z</time>
      </trkpt>
      <trkpt lat="48.37694" lon="2.54622">
        <ele>97</ele>
        <time>2022-08-10T10:29:17.675Z</time>
      </trkpt>
      <trkpt lat="48.37697" lon="2.5462">
        <ele>97</ele>
        <time>2022-08-10T10:29:22.642Z</time>
      </trkpt>
      <trkpt lat="48.37702" lon="2.54619">
        <ele>97</ele>
        <time>2022-08-10T10:29:26.673Z</time>
      </trkpt>
      <trkpt lat="48.37707" lon="2.5462">
        <ele>97</ele>
        <time>2022-08-10T10:29:31.673Z</time>
      </trkpt>
      <trkpt lat="48.37713" lon="2.54621">
        <ele>102</ele>
        <time>2022-08-10T10:29:35.684Z</time>
      </trkpt>
      <trkpt lat="48.37715" lon="2.54623">
        <ele>102</ele>
        <time>2022-08-10T10:29:40.666Z</time>
      </trkpt>
      <trkpt lat="48.37716" lon="2.54623">
        <ele>102</ele>
        <time>2022-08-10T10:29:45.679Z</time>
      </trkpt>
      <trkpt lat="48.37718" lon="2.54624">
        <ele>102</ele>
        <time>2022-08-10T10:29:50.683Z</time>
      </trkpt>
      <trkpt lat="48.37721" lon="2.54626">
        <ele>103</ele>
        <time>2022-08-10T10:30:00.682Z</time>
      </trkpt>
      <trkpt lat="48.37722" lon="2.54628">
        <ele>103</ele>
        <time>2022-08-10T10:30:05.669Z</time>
      </trkpt>
      <trkpt lat="48.37725" lon="2.5463">
        <ele>103</ele>
        <time>2022-08-10T10:30:09.675Z</time>
      </trkpt>
      <trkpt lat="48.3773" lon="2.5463">
        <ele>103</ele>
        <time>2022-08-10T10:30:13.682Z</time>
      </trkpt>
      <trkpt lat="48.37732" lon="2.5463">
        <ele>103</ele>
        <time>2022-08-10T10:30:18.684Z</time>
      </trkpt>
      <trkpt lat="48.37734" lon="2.5463">
        <ele>103</ele>
        <time>2022-08-10T10:30:28.659Z</time>
      </trkpt>
      <trkpt lat="48.37736" lon="2.5463">
        <ele>103</ele>
        <time>2022-08-10T10:30:32.659Z</time>
      </trkpt>
      <trkpt lat="48.37739" lon="2.54632">
        <ele>110</ele>
        <time>2022-08-10T10:30:36.719Z</time>
      </trkpt>
      <trkpt lat="48.37744" lon="2.54631">
        <ele>110</ele>
        <time>2022-08-10T10:30:41.644Z</time>
      </trkpt>
      <trkpt lat="48.37745" lon="2.54628">
        <ele>110</ele>
        <time>2022-08-10T10:30:46.648Z</time>
      </trkpt>
      <trkpt lat="48.37747" lon="2.54626">
        <ele>110</ele>
        <time>2022-08-10T10:30:50.656Z</time>
      </trkpt>
      <trkpt lat="48.37747" lon="2.54623">
        <ele>108</ele>
        <time>2022-08-10T10:30:54.686Z</time>
      </trkpt>
      <trkpt lat="48.37749" lon="2.54621">
        <ele>108</ele>
        <time>2022-08-10T10:30:59.669Z</time>
      </trkpt>
      <trkpt lat="48.37749" lon="2.54618">
        <ele>108</ele>
        <time>2022-08-10T10:31:04.640Z</time>
      </trkpt>
      <trkpt lat="48.3775" lon="2.54619">
        <ele>108</ele>
        <time>2022-08-10T10:31:08.642Z</time>
      </trkpt>
      <trkpt lat="48.37752" lon="2.5462">
        <ele>108</ele>
        <time>2022-08-10T10:32:25.653Z</time>
      </trkpt>
      <trkpt lat="48.37757" lon="2.54623">
        <ele>108</ele>
        <time>2022-08-10T10:32:30.646Z</time>
      </trkpt>
      <trkpt lat="48.3776" lon="2.54623">
        <ele>108</ele>
        <time>2022-08-10T10:32:34.641Z</time>
      </trkpt>
      <trkpt lat="48.37769" lon="2.54623">
        <ele>111</ele>
        <time>2022-08-10T10:32:39.641Z</time>
      </trkpt>
      <trkpt lat="48.37769" lon="2.54624">
        <ele>111</ele>
        <time>2022-08-10T10:32:43.648Z</time>
      </trkpt>
      <trkpt lat="48.37769" lon="2.54624">
        <ele>111</ele>
        <time>2022-08-10T10:32:48.635Z</time>
      </trkpt>
      <trkpt lat="48.3777" lon="2.54625">
        <ele>111</ele>
        <time>2022-08-10T10:32:52.650Z</time>
      </trkpt>
      <trkpt lat="48.3777" lon="2.54627">
        <ele>114</ele>
        <time>2022-08-10T10:32:57.650Z</time>
      </trkpt>
      <trkpt lat="48.37772" lon="2.54628">
        <ele>114</ele>
        <time>2022-08-10T10:33:02.639Z</time>
      </trkpt>
      <trkpt lat="48.37775" lon="2.54626">
        <ele>114</ele>
        <time>2022-08-10T10:33:06.639Z</time>
      </trkpt>
      <trkpt lat="48.37781" lon="2.54629">
        <ele>114</ele>
        <time>2022-08-10T10:33:11.643Z</time>
      </trkpt>
      <trkpt lat="48.37788" lon="2.54631">
        <ele>114</ele>
        <time>2022-08-10T10:33:16.654Z</time>
      </trkpt>
      <trkpt lat="48.37792" lon="2.54633">
        <ele>115</ele>
        <time>2022-08-10T10:33:21.646Z</time>
      </trkpt>
      <trkpt lat="48.37797" lon="2.54634">
        <ele>115</ele>
        <time>2022-08-10T10:33:26.639Z</time>
      </trkpt>
      <trkpt lat="48.378" lon="2.54631">
        <ele>115</ele>
        <time>2022-08-10T10:33:31.647Z</time>
      </trkpt>
      <trkpt lat="48.37804" lon="2.54635">
        <ele>115</ele>
        <time>2022-08-10T10:33:36.642Z</time>
      </trkpt>
      <trkpt lat="48.37808" lon="2.54633">
        <ele>115</ele>
        <time>2022-08-10T10:33:41.660Z</time>
      </trkpt>
      <trkpt lat="48.37812" lon="2.54629">
        <ele>115</ele>
        <time>2022-08-10T10:33:46.639Z</time>
      </trkpt>
      <trkpt lat="48.37813" lon="2.54627">
        <ele>115</ele>
        <time>2022-08-10T10:33:51.636Z</time>
      </trkpt>
      <trkpt lat="48.37818" lon="2.54632">
        <ele>115</ele>
        <time>2022-08-10T10:33:56.645Z</time>
      </trkpt>
      <trkpt lat="48.37824" lon="2.54637">
        <ele>115</ele>
        <time>2022-08-10T10:34:00.650Z</time>
      </trkpt>
      <trkpt lat="48.37827" lon="2.54639">
        <ele>115</ele>
        <time>2022-08-10T10:34:05.633Z</time>
      </trkpt>
      <trkpt lat="48.37829" lon="2.54638">
        <ele>115</ele>
        <time>2022-08-10T10:34:19.651Z</time>
      </trkpt>
      <trkpt lat="48.37831" lon="2.54636">
        <ele>115</ele>
        <time>2022-08-10T10:34:23.644Z</time>
      </trkpt>
      <trkpt lat="48.37833" lon="2.54632">
        <ele>115</ele>
        <time>2022-08-10T10:34:28.650Z</time>
      </trkpt>
      <trkpt lat="48.37835" lon="2.54627">
        <ele>115</ele>
        <time>2022-08-10T10:34:32.658Z</time>
      </trkpt>
      <trkpt lat="48.37837" lon="2.54626">
        <ele>115</ele>
        <time>2022-08-10T10:34:37.649Z</time>
      </trkpt>
      <trkpt lat="48.37839" lon="2.54626">
        <ele>115</ele>
        <time>2022-08-10T10:34:52.646Z</time>
      </trkpt>
      <trkpt lat="48.37842" lon="2.54625">
        <ele>115</ele>
        <time>2022-08-10T10:34:56.644Z</time>
      </trkpt>
      <trkpt lat="48.37844" lon="2.54625">
        <ele>112</ele>
        <time>2022-08-10T10:35:01.634Z</time>
      </trkpt>
      <trkpt lat="48.3785" lon="2.54619">
        <ele>111</ele>
        <time>2022-08-10T10:35:05.646Z</time>
      </trkpt>
      <trkpt lat="48.3785" lon="2.54618">
        <ele>111</ele>
        <time>2022-08-10T10:35:10.644Z</time>
      </trkpt>
      <trkpt lat="48.37852" lon="2.54617">
        <ele>111</ele>
        <time>2022-08-10T10:35:15.642Z</time>
      </trkpt>
      <trkpt lat="48.37853" lon="2.54616">
        <ele>111</ele>
        <time>2022-08-10T10:35:20.660Z</time>
      </trkpt>
      <trkpt lat="48.37856" lon="2.54614">
        <ele>111</ele>
        <time>2022-08-10T10:35:25.633Z</time>
      </trkpt>
      <trkpt lat="48.37858" lon="2.54611">
        <ele>111</ele>
        <time>2022-08-10T10:35:29.680Z</time>
      </trkpt>
      <trkpt lat="48.3786" lon="2.54608">
        <ele>111</ele>
        <time>2022-08-10T10:35:33.671Z</time>
      </trkpt>
      <trkpt lat="48.37862" lon="2.54606">
        <ele>111</ele>
        <time>2022-08-10T10:35:37.697Z</time>
      </trkpt>
      <trkpt lat="48.37865" lon="2.54604">
        <ele>111</ele>
        <time>2022-08-10T10:35:42.642Z</time>
      </trkpt>
      <trkpt lat="48.3787" lon="2.54599">
        <ele>111</ele>
        <time>2022-08-10T10:35:46.678Z</time>
      </trkpt>
      <trkpt lat="48.37873" lon="2.54596">
        <ele>108</ele>
        <time>2022-08-10T10:35:51.690Z</time>
      </trkpt>
      <trkpt lat="48.37877" lon="2.54593">
        <ele>110</ele>
        <time>2022-08-10T10:36:05.663Z</time>
      </trkpt>
      <trkpt lat="48.37879" lon="2.54588">
        <ele>110</ele>
        <time>2022-08-10T10:36:10.697Z</time>
      </trkpt>
      <trkpt lat="48.37881" lon="2.54582">
        <ele>110</ele>
        <time>2022-08-10T10:36:15.655Z</time>
      </trkpt>
      <trkpt lat="48.37886" lon="2.54572">
        <ele>110</ele>
        <time>2022-08-10T10:36:19.648Z</time>
      </trkpt>
      <trkpt lat="48.37889" lon="2.54571">
        <ele>110</ele>
        <time>2022-08-10T10:36:24.657Z</time>
      </trkpt>
      <trkpt lat="48.37892" lon="2.54568">
        <ele>106</ele>
        <time>2022-08-10T10:36:39.653Z</time>
      </trkpt>
      <trkpt lat="48.37893" lon="2.54569">
        <ele>106</ele>
        <time>2022-08-10T10:36:43.664Z</time>
      </trkpt>
      <trkpt lat="48.37895" lon="2.54569">
        <ele>106</ele>
        <time>2022-08-10T10:36:47.667Z</time>
      </trkpt>
      <trkpt lat="48.37899" lon="2.54569">
        <ele>106</ele>
        <time>2022-08-10T10:36:52.651Z</time>
      </trkpt>
      <trkpt lat="48.379" lon="2.54569">
        <ele>110</ele>
        <time>2022-08-10T10:36:57.668Z</time>
      </trkpt>
      <trkpt lat="48.37901" lon="2.54571">
        <ele>110</ele>
        <time>2022-08-10T11:16:50.695Z</time>
      </trkpt>
      <trkpt lat="48.37904" lon="2.54572">
        <ele>113</ele>
        <time>2022-08-10T11:16:55.647Z</time>
      </trkpt>
      <trkpt lat="48.37905" lon="2.54573">
        <ele>113</ele>
        <time>2022-08-10T11:16:59.651Z</time>
      </trkpt>
      <trkpt lat="48.37907" lon="2.5458">
        <ele>113</ele>
        <time>2022-08-10T11:17:03.654Z</time>
      </trkpt>
      <trkpt lat="48.37911" lon="2.54584">
        <ele>113</ele>
        <time>2022-08-10T11:17:08.638Z</time>
      </trkpt>
      <trkpt lat="48.37913" lon="2.54589">
        <ele>113</ele>
        <time>2022-08-10T11:17:12.649Z</time>
      </trkpt>
      <trkpt lat="48.37916" lon="2.54594">
        <ele>113</ele>
        <time>2022-08-10T11:17:17.647Z</time>
      </trkpt>
      <trkpt lat="48.37917" lon="2.54602">
        <ele>115</ele>
        <time>2022-08-10T11:17:21.654Z</time>
      </trkpt>
      <trkpt lat="48.37921" lon="2.54605">
        <ele>115</ele>
        <time>2022-08-10T11:17:26.640Z</time>
      </trkpt>
      <trkpt lat="48.37923" lon="2.5461">
        <ele>115</ele>
        <time>2022-08-10T11:17:30.668Z</time>
      </trkpt>
      <trkpt lat="48.37926" lon="2.54618">
        <ele>115</ele>
        <time>2022-08-10T11:17:35.659Z</time>
      </trkpt>
      <trkpt lat="48.37931" lon="2.54622">
        <ele>114</ele>
        <time>2022-08-10T11:17:40.651Z</time>
      </trkpt>
      <trkpt lat="48.37935" lon="2.54623">
        <ele>114</ele>
        <time>2022-08-10T11:17:45.663Z</time>
      </trkpt>
      <trkpt lat="48.37939" lon="2.54629">
        <ele>115</ele>
        <time>2022-08-10T11:18:05.646Z</time>
      </trkpt>
      <trkpt lat="48.37942" lon="2.54631">
        <ele>115</ele>
        <time>2022-08-10T11:18:09.652Z</time>
      </trkpt>
      <trkpt lat="48.37945" lon="2.54633">
        <ele>115</ele>
        <time>2022-08-10T11:18:13.693Z</time>
      </trkpt>
      <trkpt lat="48.37949" lon="2.54642">
        <ele>115</ele>
        <time>2022-08-10T11:18:17.666Z</time>
      </trkpt>
      <trkpt lat="48.37951" lon="2.54643">
        <ele>115</ele>
        <time>2022-08-10T11:18:22.658Z</time>
      </trkpt>
      <trkpt lat="48.37952" lon="2.54644">
        <ele>115</ele>
        <time>2022-08-10T11:18:27.674Z</time>
      </trkpt>
      <trkpt lat="48.37955" lon="2.54644">
        <ele>115</ele>
        <time>2022-08-10T11:18:32.663Z</time>
      </trkpt>
      <trkpt lat="48.37958" lon="2.54641">
        <ele>115</ele>
        <time>2022-08-10T11:18:37.636Z</time>
      </trkpt>
      <trkpt lat="48.37959" lon="2.54637">
        <ele>111</ele>
        <time>2022-08-10T11:18:41.664Z</time>
      </trkpt>
      <trkpt lat="48.37961" lon="2.54633">
        <ele>111</ele>
        <time>2022-08-10T11:18:45.716Z</time>
      </trkpt>
      <trkpt lat="48.37964" lon="2.54635">
        <ele>111</ele>
        <time>2022-08-10T11:18:50.687Z</time>
      </trkpt>
      <trkpt lat="48.37967" lon="2.54637">
        <ele>111</ele>
        <time>2022-08-10T11:18:55.672Z</time>
      </trkpt>
      <trkpt lat="48.37971" lon="2.54635">
        <ele>111</ele>
        <time>2022-08-10T11:19:00.644Z</time>
      </trkpt>
      <trkpt lat="48.37973" lon="2.54635">
        <ele>111</ele>
        <time>2022-08-10T11:19:04.655Z</time>
      </trkpt>
      <trkpt lat="48.37976" lon="2.54639">
        <ele>111</ele>
        <time>2022-08-10T11:19:09.646Z</time>
      </trkpt>
      <trkpt lat="48.37978" lon="2.54641">
        <ele>111</ele>
        <time>2022-08-10T11:19:35.640Z</time>
      </trkpt>
      <trkpt lat="48.37978" lon="2.54643">
        <ele>111</ele>
        <time>2022-08-10T11:19:39.659Z</time>
      </trkpt>
      <trkpt lat="48.37979" lon="2.54646">
        <ele>111</ele>
        <time>2022-08-10T11:19:44.691Z</time>
      </trkpt>
      <trkpt lat="48.37985" lon="2.54649">
        <ele>111</ele>
        <time>2022-08-10T11:19:49.666Z</time>
      </trkpt>
      <trkpt lat="48.37987" lon="2.54649">
        <ele>107</ele>
        <time>2022-08-10T11:19:54.637Z</time>
      </trkpt>
      <trkpt lat="48.37989" lon="2.54649">
        <ele>107</ele>
        <time>2022-08-10T11:19:58.675Z</time>
      </trkpt>
      <trkpt lat="48.37991" lon="2.54643">
        <ele>107</ele>
        <time>2022-08-10T11:20:02.693Z</time>
      </trkpt>
      <trkpt lat="48.37994" lon="2.54639">
        <ele>107</ele>
        <time>2022-08-10T11:20:07.698Z</time>
      </trkpt>
      <trkpt lat="48.37997" lon="2.54635">
        <ele>107</ele>
        <time>2022-08-10T11:20:11.670Z</time>
      </trkpt>
      <trkpt lat="48.37999" lon="2.54637">
        <ele>107</ele>
        <time>2022-08-10T11:20:16.673Z</time>
      </trkpt>
      <trkpt lat="48.38002" lon="2.54639">
        <ele>107</ele>
        <time>2022-08-10T11:20:20.685Z</time>
      </trkpt>
      <trkpt lat="48.38004" lon="2.54639">
        <ele>107</ele>
        <time>2022-08-10T11:20:24.663Z</time>
      </trkpt>
      <trkpt lat="48.38009" lon="2.5464">
        <ele>107</ele>
        <time>2022-08-10T11:20:28.664Z</time>
      </trkpt>
      <trkpt lat="48.38011" lon="2.54641">
        <ele>107</ele>
        <time>2022-08-10T11:20:33.655Z</time>
      </trkpt>
      <trkpt lat="48.38013" lon="2.54639">
        <ele>107</ele>
        <time>2022-08-10T11:20:38.666Z</time>
      </trkpt>
      <trkpt lat="48.38017" lon="2.54636">
        <ele>106</ele>
        <time>2022-08-10T11:20:43.664Z</time>
      </trkpt>
      <trkpt lat="48.38019" lon="2.54638">
        <ele>106</ele>
        <time>2022-08-10T11:20:47.673Z</time>
      </trkpt>
      <trkpt lat="48.38022" lon="2.54638">
        <ele>106</ele>
        <time>2022-08-10T11:20:52.659Z</time>
      </trkpt>
      <trkpt lat="48.38024" lon="2.54637">
        <ele>106</ele>
        <time>2022-08-10T11:20:57.662Z</time>
      </trkpt>
      <trkpt lat="48.38029" lon="2.5464">
        <ele>106</ele>
        <time>2022-08-10T11:21:01.660Z</time>
      </trkpt>
      <trkpt lat="48.38033" lon="2.5464">
        <ele>106</ele>
        <time>2022-08-10T11:21:05.703Z</time>
      </trkpt>
      <trkpt lat="48.38034" lon="2.54641">
        <ele>106</ele>
        <time>2022-08-10T11:21:10.641Z</time>
      </trkpt>
      <trkpt lat="48.38036" lon="2.54644">
        <ele>106</ele>
        <time>2022-08-10T11:21:14.648Z</time>
      </trkpt>
      <trkpt lat="48.38036" lon="2.54648">
        <ele>106</ele>
        <time>2022-08-10T11:21:19.658Z</time>
      </trkpt>
      <trkpt lat="48.38037" lon="2.54653">
        <ele>107</ele>
        <time>2022-08-10T11:21:23.663Z</time>
      </trkpt>
      <trkpt lat="48.38037" lon="2.54656">
        <ele>107</ele>
        <time>2022-08-10T11:21:28.655Z</time>
      </trkpt>
      <trkpt lat="48.38037" lon="2.54658">
        <ele>107</ele>
        <time>2022-08-10T11:21:33.649Z</time>
      </trkpt>
      <trkpt lat="48.38039" lon="2.54661">
        <ele>107</ele>
        <time>2022-08-10T11:21:37.671Z</time>
      </trkpt>
      <trkpt lat="48.38041" lon="2.54663">
        <ele>107</ele>
        <time>2022-08-10T11:21:42.672Z</time>
      </trkpt>
      <trkpt lat="48.38044" lon="2.54666">
        <ele>112</ele>
        <time>2022-08-10T11:22:24.673Z</time>
      </trkpt>
      <trkpt lat="48.38047" lon="2.54666">
        <ele>112</ele>
        <time>2022-08-10T11:22:29.647Z</time>
      </trkpt>
      <trkpt lat="48.38049" lon="2.54667">
        <ele>112</ele>
        <time>2022-08-10T11:22:33.649Z</time>
      </trkpt>
      <trkpt lat="48.38056" lon="2.54672">
        <ele>112</ele>
        <time>2022-08-10T11:22:37.649Z</time>
      </trkpt>
      <trkpt lat="48.38056" lon="2.54676">
        <ele>112</ele>
        <time>2022-08-10T11:22:42.641Z</time>
      </trkpt>
      <trkpt lat="48.38057" lon="2.54678">
        <ele>112</ele>
        <time>2022-08-10T11:22:56.671Z</time>
      </trkpt>
      <trkpt lat="48.38058" lon="2.54681">
        <ele>113</ele>
        <time>2022-08-10T11:23:00.666Z</time>
      </trkpt>
      <trkpt lat="48.38058" lon="2.54682">
        <ele>113</ele>
        <time>2022-08-10T11:23:05.686Z</time>
      </trkpt>
      <trkpt lat="48.38061" lon="2.54686">
        <ele>113</ele>
        <time>2022-08-10T11:23:10.644Z</time>
      </trkpt>
      <trkpt lat="48.38062" lon="2.54688">
        <ele>113</ele>
        <time>2022-08-10T11:23:14.682Z</time>
      </trkpt>
      <trkpt lat="48.38065" lon="2.54689">
        <ele>113</ele>
        <time>2022-08-10T11:23:18.688Z</time>
      </trkpt>
      <trkpt lat="48.38067" lon="2.54692">
        <ele>113</ele>
        <time>2022-08-10T11:23:23.664Z</time>
      </trkpt>
      <trkpt lat="48.38069" lon="2.54696">
        <ele>113</ele>
        <time>2022-08-10T11:23:28.669Z</time>
      </trkpt>
      <trkpt lat="48.38073" lon="2.54699">
        <ele>118</ele>
        <time>2022-08-10T11:23:33.677Z</time>
      </trkpt>
      <trkpt lat="48.38077" lon="2.54702">
        <ele>118</ele>
        <time>2022-08-10T11:23:37.693Z</time>
      </trkpt>
      <trkpt lat="48.38082" lon="2.54698">
        <ele>118</ele>
        <time>2022-08-10T11:23:41.698Z</time>
      </trkpt>
      <trkpt lat="48.38084" lon="2.54703">
        <ele>118</ele>
        <time>2022-08-10T11:23:46.694Z</time>
      </trkpt>
      <trkpt lat="48.38086" lon="2.54704">
        <ele>118</ele>
        <time>2022-08-10T11:23:51.673Z</time>
      </trkpt>
      <trkpt lat="48.38089" lon="2.54702">
        <ele>118</ele>
        <time>2022-08-10T11:23:56.666Z</time>
      </trkpt>
      <trkpt lat="48.38091" lon="2.54701">
        <ele>118</ele>
        <time>2022-08-10T11:24:01.650Z</time>
      </trkpt>
      <trkpt lat="48.38094" lon="2.54702">
        <ele>118</ele>
        <time>2022-08-10T11:24:05.662Z</time>
      </trkpt>
      <trkpt lat="48.38096" lon="2.54706">
        <ele>118</ele>
        <time>2022-08-10T11:24:09.680Z</time>
      </trkpt>
      <trkpt lat="48.38098" lon="2.54705">
        <ele>116</ele>
        <time>2022-08-10T11:24:14.661Z</time>
      </trkpt>
      <trkpt lat="48.38099" lon="2.54705">
        <ele>116</ele>
        <time>2022-08-10T11:24:23.650Z</time>
      </trkpt>
      <trkpt lat="48.38102" lon="2.54707">
        <ele>116</ele>
        <time>2022-08-10T11:24:28.694Z</time>
      </trkpt>
      <trkpt lat="48.38107" lon="2.54706">
        <ele>116</ele>
        <time>2022-08-10T11:24:33.652Z</time>
      </trkpt>
      <trkpt lat="48.38113" lon="2.54706">
        <ele>116</ele>
        <time>2022-08-10T11:24:37.706Z</time>
      </trkpt>
      <trkpt lat="48.38115" lon="2.54707">
        <ele>116</ele>
        <time>2022-08-10T11:24:42.670Z</time>
      </trkpt>
      <trkpt lat="48.38118" lon="2.54708">
        <ele>116</ele>
        <time>2022-08-10T11:24:47.663Z</time>
      </trkpt>
      <trkpt lat="48.38119" lon="2.54708">
        <ele>116</ele>
        <time>2022-08-10T11:24:52.679Z</time>
      </trkpt>
      <trkpt lat="48.38124" lon="2.54705">
        <ele>116</ele>
        <time>2022-08-10T11:24:57.648Z</time>
      </trkpt>
      <trkpt lat="48.38128" lon="2.54701">
        <ele>112</ele>
        <time>2022-08-10T11:25:02.653Z</time>
      </trkpt>
      <trkpt lat="48.38133" lon="2.54698">
        <ele>112</ele>
        <time>2022-08-10T11:25:06.652Z</time>
      </trkpt>
      <trkpt lat="48.38136" lon="2.54698">
        <ele>112</ele>
        <time>2022-08-10T11:25:11.679Z</time>
      </trkpt>
      <trkpt lat="48.3814" lon="2.54695">
        <ele>112</ele>
        <time>2022-08-10T11:25:16.648Z</time>
      </trkpt>
      <trkpt lat="48.38142" lon="2.54693">
        <ele>112</ele>
        <time>2022-08-10T11:25:21.643Z</time>
      </trkpt>
      <trkpt lat="48.38144" lon="2.54691">
        <ele>112</ele>
        <time>2022-08-10T11:26:16.651Z</time>
      </trkpt>
      <trkpt lat="48.38147" lon="2.54692">
        <ele>112</ele>
        <time>2022-08-10T11:26:20.671Z</time>
      </trkpt>
      <trkpt lat="48.38151" lon="2.54691">
        <ele>112</ele>
        <time>2022-08-10T11:26:25.676Z</time>
      </trkpt>
      <trkpt lat="48.38159" lon="2.54688">
        <ele>114</ele>
        <time>2022-08-10T11:26:30.642Z</time>
      </trkpt>
      <trkpt lat="48.38157" lon="2.54684">
        <ele>114</ele>
        <time>2022-08-10T11:26:35.666Z</time>
      </trkpt>
      <trkpt lat="48.38155" lon="2.54681">
        <ele>114</ele>
        <time>2022-08-10T11:26:54.655Z</time>
      </trkpt>
      <trkpt lat="48.38153" lon="2.54674">
        <ele>113</ele>
        <time>2022-08-10T11:26:58.689Z</time>
      </trkpt>
      <trkpt lat="48.38152" lon="2.5467">
        <ele>113</ele>
        <time>2022-08-10T11:27:03.647Z</time>
      </trkpt>
      <trkpt lat="48.38157" lon="2.54662">
        <ele>115</ele>
        <time>2022-08-10T11:27:07.656Z</time>
      </trkpt>
      <trkpt lat="48.38158" lon="2.54664">
        <ele>115</ele>
        <time>2022-08-10T11:27:12.654Z</time>
      </trkpt>
      <trkpt lat="48.38159" lon="2.54665">
        <ele>115</ele>
        <time>2022-08-10T11:27:16.660Z</time>
      </trkpt>
      <trkpt lat="48.3816" lon="2.54667">
        <ele>115</ele>
        <time>2022-08-10T11:27:21.649Z</time>
      </trkpt>
      <trkpt lat="48.38163" lon="2.54669">
        <ele>115</ele>
        <time>2022-08-10T11:27:25.689Z</time>
      </trkpt>
      <trkpt lat="48.38167" lon="2.54666">
        <ele>115</ele>
        <time>2022-08-10T11:27:30.692Z</time>
      </trkpt>
      <trkpt lat="48.38171" lon="2.54659">
        <ele>115</ele>
        <time>2022-08-10T11:27:35.678Z</time>
      </trkpt>
      <trkpt lat="48.38173" lon="2.54655">
        <ele>115</ele>
        <time>2022-08-10T11:27:39.678Z</time>
      </trkpt>
      <trkpt lat="48.38174" lon="2.54654">
        <ele>115</ele>
        <time>2022-08-10T11:27:43.696Z</time>
      </trkpt>
      <trkpt lat="48.38177" lon="2.54649">
        <ele>115</ele>
        <time>2022-08-10T11:27:48.672Z</time>
      </trkpt>
      <trkpt lat="48.38178" lon="2.54646">
        <ele>115</ele>
        <time>2022-08-10T11:27:53.644Z</time>
      </trkpt>
      <trkpt lat="48.38179" lon="2.54645">
        <ele>115</ele>
        <time>2022-08-10T11:27:57.669Z</time>
      </trkpt>
      <trkpt lat="48.38179" lon="2.54639">
        <ele>115</ele>
        <time>2022-08-10T11:28:02.648Z</time>
      </trkpt>
      <trkpt lat="48.3818" lon="2.54634">
        <ele>115</ele>
        <time>2022-08-10T11:28:06.667Z</time>
      </trkpt>
      <trkpt lat="48.38181" lon="2.54629">
        <ele>117</ele>
        <time>2022-08-10T11:28:11.667Z</time>
      </trkpt>
      <trkpt lat="48.38182" lon="2.54623">
        <ele>117</ele>
        <time>2022-08-10T11:28:15.659Z</time>
      </trkpt>
      <trkpt lat="48.38182" lon="2.54621">
        <ele>117</ele>
        <time>2022-08-10T11:28:20.659Z</time>
      </trkpt>
      <trkpt lat="48.38182" lon="2.54615">
        <ele>117</ele>
        <time>2022-08-10T11:28:25.679Z</time>
      </trkpt>
      <trkpt lat="48.38183" lon="2.54612">
        <ele>117</ele>
        <time>2022-08-10T11:28:29.669Z</time>
      </trkpt>
      <trkpt lat="48.38183" lon="2.54609">
        <ele>117</ele>
        <time>2022-08-10T11:28:34.640Z</time>
      </trkpt>
      <trkpt lat="48.38181" lon="2.54607">
        <ele>117</ele>
        <time>2022-08-10T11:28:39.649Z</time>
      </trkpt>
      <trkpt lat="48.3818" lon="2.54602">
        <ele>114</ele>
        <time>2022-08-10T11:28:43.654Z</time>
      </trkpt>
      <trkpt lat="48.38182" lon="2.54595">
        <ele>115</ele>
        <time>2022-08-10T11:28:48.655Z</time>
      </trkpt>
      <trkpt lat="48.38183" lon="2.54591">
        <ele>115</ele>
        <time>2022-08-10T11:28:52.694Z</time>
      </trkpt>
      <trkpt lat="48.38184" lon="2.54588">
        <ele>115</ele>
        <time>2022-08-10T11:28:57.679Z</time>
      </trkpt>
      <trkpt lat="48.38185" lon="2.54586">
        <ele>115</ele>
        <time>2022-08-10T11:29:11.669Z</time>
      </trkpt>
      <trkpt lat="48.38187" lon="2.54583">
        <ele>115</ele>
        <time>2022-08-10T11:29:16.661Z</time>
      </trkpt>
      <trkpt lat="48.38189" lon="2.54581">
        <ele>115</ele>
        <time>2022-08-10T11:29:21.678Z</time>
      </trkpt>
      <trkpt lat="48.38192" lon="2.54577">
        <ele>115</ele>
        <time>2022-08-10T11:29:26.639Z</time>
      </trkpt>
      <trkpt lat="48.38193" lon="2.54576">
        <ele>115</ele>
        <time>2022-08-10T11:29:30.654Z</time>
      </trkpt>
      <trkpt lat="48.38196" lon="2.54576">
        <ele>115</ele>
        <time>2022-08-10T11:29:44.678Z</time>
      </trkpt>
      <trkpt lat="48.38198" lon="2.54575">
        <ele>115</ele>
        <time>2022-08-10T11:29:49.654Z</time>
      </trkpt>
      <trkpt lat="48.38201" lon="2.54573">
        <ele>115</ele>
        <time>2022-08-10T11:29:53.663Z</time>
      </trkpt>
      <trkpt lat="48.38203" lon="2.54574">
        <ele>115</ele>
        <time>2022-08-10T11:29:57.695Z</time>
      </trkpt>
      <trkpt lat="48.38205" lon="2.54576">
        <ele>115</ele>
        <time>2022-08-10T11:30:02.647Z</time>
      </trkpt>
      <trkpt lat="48.38208" lon="2.54572">
        <ele>115</ele>
        <time>2022-08-10T11:30:07.674Z</time>
      </trkpt>
      <trkpt lat="48.3821" lon="2.5457">
        <ele>116</ele>
        <time>2022-08-10T11:30:12.652Z</time>
      </trkpt>
      <trkpt lat="48.38214" lon="2.54572">
        <ele>116</ele>
        <time>2022-08-10T11:30:17.646Z</time>
      </trkpt>
      <trkpt lat="48.38218" lon="2.54572">
        <ele>116</ele>
        <time>2022-08-10T11:30:21.656Z</time>
      </trkpt>
      <trkpt lat="48.3822" lon="2.54573">
        <ele>116</ele>
        <time>2022-08-10T11:30:25.677Z</time>
      </trkpt>
      <trkpt lat="48.38226" lon="2.54572">
        <ele>116</ele>
        <time>2022-08-10T11:30:30.657Z</time>
      </trkpt>
      <trkpt lat="48.38227" lon="2.54573">
        <ele>116</ele>
        <time>2022-08-10T11:30:34.669Z</time>
      </trkpt>
      <trkpt lat="48.3823" lon="2.54573">
        <ele>116</ele>
        <time>2022-08-10T11:30:39.672Z</time>
      </trkpt>
      <trkpt lat="48.38233" lon="2.54568">
        <ele>111</ele>
        <time>2022-08-10T11:31:02.683Z</time>
      </trkpt>
      <trkpt lat="48.38235" lon="2.54563">
        <ele>111</ele>
        <time>2022-08-10T11:31:06.678Z</time>
      </trkpt>
      <trkpt lat="48.38237" lon="2.54557">
        <ele>114</ele>
        <time>2022-08-10T11:31:11.653Z</time>
      </trkpt>
      <trkpt lat="48.38237" lon="2.54556">
        <ele>114</ele>
        <time>2022-08-10T11:31:15.687Z</time>
      </trkpt>
      <trkpt lat="48.38237" lon="2.54555">
        <ele>114</ele>
        <time>2022-08-10T11:31:20.662Z</time>
      </trkpt>
      <trkpt lat="48.3824" lon="2.54562">
        <ele>114</ele>
        <time>2022-08-10T11:31:24.686Z</time>
      </trkpt>
      <trkpt lat="48.38241" lon="2.54565">
        <ele>114</ele>
        <time>2022-08-10T11:31:29.656Z</time>
      </trkpt>
      <trkpt lat="48.38244" lon="2.5457">
        <ele>118</ele>
        <time>2022-08-10T11:31:33.651Z</time>
      </trkpt>
      <trkpt lat="48.38247" lon="2.5457">
        <ele>118</ele>
        <time>2022-08-10T11:31:37.679Z</time>
      </trkpt>
      <trkpt lat="48.38252" lon="2.54569">
        <ele>114</ele>
        <time>2022-08-10T11:31:42.701Z</time>
      </trkpt>
      <trkpt lat="48.38255" lon="2.54574">
        <ele>118</ele>
        <time>2022-08-10T11:31:47.675Z</time>
      </trkpt>
      <trkpt lat="48.38258" lon="2.54576">
        <ele>118</ele>
        <time>2022-08-10T11:31:52.643Z</time>
      </trkpt>
      <trkpt lat="48.38263" lon="2.54575">
        <ele>118</ele>
        <time>2022-08-10T11:31:56.686Z</time>
      </trkpt>
      <trkpt lat="48.38267" lon="2.5457">
        <ele>119</ele>
        <time>2022-08-10T11:32:01.670Z</time>
      </trkpt>
      <trkpt lat="48.38272" lon="2.54565">
        <ele>116</ele>
        <time>2022-08-10T11:32:06.655Z</time>
      </trkpt>
      <trkpt lat="48.38275" lon="2.54561">
        <ele>116</ele>
        <time>2022-08-10T11:32:11.664Z</time>
      </trkpt>
      <trkpt lat="48.38277" lon="2.54564">
        <ele>116</ele>
        <time>2022-08-10T11:32:15.701Z</time>
      </trkpt>
      <trkpt lat="48.3828" lon="2.54562">
        <ele>116</ele>
        <time>2022-08-10T11:32:20.673Z</time>
      </trkpt>
      <trkpt lat="48.38283" lon="2.5456">
        <ele>116</ele>
        <time>2022-08-10T11:32:25.675Z</time>
      </trkpt>
      <trkpt lat="48.38286" lon="2.54558">
        <ele>116</ele>
        <time>2022-08-10T11:32:30.671Z</time>
      </trkpt>
      <trkpt lat="48.38284" lon="2.54553">
        <ele>116</ele>
        <time>2022-08-10T11:32:34.651Z</time>
      </trkpt>
      <trkpt lat="48.38285" lon="2.5455">
        <ele>116</ele>
        <time>2022-08-10T11:32:39.674Z</time>
      </trkpt>
      <trkpt lat="48.38286" lon="2.54546">
        <ele>116</ele>
        <time>2022-08-10T11:32:58.640Z</time>
      </trkpt>
      <trkpt lat="48.38288" lon="2.54545">
        <ele>116</ele>
        <time>2022-08-10T11:33:02.662Z</time>
      </trkpt>
      <trkpt lat="48.3829" lon="2.54541">
        <ele>111</ele>
        <time>2022-08-10T11:33:07.661Z</time>
      </trkpt>
      <trkpt lat="48.38293" lon="2.54531">
        <ele>112</ele>
        <time>2022-08-10T11:33:11.659Z</time>
      </trkpt>
      <trkpt lat="48.38296" lon="2.54531">
        <ele>112</ele>
        <time>2022-08-10T11:33:16.652Z</time>
      </trkpt>
      <trkpt lat="48.38298" lon="2.54529">
        <ele>112</ele>
        <time>2022-08-10T11:33:34.650Z</time>
      </trkpt>
      <trkpt lat="48.38298" lon="2.5453">
        <ele>112</ele>
        <time>2022-08-10T11:33:39.654Z</time>
      </trkpt>
      <trkpt lat="48.38299" lon="2.54529">
        <ele>112</ele>
        <time>2022-08-10T11:33:43.650Z</time>
      </trkpt>
      <trkpt lat="48.38302" lon="2.54527">
        <ele>112</ele>
        <time>2022-08-10T11:33:47.694Z</time>
      </trkpt>
      <trkpt lat="48.38303" lon="2.54523">
        <ele>112</ele>
        <time>2022-08-10T11:33:52.648Z</time>
      </trkpt>
      <trkpt lat="48.38303" lon="2.54522">
        <ele>112</ele>
        <time>2022-08-10T11:33:57.675Z</time>
      </trkpt>
      <trkpt lat="48.38304" lon="2.54521">
        <ele>112</ele>
        <time>2022-08-10T11:34:01.650Z</time>
      </trkpt>
      <trkpt lat="48.38306" lon="2.54516">
        <ele>112</ele>
        <time>2022-08-10T11:34:06.674Z</time>
      </trkpt>
      <trkpt lat="48.38306" lon="2.5451">
        <ele>110</ele>
        <time>2022-08-10T11:34:10.660Z</time>
      </trkpt>
      <trkpt lat="48.38307" lon="2.54505">
        <ele>110</ele>
        <time>2022-08-10T11:34:15.644Z</time>
      </trkpt>
      <trkpt lat="48.38308" lon="2.54501">
        <ele>110</ele>
        <time>2022-08-10T11:34:20.640Z</time>
      </trkpt>
      <trkpt lat="48.38307" lon="2.54494">
        <ele>110</ele>
        <time>2022-08-10T11:34:24.672Z</time>
      </trkpt>
      <trkpt lat="48.38308" lon="2.5449">
        <ele>110</ele>
        <time>2022-08-10T11:34:28.661Z</time>
      </trkpt>
      <trkpt lat="48.38314" lon="2.54485">
        <ele>109</ele>
        <time>2022-08-10T11:34:46.637Z</time>
      </trkpt>
      <trkpt lat="48.38313" lon="2.5448">
        <ele>109</ele>
        <time>2022-08-10T11:34:51.638Z</time>
      </trkpt>
      <trkpt lat="48.38313" lon="2.54472">
        <ele>109</ele>
        <time>2022-08-10T11:34:56.626Z</time>
      </trkpt>
      <trkpt lat="48.38312" lon="2.54461">
        <ele>109</ele>
        <time>2022-08-10T11:35:01.631Z</time>
      </trkpt>
      <trkpt lat="48.38314" lon="2.54459">
        <ele>109</ele>
        <time>2022-08-10T11:35:06.628Z</time>
      </trkpt>
      <trkpt lat="48.38314" lon="2.54456">
        <ele>107</ele>
        <time>2022-08-10T11:35:19.640Z</time>
      </trkpt>
      <trkpt lat="48.38315" lon="2.54454">
        <ele>107</ele>
        <time>2022-08-10T11:35:24.633Z</time>
      </trkpt>
      <trkpt lat="48.38316" lon="2.5445">
        <ele>107</ele>
        <time>2022-08-10T11:35:28.665Z</time>
      </trkpt>
      <trkpt lat="48.38318" lon="2.54448">
        <ele>107</ele>
        <time>2022-08-10T11:35:33.659Z</time>
      </trkpt>
      <trkpt lat="48.38317" lon="2.54446">
        <ele>107</ele>
        <time>2022-08-10T11:35:38.666Z</time>
      </trkpt>
      <trkpt lat="48.38318" lon="2.54442">
        <ele>107</ele>
        <time>2022-08-10T11:36:11.646Z</time>
      </trkpt>
      <trkpt lat="48.38319" lon="2.54436">
        <ele>107</ele>
        <time>2022-08-10T11:36:16.630Z</time>
      </trkpt>
      <trkpt lat="48.38321" lon="2.54435">
        <ele>115</ele>
        <time>2022-08-10T11:36:20.640Z</time>
      </trkpt>
      <trkpt lat="48.3832" lon="2.54434">
        <ele>115</ele>
        <time>2022-08-10T11:36:25.632Z</time>
      </trkpt>
      <trkpt lat="48.38319" lon="2.54428">
        <ele>106</ele>
        <time>2022-08-10T11:36:30.649Z</time>
      </trkpt>
      <trkpt lat="48.38318" lon="2.54425">
        <ele>106</ele>
        <time>2022-08-10T11:36:38.636Z</time>
      </trkpt>
      <trkpt lat="48.38317" lon="2.54417">
        <ele>106</ele>
        <time>2022-08-10T11:36:43.632Z</time>
      </trkpt>
      <trkpt lat="48.38317" lon="2.54413">
        <ele>106</ele>
        <time>2022-08-10T11:36:47.631Z</time>
      </trkpt>
      <trkpt lat="48.38318" lon="2.54405">
        <ele>106</ele>
        <time>2022-08-10T11:36:51.638Z</time>
      </trkpt>
      <trkpt lat="48.38319" lon="2.54401">
        <ele>106</ele>
        <time>2022-08-10T11:36:55.640Z</time>
      </trkpt>
      <trkpt lat="48.38318" lon="2.544">
        <ele>106</ele>
        <time>2022-08-10T11:37:04.631Z</time>
      </trkpt>
      <trkpt lat="48.38319" lon="2.54398">
        <ele>106</ele>
        <time>2022-08-10T11:37:08.636Z</time>
      </trkpt>
      <trkpt lat="48.38319" lon="2.54395">
        <ele>106</ele>
        <time>2022-08-10T11:37:13.642Z</time>
      </trkpt>
      <trkpt lat="48.38321" lon="2.54389">
        <ele>113</ele>
        <time>2022-08-10T11:37:17.640Z</time>
      </trkpt>
      <trkpt lat="48.38322" lon="2.54386">
        <ele>113</ele>
        <time>2022-08-10T11:37:21.640Z</time>
      </trkpt>
      <trkpt lat="48.38322" lon="2.54384">
        <ele>113</ele>
        <time>2022-08-10T11:37:26.640Z</time>
      </trkpt>
      <trkpt lat="48.38323" lon="2.54381">
        <ele>113</ele>
        <time>2022-08-10T11:37:30.639Z</time>
      </trkpt>
      <trkpt lat="48.38325" lon="2.54379">
        <ele>113</ele>
        <time>2022-08-10T11:37:34.638Z</time>
      </trkpt>
      <trkpt lat="48.38327" lon="2.54378">
        <ele>113</ele>
        <time>2022-08-10T11:37:39.640Z</time>
      </trkpt>
      <trkpt lat="48.38329" lon="2.54378">
        <ele>113</ele>
        <time>2022-08-10T11:37:43.643Z</time>
      </trkpt>
      <trkpt lat="48.38331" lon="2.54374">
        <ele>110</ele>
        <time>2022-08-10T11:37:51.642Z</time>
      </trkpt>
      <trkpt lat="48.38335" lon="2.5437">
        <ele>110</ele>
        <time>2022-08-10T11:37:56.639Z</time>
      </trkpt>
      <trkpt lat="48.38338" lon="2.54367">
        <ele>110</ele>
        <time>2022-08-10T11:38:00.645Z</time>
      </trkpt>
      <trkpt lat="48.38344" lon="2.54358">
        <ele>110</ele>
        <time>2022-08-10T11:38:05.643Z</time>
      </trkpt>
      <trkpt lat="48.38342" lon="2.54355">
        <ele>110</ele>
        <time>2022-08-10T11:38:09.640Z</time>
      </trkpt>
      <trkpt lat="48.38343" lon="2.54354">
        <ele>110</ele>
        <time>2022-08-10T11:38:13.637Z</time>
      </trkpt>
      <trkpt lat="48.38345" lon="2.54351">
        <ele>110</ele>
        <time>2022-08-10T11:38:17.635Z</time>
      </trkpt>
      <trkpt lat="48.38348" lon="2.5435">
        <ele>114</ele>
        <time>2022-08-10T11:38:22.637Z</time>
      </trkpt>
      <trkpt lat="48.38353" lon="2.54345">
        <ele>112</ele>
        <time>2022-08-10T11:38:26.631Z</time>
      </trkpt>
      <trkpt lat="48.38356" lon="2.54337">
        <ele>112</ele>
        <time>2022-08-10T11:38:30.642Z</time>
      </trkpt>
      <trkpt lat="48.38356" lon="2.5433">
        <ele>112</ele>
        <time>2022-08-10T11:38:34.647Z</time>
      </trkpt>
      <trkpt lat="48.38359" lon="2.54325">
        <ele>112</ele>
        <time>2022-08-10T11:38:39.642Z</time>
      </trkpt>
      <trkpt lat="48.3836" lon="2.54321">
        <ele>112</ele>
        <time>2022-08-10T11:38:43.635Z</time>
      </trkpt>
      <trkpt lat="48.3836" lon="2.54322">
        <ele>112</ele>
        <time>2022-08-10T11:38:47.646Z</time>
      </trkpt>
      <trkpt lat="48.38365" lon="2.54317">
        <ele>110</ele>
        <time>2022-08-10T11:39:13.641Z</time>
      </trkpt>
      <trkpt lat="48.38368" lon="2.54315">
        <ele>110</ele>
        <time>2022-08-10T11:39:17.640Z</time>
      </trkpt>
      <trkpt lat="48.38371" lon="2.54311">
        <ele>110</ele>
        <time>2022-08-10T11:39:21.679Z</time>
      </trkpt>
      <trkpt lat="48.38372" lon="2.54304">
        <ele>110</ele>
        <time>2022-08-10T11:39:26.637Z</time>
      </trkpt>
      <trkpt lat="48.38374" lon="2.54302">
        <ele>110</ele>
        <time>2022-08-10T11:39:30.641Z</time>
      </trkpt>
      <trkpt lat="48.38371" lon="2.54301">
        <ele>110</ele>
        <time>2022-08-10T11:40:44.633Z</time>
      </trkpt>
      <trkpt lat="48.3837" lon="2.54298">
        <ele>110</ele>
        <time>2022-08-10T11:40:48.654Z</time>
      </trkpt>
      <trkpt lat="48.38373" lon="2.54293">
        <ele>110</ele>
        <time>2022-08-10T11:40:52.682Z</time>
      </trkpt>
      <trkpt lat="48.38381" lon="2.5428">
        <ele>108</ele>
        <time>2022-08-10T11:40:56.662Z</time>
      </trkpt>
      <trkpt lat="48.38385" lon="2.54282">
        <ele>108</ele>
        <time>2022-08-10T11:41:01.654Z</time>
      </trkpt>
      <trkpt lat="48.38385" lon="2.54281">
        <ele>108</ele>
        <time>2022-08-10T11:41:18.646Z</time>
      </trkpt>
      <trkpt lat="48.38385" lon="2.54281">
        <ele>108</ele>
        <time>2022-08-10T11:41:23.660Z</time>
      </trkpt>
      <trkpt lat="48.38385" lon="2.54279">
        <ele>108</ele>
        <time>2022-08-10T11:41:27.633Z</time>
      </trkpt>
      <trkpt lat="48.38389" lon="2.54276">
        <ele>108</ele>
        <time>2022-08-10T11:41:31.636Z</time>
      </trkpt>
      <trkpt lat="48.38391" lon="2.54277">
        <ele>108</ele>
        <time>2022-08-10T11:41:36.661Z</time>
      </trkpt>
      <trkpt lat="48.38391" lon="2.54274">
        <ele>108</ele>
        <time>2022-08-10T11:41:40.657Z</time>
      </trkpt>
      <trkpt lat="48.38391" lon="2.5427">
        <ele>108</ele>
        <time>2022-08-10T11:41:44.647Z</time>
      </trkpt>
      <trkpt lat="48.38393" lon="2.54267">
        <ele>108</ele>
        <time>2022-08-10T11:41:49.657Z</time>
      </trkpt>
      <trkpt lat="48.38395" lon="2.54258">
        <ele>106</ele>
        <time>2022-08-10T11:41:53.657Z</time>
      </trkpt>
      <trkpt lat="48.38395" lon="2.54252">
        <ele>106</ele>
        <time>2022-08-10T11:41:57.656Z</time>
      </trkpt>
      <trkpt lat="48.38397" lon="2.54246">
        <ele>106</ele>
        <time>2022-08-10T11:42:02.669Z</time>
      </trkpt>
      <trkpt lat="48.38399" lon="2.54241">
        <ele>106</ele>
        <time>2022-08-10T11:42:06.661Z</time>
      </trkpt>
      <trkpt lat="48.38401" lon="2.54235">
        <ele>103</ele>
        <time>2022-08-10T11:42:10.653Z</time>
      </trkpt>
      <trkpt lat="48.38403" lon="2.54225">
        <ele>106</ele>
        <time>2022-08-10T11:42:15.655Z</time>
      </trkpt>
      <trkpt lat="48.38403" lon="2.54219">
        <ele>106</ele>
        <time>2022-08-10T11:42:19.681Z</time>
      </trkpt>
      <trkpt lat="48.38404" lon="2.54213">
        <ele>106</ele>
        <time>2022-08-10T11:42:23.662Z</time>
      </trkpt>
      <trkpt lat="48.38406" lon="2.54206">
        <ele>103</ele>
        <time>2022-08-10T11:42:28.645Z</time>
      </trkpt>
      <trkpt lat="48.38409" lon="2.54201">
        <ele>103</ele>
        <time>2022-08-10T11:42:32.628Z</time>
      </trkpt>
      <trkpt lat="48.38411" lon="2.54194">
        <ele>103</ele>
        <time>2022-08-10T11:42:36.637Z</time>
      </trkpt>
      <trkpt lat="48.38415" lon="2.54192">
        <ele>103</ele>
        <time>2022-08-10T11:42:40.639Z</time>
      </trkpt>
      <trkpt lat="48.38416" lon="2.5419">
        <ele>103</ele>
        <time>2022-08-10T11:42:45.651Z</time>
      </trkpt>
      <trkpt lat="48.38419" lon="2.54187">
        <ele>103</ele>
        <time>2022-08-10T11:43:01.662Z</time>
      </trkpt>
      <trkpt lat="48.38421" lon="2.54185">
        <ele>103</ele>
        <time>2022-08-10T11:43:06.678Z</time>
      </trkpt>
      <trkpt lat="48.38427" lon="2.5418">
        <ele>102</ele>
        <time>2022-08-10T11:43:10.645Z</time>
      </trkpt>
      <trkpt lat="48.38425" lon="2.54168">
        <ele>102</ele>
        <time>2022-08-10T11:43:14.667Z</time>
      </trkpt>
      <trkpt lat="48.38426" lon="2.54165">
        <ele>102</ele>
        <time>2022-08-10T11:43:18.664Z</time>
      </trkpt>
      <trkpt lat="48.38429" lon="2.54163">
        <ele>102</ele>
        <time>2022-08-10T11:43:28.656Z</time>
      </trkpt>
      <trkpt lat="48.38429" lon="2.54162">
        <ele>102</ele>
        <time>2022-08-10T11:43:32.650Z</time>
      </trkpt>
      <trkpt lat="48.38429" lon="2.5416">
        <ele>102</ele>
        <time>2022-08-10T11:43:36.641Z</time>
      </trkpt>
      <trkpt lat="48.38432" lon="2.54158">
        <ele>109</ele>
        <time>2022-08-10T11:43:40.672Z</time>
      </trkpt>
      <trkpt lat="48.38431" lon="2.54162">
        <ele>109</ele>
        <time>2022-08-10T11:43:44.646Z</time>
      </trkpt>
      <trkpt lat="48.38432" lon="2.54164">
        <ele>109</ele>
        <time>2022-08-10T11:43:53.655Z</time>
      </trkpt>
      <trkpt lat="48.38434" lon="2.54165">
        <ele>109</ele>
        <time>2022-08-10T11:43:57.647Z</time>
      </trkpt>
      <trkpt lat="48.38436" lon="2.54168">
        <ele>109</ele>
        <time>2022-08-10T11:44:01.648Z</time>
      </trkpt>
      <trkpt lat="48.38437" lon="2.5417">
        <ele>109</ele>
        <time>2022-08-10T11:44:05.658Z</time>
      </trkpt>
      <trkpt lat="48.38438" lon="2.54166">
        <ele>109</ele>
        <time>2022-08-10T11:44:09.642Z</time>
      </trkpt>
      <trkpt lat="48.3844" lon="2.54165">
        <ele>109</ele>
        <time>2022-08-10T11:44:48.627Z</time>
      </trkpt>
      <trkpt lat="48.38442" lon="2.54161">
        <ele>109</ele>
        <time>2022-08-10T11:44:52.626Z</time>
      </trkpt>
      <trkpt lat="48.38445" lon="2.54158">
        <ele>109</ele>
        <time>2022-08-10T11:44:56.630Z</time>
      </trkpt>
      <trkpt lat="48.38451" lon="2.54147">
        <ele>110</ele>
        <time>2022-08-10T11:45:01.632Z</time>
      </trkpt>
      <trkpt lat="48.38453" lon="2.54149">
        <ele>110</ele>
        <time>2022-08-10T11:45:05.636Z</time>
      </trkpt>
      <trkpt lat="48.38455" lon="2.54153">
        <ele>109</ele>
        <time>2022-08-10T11:46:00.631Z</time>
      </trkpt>
      <trkpt lat="48.38455" lon="2.54151">
        <ele>110</ele>
        <time>2022-08-10T11:46:05.630Z</time>
      </trkpt>
      <trkpt lat="48.38455" lon="2.54147">
        <ele>110</ele>
        <time>2022-08-10T11:46:09.641Z</time>
      </trkpt>
      <trkpt lat="48.38452" lon="2.54128">
        <ele>110</ele>
        <time>2022-08-10T11:46:14.634Z</time>
      </trkpt>
      <trkpt lat="48.38452" lon="2.54128">
        <ele>110</ele>
        <time>2022-08-10T11:46:18.641Z</time>
      </trkpt>
      <trkpt lat="48.3845" lon="2.54128">
        <ele>110</ele>
        <time>2022-08-10T11:46:23.659Z</time>
      </trkpt>
      <trkpt lat="48.38452" lon="2.54125">
        <ele>110</ele>
        <time>2022-08-10T11:46:27.697Z</time>
      </trkpt>
      <trkpt lat="48.38452" lon="2.54124">
        <ele>111</ele>
        <time>2022-08-10T11:46:32.667Z</time>
      </trkpt>
      <trkpt lat="48.38452" lon="2.54119">
        <ele>111</ele>
        <time>2022-08-10T11:46:37.702Z</time>
      </trkpt>
      <trkpt lat="48.38452" lon="2.54115">
        <ele>111</ele>
        <time>2022-08-10T11:46:42.645Z</time>
      </trkpt>
      <trkpt lat="48.38454" lon="2.54106">
        <ele>111</ele>
        <time>2022-08-10T11:46:47.693Z</time>
      </trkpt>
      <trkpt lat="48.38454" lon="2.54101">
        <ele>111</ele>
        <time>2022-08-10T11:46:52.661Z</time>
      </trkpt>
      <trkpt lat="48.38457" lon="2.54094">
        <ele>113</ele>
        <time>2022-08-10T11:46:56.662Z</time>
      </trkpt>
      <trkpt lat="48.38457" lon="2.54087">
        <ele>113</ele>
        <time>2022-08-10T11:47:01.678Z</time>
      </trkpt>
      <trkpt lat="48.38456" lon="2.5408">
        <ele>113</ele>
        <time>2022-08-10T11:47:06.654Z</time>
      </trkpt>
      <trkpt lat="48.38456" lon="2.54074">
        <ele>113</ele>
        <time>2022-08-10T11:47:11.664Z</time>
      </trkpt>
      <trkpt lat="48.38458" lon="2.54068">
        <ele>114</ele>
        <time>2022-08-10T11:47:15.645Z</time>
      </trkpt>
      <trkpt lat="48.38458" lon="2.54061">
        <ele>114</ele>
        <time>2022-08-10T11:47:19.669Z</time>
      </trkpt>
      <trkpt lat="48.38453" lon="2.54054">
        <ele>114</ele>
        <time>2022-08-10T11:47:23.653Z</time>
      </trkpt>
      <trkpt lat="48.3845" lon="2.54049">
        <ele>114</ele>
        <time>2022-08-10T11:47:27.640Z</time>
      </trkpt>
      <trkpt lat="48.3845" lon="2.54041">
        <ele>114</ele>
        <time>2022-08-10T11:47:31.668Z</time>
      </trkpt>
      <trkpt lat="48.3845" lon="2.54037">
        <ele>114</ele>
        <time>2022-08-10T11:47:36.682Z</time>
      </trkpt>
      <trkpt lat="48.38448" lon="2.54036">
        <ele>114</ele>
        <time>2022-08-10T11:47:41.659Z</time>
      </trkpt>
      <trkpt lat="48.38445" lon="2.54034">
        <ele>114</ele>
        <time>2022-08-10T11:47:45.679Z</time>
      </trkpt>
      <trkpt lat="48.38441" lon="2.5403">
        <ele>114</ele>
        <time>2022-08-10T11:47:49.664Z</time>
      </trkpt>
      <trkpt lat="48.3844" lon="2.54025">
        <ele>114</ele>
        <time>2022-08-10T11:47:54.668Z</time>
      </trkpt>
      <trkpt lat="48.3844" lon="2.54021">
        <ele>114</ele>
        <time>2022-08-10T11:48:07.663Z</time>
      </trkpt>
      <trkpt lat="48.38442" lon="2.54019">
        <ele>114</ele>
        <time>2022-08-10T11:48:12.649Z</time>
      </trkpt>
      <trkpt lat="48.38444" lon="2.54011">
        <ele>114</ele>
        <time>2022-08-10T11:48:17.666Z</time>
      </trkpt>
      <trkpt lat="48.38443" lon="2.54009">
        <ele>114</ele>
        <time>2022-08-10T11:48:21.651Z</time>
      </trkpt>
      <trkpt lat="48.38444" lon="2.5401">
        <ele>114</ele>
        <time>2022-08-10T11:48:26.664Z</time>
      </trkpt>
      <trkpt lat="48.38447" lon="2.54011">
        <ele>114</ele>
        <time>2022-08-10T11:48:31.671Z</time>
      </trkpt>
      <trkpt lat="48.3845" lon="2.54007">
        <ele>114</ele>
        <time>2022-08-10T11:48:36.659Z</time>
      </trkpt>
      <trkpt lat="48.38453" lon="2.54">
        <ele>114</ele>
        <time>2022-08-10T11:48:41.643Z</time>
      </trkpt>
      <trkpt lat="48.38455" lon="2.53993">
        <ele>114</ele>
        <time>2022-08-10T11:48:45.667Z</time>
      </trkpt>
      <trkpt lat="48.38455" lon="2.53986">
        <ele>114</ele>
        <time>2022-08-10T11:50:32.677Z</time>
      </trkpt>
      <trkpt lat="48.38453" lon="2.53979">
        <ele>113</ele>
        <time>2022-08-10T11:50:37.685Z</time>
      </trkpt>
      <trkpt lat="48.3845" lon="2.53975">
        <ele>113</ele>
        <time>2022-08-10T11:50:41.675Z</time>
      </trkpt>
      <trkpt lat="48.38458" lon="2.53959">
        <ele>113</ele>
        <time>2022-08-10T11:50:45.677Z</time>
      </trkpt>
      <trkpt lat="48.38458" lon="2.53959">
        <ele>113</ele>
        <time>2022-08-10T11:50:50.675Z</time>
      </trkpt>
      <trkpt lat="48.38458" lon="2.53958">
        <ele>113</ele>
        <time>2022-08-10T11:52:46.662Z</time>
      </trkpt>
      <trkpt lat="48.38458" lon="2.53958">
        <ele>113</ele>
        <time>2022-08-10T11:52:51.654Z</time>
      </trkpt>
      <trkpt lat="48.38458" lon="2.53955">
        <ele>111</ele>
        <time>2022-08-10T11:52:55.681Z</time>
      </trkpt>
      <trkpt lat="48.38462" lon="2.53955">
        <ele>115</ele>
        <time>2022-08-10T11:52:59.672Z</time>
      </trkpt>
      <trkpt lat="48.38463" lon="2.53955">
        <ele>115</ele>
        <time>2022-08-10T11:53:03.654Z</time>
      </trkpt>
      <trkpt lat="48.38464" lon="2.53955">
        <ele>115</ele>
        <time>2022-08-10T11:53:46.666Z</time>
      </trkpt>
      <trkpt lat="48.38465" lon="2.53957">
        <ele>115</ele>
        <time>2022-08-10T11:53:51.686Z</time>
      </trkpt>
      <trkpt lat="48.38467" lon="2.53958">
        <ele>115</ele>
        <time>2022-08-10T11:53:56.673Z</time>
      </trkpt>
      <trkpt lat="48.38469" lon="2.53949">
        <ele>115</ele>
        <time>2022-08-10T11:54:01.667Z</time>
      </trkpt>
      <trkpt lat="48.38472" lon="2.53945">
        <ele>115</ele>
        <time>2022-08-10T11:54:05.662Z</time>
      </trkpt>
      <trkpt lat="48.38473" lon="2.53942">
        <ele>115</ele>
        <time>2022-08-10T11:54:10.671Z</time>
      </trkpt>
      <trkpt lat="48.38475" lon="2.5394">
        <ele>115</ele>
        <time>2022-08-10T11:54:14.679Z</time>
      </trkpt>
      <trkpt lat="48.38476" lon="2.53937">
        <ele>115</ele>
        <time>2022-08-10T11:54:19.679Z</time>
      </trkpt>
      <trkpt lat="48.38475" lon="2.53934">
        <ele>115</ele>
        <time>2022-08-10T11:54:24.669Z</time>
      </trkpt>
      <trkpt lat="48.38475" lon="2.53929">
        <ele>115</ele>
        <time>2022-08-10T11:54:29.663Z</time>
      </trkpt>
      <trkpt lat="48.38476" lon="2.53926">
        <ele>115</ele>
        <time>2022-08-10T11:54:33.673Z</time>
      </trkpt>
      <trkpt lat="48.38474" lon="2.53919">
        <ele>115</ele>
        <time>2022-08-10T11:54:38.688Z</time>
      </trkpt>
      <trkpt lat="48.3847" lon="2.53917">
        <ele>115</ele>
        <time>2022-08-10T11:54:43.659Z</time>
      </trkpt>
      <trkpt lat="48.38469" lon="2.53917">
        <ele>115</ele>
        <time>2022-08-10T11:54:47.690Z</time>
      </trkpt>
      <trkpt lat="48.3847" lon="2.53915">
        <ele>115</ele>
        <time>2022-08-10T11:55:26.629Z</time>
      </trkpt>
      <trkpt lat="48.38471" lon="2.53908">
        <ele>115</ele>
        <time>2022-08-10T11:55:31.641Z</time>
      </trkpt>
      <trkpt lat="48.38471" lon="2.53902">
        <ele>114</ele>
        <time>2022-08-10T11:55:35.647Z</time>
      </trkpt>
      <trkpt lat="48.38461" lon="2.53885">
        <ele>114</ele>
        <time>2022-08-10T11:55:40.634Z</time>
      </trkpt>
      <trkpt lat="48.38458" lon="2.53881">
        <ele>109</ele>
        <time>2022-08-10T11:55:45.634Z</time>
      </trkpt>
      <trkpt lat="48.38459" lon="2.53881">
        <ele>114</ele>
        <time>2022-08-10T11:55:49.641Z</time>
      </trkpt>
      <trkpt lat="48.38458" lon="2.53881">
        <ele>109</ele>
        <time>2022-08-10T11:55:53.639Z</time>
      </trkpt>
      <trkpt lat="48.38458" lon="2.5388">
        <ele>109</ele>
        <time>2022-08-10T11:55:58.641Z</time>
      </trkpt>
      <trkpt lat="48.38459" lon="2.53879">
        <ele>114</ele>
        <time>2022-08-10T11:56:03.639Z</time>
      </trkpt>
      <trkpt lat="48.38459" lon="2.53877">
        <ele>114</ele>
        <time>2022-08-10T11:56:08.643Z</time>
      </trkpt>
      <trkpt lat="48.38462" lon="2.53874">
        <ele>113</ele>
        <time>2022-08-10T11:57:00.637Z</time>
      </trkpt>
      <trkpt lat="48.38464" lon="2.53869">
        <ele>113</ele>
        <time>2022-08-10T11:57:04.639Z</time>
      </trkpt>
      <trkpt lat="48.38465" lon="2.53868">
        <ele>113</ele>
        <time>2022-08-10T11:57:09.632Z</time>
      </trkpt>
      <trkpt lat="48.38472" lon="2.53862">
        <ele>113</ele>
        <time>2022-08-10T11:57:13.638Z</time>
      </trkpt>
      <trkpt lat="48.38471" lon="2.53861">
        <ele>113</ele>
        <time>2022-08-10T11:57:18.632Z</time>
      </trkpt>
      <trkpt lat="48.38471" lon="2.53857">
        <ele>113</ele>
        <time>2022-08-10T11:57:23.628Z</time>
      </trkpt>
      <trkpt lat="48.38472" lon="2.53856">
        <ele>113</ele>
        <time>2022-08-10T11:57:27.635Z</time>
      </trkpt>
      <trkpt lat="48.38473" lon="2.53855">
        <ele>113</ele>
        <time>2022-08-10T11:57:32.643Z</time>
      </trkpt>
      <trkpt lat="48.38472" lon="2.53854">
        <ele>113</ele>
        <time>2022-08-10T11:57:37.631Z</time>
      </trkpt>
      <trkpt lat="48.38472" lon="2.53849">
        <ele>113</ele>
        <time>2022-08-10T11:57:41.633Z</time>
      </trkpt>
      <trkpt lat="48.38474" lon="2.53846">
        <ele>112</ele>
        <time>2022-08-10T11:57:51.637Z</time>
      </trkpt>
      <trkpt lat="48.38475" lon="2.53843">
        <ele>112</ele>
        <time>2022-08-10T11:57:56.625Z</time>
      </trkpt>
      <trkpt lat="48.38477" lon="2.53842">
        <ele>112</ele>
        <time>2022-08-10T11:58:00.634Z</time>
      </trkpt>
      <trkpt lat="48.38481" lon="2.53834">
        <ele>112</ele>
        <time>2022-08-10T11:58:04.644Z</time>
      </trkpt>
      <trkpt lat="48.38483" lon="2.53832">
        <ele>112</ele>
        <time>2022-08-10T11:58:09.635Z</time>
      </trkpt>
      <trkpt lat="48.38484" lon="2.53832">
        <ele>112</ele>
        <time>2022-08-10T11:59:14.640Z</time>
      </trkpt>
      <trkpt lat="48.38485" lon="2.53829">
        <ele>112</ele>
        <time>2022-08-10T11:59:18.639Z</time>
      </trkpt>
      <trkpt lat="48.38485" lon="2.53827">
        <ele>112</ele>
        <time>2022-08-10T11:59:23.643Z</time>
      </trkpt>
      <trkpt lat="48.38485" lon="2.53818">
        <ele>110</ele>
        <time>2022-08-10T11:59:28.637Z</time>
      </trkpt>
      <trkpt lat="48.38485" lon="2.53817">
        <ele>110</ele>
        <time>2022-08-10T11:59:32.640Z</time>
      </trkpt>
      <trkpt lat="48.38488" lon="2.53813">
        <ele>115</ele>
        <time>2022-08-10T12:02:06.652Z</time>
      </trkpt>
      <trkpt lat="48.38488" lon="2.53814">
        <ele>115</ele>
        <time>2022-08-10T12:02:11.660Z</time>
      </trkpt>
      <trkpt lat="48.3849" lon="2.53812">
        <ele>115</ele>
        <time>2022-08-10T12:02:16.649Z</time>
      </trkpt>
      <trkpt lat="48.38495" lon="2.5382">
        <ele>117</ele>
        <time>2022-08-10T12:02:20.654Z</time>
      </trkpt>
      <trkpt lat="48.38495" lon="2.53822">
        <ele>117</ele>
        <time>2022-08-10T12:02:25.644Z</time>
      </trkpt>
      <trkpt lat="48.38497" lon="2.53821">
        <ele>117</ele>
        <time>2022-08-10T12:02:29.664Z</time>
      </trkpt>
      <trkpt lat="48.38498" lon="2.53821">
        <ele>117</ele>
        <time>2022-08-10T12:02:33.671Z</time>
      </trkpt>
      <trkpt lat="48.385" lon="2.53819">
        <ele>115</ele>
        <time>2022-08-10T12:02:38.673Z</time>
      </trkpt>
      <trkpt lat="48.38502" lon="2.5382">
        <ele>117</ele>
        <time>2022-08-10T12:02:43.645Z</time>
      </trkpt>
      <trkpt lat="48.38505" lon="2.53822">
        <ele>117</ele>
        <time>2022-08-10T12:02:47.656Z</time>
      </trkpt>
      <trkpt lat="48.38509" lon="2.53826">
        <ele>117</ele>
        <time>2022-08-10T12:02:51.661Z</time>
      </trkpt>
      <trkpt lat="48.38513" lon="2.53825">
        <ele>117</ele>
        <time>2022-08-10T12:02:56.658Z</time>
      </trkpt>
      <trkpt lat="48.38516" lon="2.53829">
        <ele>119</ele>
        <time>2022-08-10T12:03:01.685Z</time>
      </trkpt>
      <trkpt lat="48.38519" lon="2.53829">
        <ele>119</ele>
        <time>2022-08-10T12:03:06.654Z</time>
      </trkpt>
      <trkpt lat="48.38524" lon="2.53833">
        <ele>119</ele>
        <time>2022-08-10T12:03:11.641Z</time>
      </trkpt>
      <trkpt lat="48.3853" lon="2.53839">
        <ele>119</ele>
        <time>2022-08-10T12:03:15.638Z</time>
      </trkpt>
      <trkpt lat="48.38534" lon="2.53844">
        <ele>119</ele>
        <time>2022-08-10T12:03:20.645Z</time>
      </trkpt>
      <trkpt lat="48.38537" lon="2.53841">
        <ele>119</ele>
        <time>2022-08-10T12:03:25.658Z</time>
      </trkpt>
      <trkpt lat="48.38538" lon="2.53838">
        <ele>119</ele>
        <time>2022-08-10T12:03:30.641Z</time>
      </trkpt>
      <trkpt lat="48.38541" lon="2.53834">
        <ele>119</ele>
        <time>2022-08-10T12:03:34.652Z</time>
      </trkpt>
      <trkpt lat="48.38546" lon="2.53832">
        <ele>118</ele>
        <time>2022-08-10T12:03:38.670Z</time>
      </trkpt>
      <trkpt lat="48.38548" lon="2.53832">
        <ele>118</ele>
        <time>2022-08-10T12:03:43.673Z</time>
      </trkpt>
      <trkpt lat="48.38549" lon="2.5383">
        <ele>118</ele>
        <time>2022-08-10T12:03:47.661Z</time>
      </trkpt>
      <trkpt lat="48.38551" lon="2.53827">
        <ele>118</ele>
        <time>2022-08-10T12:03:52.658Z</time>
      </trkpt>
      <trkpt lat="48.38554" lon="2.53822">
        <ele>118</ele>
        <time>2022-08-10T12:03:56.668Z</time>
      </trkpt>
      <trkpt lat="48.38556" lon="2.5382">
        <ele>118</ele>
        <time>2022-08-10T12:04:00.678Z</time>
      </trkpt>
      <trkpt lat="48.3856" lon="2.53816">
        <ele>117</ele>
        <time>2022-08-10T12:04:05.675Z</time>
      </trkpt>
      <trkpt lat="48.38564" lon="2.53813">
        <ele>117</ele>
        <time>2022-08-10T12:04:09.664Z</time>
      </trkpt>
      <trkpt lat="48.38567" lon="2.53809">
        <ele>117</ele>
        <time>2022-08-10T12:04:13.659Z</time>
      </trkpt>
      <trkpt lat="48.3857" lon="2.53803">
        <ele>118</ele>
        <time>2022-08-10T12:04:18.669Z</time>
      </trkpt>
      <trkpt lat="48.38572" lon="2.53795">
        <ele>118</ele>
        <time>2022-08-10T12:04:31.648Z</time>
      </trkpt>
      <trkpt lat="48.38577" lon="2.5379">
        <ele>116</ele>
        <time>2022-08-10T12:04:35.642Z</time>
      </trkpt>
      <trkpt lat="48.38583" lon="2.53786">
        <ele>116</ele>
        <time>2022-08-10T12:04:40.639Z</time>
      </trkpt>
      <trkpt lat="48.38592" lon="2.53784">
        <ele>116</ele>
        <time>2022-08-10T12:04:44.664Z</time>
      </trkpt>
      <trkpt lat="48.38592" lon="2.53782">
        <ele>116</ele>
        <time>2022-08-10T12:04:48.662Z</time>
      </trkpt>
      <trkpt lat="48.38592" lon="2.53781">
        <ele>116</ele>
        <time>2022-08-10T12:04:53.659Z</time>
      </trkpt>
      <trkpt lat="48.38593" lon="2.53781">
        <ele>116</ele>
        <time>2022-08-10T12:04:57.667Z</time>
      </trkpt>
      <trkpt lat="48.38596" lon="2.5378">
        <ele>116</ele>
        <time>2022-08-10T12:05:01.645Z</time>
      </trkpt>
      <trkpt lat="48.38601" lon="2.5378">
        <ele>116</ele>
        <time>2022-08-10T12:05:06.658Z</time>
      </trkpt>
      <trkpt lat="48.38604" lon="2.5378">
        <ele>116</ele>
        <time>2022-08-10T12:05:27.652Z</time>
      </trkpt>
      <trkpt lat="48.38607" lon="2.53775">
        <ele>116</ele>
        <time>2022-08-10T12:05:32.665Z</time>
      </trkpt>
      <trkpt lat="48.38608" lon="2.53764">
        <ele>116</ele>
        <time>2022-08-10T12:05:36.644Z</time>
      </trkpt>
      <trkpt lat="48.38613" lon="2.53756">
        <ele>115</ele>
        <time>2022-08-10T12:05:40.628Z</time>
      </trkpt>
      <trkpt lat="48.38615" lon="2.53755">
        <ele>115</ele>
        <time>2022-08-10T12:05:44.668Z</time>
      </trkpt>
      <trkpt lat="48.38617" lon="2.53754">
        <ele>115</ele>
        <time>2022-08-10T12:05:49.675Z</time>
      </trkpt>
      <trkpt lat="48.38619" lon="2.53754">
        <ele>115</ele>
        <time>2022-08-10T12:05:53.669Z</time>
      </trkpt>
      <trkpt lat="48.38622" lon="2.53754">
        <ele>115</ele>
        <time>2022-08-10T12:05:57.666Z</time>
      </trkpt>
      <trkpt lat="48.38625" lon="2.53755">
        <ele>112</ele>
        <time>2022-08-10T12:06:02.671Z</time>
      </trkpt>
      <trkpt lat="48.38626" lon="2.53751">
        <ele>112</ele>
        <time>2022-08-10T12:06:24.667Z</time>
      </trkpt>
      <trkpt lat="48.38628" lon="2.53747">
        <ele>112</ele>
        <time>2022-08-10T12:06:28.637Z</time>
      </trkpt>
      <trkpt lat="48.38632" lon="2.53743">
        <ele>112</ele>
        <time>2022-08-10T12:06:32.677Z</time>
      </trkpt>
      <trkpt lat="48.38638" lon="2.53741">
        <ele>112</ele>
        <time>2022-08-10T12:06:37.667Z</time>
      </trkpt>
      <trkpt lat="48.3864" lon="2.53744">
        <ele>112</ele>
        <time>2022-08-10T12:06:41.667Z</time>
      </trkpt>
      <trkpt lat="48.38645" lon="2.53746">
        <ele>112</ele>
        <time>2022-08-10T12:06:46.696Z</time>
      </trkpt>
      <trkpt lat="48.38649" lon="2.53743">
        <ele>112</ele>
        <time>2022-08-10T12:06:50.648Z</time>
      </trkpt>
      <trkpt lat="48.3865" lon="2.53739">
        <ele>112</ele>
        <time>2022-08-10T12:06:54.638Z</time>
      </trkpt>
      <trkpt lat="48.3865" lon="2.53734">
        <ele>110</ele>
        <time>2022-08-10T12:06:59.654Z</time>
      </trkpt>
      <trkpt lat="48.38652" lon="2.53728">
        <ele>110</ele>
        <time>2022-08-10T12:07:03.666Z</time>
      </trkpt>
      <trkpt lat="48.38656" lon="2.5373">
        <ele>105</ele>
        <time>2022-08-10T12:07:07.648Z</time>
      </trkpt>
      <trkpt lat="48.3866" lon="2.5373">
        <ele>105</ele>
        <time>2022-08-10T12:07:11.664Z</time>
      </trkpt>
      <trkpt lat="48.38661" lon="2.53728">
        <ele>105</ele>
        <time>2022-08-10T12:07:16.668Z</time>
      </trkpt>
      <trkpt lat="48.38662" lon="2.53728">
        <ele>105</ele>
        <time>2022-08-10T12:07:21.654Z</time>
      </trkpt>
      <trkpt lat="48.38666" lon="2.53723">
        <ele>105</ele>
        <time>2022-08-10T12:07:25.650Z</time>
      </trkpt>
      <trkpt lat="48.38665" lon="2.53718">
        <ele>105</ele>
        <time>2022-08-10T12:07:29.676Z</time>
      </trkpt>
      <trkpt lat="48.38664" lon="2.53713">
        <ele>105</ele>
        <time>2022-08-10T12:07:34.642Z</time>
      </trkpt>
      <trkpt lat="48.38665" lon="2.53709">
        <ele>105</ele>
        <time>2022-08-10T12:07:38.631Z</time>
      </trkpt>
      <trkpt lat="48.38665" lon="2.53706">
        <ele>102</ele>
        <time>2022-08-10T12:07:42.644Z</time>
      </trkpt>
      <trkpt lat="48.38665" lon="2.53702">
        <ele>102</ele>
        <time>2022-08-10T12:08:03.641Z</time>
      </trkpt>
      <trkpt lat="48.38667" lon="2.53699">
        <ele>102</ele>
        <time>2022-08-10T12:08:08.663Z</time>
      </trkpt>
      <trkpt lat="48.38668" lon="2.53694">
        <ele>102</ele>
        <time>2022-08-10T12:08:12.666Z</time>
      </trkpt>
      <trkpt lat="48.38679" lon="2.53691">
        <ele>102</ele>
        <time>2022-08-10T12:08:16.639Z</time>
      </trkpt>
      <trkpt lat="48.38683" lon="2.53693">
        <ele>98</ele>
        <time>2022-08-10T12:08:20.677Z</time>
      </trkpt>
      <trkpt lat="48.38685" lon="2.53689">
        <ele>98</ele>
        <time>2022-08-10T12:08:38.650Z</time>
      </trkpt>
      <trkpt lat="48.38685" lon="2.53686">
        <ele>98</ele>
        <time>2022-08-10T12:08:42.665Z</time>
      </trkpt>
      <trkpt lat="48.38686" lon="2.53685">
        <ele>98</ele>
        <time>2022-08-10T12:08:47.635Z</time>
      </trkpt>
      <trkpt lat="48.38691" lon="2.53685">
        <ele>98</ele>
        <time>2022-08-10T12:08:51.667Z</time>
      </trkpt>
      <trkpt lat="48.38692" lon="2.53683">
        <ele>98</ele>
        <time>2022-08-10T12:08:56.626Z</time>
      </trkpt>
      <trkpt lat="48.38695" lon="2.53679">
        <ele>97</ele>
        <time>2022-08-10T12:09:01.628Z</time>
      </trkpt>
      <trkpt lat="48.38695" lon="2.53676">
        <ele>97</ele>
        <time>2022-08-10T12:09:06.625Z</time>
      </trkpt>
      <trkpt lat="48.38697" lon="2.53673">
        <ele>97</ele>
        <time>2022-08-10T12:09:11.632Z</time>
      </trkpt>
      <trkpt lat="48.387" lon="2.53669">
        <ele>97</ele>
        <time>2022-08-10T12:09:15.627Z</time>
      </trkpt>
      <trkpt lat="48.387" lon="2.53665">
        <ele>97</ele>
        <time>2022-08-10T12:09:33.635Z</time>
      </trkpt>
      <trkpt lat="48.38703" lon="2.5366">
        <ele>97</ele>
        <time>2022-08-10T12:09:38.635Z</time>
      </trkpt>
      <trkpt lat="48.38705" lon="2.53656">
        <ele>97</ele>
        <time>2022-08-10T12:09:43.630Z</time>
      </trkpt>
      <trkpt lat="48.38708" lon="2.53646">
        <ele>95</ele>
        <time>2022-08-10T12:09:48.615Z</time>
      </trkpt>
      <trkpt lat="48.3871" lon="2.53642">
        <ele>97</ele>
        <time>2022-08-10T12:09:53.623Z</time>
      </trkpt>
      <trkpt lat="48.38711" lon="2.53642">
        <ele>97</ele>
        <time>2022-08-10T12:10:07.627Z</time>
      </trkpt>
      <trkpt lat="48.3871" lon="2.5364">
        <ele>97</ele>
        <time>2022-08-10T12:10:12.627Z</time>
      </trkpt>
      <trkpt lat="48.38708" lon="2.53635">
        <ele>97</ele>
        <time>2022-08-10T12:10:16.630Z</time>
      </trkpt>
      <trkpt lat="48.38715" lon="2.5363">
        <ele>97</ele>
        <time>2022-08-10T12:10:21.637Z</time>
      </trkpt>
      <trkpt lat="48.38717" lon="2.53629">
        <ele>97</ele>
        <time>2022-08-10T12:10:26.631Z</time>
      </trkpt>
      <trkpt lat="48.38718" lon="2.53631">
        <ele>97</ele>
        <time>2022-08-10T12:11:35.631Z</time>
      </trkpt>
      <trkpt lat="48.38718" lon="2.53634">
        <ele>97</ele>
        <time>2022-08-10T12:11:39.639Z</time>
      </trkpt>
      <trkpt lat="48.38723" lon="2.53641">
        <ele>97</ele>
        <time>2022-08-10T12:11:43.636Z</time>
      </trkpt>
      <trkpt lat="48.38731" lon="2.53648">
        <ele>97</ele>
        <time>2022-08-10T12:11:48.633Z</time>
      </trkpt>
      <trkpt lat="48.38731" lon="2.53648">
        <ele>97</ele>
        <time>2022-08-10T12:11:52.631Z</time>
      </trkpt>
      <trkpt lat="48.38732" lon="2.53648">
        <ele>97</ele>
        <time>2022-08-10T12:11:56.635Z</time>
      </trkpt>
      <trkpt lat="48.38734" lon="2.53648">
        <ele>97</ele>
        <time>2022-08-10T12:12:01.641Z</time>
      </trkpt>
      <trkpt lat="48.38739" lon="2.53648">
        <ele>103</ele>
        <time>2022-08-10T12:12:05.644Z</time>
      </trkpt>
      <trkpt lat="48.38741" lon="2.53647">
        <ele>103</ele>
        <time>2022-08-10T12:12:10.637Z</time>
      </trkpt>
      <trkpt lat="48.38741" lon="2.53645">
        <ele>103</ele>
        <time>2022-08-10T12:12:14.637Z</time>
      </trkpt>
      <trkpt lat="48.38744" lon="2.53642">
        <ele>103</ele>
        <time>2022-08-10T12:12:27.628Z</time>
      </trkpt>
      <trkpt lat="48.38749" lon="2.53644">
        <ele>103</ele>
        <time>2022-08-10T12:12:31.639Z</time>
      </trkpt>
      <trkpt lat="48.38751" lon="2.53647">
        <ele>103</ele>
        <time>2022-08-10T12:12:35.629Z</time>
      </trkpt>
      <trkpt lat="48.38755" lon="2.53638">
        <ele>103</ele>
        <time>2022-08-10T12:12:40.630Z</time>
      </trkpt>
      <trkpt lat="48.38756" lon="2.53636">
        <ele>103</ele>
        <time>2022-08-10T12:12:44.638Z</time>
      </trkpt>
      <trkpt lat="48.38758" lon="2.53638">
        <ele>103</ele>
        <time>2022-08-10T12:12:57.638Z</time>
      </trkpt>
      <trkpt lat="48.38761" lon="2.53641">
        <ele>103</ele>
        <time>2022-08-10T12:13:01.636Z</time>
      </trkpt>
      <trkpt lat="48.38763" lon="2.53642">
        <ele>103</ele>
        <time>2022-08-10T12:13:05.642Z</time>
      </trkpt>
      <trkpt lat="48.38766" lon="2.53644">
        <ele>111</ele>
        <time>2022-08-10T12:13:09.633Z</time>
      </trkpt>
      <trkpt lat="48.38768" lon="2.53645">
        <ele>111</ele>
        <time>2022-08-10T12:13:14.634Z</time>
      </trkpt>
      <trkpt lat="48.38771" lon="2.53642">
        <ele>111</ele>
        <time>2022-08-10T12:14:01.636Z</time>
      </trkpt>
      <trkpt lat="48.38773" lon="2.5364">
        <ele>111</ele>
        <time>2022-08-10T12:14:05.634Z</time>
      </trkpt>
      <trkpt lat="48.38774" lon="2.53637">
        <ele>111</ele>
        <time>2022-08-10T12:14:09.642Z</time>
      </trkpt>
      <trkpt lat="48.38781" lon="2.53632">
        <ele>111</ele>
        <time>2022-08-10T12:14:14.641Z</time>
      </trkpt>
      <trkpt lat="48.38782" lon="2.53631">
        <ele>111</ele>
        <time>2022-08-10T12:14:18.637Z</time>
      </trkpt>
      <trkpt lat="48.38782" lon="2.5363">
        <ele>111</ele>
        <time>2022-08-10T12:14:40.639Z</time>
      </trkpt>
      <trkpt lat="48.38783" lon="2.53629">
        <ele>111</ele>
        <time>2022-08-10T12:14:44.638Z</time>
      </trkpt>
      <trkpt lat="48.38784" lon="2.53628">
        <ele>111</ele>
        <time>2022-08-10T12:14:48.632Z</time>
      </trkpt>
      <trkpt lat="48.38788" lon="2.53621">
        <ele>110</ele>
        <time>2022-08-10T12:14:53.638Z</time>
      </trkpt>
      <trkpt lat="48.38787" lon="2.5362">
        <ele>110</ele>
        <time>2022-08-10T12:14:57.639Z</time>
      </trkpt>
      <trkpt lat="48.38788" lon="2.53617">
        <ele>110</ele>
        <time>2022-08-10T12:15:10.637Z</time>
      </trkpt>
      <trkpt lat="48.38789" lon="2.53617">
        <ele>110</ele>
        <time>2022-08-10T12:15:15.639Z</time>
      </trkpt>
      <trkpt lat="48.38792" lon="2.53614">
        <ele>114</ele>
        <time>2022-08-10T12:15:19.633Z</time>
      </trkpt>
      <trkpt lat="48.38797" lon="2.53613">
        <ele>114</ele>
        <time>2022-08-10T12:15:23.637Z</time>
      </trkpt>
      <trkpt lat="48.38797" lon="2.53618">
        <ele>114</ele>
        <time>2022-08-10T12:15:28.635Z</time>
      </trkpt>
      <trkpt lat="48.38797" lon="2.53624">
        <ele>114</ele>
        <time>2022-08-10T12:15:32.631Z</time>
      </trkpt>
      <trkpt lat="48.388" lon="2.53624">
        <ele>114</ele>
        <time>2022-08-10T12:15:36.646Z</time>
      </trkpt>
      <trkpt lat="48.38802" lon="2.53624">
        <ele>114</ele>
        <time>2022-08-10T12:15:41.640Z</time>
      </trkpt>
      <trkpt lat="48.38805" lon="2.53627">
        <ele>116</ele>
        <time>2022-08-10T12:15:46.629Z</time>
      </trkpt>
      <trkpt lat="48.38805" lon="2.53632">
        <ele>116</ele>
        <time>2022-08-10T12:15:50.644Z</time>
      </trkpt>
      <trkpt lat="48.38807" lon="2.53635">
        <ele>116</ele>
        <time>2022-08-10T12:15:55.649Z</time>
      </trkpt>
      <trkpt lat="48.38811" lon="2.53638">
        <ele>116</ele>
        <time>2022-08-10T12:15:59.663Z</time>
      </trkpt>
      <trkpt lat="48.38813" lon="2.53642">
        <ele>116</ele>
        <time>2022-08-10T12:16:04.685Z</time>
      </trkpt>
      <trkpt lat="48.38817" lon="2.53648">
        <ele>116</ele>
        <time>2022-08-10T12:16:09.655Z</time>
      </trkpt>
      <trkpt lat="48.3882" lon="2.53651">
        <ele>118</ele>
        <time>2022-08-10T12:16:13.659Z</time>
      </trkpt>
      <trkpt lat="48.38825" lon="2.53656">
        <ele>121</ele>
        <time>2022-08-10T12:16:18.637Z</time>
      </trkpt>
      <trkpt lat="48.38828" lon="2.53666">
        <ele>121</ele>
        <time>2022-08-10T12:16:22.653Z</time>
      </trkpt>
      <trkpt lat="48.38829" lon="2.5367">
        <ele>121</ele>
        <time>2022-08-10T12:16:26.664Z</time>
      </trkpt>
      <trkpt lat="48.38832" lon="2.5367">
        <ele>121</ele>
        <time>2022-08-10T12:16:36.668Z</time>
      </trkpt>
      <trkpt lat="48.38836" lon="2.53668">
        <ele>121</ele>
        <time>2022-08-10T12:16:40.664Z</time>
      </trkpt>
      <trkpt lat="48.38839" lon="2.53668">
        <ele>121</ele>
        <time>2022-08-10T12:16:45.667Z</time>
      </trkpt>
      <trkpt lat="48.3884" lon="2.53669">
        <ele>121</ele>
        <time>2022-08-10T12:16:49.685Z</time>
      </trkpt>
      <trkpt lat="48.38843" lon="2.5367">
        <ele>121</ele>
        <time>2022-08-10T12:16:53.654Z</time>
      </trkpt>
      <trkpt lat="48.38844" lon="2.53668">
        <ele>121</ele>
        <time>2022-08-10T12:16:58.668Z</time>
      </trkpt>
      <trkpt lat="48.38848" lon="2.53669">
        <ele>121</ele>
        <time>2022-08-10T12:17:02.657Z</time>
      </trkpt>
      <trkpt lat="48.38851" lon="2.53663">
        <ele>121</ele>
        <time>2022-08-10T12:17:07.662Z</time>
      </trkpt>
      <trkpt lat="48.38857" lon="2.53656">
        <ele>121</ele>
        <time>2022-08-10T12:17:11.644Z</time>
      </trkpt>
      <trkpt lat="48.3886" lon="2.53651">
        <ele>117</ele>
        <time>2022-08-10T12:17:15.643Z</time>
      </trkpt>
      <trkpt lat="48.38863" lon="2.53645">
        <ele>117</ele>
        <time>2022-08-10T12:17:20.654Z</time>
      </trkpt>
      <trkpt lat="48.38864" lon="2.53644">
        <ele>117</ele>
        <time>2022-08-10T12:17:24.645Z</time>
      </trkpt>
      <trkpt lat="48.38867" lon="2.53641">
        <ele>117</ele>
        <time>2022-08-10T12:17:28.646Z</time>
      </trkpt>
      <trkpt lat="48.3887" lon="2.5364">
        <ele>117</ele>
        <time>2022-08-10T12:17:33.672Z</time>
      </trkpt>
      <trkpt lat="48.38872" lon="2.5364">
        <ele>117</ele>
        <time>2022-08-10T12:17:37.664Z</time>
      </trkpt>
      <trkpt lat="48.38875" lon="2.53637">
        <ele>119</ele>
        <time>2022-08-10T12:17:41.664Z</time>
      </trkpt>
      <trkpt lat="48.38875" lon="2.53633">
        <ele>119</ele>
        <time>2022-08-10T12:17:46.679Z</time>
      </trkpt>
      <trkpt lat="48.38879" lon="2.5363">
        <ele>119</ele>
        <time>2022-08-10T12:17:50.670Z</time>
      </trkpt>
      <trkpt lat="48.38879" lon="2.5363">
        <ele>119</ele>
        <time>2022-08-10T12:17:54.677Z</time>
      </trkpt>
      <trkpt lat="48.38881" lon="2.53631">
        <ele>119</ele>
        <time>2022-08-10T12:17:59.661Z</time>
      </trkpt>
      <trkpt lat="48.38884" lon="2.53633">
        <ele>119</ele>
        <time>2022-08-10T12:18:04.660Z</time>
      </trkpt>
      <trkpt lat="48.38889" lon="2.53639">
        <ele>119</ele>
        <time>2022-08-10T12:18:08.654Z</time>
      </trkpt>
      <trkpt lat="48.38894" lon="2.53641">
        <ele>119</ele>
        <time>2022-08-10T12:18:13.673Z</time>
      </trkpt>
      <trkpt lat="48.38898" lon="2.53637">
        <ele>119</ele>
        <time>2022-08-10T12:18:18.653Z</time>
      </trkpt>
      <trkpt lat="48.389" lon="2.53633">
        <ele>119</ele>
        <time>2022-08-10T12:18:23.664Z</time>
      </trkpt>
      <trkpt lat="48.38903" lon="2.53627">
        <ele>119</ele>
        <time>2022-08-10T12:18:28.671Z</time>
      </trkpt>
      <trkpt lat="48.38907" lon="2.53624">
        <ele>118</ele>
        <time>2022-08-10T12:18:33.643Z</time>
      </trkpt>
      <trkpt lat="48.3891" lon="2.53619">
        <ele>118</ele>
        <time>2022-08-10T12:18:38.626Z</time>
      </trkpt>
      <trkpt lat="48.38915" lon="2.53616">
        <ele>118</ele>
        <time>2022-08-10T12:18:43.645Z</time>
      </trkpt>
      <trkpt lat="48.38918" lon="2.53615">
        <ele>118</ele>
        <time>2022-08-10T12:18:47.650Z</time>
      </trkpt>
      <trkpt lat="48.38922" lon="2.53615">
        <ele>118</ele>
        <time>2022-08-10T12:18:52.636Z</time>
      </trkpt>
      <trkpt lat="48.38926" lon="2.53615">
        <ele>118</ele>
        <time>2022-08-10T12:18:57.659Z</time>
      </trkpt>
      <trkpt lat="48.38929" lon="2.53612">
        <ele>118</ele>
        <time>2022-08-10T12:19:01.628Z</time>
      </trkpt>
      <trkpt lat="48.38934" lon="2.53605">
        <ele>118</ele>
        <time>2022-08-10T12:19:06.637Z</time>
      </trkpt>
      <trkpt lat="48.38938" lon="2.53604">
        <ele>118</ele>
        <time>2022-08-10T12:19:11.652Z</time>
      </trkpt>
      <trkpt lat="48.38943" lon="2.53601">
        <ele>118</ele>
        <time>2022-08-10T12:19:16.629Z</time>
      </trkpt>
      <trkpt lat="48.38948" lon="2.536">
        <ele>118</ele>
        <time>2022-08-10T12:19:20.670Z</time>
      </trkpt>
      <trkpt lat="48.38954" lon="2.53597">
        <ele>115</ele>
        <time>2022-08-10T12:19:25.640Z</time>
      </trkpt>
      <trkpt lat="48.38955" lon="2.53595">
        <ele>115</ele>
        <time>2022-08-10T12:19:30.636Z</time>
      </trkpt>
      <trkpt lat="48.38957" lon="2.53593">
        <ele>115</ele>
        <time>2022-08-10T12:19:34.632Z</time>
      </trkpt>
      <trkpt lat="48.38962" lon="2.5359">
        <ele>117</ele>
        <time>2022-08-10T12:19:39.630Z</time>
      </trkpt>
      <trkpt lat="48.38965" lon="2.53587">
        <ele>117</ele>
        <time>2022-08-10T12:19:43.650Z</time>
      </trkpt>
      <trkpt lat="48.38968" lon="2.53586">
        <ele>117</ele>
        <time>2022-08-10T12:19:48.638Z</time>
      </trkpt>
      <trkpt lat="48.38969" lon="2.53582">
        <ele>117</ele>
        <time>2022-08-10T12:19:53.678Z</time>
      </trkpt>
      <trkpt lat="48.3897" lon="2.5358">
        <ele>117</ele>
        <time>2022-08-10T12:20:52.648Z</time>
      </trkpt>
      <trkpt lat="48.38971" lon="2.53577">
        <ele>117</ele>
        <time>2022-08-10T12:20:57.696Z</time>
      </trkpt>
      <trkpt lat="48.38974" lon="2.53571">
        <ele>117</ele>
        <time>2022-08-10T12:21:02.660Z</time>
      </trkpt>
      <trkpt lat="48.38978" lon="2.53557">
        <ele>114</ele>
        <time>2022-08-10T12:21:07.648Z</time>
      </trkpt>
      <trkpt lat="48.38977" lon="2.53554">
        <ele>114</ele>
        <time>2022-08-10T12:21:12.638Z</time>
      </trkpt>
      <trkpt lat="48.38977" lon="2.5355">
        <ele>114</ele>
        <time>2022-08-10T12:36:32.645Z</time>
      </trkpt>
      <trkpt lat="48.38978" lon="2.53549">
        <ele>114</ele>
        <time>2022-08-10T12:36:36.653Z</time>
      </trkpt>
      <trkpt lat="48.3898" lon="2.53549">
        <ele>114</ele>
        <time>2022-08-10T12:36:40.640Z</time>
      </trkpt>
      <trkpt lat="48.38959" lon="2.533">
        <ele>98</ele>
        <time>2022-08-10T12:36:45.634Z</time>
      </trkpt>
      <trkpt lat="48.38961" lon="2.53295">
        <ele>98</ele>
        <time>2022-08-10T12:36:50.652Z</time>
      </trkpt>
      <trkpt lat="48.38961" lon="2.53291">
        <ele>100</ele>
        <time>2022-08-10T12:37:13.656Z</time>
      </trkpt>
      <trkpt lat="48.38961" lon="2.53287">
        <ele>100</ele>
        <time>2022-08-10T12:37:18.649Z</time>
      </trkpt>
      <trkpt lat="48.38961" lon="2.53282">
        <ele>100</ele>
        <time>2022-08-10T12:37:23.635Z</time>
      </trkpt>
      <trkpt lat="48.38959" lon="2.53273">
        <ele>100</ele>
        <time>2022-08-10T12:37:27.653Z</time>
      </trkpt>
      <trkpt lat="48.38959" lon="2.53272">
        <ele>100</ele>
        <time>2022-08-10T12:37:32.650Z</time>
      </trkpt>
      <trkpt lat="48.38959" lon="2.53269">
        <ele>100</ele>
        <time>2022-08-10T12:37:46.638Z</time>
      </trkpt>
      <trkpt lat="48.38959" lon="2.53267">
        <ele>100</ele>
        <time>2022-08-10T12:37:50.651Z</time>
      </trkpt>
      <trkpt lat="48.38957" lon="2.53265">
        <ele>96</ele>
        <time>2022-08-10T12:37:54.660Z</time>
      </trkpt>
      <trkpt lat="48.38953" lon="2.53261">
        <ele>101</ele>
        <time>2022-08-10T12:37:59.644Z</time>
      </trkpt>
      <trkpt lat="48.38953" lon="2.5326">
        <ele>101</ele>
        <time>2022-08-10T12:38:03.661Z</time>
      </trkpt>
      <trkpt lat="48.38953" lon="2.53259">
        <ele>101</ele>
        <time>2022-08-10T12:38:30.665Z</time>
      </trkpt>
      <trkpt lat="48.38955" lon="2.53253">
        <ele>101</ele>
        <time>2022-08-10T12:38:34.660Z</time>
      </trkpt>
      <trkpt lat="48.38953" lon="2.53251">
        <ele>101</ele>
        <time>2022-08-10T12:38:39.668Z</time>
      </trkpt>
      <trkpt lat="48.38952" lon="2.53241">
        <ele>101</ele>
        <time>2022-08-10T12:38:44.660Z</time>
      </trkpt>
      <trkpt lat="48.38952" lon="2.5324">
        <ele>101</ele>
        <time>2022-08-10T12:38:49.656Z</time>
      </trkpt>
      <trkpt lat="48.38951" lon="2.53239">
        <ele>101</ele>
        <time>2022-08-10T12:38:54.681Z</time>
      </trkpt>
      <trkpt lat="48.38951" lon="2.53235">
        <ele>102</ele>
        <time>2022-08-10T12:38:58.659Z</time>
      </trkpt>
      <trkpt lat="48.38951" lon="2.53234">
        <ele>102</ele>
        <time>2022-08-10T12:39:03.669Z</time>
      </trkpt>
      <trkpt lat="48.3895" lon="2.53234">
        <ele>102</ele>
        <time>2022-08-10T12:39:08.673Z</time>
      </trkpt>
      <trkpt lat="48.38948" lon="2.53232">
        <ele>102</ele>
        <time>2022-08-10T12:39:21.644Z</time>
      </trkpt>
      <trkpt lat="48.38946" lon="2.5323">
        <ele>102</ele>
        <time>2022-08-10T12:39:26.655Z</time>
      </trkpt>
      <trkpt lat="48.38943" lon="2.53225">
        <ele>102</ele>
        <time>2022-08-10T12:39:30.656Z</time>
      </trkpt>
      <trkpt lat="48.38944" lon="2.53224">
        <ele>102</ele>
        <time>2022-08-10T12:39:34.671Z</time>
      </trkpt>
      <trkpt lat="48.38947" lon="2.53219">
        <ele>102</ele>
        <time>2022-08-10T12:39:39.682Z</time>
      </trkpt>
      <trkpt lat="48.38948" lon="2.53217">
        <ele>102</ele>
        <time>2022-08-10T12:40:15.653Z</time>
      </trkpt>
      <trkpt lat="48.38947" lon="2.53214">
        <ele>102</ele>
        <time>2022-08-10T12:40:19.660Z</time>
      </trkpt>
      <trkpt lat="48.38949" lon="2.53208">
        <ele>102</ele>
        <time>2022-08-10T12:40:23.656Z</time>
      </trkpt>
      <trkpt lat="48.38951" lon="2.532">
        <ele>102</ele>
        <time>2022-08-10T12:40:28.656Z</time>
      </trkpt>
      <trkpt lat="48.38951" lon="2.53199">
        <ele>102</ele>
        <time>2022-08-10T12:40:33.665Z</time>
      </trkpt>
      <trkpt lat="48.38949" lon="2.53198">
        <ele>102</ele>
        <time>2022-08-10T12:41:57.630Z</time>
      </trkpt>
      <trkpt lat="48.38946" lon="2.53195">
        <ele>102</ele>
        <time>2022-08-10T12:42:02.626Z</time>
      </trkpt>
      <trkpt lat="48.38946" lon="2.53192">
        <ele>102</ele>
        <time>2022-08-10T12:42:07.642Z</time>
      </trkpt>
      <trkpt lat="48.38947" lon="2.53181">
        <ele>102</ele>
        <time>2022-08-10T12:42:12.627Z</time>
      </trkpt>
      <trkpt lat="48.38945" lon="2.5318">
        <ele>98</ele>
        <time>2022-08-10T12:42:16.633Z</time>
      </trkpt>
      <trkpt lat="48.38943" lon="2.53176">
        <ele>98</ele>
        <time>2022-08-10T12:42:25.634Z</time>
      </trkpt>
      <trkpt lat="48.38943" lon="2.53172">
        <ele>98</ele>
        <time>2022-08-10T12:42:30.640Z</time>
      </trkpt>
      <trkpt lat="48.38944" lon="2.53169">
        <ele>98</ele>
        <time>2022-08-10T12:42:35.628Z</time>
      </trkpt>
      <trkpt lat="48.38947" lon="2.5316">
        <ele>98</ele>
        <time>2022-08-10T12:42:40.629Z</time>
      </trkpt>
      <trkpt lat="48.38947" lon="2.53158">
        <ele>98</ele>
        <time>2022-08-10T12:42:45.631Z</time>
      </trkpt>
      <trkpt lat="48.38946" lon="2.53157">
        <ele>98</ele>
        <time>2022-08-10T12:42:50.635Z</time>
      </trkpt>
      <trkpt lat="48.38941" lon="2.53157">
        <ele>98</ele>
        <time>2022-08-10T12:42:55.640Z</time>
      </trkpt>
      <trkpt lat="48.3894" lon="2.53154">
        <ele>98</ele>
        <time>2022-08-10T12:43:00.626Z</time>
      </trkpt>
      <trkpt lat="48.38938" lon="2.53154">
        <ele>98</ele>
        <time>2022-08-10T12:43:05.639Z</time>
      </trkpt>
      <trkpt lat="48.38939" lon="2.53151">
        <ele>94</ele>
        <time>2022-08-10T12:43:10.621Z</time>
      </trkpt>
      <trkpt lat="48.38942" lon="2.53147">
        <ele>94</ele>
        <time>2022-08-10T12:44:20.627Z</time>
      </trkpt>
      <trkpt lat="48.38944" lon="2.53149">
        <ele>94</ele>
        <time>2022-08-10T12:44:24.642Z</time>
      </trkpt>
      <trkpt lat="48.38944" lon="2.53142">
        <ele>94</ele>
        <time>2022-08-10T12:44:29.629Z</time>
      </trkpt>
      <trkpt lat="48.38941" lon="2.53127">
        <ele>94</ele>
        <time>2022-08-10T12:44:34.628Z</time>
      </trkpt>
      <trkpt lat="48.38942" lon="2.53124">
        <ele>89</ele>
        <time>2022-08-10T12:44:38.641Z</time>
      </trkpt>
      <trkpt lat="48.38943" lon="2.53119">
        <ele>89</ele>
        <time>2022-08-10T12:44:43.641Z</time>
      </trkpt>
      <trkpt lat="48.38942" lon="2.53116">
        <ele>89</ele>
        <time>2022-08-10T12:44:48.638Z</time>
      </trkpt>
      <trkpt lat="48.38943" lon="2.53114">
        <ele>89</ele>
        <time>2022-08-10T12:44:53.660Z</time>
      </trkpt>
      <trkpt lat="48.38945" lon="2.53109">
        <ele>89</ele>
        <time>2022-08-10T12:44:58.640Z</time>
      </trkpt>
      <trkpt lat="48.38941" lon="2.53106">
        <ele>89</ele>
        <time>2022-08-10T12:45:02.628Z</time>
      </trkpt>
      <trkpt lat="48.38938" lon="2.53103">
        <ele>89</ele>
        <time>2022-08-10T12:45:07.645Z</time>
      </trkpt>
      <trkpt lat="48.38936" lon="2.53096">
        <ele>86</ele>
        <time>2022-08-10T12:45:12.631Z</time>
      </trkpt>
      <trkpt lat="48.38936" lon="2.53091">
        <ele>86</ele>
        <time>2022-08-10T12:45:16.632Z</time>
      </trkpt>
      <trkpt lat="48.38934" lon="2.53082">
        <ele>86</ele>
        <time>2022-08-10T12:45:21.629Z</time>
      </trkpt>
      <trkpt lat="48.38929" lon="2.53076">
        <ele>87</ele>
        <time>2022-08-10T12:45:26.637Z</time>
      </trkpt>
      <trkpt lat="48.38925" lon="2.53074">
        <ele>87</ele>
        <time>2022-08-10T12:45:31.636Z</time>
      </trkpt>
      <trkpt lat="48.38921" lon="2.5307">
        <ele>87</ele>
        <time>2022-08-10T12:45:36.627Z</time>
      </trkpt>
      <trkpt lat="48.38917" lon="2.53069">
        <ele>87</ele>
        <time>2022-08-10T12:45:45.632Z</time>
      </trkpt>
      <trkpt lat="48.38913" lon="2.53067">
        <ele>87</ele>
        <time>2022-08-10T12:45:50.630Z</time>
      </trkpt>
      <trkpt lat="48.3891" lon="2.53063">
        <ele>87</ele>
        <time>2022-08-10T12:45:54.629Z</time>
      </trkpt>
      <trkpt lat="48.38906" lon="2.53062">
        <ele>87</ele>
        <time>2022-08-10T12:45:59.622Z</time>
      </trkpt>
      <trkpt lat="48.38903" lon="2.53062">
        <ele>87</ele>
        <time>2022-08-10T12:46:03.628Z</time>
      </trkpt>
      <trkpt lat="48.38902" lon="2.5306">
        <ele>94</ele>
        <time>2022-08-10T12:46:07.629Z</time>
      </trkpt>
      <trkpt lat="48.38901" lon="2.53057">
        <ele>94</ele>
        <time>2022-08-10T12:46:11.630Z</time>
      </trkpt>
      <trkpt lat="48.389" lon="2.53055">
        <ele>94</ele>
        <time>2022-08-10T12:46:16.635Z</time>
      </trkpt>
      <trkpt lat="48.389" lon="2.53052">
        <ele>94</ele>
        <time>2022-08-10T12:46:20.640Z</time>
      </trkpt>
      <trkpt lat="48.38898" lon="2.53049">
        <ele>94</ele>
        <time>2022-08-10T12:46:24.629Z</time>
      </trkpt>
      <trkpt lat="48.38895" lon="2.53045">
        <ele>94</ele>
        <time>2022-08-10T12:46:58.636Z</time>
      </trkpt>
      <trkpt lat="48.38894" lon="2.53043">
        <ele>94</ele>
        <time>2022-08-10T12:47:03.635Z</time>
      </trkpt>
      <trkpt lat="48.38892" lon="2.53041">
        <ele>96</ele>
        <time>2022-08-10T12:47:08.634Z</time>
      </trkpt>
      <trkpt lat="48.38889" lon="2.53035">
        <ele>96</ele>
        <time>2022-08-10T12:47:12.623Z</time>
      </trkpt>
      <trkpt lat="48.38889" lon="2.53034">
        <ele>96</ele>
        <time>2022-08-10T12:47:17.624Z</time>
      </trkpt>
      <trkpt lat="48.38887" lon="2.53034">
        <ele>96</ele>
        <time>2022-08-10T12:47:27.635Z</time>
      </trkpt>
      <trkpt lat="48.38886" lon="2.53035">
        <ele>96</ele>
        <time>2022-08-10T12:47:31.625Z</time>
      </trkpt>
      <trkpt lat="48.38883" lon="2.53035">
        <ele>96</ele>
        <time>2022-08-10T12:47:36.631Z</time>
      </trkpt>
      <trkpt lat="48.38882" lon="2.53031">
        <ele>96</ele>
        <time>2022-08-10T12:47:41.631Z</time>
      </trkpt>
      <trkpt lat="48.38882" lon="2.53028">
        <ele>96</ele>
        <time>2022-08-10T12:47:45.629Z</time>
      </trkpt>
      <trkpt lat="48.38883" lon="2.53024">
        <ele>96</ele>
        <time>2022-08-10T12:48:11.627Z</time>
      </trkpt>
      <trkpt lat="48.38883" lon="2.53021">
        <ele>96</ele>
        <time>2022-08-10T12:48:15.623Z</time>
      </trkpt>
      <trkpt lat="48.38881" lon="2.53021">
        <ele>96</ele>
        <time>2022-08-10T12:48:20.628Z</time>
      </trkpt>
      <trkpt lat="48.38875" lon="2.53014">
        <ele>96</ele>
        <time>2022-08-10T12:48:24.631Z</time>
      </trkpt>
      <trkpt lat="48.38875" lon="2.53011">
        <ele>98</ele>
        <time>2022-08-10T12:48:28.643Z</time>
      </trkpt>
      <trkpt lat="48.38873" lon="2.53008">
        <ele>102</ele>
        <time>2022-08-10T12:48:41.632Z</time>
      </trkpt>
      <trkpt lat="48.3887" lon="2.53007">
        <ele>102</ele>
        <time>2022-08-10T12:48:45.621Z</time>
      </trkpt>
      <trkpt lat="48.38869" lon="2.53008">
        <ele>102</ele>
        <time>2022-08-10T12:48:49.620Z</time>
      </trkpt>
      <trkpt lat="48.38873" lon="2.53004">
        <ele>102</ele>
        <time>2022-08-10T12:48:53.623Z</time>
      </trkpt>
      <trkpt lat="48.38873" lon="2.53">
        <ele>102</ele>
        <time>2022-08-10T12:48:58.630Z</time>
      </trkpt>
      <trkpt lat="48.38871" lon="2.52999">
        <ele>102</ele>
        <time>2022-08-10T12:53:16.651Z</time>
      </trkpt>
      <trkpt lat="48.38868" lon="2.52998">
        <ele>102</ele>
        <time>2022-08-10T12:53:21.637Z</time>
      </trkpt>
      <trkpt lat="48.38865" lon="2.52994">
        <ele>102</ele>
        <time>2022-08-10T12:53:26.627Z</time>
      </trkpt>
      <trkpt lat="48.38861" lon="2.52997">
        <ele>102</ele>
        <time>2022-08-10T12:53:30.619Z</time>
      </trkpt>
      <trkpt lat="48.38862" lon="2.52999">
        <ele>102</ele>
        <time>2022-08-10T12:53:35.632Z</time>
      </trkpt>
      <trkpt lat="48.38861" lon="2.53003">
        <ele>102</ele>
        <time>2022-08-10T12:53:40.651Z</time>
      </trkpt>
      <trkpt lat="48.38859" lon="2.53004">
        <ele>102</ele>
        <time>2022-08-10T12:53:44.658Z</time>
      </trkpt>
      <trkpt lat="48.38859" lon="2.53004">
        <ele>102</ele>
        <time>2022-08-10T12:53:49.647Z</time>
      </trkpt>
      <trkpt lat="48.3886" lon="2.53002">
        <ele>102</ele>
        <time>2022-08-10T12:53:53.656Z</time>
      </trkpt>
      <trkpt lat="48.38862" lon="2.52999">
        <ele>102</ele>
        <time>2022-08-10T12:53:58.653Z</time>
      </trkpt>
      <trkpt lat="48.38863" lon="2.52994">
        <ele>102</ele>
        <time>2022-08-10T12:54:15.622Z</time>
      </trkpt>
      <trkpt lat="48.38862" lon="2.5299">
        <ele>102</ele>
        <time>2022-08-10T12:54:19.642Z</time>
      </trkpt>
      <trkpt lat="48.38862" lon="2.52986">
        <ele>103</ele>
        <time>2022-08-10T12:54:23.649Z</time>
      </trkpt>
      <trkpt lat="48.38858" lon="2.52984">
        <ele>103</ele>
        <time>2022-08-10T12:54:27.661Z</time>
      </trkpt>
      <trkpt lat="48.38857" lon="2.52982">
        <ele>103</ele>
        <time>2022-08-10T12:54:31.659Z</time>
      </trkpt>
      <trkpt lat="48.38856" lon="2.52977">
        <ele>103</ele>
        <time>2022-08-10T12:54:48.628Z</time>
      </trkpt>
      <trkpt lat="48.38856" lon="2.52974">
        <ele>103</ele>
        <time>2022-08-10T12:54:53.654Z</time>
      </trkpt>
      <trkpt lat="48.38856" lon="2.52972">
        <ele>103</ele>
        <time>2022-08-10T12:54:57.690Z</time>
      </trkpt>
      <trkpt lat="48.38857" lon="2.52977">
        <ele>103</ele>
        <time>2022-08-10T12:55:01.649Z</time>
      </trkpt>
      <trkpt lat="48.38859" lon="2.52978">
        <ele>103</ele>
        <time>2022-08-10T12:55:05.650Z</time>
      </trkpt>
      <trkpt lat="48.38862" lon="2.52982">
        <ele>103</ele>
        <time>2022-08-10T12:55:33.638Z</time>
      </trkpt>
      <trkpt lat="48.38862" lon="2.52982">
        <ele>103</ele>
        <time>2022-08-10T12:55:37.684Z</time>
      </trkpt>
      <trkpt lat="48.38863" lon="2.52981">
        <ele>103</ele>
        <time>2022-08-10T12:55:41.653Z</time>
      </trkpt>
      <trkpt lat="48.38865" lon="2.52981">
        <ele>103</ele>
        <time>2022-08-10T12:55:46.651Z</time>
      </trkpt>
      <trkpt lat="48.38866" lon="2.52982">
        <ele>103</ele>
        <time>2022-08-10T12:55:50.657Z</time>
      </trkpt>
      <trkpt lat="48.38868" lon="2.52983">
        <ele>103</ele>
        <time>2022-08-10T12:56:21.646Z</time>
      </trkpt>
      <trkpt lat="48.38871" lon="2.52985">
        <ele>103</ele>
        <time>2022-08-10T12:56:26.669Z</time>
      </trkpt>
      <trkpt lat="48.38873" lon="2.52988">
        <ele>102</ele>
        <time>2022-08-10T12:56:30.657Z</time>
      </trkpt>
      <trkpt lat="48.38876" lon="2.52975">
        <ele>98</ele>
        <time>2022-08-10T12:56:35.619Z</time>
      </trkpt>
      <trkpt lat="48.38878" lon="2.52973">
        <ele>98</ele>
        <time>2022-08-10T12:56:39.631Z</time>
      </trkpt>
      <trkpt lat="48.38882" lon="2.52975">
        <ele>98</ele>
        <time>2022-08-10T12:58:05.628Z</time>
      </trkpt>
      <trkpt lat="48.38884" lon="2.52978">
        <ele>98</ele>
        <time>2022-08-10T12:58:09.642Z</time>
      </trkpt>
      <trkpt lat="48.38885" lon="2.52979">
        <ele>98</ele>
        <time>2022-08-10T12:58:14.637Z</time>
      </trkpt>
      <trkpt lat="48.38892" lon="2.52966">
        <ele>98</ele>
        <time>2022-08-10T12:58:18.645Z</time>
      </trkpt>
      <trkpt lat="48.38892" lon="2.52964">
        <ele>98</ele>
        <time>2022-08-10T12:58:23.645Z</time>
      </trkpt>
      <trkpt lat="48.38892" lon="2.52962">
        <ele>98</ele>
        <time>2022-08-10T12:59:15.668Z</time>
      </trkpt>
      <trkpt lat="48.38892" lon="2.52961">
        <ele>98</ele>
        <time>2022-08-10T12:59:20.656Z</time>
      </trkpt>
      <trkpt lat="48.38892" lon="2.52961">
        <ele>98</ele>
        <time>2022-08-10T12:59:25.640Z</time>
      </trkpt>
      <trkpt lat="48.38897" lon="2.52963">
        <ele>98</ele>
        <time>2022-08-10T12:59:30.639Z</time>
      </trkpt>
      <trkpt lat="48.38898" lon="2.52959">
        <ele>98</ele>
        <time>2022-08-10T12:59:34.649Z</time>
      </trkpt>
      <trkpt lat="48.38899" lon="2.52958">
        <ele>98</ele>
        <time>2022-08-10T12:59:39.622Z</time>
      </trkpt>
      <trkpt lat="48.38898" lon="2.52955">
        <ele>98</ele>
        <time>2022-08-10T12:59:43.633Z</time>
      </trkpt>
      <trkpt lat="48.38899" lon="2.52952">
        <ele>98</ele>
        <time>2022-08-10T12:59:47.651Z</time>
      </trkpt>
      <trkpt lat="48.38901" lon="2.52947">
        <ele>98</ele>
        <time>2022-08-10T12:59:52.625Z</time>
      </trkpt>
      <trkpt lat="48.38903" lon="2.52948">
        <ele>93</ele>
        <time>2022-08-10T12:59:57.638Z</time>
      </trkpt>
      <trkpt lat="48.38906" lon="2.52946">
        <ele>93</ele>
        <time>2022-08-10T13:00:02.626Z</time>
      </trkpt>
      <trkpt lat="48.38908" lon="2.52937">
        <ele>93</ele>
        <time>2022-08-10T13:00:06.631Z</time>
      </trkpt>
      <trkpt lat="48.38911" lon="2.52932">
        <ele>93</ele>
        <time>2022-08-10T13:00:10.643Z</time>
      </trkpt>
      <trkpt lat="48.38915" lon="2.5293">
        <ele>95</ele>
        <time>2022-08-10T13:00:15.635Z</time>
      </trkpt>
      <trkpt lat="48.38917" lon="2.52925">
        <ele>95</ele>
        <time>2022-08-10T13:00:20.622Z</time>
      </trkpt>
      <trkpt lat="48.3892" lon="2.52922">
        <ele>95</ele>
        <time>2022-08-10T13:00:24.623Z</time>
      </trkpt>
      <trkpt lat="48.38925" lon="2.52917">
        <ele>95</ele>
        <time>2022-08-10T13:00:28.622Z</time>
      </trkpt>
      <trkpt lat="48.3893" lon="2.52911">
        <ele>95</ele>
        <time>2022-08-10T13:00:33.649Z</time>
      </trkpt>
      <trkpt lat="48.38934" lon="2.5291">
        <ele>94</ele>
        <time>2022-08-10T13:00:37.643Z</time>
      </trkpt>
      <trkpt lat="48.38935" lon="2.52907">
        <ele>94</ele>
        <time>2022-08-10T13:00:42.642Z</time>
      </trkpt>
      <trkpt lat="48.38939" lon="2.52903">
        <ele>94</ele>
        <time>2022-08-10T13:00:46.652Z</time>
      </trkpt>
      <trkpt lat="48.38943" lon="2.52903">
        <ele>94</ele>
        <time>2022-08-10T13:00:50.661Z</time>
      </trkpt>
      <trkpt lat="48.3895" lon="2.52905">
        <ele>94</ele>
        <time>2022-08-10T13:00:55.672Z</time>
      </trkpt>
      <trkpt lat="48.38956" lon="2.52905">
        <ele>94</ele>
        <time>2022-08-10T13:01:00.646Z</time>
      </trkpt>
      <trkpt lat="48.38961" lon="2.52903">
        <ele>93</ele>
        <time>2022-08-10T13:01:04.645Z</time>
      </trkpt>
      <trkpt lat="48.38965" lon="2.52898">
        <ele>97</ele>
        <time>2022-08-10T13:01:09.639Z</time>
      </trkpt>
      <trkpt lat="48.3897" lon="2.52898">
        <ele>97</ele>
        <time>2022-08-10T13:01:13.641Z</time>
      </trkpt>
      <trkpt lat="48.38974" lon="2.52901">
        <ele>97</ele>
        <time>2022-08-10T13:01:18.634Z</time>
      </trkpt>
      <trkpt lat="48.38981" lon="2.52901">
        <ele>97</ele>
        <time>2022-08-10T13:01:22.661Z</time>
      </trkpt>
      <trkpt lat="48.38983" lon="2.52899">
        <ele>97</ele>
        <time>2022-08-10T13:01:27.631Z</time>
      </trkpt>
      <trkpt lat="48.38984" lon="2.52897">
        <ele>97</ele>
        <time>2022-08-10T13:01:31.643Z</time>
      </trkpt>
      <trkpt lat="48.38985" lon="2.52893">
        <ele>97</ele>
        <time>2022-08-10T13:01:36.650Z</time>
      </trkpt>
      <trkpt lat="48.38987" lon="2.5289">
        <ele>96</ele>
        <time>2022-08-10T13:01:41.649Z</time>
      </trkpt>
      <trkpt lat="48.3899" lon="2.5289">
        <ele>96</ele>
        <time>2022-08-10T13:01:45.664Z</time>
      </trkpt>
      <trkpt lat="48.38994" lon="2.5289">
        <ele>96</ele>
        <time>2022-08-10T13:01:50.647Z</time>
      </trkpt>
      <trkpt lat="48.38997" lon="2.5289">
        <ele>96</ele>
        <time>2022-08-10T13:01:55.681Z</time>
      </trkpt>
      <trkpt lat="48.39" lon="2.52885">
        <ele>96</ele>
        <time>2022-08-10T13:02:00.653Z</time>
      </trkpt>
      <trkpt lat="48.39004" lon="2.52877">
        <ele>96</ele>
        <time>2022-08-10T13:02:04.664Z</time>
      </trkpt>
      <trkpt lat="48.39008" lon="2.52871">
        <ele>101</ele>
        <time>2022-08-10T13:02:09.656Z</time>
      </trkpt>
      <trkpt lat="48.39012" lon="2.52865">
        <ele>101</ele>
        <time>2022-08-10T13:02:14.659Z</time>
      </trkpt>
      <trkpt lat="48.39013" lon="2.5286">
        <ele>101</ele>
        <time>2022-08-10T13:02:19.629Z</time>
      </trkpt>
      <trkpt lat="48.39015" lon="2.52852">
        <ele>103</ele>
        <time>2022-08-10T13:02:23.659Z</time>
      </trkpt>
      <trkpt lat="48.39017" lon="2.52846">
        <ele>107</ele>
        <time>2022-08-10T13:02:28.628Z</time>
      </trkpt>
      <trkpt lat="48.3902" lon="2.52841">
        <ele>107</ele>
        <time>2022-08-10T13:02:32.641Z</time>
      </trkpt>
      <trkpt lat="48.39023" lon="2.52837">
        <ele>107</ele>
        <time>2022-08-10T13:02:37.637Z</time>
      </trkpt>
      <trkpt lat="48.39027" lon="2.52829">
        <ele>107</ele>
        <time>2022-08-10T13:02:41.634Z</time>
      </trkpt>
      <trkpt lat="48.39028" lon="2.52823">
        <ele>107</ele>
        <time>2022-08-10T13:02:46.652Z</time>
      </trkpt>
      <trkpt lat="48.39029" lon="2.52817">
        <ele>110</ele>
        <time>2022-08-10T13:02:51.657Z</time>
      </trkpt>
      <trkpt lat="48.3903" lon="2.52811">
        <ele>110</ele>
        <time>2022-08-10T13:02:55.674Z</time>
      </trkpt>
      <trkpt lat="48.39031" lon="2.52805">
        <ele>110</ele>
        <time>2022-08-10T13:03:00.637Z</time>
      </trkpt>
      <trkpt lat="48.39032" lon="2.528">
        <ele>110</ele>
        <time>2022-08-10T13:03:05.656Z</time>
      </trkpt>
      <trkpt lat="48.39033" lon="2.52795">
        <ele>110</ele>
        <time>2022-08-10T13:03:10.655Z</time>
      </trkpt>
      <trkpt lat="48.39034" lon="2.5279">
        <ele>114</ele>
        <time>2022-08-10T13:03:14.679Z</time>
      </trkpt>
      <trkpt lat="48.39032" lon="2.52788">
        <ele>114</ele>
        <time>2022-08-10T13:03:19.664Z</time>
      </trkpt>
      <trkpt lat="48.39033" lon="2.52784">
        <ele>114</ele>
        <time>2022-08-10T13:03:24.655Z</time>
      </trkpt>
      <trkpt lat="48.39034" lon="2.52781">
        <ele>114</ele>
        <time>2022-08-10T13:03:29.647Z</time>
      </trkpt>
      <trkpt lat="48.39033" lon="2.52776">
        <ele>114</ele>
        <time>2022-08-10T13:03:34.661Z</time>
      </trkpt>
      <trkpt lat="48.39032" lon="2.52773">
        <ele>114</ele>
        <time>2022-08-10T13:03:39.650Z</time>
      </trkpt>
      <trkpt lat="48.39033" lon="2.52768">
        <ele>114</ele>
        <time>2022-08-10T13:03:43.662Z</time>
      </trkpt>
      <trkpt lat="48.39033" lon="2.52763">
        <ele>118</ele>
        <time>2022-08-10T13:03:47.652Z</time>
      </trkpt>
      <trkpt lat="48.39033" lon="2.52758">
        <ele>118</ele>
        <time>2022-08-10T13:03:57.649Z</time>
      </trkpt>
      <trkpt lat="48.39032" lon="2.52755">
        <ele>118</ele>
        <time>2022-08-10T13:04:01.663Z</time>
      </trkpt>
      <trkpt lat="48.39031" lon="2.52755">
        <ele>118</ele>
        <time>2022-08-10T13:04:05.652Z</time>
      </trkpt>
      <trkpt lat="48.39029" lon="2.52749">
        <ele>118</ele>
        <time>2022-08-10T13:04:10.652Z</time>
      </trkpt>
      <trkpt lat="48.39028" lon="2.52746">
        <ele>118</ele>
        <time>2022-08-10T13:04:15.646Z</time>
      </trkpt>
      <trkpt lat="48.39026" lon="2.52744">
        <ele>118</ele>
        <time>2022-08-10T13:04:20.638Z</time>
      </trkpt>
      <trkpt lat="48.39026" lon="2.52741">
        <ele>118</ele>
        <time>2022-08-10T13:04:24.655Z</time>
      </trkpt>
      <trkpt lat="48.39023" lon="2.52738">
        <ele>118</ele>
        <time>2022-08-10T13:04:29.628Z</time>
      </trkpt>
      <trkpt lat="48.39021" lon="2.52734">
        <ele>119</ele>
        <time>2022-08-10T13:04:33.643Z</time>
      </trkpt>
      <trkpt lat="48.39019" lon="2.5273">
        <ele>119</ele>
        <time>2022-08-10T13:04:38.648Z</time>
      </trkpt>
      <trkpt lat="48.39017" lon="2.52724">
        <ele>119</ele>
        <time>2022-08-10T13:06:25.646Z</time>
      </trkpt>
      <trkpt lat="48.39018" lon="2.52721">
        <ele>119</ele>
        <time>2022-08-10T13:06:30.675Z</time>
      </trkpt>
      <trkpt lat="48.3902" lon="2.52719">
        <ele>119</ele>
        <time>2022-08-10T13:06:35.657Z</time>
      </trkpt>
      <trkpt lat="48.39022" lon="2.527">
        <ele>120</ele>
        <time>2022-08-10T13:06:39.640Z</time>
      </trkpt>
      <trkpt lat="48.39023" lon="2.52693">
        <ele>120</ele>
        <time>2022-08-10T13:06:43.658Z</time>
      </trkpt>
      <trkpt lat="48.39021" lon="2.52686">
        <ele>120</ele>
        <time>2022-08-10T13:06:48.652Z</time>
      </trkpt>
      <trkpt lat="48.3902" lon="2.52681">
        <ele>120</ele>
        <time>2022-08-10T13:06:52.674Z</time>
      </trkpt>
      <trkpt lat="48.39021" lon="2.52675">
        <ele>120</ele>
        <time>2022-08-10T13:06:57.639Z</time>
      </trkpt>
      <trkpt lat="48.39021" lon="2.52669">
        <ele>120</ele>
        <time>2022-08-10T13:07:02.625Z</time>
      </trkpt>
      <trkpt lat="48.39019" lon="2.52664">
        <ele>120</ele>
        <time>2022-08-10T13:07:07.624Z</time>
      </trkpt>
      <trkpt lat="48.39018" lon="2.52655">
        <ele>120</ele>
        <time>2022-08-10T13:07:11.658Z</time>
      </trkpt>
      <trkpt lat="48.39018" lon="2.52642">
        <ele>120</ele>
        <time>2022-08-10T13:07:15.645Z</time>
      </trkpt>
      <trkpt lat="48.39018" lon="2.52631">
        <ele>120</ele>
        <time>2022-08-10T13:07:20.659Z</time>
      </trkpt>
      <trkpt lat="48.39018" lon="2.5262">
        <ele>120</ele>
        <time>2022-08-10T13:07:24.673Z</time>
      </trkpt>
      <trkpt lat="48.3902" lon="2.52612">
        <ele>120</ele>
        <time>2022-08-10T13:07:29.648Z</time>
      </trkpt>
      <trkpt lat="48.39021" lon="2.52601">
        <ele>120</ele>
        <time>2022-08-10T13:07:34.628Z</time>
      </trkpt>
      <trkpt lat="48.39022" lon="2.52595">
        <ele>120</ele>
        <time>2022-08-10T13:07:39.634Z</time>
      </trkpt>
      <trkpt lat="48.39024" lon="2.52583">
        <ele>120</ele>
        <time>2022-08-10T13:07:44.624Z</time>
      </trkpt>
      <trkpt lat="48.39026" lon="2.52571">
        <ele>120</ele>
        <time>2022-08-10T13:07:49.622Z</time>
      </trkpt>
      <trkpt lat="48.39028" lon="2.52565">
        <ele>120</ele>
        <time>2022-08-10T13:07:53.615Z</time>
      </trkpt>
      <trkpt lat="48.39033" lon="2.52557">
        <ele>120</ele>
        <time>2022-08-10T13:07:57.626Z</time>
      </trkpt>
      <trkpt lat="48.39038" lon="2.52553">
        <ele>120</ele>
        <time>2022-08-10T13:08:02.634Z</time>
      </trkpt>
      <trkpt lat="48.39039" lon="2.52552">
        <ele>120</ele>
        <time>2022-08-10T13:08:06.654Z</time>
      </trkpt>
      <trkpt lat="48.39041" lon="2.52546">
        <ele>120</ele>
        <time>2022-08-10T13:08:11.638Z</time>
      </trkpt>
      <trkpt lat="48.39042" lon="2.52535">
        <ele>118</ele>
        <time>2022-08-10T13:08:16.653Z</time>
      </trkpt>
      <trkpt lat="48.39042" lon="2.52524">
        <ele>122</ele>
        <time>2022-08-10T13:08:20.661Z</time>
      </trkpt>
      <trkpt lat="48.39044" lon="2.52512">
        <ele>122</ele>
        <time>2022-08-10T13:08:24.652Z</time>
      </trkpt>
      <trkpt lat="48.39039" lon="2.52505">
        <ele>117</ele>
        <time>2022-08-10T13:08:29.630Z</time>
      </trkpt>
      <trkpt lat="48.39037" lon="2.52497">
        <ele>117</ele>
        <time>2022-08-10T13:08:33.627Z</time>
      </trkpt>
      <trkpt lat="48.39035" lon="2.52489">
        <ele>117</ele>
        <time>2022-08-10T13:08:37.657Z</time>
      </trkpt>
      <trkpt lat="48.39033" lon="2.52481">
        <ele>117</ele>
        <time>2022-08-10T13:08:42.641Z</time>
      </trkpt>
      <trkpt lat="48.39035" lon="2.52476">
        <ele>117</ele>
        <time>2022-08-10T13:08:47.651Z</time>
      </trkpt>
      <trkpt lat="48.39035" lon="2.52467">
        <ele>117</ele>
        <time>2022-08-10T13:08:52.670Z</time>
      </trkpt>
      <trkpt lat="48.39033" lon="2.5246">
        <ele>117</ele>
        <time>2022-08-10T13:08:57.655Z</time>
      </trkpt>
      <trkpt lat="48.39032" lon="2.52453">
        <ele>115</ele>
        <time>2022-08-10T13:09:02.663Z</time>
      </trkpt>
      <trkpt lat="48.39033" lon="2.52447">
        <ele>115</ele>
        <time>2022-08-10T13:09:07.642Z</time>
      </trkpt>
      <trkpt lat="48.39035" lon="2.52443">
        <ele>115</ele>
        <time>2022-08-10T13:09:12.658Z</time>
      </trkpt>
      <trkpt lat="48.39034" lon="2.52439">
        <ele>115</ele>
        <time>2022-08-10T13:09:22.626Z</time>
      </trkpt>
      <trkpt lat="48.39034" lon="2.52432">
        <ele>115</ele>
        <time>2022-08-10T13:09:27.615Z</time>
      </trkpt>
      <trkpt lat="48.39033" lon="2.52425">
        <ele>112</ele>
        <time>2022-08-10T13:09:32.624Z</time>
      </trkpt>
      <trkpt lat="48.39032" lon="2.52415">
        <ele>112</ele>
        <time>2022-08-10T13:09:36.658Z</time>
      </trkpt>
      <trkpt lat="48.39033" lon="2.52415">
        <ele>112</ele>
        <time>2022-08-10T13:09:41.649Z</time>
      </trkpt>
      <trkpt lat="48.39036" lon="2.52421">
        <ele>112</ele>
        <time>2022-08-10T13:09:46.634Z</time>
      </trkpt>
      <trkpt lat="48.39041" lon="2.5242">
        <ele>112</ele>
        <time>2022-08-10T13:09:50.671Z</time>
      </trkpt>
      <trkpt lat="48.39046" lon="2.52423">
        <ele>116</ele>
        <time>2022-08-10T13:09:55.641Z</time>
      </trkpt>
      <trkpt lat="48.39053" lon="2.5242">
        <ele>116</ele>
        <time>2022-08-10T13:09:59.641Z</time>
      </trkpt>
      <trkpt lat="48.39056" lon="2.52415">
        <ele>116</ele>
        <time>2022-08-10T13:10:04.665Z</time>
      </trkpt>
      <trkpt lat="48.39058" lon="2.52408">
        <ele>116</ele>
        <time>2022-08-10T13:10:09.638Z</time>
      </trkpt>
      <trkpt lat="48.39059" lon="2.52405">
        <ele>116</ele>
        <time>2022-08-10T13:10:13.662Z</time>
      </trkpt>
      <trkpt lat="48.39063" lon="2.524">
        <ele>113</ele>
        <time>2022-08-10T13:10:17.658Z</time>
      </trkpt>
      <trkpt lat="48.39066" lon="2.52394">
        <ele>113</ele>
        <time>2022-08-10T13:10:22.676Z</time>
      </trkpt>
      <trkpt lat="48.39068" lon="2.52386">
        <ele>113</ele>
        <time>2022-08-10T13:10:26.657Z</time>
      </trkpt>
      <trkpt lat="48.39072" lon="2.52381">
        <ele>115</ele>
        <time>2022-08-10T13:10:31.670Z</time>
      </trkpt>
      <trkpt lat="48.39073" lon="2.52374">
        <ele>112</ele>
        <time>2022-08-10T13:10:36.640Z</time>
      </trkpt>
      <trkpt lat="48.39076" lon="2.5237">
        <ele>112</ele>
        <time>2022-08-10T13:10:41.632Z</time>
      </trkpt>
      <trkpt lat="48.39081" lon="2.52372">
        <ele>112</ele>
        <time>2022-08-10T13:10:45.651Z</time>
      </trkpt>
      <trkpt lat="48.39086" lon="2.52376">
        <ele>115</ele>
        <time>2022-08-10T13:10:49.645Z</time>
      </trkpt>
      <trkpt lat="48.39092" lon="2.5238">
        <ele>115</ele>
        <time>2022-08-10T13:10:54.662Z</time>
      </trkpt>
      <trkpt lat="48.39096" lon="2.52383">
        <ele>115</ele>
        <time>2022-08-10T13:10:58.674Z</time>
      </trkpt>
      <trkpt lat="48.39101" lon="2.52385">
        <ele>117</ele>
        <time>2022-08-10T13:11:03.631Z</time>
      </trkpt>
      <trkpt lat="48.39109" lon="2.52389">
        <ele>117</ele>
        <time>2022-08-10T13:11:07.654Z</time>
      </trkpt>
      <trkpt lat="48.39113" lon="2.5239">
        <ele>117</ele>
        <time>2022-08-10T13:11:12.679Z</time>
      </trkpt>
      <trkpt lat="48.3912" lon="2.52392">
        <ele>117</ele>
        <time>2022-08-10T13:11:16.636Z</time>
      </trkpt>
      <trkpt lat="48.39122" lon="2.52394">
        <ele>117</ele>
        <time>2022-08-10T13:11:21.633Z</time>
      </trkpt>
      <trkpt lat="48.39129" lon="2.52396">
        <ele>119</ele>
        <time>2022-08-10T13:11:26.666Z</time>
      </trkpt>
      <trkpt lat="48.39135" lon="2.52396">
        <ele>119</ele>
        <time>2022-08-10T13:11:31.646Z</time>
      </trkpt>
      <trkpt lat="48.39141" lon="2.52397">
        <ele>119</ele>
        <time>2022-08-10T13:11:35.655Z</time>
      </trkpt>
      <trkpt lat="48.39148" lon="2.52397">
        <ele>119</ele>
        <time>2022-08-10T13:11:40.655Z</time>
      </trkpt>
      <trkpt lat="48.39152" lon="2.52396">
        <ele>119</ele>
        <time>2022-08-10T13:11:45.640Z</time>
      </trkpt>
      <trkpt lat="48.39154" lon="2.52392">
        <ele>118</ele>
        <time>2022-08-10T13:11:50.663Z</time>
      </trkpt>
      <trkpt lat="48.39157" lon="2.52385">
        <ele>118</ele>
        <time>2022-08-10T13:11:54.680Z</time>
      </trkpt>
      <trkpt lat="48.39159" lon="2.52383">
        <ele>118</ele>
        <time>2022-08-10T13:11:58.692Z</time>
      </trkpt>
      <trkpt lat="48.39161" lon="2.52381">
        <ele>118</ele>
        <time>2022-08-10T13:12:03.662Z</time>
      </trkpt>
      <trkpt lat="48.39164" lon="2.5238">
        <ele>118</ele>
        <time>2022-08-10T13:12:08.655Z</time>
      </trkpt>
      <trkpt lat="48.39168" lon="2.52378">
        <ele>118</ele>
        <time>2022-08-10T13:12:17.665Z</time>
      </trkpt>
      <trkpt lat="48.39172" lon="2.52373">
        <ele>115</ele>
        <time>2022-08-10T13:12:21.655Z</time>
      </trkpt>
      <trkpt lat="48.39177" lon="2.52367">
        <ele>115</ele>
        <time>2022-08-10T13:12:26.626Z</time>
      </trkpt>
      <trkpt lat="48.39179" lon="2.52359">
        <ele>115</ele>
        <time>2022-08-10T13:12:30.676Z</time>
      </trkpt>
      <trkpt lat="48.39181" lon="2.52357">
        <ele>111</ele>
        <time>2022-08-10T13:12:35.655Z</time>
      </trkpt>
      <trkpt lat="48.39182" lon="2.52354">
        <ele>111</ele>
        <time>2022-08-10T13:12:40.656Z</time>
      </trkpt>
      <trkpt lat="48.39183" lon="2.52351">
        <ele>111</ele>
        <time>2022-08-10T13:12:45.661Z</time>
      </trkpt>
      <trkpt lat="48.39187" lon="2.52353">
        <ele>111</ele>
        <time>2022-08-10T13:12:50.651Z</time>
      </trkpt>
      <trkpt lat="48.3919" lon="2.52353">
        <ele>111</ele>
        <time>2022-08-10T13:12:54.669Z</time>
      </trkpt>
      <trkpt lat="48.39193" lon="2.52351">
        <ele>111</ele>
        <time>2022-08-10T13:12:58.655Z</time>
      </trkpt>
      <trkpt lat="48.39197" lon="2.52351">
        <ele>111</ele>
        <time>2022-08-10T13:13:03.626Z</time>
      </trkpt>
      <trkpt lat="48.39202" lon="2.5235">
        <ele>111</ele>
        <time>2022-08-10T13:13:08.630Z</time>
      </trkpt>
      <trkpt lat="48.39204" lon="2.52348">
        <ele>111</ele>
        <time>2022-08-10T13:13:13.646Z</time>
      </trkpt>
      <trkpt lat="48.39204" lon="2.52347">
        <ele>107</ele>
        <time>2022-08-10T13:13:18.664Z</time>
      </trkpt>
      <trkpt lat="48.39206" lon="2.52348">
        <ele>111</ele>
        <time>2022-08-10T13:13:27.678Z</time>
      </trkpt>
      <trkpt lat="48.39209" lon="2.52343">
        <ele>102</ele>
        <time>2022-08-10T13:13:32.631Z</time>
      </trkpt>
      <trkpt lat="48.39214" lon="2.52344">
        <ele>102</ele>
        <time>2022-08-10T13:13:37.635Z</time>
      </trkpt>
      <trkpt lat="48.39217" lon="2.52342">
        <ele>102</ele>
        <time>2022-08-10T13:13:42.626Z</time>
      </trkpt>
      <trkpt lat="48.39219" lon="2.52341">
        <ele>102</ele>
        <time>2022-08-10T13:13:46.625Z</time>
      </trkpt>
      <trkpt lat="48.39219" lon="2.52338">
        <ele>102</ele>
        <time>2022-08-10T13:14:10.633Z</time>
      </trkpt>
      <trkpt lat="48.3922" lon="2.52333">
        <ele>102</ele>
        <time>2022-08-10T13:14:15.635Z</time>
      </trkpt>
      <trkpt lat="48.3922" lon="2.52329">
        <ele>102</ele>
        <time>2022-08-10T13:14:19.639Z</time>
      </trkpt>
      <trkpt lat="48.39228" lon="2.52317">
        <ele>98</ele>
        <time>2022-08-10T13:14:24.627Z</time>
      </trkpt>
      <trkpt lat="48.39229" lon="2.52313">
        <ele>98</ele>
        <time>2022-08-10T13:14:29.678Z</time>
      </trkpt>
      <trkpt lat="48.3923" lon="2.52307">
        <ele>98</ele>
        <time>2022-08-10T13:14:39.672Z</time>
      </trkpt>
      <trkpt lat="48.39234" lon="2.52304">
        <ele>98</ele>
        <time>2022-08-10T13:14:44.628Z</time>
      </trkpt>
      <trkpt lat="48.39236" lon="2.52301">
        <ele>95</ele>
        <time>2022-08-10T13:14:49.695Z</time>
      </trkpt>
      <trkpt lat="48.39238" lon="2.52295">
        <ele>95</ele>
        <time>2022-08-10T13:14:54.629Z</time>
      </trkpt>
      <trkpt lat="48.39238" lon="2.52293">
        <ele>95</ele>
        <time>2022-08-10T13:14:59.631Z</time>
      </trkpt>
      <trkpt lat="48.39237" lon="2.5229">
        <ele>93</ele>
        <time>2022-08-10T13:15:04.630Z</time>
      </trkpt>
      <trkpt lat="48.39239" lon="2.52286">
        <ele>93</ele>
        <time>2022-08-10T13:15:09.645Z</time>
      </trkpt>
      <trkpt lat="48.3924" lon="2.52282">
        <ele>93</ele>
        <time>2022-08-10T13:15:13.694Z</time>
      </trkpt>
      <trkpt lat="48.39239" lon="2.52278">
        <ele>93</ele>
        <time>2022-08-10T13:15:17.673Z</time>
      </trkpt>
      <trkpt lat="48.39241" lon="2.52275">
        <ele>93</ele>
        <time>2022-08-10T13:15:22.658Z</time>
      </trkpt>
      <trkpt lat="48.39238" lon="2.52273">
        <ele>93</ele>
        <time>2022-08-10T13:15:27.682Z</time>
      </trkpt>
      <trkpt lat="48.3924" lon="2.52269">
        <ele>93</ele>
        <time>2022-08-10T13:15:32.662Z</time>
      </trkpt>
      <trkpt lat="48.39241" lon="2.52264">
        <ele>90</ele>
        <time>2022-08-10T13:15:37.660Z</time>
      </trkpt>
      <trkpt lat="48.39242" lon="2.52261">
        <ele>90</ele>
        <time>2022-08-10T13:15:42.656Z</time>
      </trkpt>
      <trkpt lat="48.39243" lon="2.52257">
        <ele>90</ele>
        <time>2022-08-10T13:15:51.667Z</time>
      </trkpt>
      <trkpt lat="48.39245" lon="2.52252">
        <ele>90</ele>
        <time>2022-08-10T13:15:55.686Z</time>
      </trkpt>
      <trkpt lat="48.39245" lon="2.52246">
        <ele>90</ele>
        <time>2022-08-10T13:15:59.672Z</time>
      </trkpt>
      <trkpt lat="48.39244" lon="2.52242">
        <ele>90</ele>
        <time>2022-08-10T13:16:04.641Z</time>
      </trkpt>
      <trkpt lat="48.39246" lon="2.5224">
        <ele>90</ele>
        <time>2022-08-10T13:16:08.676Z</time>
      </trkpt>
      <trkpt lat="48.39245" lon="2.52236">
        <ele>88</ele>
        <time>2022-08-10T13:16:12.673Z</time>
      </trkpt>
      <trkpt lat="48.39248" lon="2.52233">
        <ele>88</ele>
        <time>2022-08-10T13:16:17.658Z</time>
      </trkpt>
      <trkpt lat="48.39248" lon="2.5223">
        <ele>88</ele>
        <time>2022-08-10T13:16:21.666Z</time>
      </trkpt>
      <trkpt lat="48.39249" lon="2.52229">
        <ele>88</ele>
        <time>2022-08-10T13:16:25.673Z</time>
      </trkpt>
      <trkpt lat="48.39253" lon="2.52228">
        <ele>88</ele>
        <time>2022-08-10T13:16:35.656Z</time>
      </trkpt>
      <trkpt lat="48.39256" lon="2.52224">
        <ele>88</ele>
        <time>2022-08-10T13:16:39.644Z</time>
      </trkpt>
      <trkpt lat="48.3926" lon="2.52226">
        <ele>88</ele>
        <time>2022-08-10T13:16:44.650Z</time>
      </trkpt>
      <trkpt lat="48.3926" lon="2.52228">
        <ele>88</ele>
        <time>2022-08-10T13:16:49.661Z</time>
      </trkpt>
      <trkpt lat="48.39258" lon="2.52228">
        <ele>88</ele>
        <time>2022-08-10T13:16:53.628Z</time>
      </trkpt>
      <trkpt lat="48.39257" lon="2.52222">
        <ele>88</ele>
        <time>2022-08-10T13:17:39.671Z</time>
      </trkpt>
      <trkpt lat="48.39256" lon="2.52218">
        <ele>88</ele>
        <time>2022-08-10T13:17:44.646Z</time>
      </trkpt>
      <trkpt lat="48.39256" lon="2.52215">
        <ele>88</ele>
        <time>2022-08-10T13:17:49.636Z</time>
      </trkpt>
      <trkpt lat="48.39256" lon="2.52212">
        <ele>88</ele>
        <time>2022-08-10T13:17:53.647Z</time>
      </trkpt>
      <trkpt lat="48.39257" lon="2.52212">
        <ele>88</ele>
        <time>2022-08-10T13:17:57.648Z</time>
      </trkpt>
      <trkpt lat="48.3926" lon="2.5221">
        <ele>88</ele>
        <time>2022-08-10T13:18:02.662Z</time>
      </trkpt>
      <trkpt lat="48.39262" lon="2.52209">
        <ele>88</ele>
        <time>2022-08-10T13:18:06.667Z</time>
      </trkpt>
      <trkpt lat="48.39265" lon="2.52207">
        <ele>91</ele>
        <time>2022-08-10T13:18:11.652Z</time>
      </trkpt>
      <trkpt lat="48.39267" lon="2.52207">
        <ele>91</ele>
        <time>2022-08-10T13:18:16.649Z</time>
      </trkpt>
      <trkpt lat="48.3927" lon="2.52207">
        <ele>91</ele>
        <time>2022-08-10T13:18:21.648Z</time>
      </trkpt>
      <trkpt lat="48.39274" lon="2.52209">
        <ele>90</ele>
        <time>2022-08-10T13:18:25.660Z</time>
      </trkpt>
      <trkpt lat="48.39281" lon="2.52213">
        <ele>90</ele>
        <time>2022-08-10T13:18:30.639Z</time>
      </trkpt>
      <trkpt lat="48.39287" lon="2.52218">
        <ele>90</ele>
        <time>2022-08-10T13:18:34.678Z</time>
      </trkpt>
      <trkpt lat="48.39291" lon="2.52222">
        <ele>90</ele>
        <time>2022-08-10T13:18:39.657Z</time>
      </trkpt>
      <trkpt lat="48.39295" lon="2.52227">
        <ele>95</ele>
        <time>2022-08-10T13:18:44.654Z</time>
      </trkpt>
      <trkpt lat="48.39295" lon="2.52227">
        <ele>95</ele>
        <time>2022-08-10T13:18:48.643Z</time>
      </trkpt>
      <trkpt lat="48.39297" lon="2.52229">
        <ele>95</ele>
        <time>2022-08-10T13:18:53.645Z</time>
      </trkpt>
      <trkpt lat="48.393" lon="2.52232">
        <ele>95</ele>
        <time>2022-08-10T13:18:57.658Z</time>
      </trkpt>
      <trkpt lat="48.39303" lon="2.52232">
        <ele>95</ele>
        <time>2022-08-10T13:19:06.669Z</time>
      </trkpt>
      <trkpt lat="48.39305" lon="2.52234">
        <ele>95</ele>
        <time>2022-08-10T13:19:11.647Z</time>
      </trkpt>
      <trkpt lat="48.39308" lon="2.52233">
        <ele>95</ele>
        <time>2022-08-10T13:19:15.654Z</time>
      </trkpt>
      <trkpt lat="48.39315" lon="2.5223">
        <ele>95</ele>
        <time>2022-08-10T13:19:19.649Z</time>
      </trkpt>
      <trkpt lat="48.39316" lon="2.52227">
        <ele>95</ele>
        <time>2022-08-10T13:19:24.642Z</time>
      </trkpt>
      <trkpt lat="48.39317" lon="2.52223">
        <ele>95</ele>
        <time>2022-08-10T13:19:28.651Z</time>
      </trkpt>
      <trkpt lat="48.39318" lon="2.52223">
        <ele>95</ele>
        <time>2022-08-10T13:19:33.636Z</time>
      </trkpt>
      <trkpt lat="48.3932" lon="2.52221">
        <ele>102</ele>
        <time>2022-08-10T13:19:38.653Z</time>
      </trkpt>
      <trkpt lat="48.39323" lon="2.5222">
        <ele>102</ele>
        <time>2022-08-10T13:19:42.670Z</time>
      </trkpt>
      <trkpt lat="48.39326" lon="2.52217">
        <ele>102</ele>
        <time>2022-08-10T13:19:47.658Z</time>
      </trkpt>
      <trkpt lat="48.39329" lon="2.52211">
        <ele>102</ele>
        <time>2022-08-10T13:19:51.654Z</time>
      </trkpt>
      <trkpt lat="48.39331" lon="2.52207">
        <ele>102</ele>
        <time>2022-08-10T13:19:56.664Z</time>
      </trkpt>
      <trkpt lat="48.39332" lon="2.52202">
        <ele>102</ele>
        <time>2022-08-10T13:20:01.671Z</time>
      </trkpt>
      <trkpt lat="48.39334" lon="2.52198">
        <ele>102</ele>
        <time>2022-08-10T13:20:11.660Z</time>
      </trkpt>
      <trkpt lat="48.39337" lon="2.52194">
        <ele>102</ele>
        <time>2022-08-10T13:20:15.660Z</time>
      </trkpt>
      <trkpt lat="48.39339" lon="2.52186">
        <ele>102</ele>
        <time>2022-08-10T13:20:20.677Z</time>
      </trkpt>
      <trkpt lat="48.3934" lon="2.52177">
        <ele>102</ele>
        <time>2022-08-10T13:20:24.677Z</time>
      </trkpt>
      <trkpt lat="48.39338" lon="2.52179">
        <ele>102</ele>
        <time>2022-08-10T13:20:29.653Z</time>
      </trkpt>
      <trkpt lat="48.3934" lon="2.52175">
        <ele>102</ele>
        <time>2022-08-10T13:20:34.640Z</time>
      </trkpt>
      <trkpt lat="48.39341" lon="2.5217">
        <ele>102</ele>
        <time>2022-08-10T13:20:39.662Z</time>
      </trkpt>
      <trkpt lat="48.39342" lon="2.52162">
        <ele>102</ele>
        <time>2022-08-10T13:20:44.636Z</time>
      </trkpt>
      <trkpt lat="48.39345" lon="2.52156">
        <ele>102</ele>
        <time>2022-08-10T13:20:48.666Z</time>
      </trkpt>
      <trkpt lat="48.39347" lon="2.5215">
        <ele>108</ele>
        <time>2022-08-10T13:20:53.629Z</time>
      </trkpt>
      <trkpt lat="48.3935" lon="2.52147">
        <ele>108</ele>
        <time>2022-08-10T13:20:57.644Z</time>
      </trkpt>
      <trkpt lat="48.3935" lon="2.52143">
        <ele>108</ele>
        <time>2022-08-10T13:21:01.660Z</time>
      </trkpt>
      <trkpt lat="48.39351" lon="2.52139">
        <ele>108</ele>
        <time>2022-08-10T13:21:06.692Z</time>
      </trkpt>
      <trkpt lat="48.39352" lon="2.52133">
        <ele>108</ele>
        <time>2022-08-10T13:21:11.649Z</time>
      </trkpt>
      <trkpt lat="48.39353" lon="2.52128">
        <ele>108</ele>
        <time>2022-08-10T13:21:16.672Z</time>
      </trkpt>
      <trkpt lat="48.39356" lon="2.52122">
        <ele>110</ele>
        <time>2022-08-10T13:21:21.652Z</time>
      </trkpt>
      <trkpt lat="48.39358" lon="2.52118">
        <ele>110</ele>
        <time>2022-08-10T13:21:25.653Z</time>
      </trkpt>
      <trkpt lat="48.39361" lon="2.52114">
        <ele>110</ele>
        <time>2022-08-10T13:21:29.664Z</time>
      </trkpt>
      <trkpt lat="48.39361" lon="2.52109">
        <ele>110</ele>
        <time>2022-08-10T13:21:34.653Z</time>
      </trkpt>
      <trkpt lat="48.39362" lon="2.52105">
        <ele>110</ele>
        <time>2022-08-10T13:21:39.678Z</time>
      </trkpt>
      <trkpt lat="48.39364" lon="2.521">
        <ele>110</ele>
        <time>2022-08-10T13:21:44.635Z</time>
      </trkpt>
      <trkpt lat="48.39366" lon="2.52093">
        <ele>111</ele>
        <time>2022-08-10T13:21:48.667Z</time>
      </trkpt>
      <trkpt lat="48.39368" lon="2.52085">
        <ele>111</ele>
        <time>2022-08-10T13:22:06.648Z</time>
      </trkpt>
      <trkpt lat="48.3937" lon="2.52078">
        <ele>111</ele>
        <time>2022-08-10T13:22:11.659Z</time>
      </trkpt>
      <trkpt lat="48.39372" lon="2.52072">
        <ele>111</ele>
        <time>2022-08-10T13:22:15.662Z</time>
      </trkpt>
      <trkpt lat="48.39377" lon="2.52061">
        <ele>114</ele>
        <time>2022-08-10T13:22:20.653Z</time>
      </trkpt>
      <trkpt lat="48.39378" lon="2.5206">
        <ele>114</ele>
        <time>2022-08-10T13:22:24.660Z</time>
      </trkpt>
      <trkpt lat="48.39381" lon="2.52057">
        <ele>114</ele>
        <time>2022-08-10T13:22:29.640Z</time>
      </trkpt>
      <trkpt lat="48.39385" lon="2.5205">
        <ele>114</ele>
        <time>2022-08-10T13:22:34.656Z</time>
      </trkpt>
      <trkpt lat="48.39387" lon="2.52043">
        <ele>114</ele>
        <time>2022-08-10T13:22:38.663Z</time>
      </trkpt>
      <trkpt lat="48.39389" lon="2.52036">
        <ele>114</ele>
        <time>2022-08-10T13:22:43.638Z</time>
      </trkpt>
      <trkpt lat="48.3939" lon="2.52025">
        <ele>114</ele>
        <time>2022-08-10T13:22:47.670Z</time>
      </trkpt>
      <trkpt lat="48.39391" lon="2.52018">
        <ele>114</ele>
        <time>2022-08-10T13:22:51.676Z</time>
      </trkpt>
      <trkpt lat="48.39394" lon="2.52008">
        <ele>114</ele>
        <time>2022-08-10T13:22:56.648Z</time>
      </trkpt>
      <trkpt lat="48.39395" lon="2.51999">
        <ele>114</ele>
        <time>2022-08-10T13:23:01.679Z</time>
      </trkpt>
      <trkpt lat="48.39397" lon="2.5199">
        <ele>114</ele>
        <time>2022-08-10T13:23:06.666Z</time>
      </trkpt>
      <trkpt lat="48.39397" lon="2.51982">
        <ele>114</ele>
        <time>2022-08-10T13:23:11.668Z</time>
      </trkpt>
      <trkpt lat="48.39397" lon="2.51973">
        <ele>114</ele>
        <time>2022-08-10T13:23:16.665Z</time>
      </trkpt>
      <trkpt lat="48.39397" lon="2.51965">
        <ele>114</ele>
        <time>2022-08-10T13:23:21.651Z</time>
      </trkpt>
      <trkpt lat="48.39398" lon="2.51955">
        <ele>113</ele>
        <time>2022-08-10T13:23:25.649Z</time>
      </trkpt>
      <trkpt lat="48.39399" lon="2.51945">
        <ele>113</ele>
        <time>2022-08-10T13:23:29.649Z</time>
      </trkpt>
      <trkpt lat="48.39402" lon="2.51937">
        <ele>113</ele>
        <time>2022-08-10T13:23:34.663Z</time>
      </trkpt>
      <trkpt lat="48.39403" lon="2.51931">
        <ele>112</ele>
        <time>2022-08-10T13:23:39.679Z</time>
      </trkpt>
      <trkpt lat="48.39404" lon="2.51923">
        <ele>112</ele>
        <time>2022-08-10T13:23:44.655Z</time>
      </trkpt>
      <trkpt lat="48.39404" lon="2.51915">
        <ele>112</ele>
        <time>2022-08-10T13:23:49.662Z</time>
      </trkpt>
      <trkpt lat="48.39407" lon="2.51904">
        <ele>112</ele>
        <time>2022-08-10T13:23:54.660Z</time>
      </trkpt>
      <trkpt lat="48.39409" lon="2.51894">
        <ele>112</ele>
        <time>2022-08-10T13:23:59.662Z</time>
      </trkpt>
      <trkpt lat="48.39412" lon="2.51885">
        <ele>112</ele>
        <time>2022-08-10T13:24:04.659Z</time>
      </trkpt>
      <trkpt lat="48.39416" lon="2.51875">
        <ele>111</ele>
        <time>2022-08-10T13:24:08.660Z</time>
      </trkpt>
      <trkpt lat="48.39418" lon="2.51866">
        <ele>111</ele>
        <time>2022-08-10T13:24:13.647Z</time>
      </trkpt>
      <trkpt lat="48.39422" lon="2.51859">
        <ele>111</ele>
        <time>2022-08-10T13:24:17.652Z</time>
      </trkpt>
      <trkpt lat="48.39424" lon="2.51855">
        <ele>111</ele>
        <time>2022-08-10T13:24:21.666Z</time>
      </trkpt>
      <trkpt lat="48.39428" lon="2.51849">
        <ele>111</ele>
        <time>2022-08-10T13:24:25.659Z</time>
      </trkpt>
      <trkpt lat="48.3943" lon="2.51842">
        <ele>109</ele>
        <time>2022-08-10T13:24:29.656Z</time>
      </trkpt>
      <trkpt lat="48.3943" lon="2.51835">
        <ele>109</ele>
        <time>2022-08-10T13:24:34.661Z</time>
      </trkpt>
      <trkpt lat="48.39428" lon="2.51831">
        <ele>109</ele>
        <time>2022-08-10T13:24:38.649Z</time>
      </trkpt>
      <trkpt lat="48.39425" lon="2.51827">
        <ele>109</ele>
        <time>2022-08-10T13:24:43.626Z</time>
      </trkpt>
      <trkpt lat="48.39425" lon="2.51818">
        <ele>107</ele>
        <time>2022-08-10T13:24:47.646Z</time>
      </trkpt>
      <trkpt lat="48.39425" lon="2.51812">
        <ele>107</ele>
        <time>2022-08-10T13:24:52.644Z</time>
      </trkpt>
      <trkpt lat="48.39428" lon="2.51805">
        <ele>107</ele>
        <time>2022-08-10T13:24:57.637Z</time>
      </trkpt>
      <trkpt lat="48.39428" lon="2.51799">
        <ele>107</ele>
        <time>2022-08-10T13:25:02.633Z</time>
      </trkpt>
      <trkpt lat="48.3943" lon="2.51788">
        <ele>104</ele>
        <time>2022-08-10T13:25:06.643Z</time>
      </trkpt>
      <trkpt lat="48.39432" lon="2.51781">
        <ele>103</ele>
        <time>2022-08-10T13:25:11.660Z</time>
      </trkpt>
      <trkpt lat="48.39434" lon="2.51776">
        <ele>103</ele>
        <time>2022-08-10T13:25:16.668Z</time>
      </trkpt>
      <trkpt lat="48.39438" lon="2.51773">
        <ele>103</ele>
        <time>2022-08-10T13:25:21.642Z</time>
      </trkpt>
      <trkpt lat="48.39439" lon="2.51768">
        <ele>103</ele>
        <time>2022-08-10T13:25:25.657Z</time>
      </trkpt>
      <trkpt lat="48.39441" lon="2.51758">
        <ele>102</ele>
        <time>2022-08-10T13:25:29.670Z</time>
      </trkpt>
      <trkpt lat="48.39443" lon="2.51747">
        <ele>102</ele>
        <time>2022-08-10T13:25:34.650Z</time>
      </trkpt>
      <trkpt lat="48.39445" lon="2.51738">
        <ele>102</ele>
        <time>2022-08-10T13:25:38.647Z</time>
      </trkpt>
      <trkpt lat="48.39446" lon="2.51729">
        <ele>101</ele>
        <time>2022-08-10T13:25:42.662Z</time>
      </trkpt>
      <trkpt lat="48.39447" lon="2.51719">
        <ele>101</ele>
        <time>2022-08-10T13:25:47.669Z</time>
      </trkpt>
      <trkpt lat="48.39449" lon="2.51712">
        <ele>101</ele>
        <time>2022-08-10T13:25:52.654Z</time>
      </trkpt>
      <trkpt lat="48.39451" lon="2.51704">
        <ele>102</ele>
        <time>2022-08-10T13:25:56.662Z</time>
      </trkpt>
      <trkpt lat="48.39452" lon="2.51696">
        <ele>102</ele>
        <time>2022-08-10T13:26:00.662Z</time>
      </trkpt>
      <trkpt lat="48.39453" lon="2.51688">
        <ele>102</ele>
        <time>2022-08-10T13:26:05.653Z</time>
      </trkpt>
      <trkpt lat="48.39453" lon="2.51682">
        <ele>102</ele>
        <time>2022-08-10T13:26:15.644Z</time>
      </trkpt>
      <trkpt lat="48.3945" lon="2.51679">
        <ele>103</ele>
        <time>2022-08-10T13:26:19.651Z</time>
      </trkpt>
      <trkpt lat="48.39448" lon="2.51676">
        <ele>103</ele>
        <time>2022-08-10T13:26:24.651Z</time>
      </trkpt>
      <trkpt lat="48.39447" lon="2.51666">
        <ele>103</ele>
        <time>2022-08-10T13:26:29.658Z</time>
      </trkpt>
      <trkpt lat="48.39446" lon="2.51664">
        <ele>103</ele>
        <time>2022-08-10T13:26:34.658Z</time>
      </trkpt>
      <trkpt lat="48.39444" lon="2.51663">
        <ele>103</ele>
        <time>2022-08-10T13:26:43.643Z</time>
      </trkpt>
      <trkpt lat="48.39441" lon="2.51662">
        <ele>103</ele>
        <time>2022-08-10T13:26:47.656Z</time>
      </trkpt>
      <trkpt lat="48.39437" lon="2.51663">
        <ele>103</ele>
        <time>2022-08-10T13:26:52.659Z</time>
      </trkpt>
      <trkpt lat="48.39432" lon="2.51662">
        <ele>103</ele>
        <time>2022-08-10T13:26:57.647Z</time>
      </trkpt>
      <trkpt lat="48.3943" lon="2.51661">
        <ele>102</ele>
        <time>2022-08-10T13:27:02.641Z</time>
      </trkpt>
      <trkpt lat="48.39429" lon="2.51661">
        <ele>102</ele>
        <time>2022-08-10T13:27:06.640Z</time>
      </trkpt>
      <trkpt lat="48.39427" lon="2.5166">
        <ele>102</ele>
        <time>2022-08-10T13:27:10.674Z</time>
      </trkpt>
      <trkpt lat="48.39426" lon="2.51655">
        <ele>102</ele>
        <time>2022-08-10T13:27:15.650Z</time>
      </trkpt>
      <trkpt lat="48.39426" lon="2.51654">
        <ele>102</ele>
        <time>2022-08-10T13:27:20.637Z</time>
      </trkpt>
      <trkpt lat="48.39425" lon="2.51651">
        <ele>103</ele>
        <time>2022-08-10T13:27:24.659Z</time>
      </trkpt>
      <trkpt lat="48.39425" lon="2.51648">
        <ele>103</ele>
        <time>2022-08-10T13:27:33.624Z</time>
      </trkpt>
      <trkpt lat="48.39426" lon="2.51642">
        <ele>103</ele>
        <time>2022-08-10T13:27:37.622Z</time>
      </trkpt>
      <trkpt lat="48.39425" lon="2.51635">
        <ele>103</ele>
        <time>2022-08-10T13:27:41.636Z</time>
      </trkpt>
      <trkpt lat="48.39422" lon="2.5163">
        <ele>103</ele>
        <time>2022-08-10T13:27:46.616Z</time>
      </trkpt>
      <trkpt lat="48.39421" lon="2.51624">
        <ele>103</ele>
        <time>2022-08-10T13:27:50.623Z</time>
      </trkpt>
      <trkpt lat="48.39422" lon="2.51618">
        <ele>103</ele>
        <time>2022-08-10T13:29:39.638Z</time>
      </trkpt>
      <trkpt lat="48.39424" lon="2.51616">
        <ele>103</ele>
        <time>2022-08-10T13:29:43.623Z</time>
      </trkpt>
      <trkpt lat="48.39425" lon="2.51613">
        <ele>103</ele>
        <time>2022-08-10T13:29:47.617Z</time>
      </trkpt>
      <trkpt lat="48.3943" lon="2.51604">
        <ele>103</ele>
        <time>2022-08-10T13:29:51.627Z</time>
      </trkpt>
      <trkpt lat="48.3943" lon="2.51603">
        <ele>103</ele>
        <time>2022-08-10T13:29:56.633Z</time>
      </trkpt>
      <trkpt lat="48.3943" lon="2.51601">
        <ele>103</ele>
        <time>2022-08-10T13:33:22.627Z</time>
      </trkpt>
      <trkpt lat="48.3943" lon="2.51596">
        <ele>101</ele>
        <time>2022-08-10T13:33:27.630Z</time>
      </trkpt>
      <trkpt lat="48.3943" lon="2.51591">
        <ele>101</ele>
        <time>2022-08-10T13:33:32.617Z</time>
      </trkpt>
      <trkpt lat="48.39428" lon="2.516">
        <ele>103</ele>
        <time>2022-08-10T13:33:37.640Z</time>
      </trkpt>
      <trkpt lat="48.39428" lon="2.51601">
        <ele>103</ele>
        <time>2022-08-10T13:33:42.633Z</time>
      </trkpt>
      <trkpt lat="48.39428" lon="2.51602">
        <ele>103</ele>
        <time>2022-08-10T13:35:12.636Z</time>
      </trkpt>
      <trkpt lat="48.3943" lon="2.51604">
        <ele>103</ele>
        <time>2022-08-10T13:35:16.670Z</time>
      </trkpt>
      <trkpt lat="48.3943" lon="2.51604">
        <ele>103</ele>
        <time>2022-08-10T13:35:21.650Z</time>
      </trkpt>
      <trkpt lat="48.39428" lon="2.51606">
        <ele>103</ele>
        <time>2022-08-10T13:35:26.671Z</time>
      </trkpt>
      <trkpt lat="48.39427" lon="2.5161">
        <ele>103</ele>
        <time>2022-08-10T13:35:30.669Z</time>
      </trkpt>
      <trkpt lat="48.39429" lon="2.51615">
        <ele>103</ele>
        <time>2022-08-10T13:35:39.658Z</time>
      </trkpt>
      <trkpt lat="48.39428" lon="2.51618">
        <ele>103</ele>
        <time>2022-08-10T13:35:44.677Z</time>
      </trkpt>
      <trkpt lat="48.39427" lon="2.51623">
        <ele>103</ele>
        <time>2022-08-10T13:35:48.650Z</time>
      </trkpt>
      <trkpt lat="48.39428" lon="2.51637">
        <ele>103</ele>
        <time>2022-08-10T13:35:53.657Z</time>
      </trkpt>
      <trkpt lat="48.39431" lon="2.51641">
        <ele>103</ele>
        <time>2022-08-10T13:35:57.676Z</time>
      </trkpt>
      <trkpt lat="48.39428" lon="2.51644">
        <ele>103</ele>
        <time>2022-08-10T13:36:46.647Z</time>
      </trkpt>
      <trkpt lat="48.39425" lon="2.51646">
        <ele>103</ele>
        <time>2022-08-10T13:36:51.694Z</time>
      </trkpt>
      <trkpt lat="48.39426" lon="2.5165">
        <ele>103</ele>
        <time>2022-08-10T13:36:56.640Z</time>
      </trkpt>
      <trkpt lat="48.39427" lon="2.51657">
        <ele>102</ele>
        <time>2022-08-10T13:37:01.669Z</time>
      </trkpt>
      <trkpt lat="48.39429" lon="2.51658">
        <ele>102</ele>
        <time>2022-08-10T13:37:06.637Z</time>
      </trkpt>
      <trkpt lat="48.39431" lon="2.5166">
        <ele>103</ele>
        <time>2022-08-10T13:37:19.653Z</time>
      </trkpt>
      <trkpt lat="48.39434" lon="2.51663">
        <ele>103</ele>
        <time>2022-08-10T13:37:24.646Z</time>
      </trkpt>
      <trkpt lat="48.39437" lon="2.51663">
        <ele>103</ele>
        <time>2022-08-10T13:37:29.623Z</time>
      </trkpt>
      <trkpt lat="48.3944" lon="2.51665">
        <ele>103</ele>
        <time>2022-08-10T13:37:34.631Z</time>
      </trkpt>
      <trkpt lat="48.39437" lon="2.51666">
        <ele>103</ele>
        <time>2022-08-10T13:37:38.681Z</time>
      </trkpt>
      <trkpt lat="48.39434" lon="2.51665">
        <ele>103</ele>
        <time>2022-08-10T13:37:43.628Z</time>
      </trkpt>
      <trkpt lat="48.39431" lon="2.51665">
        <ele>103</ele>
        <time>2022-08-10T13:37:48.651Z</time>
      </trkpt>
      <trkpt lat="48.39429" lon="2.51662">
        <ele>102</ele>
        <time>2022-08-10T13:37:52.645Z</time>
      </trkpt>
      <trkpt lat="48.3943" lon="2.51661">
        <ele>102</ele>
        <time>2022-08-10T13:37:57.641Z</time>
      </trkpt>
      <trkpt lat="48.3943" lon="2.51657">
        <ele>102</ele>
        <time>2022-08-10T13:38:02.652Z</time>
      </trkpt>
      <trkpt lat="48.39428" lon="2.51654">
        <ele>102</ele>
        <time>2022-08-10T13:38:07.674Z</time>
      </trkpt>
      <trkpt lat="48.39427" lon="2.5165">
        <ele>103</ele>
        <time>2022-08-10T13:38:12.665Z</time>
      </trkpt>
      <trkpt lat="48.39426" lon="2.51645">
        <ele>103</ele>
        <time>2022-08-10T13:38:16.659Z</time>
      </trkpt>
      <trkpt lat="48.39426" lon="2.51639">
        <ele>103</ele>
        <time>2022-08-10T13:38:20.664Z</time>
      </trkpt>
      <trkpt lat="48.39427" lon="2.51635">
        <ele>103</ele>
        <time>2022-08-10T13:38:25.657Z</time>
      </trkpt>
      <trkpt lat="48.39429" lon="2.5163">
        <ele>103</ele>
        <time>2022-08-10T13:38:30.621Z</time>
      </trkpt>
      <trkpt lat="48.3943" lon="2.51623">
        <ele>103</ele>
        <time>2022-08-10T13:38:35.619Z</time>
      </trkpt>
      <trkpt lat="48.39432" lon="2.51616">
        <ele>103</ele>
        <time>2022-08-10T13:38:39.620Z</time>
      </trkpt>
      <trkpt lat="48.39434" lon="2.51614">
        <ele>103</ele>
        <time>2022-08-10T13:38:49.624Z</time>
      </trkpt>
      <trkpt lat="48.39435" lon="2.51609">
        <ele>103</ele>
        <time>2022-08-10T13:38:53.624Z</time>
      </trkpt>
      <trkpt lat="48.39437" lon="2.51602">
        <ele>103</ele>
        <time>2022-08-10T13:38:57.634Z</time>
      </trkpt>
      <trkpt lat="48.39437" lon="2.51592">
        <ele>103</ele>
        <time>2022-08-10T13:39:02.641Z</time>
      </trkpt>
      <trkpt lat="48.39436" lon="2.51589">
        <ele>103</ele>
        <time>2022-08-10T13:39:07.630Z</time>
      </trkpt>
      <trkpt lat="48.39437" lon="2.51587">
        <ele>103</ele>
        <time>2022-08-10T13:39:11.628Z</time>
      </trkpt>
      <trkpt lat="48.39438" lon="2.51584">
        <ele>103</ele>
        <time>2022-08-10T13:39:16.622Z</time>
      </trkpt>
      <trkpt lat="48.39438" lon="2.51576">
        <ele>103</ele>
        <time>2022-08-10T13:39:21.629Z</time>
      </trkpt>
      <trkpt lat="48.3944" lon="2.51574">
        <ele>103</ele>
        <time>2022-08-10T13:39:26.622Z</time>
      </trkpt>
      <trkpt lat="48.39442" lon="2.5157">
        <ele>103</ele>
        <time>2022-08-10T13:39:30.626Z</time>
      </trkpt>
      <trkpt lat="48.39443" lon="2.51568">
        <ele>102</ele>
        <time>2022-08-10T13:39:40.636Z</time>
      </trkpt>
      <trkpt lat="48.39443" lon="2.51564">
        <ele>102</ele>
        <time>2022-08-10T13:39:45.629Z</time>
      </trkpt>
      <trkpt lat="48.39444" lon="2.5156">
        <ele>102</ele>
        <time>2022-08-10T13:39:49.621Z</time>
      </trkpt>
      <trkpt lat="48.39448" lon="2.51562">
        <ele>102</ele>
        <time>2022-08-10T13:39:54.619Z</time>
      </trkpt>
      <trkpt lat="48.39447" lon="2.51558">
        <ele>102</ele>
        <time>2022-08-10T13:39:59.634Z</time>
      </trkpt>
      <trkpt lat="48.39446" lon="2.51556">
        <ele>102</ele>
        <time>2022-08-10T13:40:04.630Z</time>
      </trkpt>
      <trkpt lat="48.39446" lon="2.51549">
        <ele>102</ele>
        <time>2022-08-10T13:40:08.639Z</time>
      </trkpt>
      <trkpt lat="48.39447" lon="2.51543">
        <ele>102</ele>
        <time>2022-08-10T13:40:13.626Z</time>
      </trkpt>
      <trkpt lat="48.39449" lon="2.5154">
        <ele>101</ele>
        <time>2022-08-10T13:40:18.628Z</time>
      </trkpt>
      <trkpt lat="48.39453" lon="2.5154">
        <ele>101</ele>
        <time>2022-08-10T13:40:23.621Z</time>
      </trkpt>
      <trkpt lat="48.39457" lon="2.51538">
        <ele>101</ele>
        <time>2022-08-10T13:40:27.620Z</time>
      </trkpt>
      <trkpt lat="48.3946" lon="2.5153">
        <ele>97</ele>
        <time>2022-08-10T13:40:32.671Z</time>
      </trkpt>
      <trkpt lat="48.39464" lon="2.51522">
        <ele>97</ele>
        <time>2022-08-10T13:40:36.653Z</time>
      </trkpt>
      <trkpt lat="48.39467" lon="2.51516">
        <ele>97</ele>
        <time>2022-08-10T13:40:40.673Z</time>
      </trkpt>
      <trkpt lat="48.39468" lon="2.51506">
        <ele>96</ele>
        <time>2022-08-10T13:40:45.650Z</time>
      </trkpt>
      <trkpt lat="48.39468" lon="2.51501">
        <ele>96</ele>
        <time>2022-08-10T13:40:50.632Z</time>
      </trkpt>
      <trkpt lat="48.39468" lon="2.51496">
        <ele>96</ele>
        <time>2022-08-10T13:40:54.659Z</time>
      </trkpt>
      <trkpt lat="48.3947" lon="2.51492">
        <ele>96</ele>
        <time>2022-08-10T13:40:59.672Z</time>
      </trkpt>
      <trkpt lat="48.3947" lon="2.51488">
        <ele>96</ele>
        <time>2022-08-10T13:41:03.645Z</time>
      </trkpt>
      <trkpt lat="48.39471" lon="2.51484">
        <ele>93</ele>
        <time>2022-08-10T13:41:07.655Z</time>
      </trkpt>
      <trkpt lat="48.39474" lon="2.51479">
        <ele>93</ele>
        <time>2022-08-10T13:41:12.677Z</time>
      </trkpt>
      <trkpt lat="48.39475" lon="2.51475">
        <ele>93</ele>
        <time>2022-08-10T13:41:16.669Z</time>
      </trkpt>
      <trkpt lat="48.39476" lon="2.51473">
        <ele>93</ele>
        <time>2022-08-10T13:41:21.661Z</time>
      </trkpt>
      <trkpt lat="48.39477" lon="2.51469">
        <ele>93</ele>
        <time>2022-08-10T13:41:26.669Z</time>
      </trkpt>
      <trkpt lat="48.39479" lon="2.51466">
        <ele>93</ele>
        <time>2022-08-10T13:41:30.636Z</time>
      </trkpt>
      <trkpt lat="48.39482" lon="2.51464">
        <ele>93</ele>
        <time>2022-08-10T13:41:34.650Z</time>
      </trkpt>
      <trkpt lat="48.39486" lon="2.51467">
        <ele>93</ele>
        <time>2022-08-10T13:41:39.677Z</time>
      </trkpt>
      <trkpt lat="48.39488" lon="2.51466">
        <ele>88</ele>
        <time>2022-08-10T13:41:43.653Z</time>
      </trkpt>
      <trkpt lat="48.39491" lon="2.51461">
        <ele>88</ele>
        <time>2022-08-10T13:41:48.655Z</time>
      </trkpt>
      <trkpt lat="48.39493" lon="2.51454">
        <ele>86</ele>
        <time>2022-08-10T13:41:53.656Z</time>
      </trkpt>
      <trkpt lat="48.39496" lon="2.51448">
        <ele>86</ele>
        <time>2022-08-10T13:41:58.652Z</time>
      </trkpt>
      <trkpt lat="48.39496" lon="2.51438">
        <ele>86</ele>
        <time>2022-08-10T13:42:03.675Z</time>
      </trkpt>
      <trkpt lat="48.39498" lon="2.51429">
        <ele>84</ele>
        <time>2022-08-10T13:42:07.627Z</time>
      </trkpt>
      <trkpt lat="48.39498" lon="2.51422">
        <ele>84</ele>
        <time>2022-08-10T13:42:12.652Z</time>
      </trkpt>
      <trkpt lat="48.39496" lon="2.51416">
        <ele>84</ele>
        <time>2022-08-10T13:42:16.670Z</time>
      </trkpt>
      <trkpt lat="48.39493" lon="2.51415">
        <ele>84</ele>
        <time>2022-08-10T13:42:21.633Z</time>
      </trkpt>
      <trkpt lat="48.39488" lon="2.51416">
        <ele>84</ele>
        <time>2022-08-10T13:42:26.634Z</time>
      </trkpt>
      <trkpt lat="48.39484" lon="2.51416">
        <ele>85</ele>
        <time>2022-08-10T13:42:30.646Z</time>
      </trkpt>
      <trkpt lat="48.39481" lon="2.5141">
        <ele>85</ele>
        <time>2022-08-10T13:42:35.668Z</time>
      </trkpt>
      <trkpt lat="48.39477" lon="2.51405">
        <ele>85</ele>
        <time>2022-08-10T13:42:40.669Z</time>
      </trkpt>
      <trkpt lat="48.39474" lon="2.51403">
        <ele>85</ele>
        <time>2022-08-10T13:42:44.652Z</time>
      </trkpt>
      <trkpt lat="48.3947" lon="2.51402">
        <ele>82</ele>
        <time>2022-08-10T13:42:49.663Z</time>
      </trkpt>
      <trkpt lat="48.39464" lon="2.51405">
        <ele>85</ele>
        <time>2022-08-10T13:42:54.649Z</time>
      </trkpt>
      <trkpt lat="48.39459" lon="2.51402">
        <ele>82</ele>
        <time>2022-08-10T13:42:59.621Z</time>
      </trkpt>
      <trkpt lat="48.39453" lon="2.51401">
        <ele>82</ele>
        <time>2022-08-10T13:43:03.624Z</time>
      </trkpt>
      <trkpt lat="48.39449" lon="2.51396">
        <ele>82</ele>
        <time>2022-08-10T13:43:07.621Z</time>
      </trkpt>
      <trkpt lat="48.39444" lon="2.51393">
        <ele>82</ele>
        <time>2022-08-10T13:43:12.658Z</time>
      </trkpt>
      <trkpt lat="48.39442" lon="2.51394">
        <ele>82</ele>
        <time>2022-08-10T13:43:17.657Z</time>
      </trkpt>
      <trkpt lat="48.39442" lon="2.51391">
        <ele>82</ele>
        <time>2022-08-10T13:43:21.658Z</time>
      </trkpt>
      <trkpt lat="48.39434" lon="2.51389">
        <ele>82</ele>
        <time>2022-08-10T13:43:26.666Z</time>
      </trkpt>
      <trkpt lat="48.39429" lon="2.51383">
        <ele>83</ele>
        <time>2022-08-10T13:43:30.669Z</time>
      </trkpt>
      <trkpt lat="48.39424" lon="2.51376">
        <ele>83</ele>
        <time>2022-08-10T13:43:34.648Z</time>
      </trkpt>
      <trkpt lat="48.39419" lon="2.51375">
        <ele>83</ele>
        <time>2022-08-10T13:43:39.639Z</time>
      </trkpt>
      <trkpt lat="48.39413" lon="2.51376">
        <ele>83</ele>
        <time>2022-08-10T13:43:43.662Z</time>
      </trkpt>
      <trkpt lat="48.39407" lon="2.51376">
        <ele>83</ele>
        <time>2022-08-10T13:43:48.643Z</time>
      </trkpt>
      <trkpt lat="48.394" lon="2.51374">
        <ele>81</ele>
        <time>2022-08-10T13:43:52.672Z</time>
      </trkpt>
      <trkpt lat="48.39395" lon="2.51374">
        <ele>81</ele>
        <time>2022-08-10T13:43:57.661Z</time>
      </trkpt>
      <trkpt lat="48.39386" lon="2.51374">
        <ele>81</ele>
        <time>2022-08-10T13:44:02.644Z</time>
      </trkpt>
      <trkpt lat="48.39382" lon="2.51374">
        <ele>81</ele>
        <time>2022-08-10T13:44:07.671Z</time>
      </trkpt>
      <trkpt lat="48.39378" lon="2.51371">
        <ele>81</ele>
        <time>2022-08-10T13:44:12.658Z</time>
      </trkpt>
      <trkpt lat="48.39372" lon="2.51369">
        <ele>80</ele>
        <time>2022-08-10T13:44:17.670Z</time>
      </trkpt>
      <trkpt lat="48.39367" lon="2.5137">
        <ele>80</ele>
        <time>2022-08-10T13:44:22.652Z</time>
      </trkpt>
      <trkpt lat="48.39362" lon="2.51376">
        <ele>82</ele>
        <time>2022-08-10T13:44:26.641Z</time>
      </trkpt>
      <trkpt lat="48.39357" lon="2.5138">
        <ele>82</ele>
        <time>2022-08-10T13:44:31.670Z</time>
      </trkpt>
      <trkpt lat="48.39351" lon="2.51382">
        <ele>82</ele>
        <time>2022-08-10T13:44:36.674Z</time>
      </trkpt>
      <trkpt lat="48.39346" lon="2.51381">
        <ele>78</ele>
        <time>2022-08-10T13:44:41.682Z</time>
      </trkpt>
      <trkpt lat="48.3934" lon="2.51381">
        <ele>78</ele>
        <time>2022-08-10T13:44:45.667Z</time>
      </trkpt>
      <trkpt lat="48.39335" lon="2.51382">
        <ele>78</ele>
        <time>2022-08-10T13:44:50.659Z</time>
      </trkpt>
      <trkpt lat="48.3933" lon="2.51386">
        <ele>78</ele>
        <time>2022-08-10T13:44:55.681Z</time>
      </trkpt>
      <trkpt lat="48.39326" lon="2.51392">
        <ele>78</ele>
        <time>2022-08-10T13:45:00.655Z</time>
      </trkpt>
      <trkpt lat="48.39322" lon="2.514">
        <ele>78</ele>
        <time>2022-08-10T13:45:05.654Z</time>
      </trkpt>
      <trkpt lat="48.39317" lon="2.51403">
        <ele>76</ele>
        <time>2022-08-10T13:45:10.651Z</time>
      </trkpt>
      <trkpt lat="48.39312" lon="2.51408">
        <ele>76</ele>
        <time>2022-08-10T13:45:15.677Z</time>
      </trkpt>
      <trkpt lat="48.39308" lon="2.51415">
        <ele>76</ele>
        <time>2022-08-10T13:45:20.658Z</time>
      </trkpt>
      <trkpt lat="48.39305" lon="2.5142">
        <ele>76</ele>
        <time>2022-08-10T13:45:24.675Z</time>
      </trkpt>
      <trkpt lat="48.39302" lon="2.51428">
        <ele>76</ele>
        <time>2022-08-10T13:45:29.673Z</time>
      </trkpt>
      <trkpt lat="48.39299" lon="2.51435">
        <ele>76</ele>
        <time>2022-08-10T13:45:34.662Z</time>
      </trkpt>
      <trkpt lat="48.39296" lon="2.51441">
        <ele>76</ele>
        <time>2022-08-10T13:45:38.661Z</time>
      </trkpt>
      <trkpt lat="48.39291" lon="2.51452">
        <ele>75</ele>
        <time>2022-08-10T13:45:43.667Z</time>
      </trkpt>
      <trkpt lat="48.39286" lon="2.51464">
        <ele>76</ele>
        <time>2022-08-10T13:45:48.646Z</time>
      </trkpt>
      <trkpt lat="48.39283" lon="2.51473">
        <ele>76</ele>
        <time>2022-08-10T13:45:53.667Z</time>
      </trkpt>
      <trkpt lat="48.39282" lon="2.51484">
        <ele>76</ele>
        <time>2022-08-10T13:45:58.643Z</time>
      </trkpt>
      <trkpt lat="48.39277" lon="2.51491">
        <ele>76</ele>
        <time>2022-08-10T13:46:02.656Z</time>
      </trkpt>
      <trkpt lat="48.39273" lon="2.515">
        <ele>76</ele>
        <time>2022-08-10T13:46:06.650Z</time>
      </trkpt>
      <trkpt lat="48.3927" lon="2.51507">
        <ele>76</ele>
        <time>2022-08-10T13:46:10.658Z</time>
      </trkpt>
      <trkpt lat="48.39267" lon="2.51511">
        <ele>76</ele>
        <time>2022-08-10T13:46:15.684Z</time>
      </trkpt>
      <trkpt lat="48.39264" lon="2.51518">
        <ele>77</ele>
        <time>2022-08-10T13:46:20.627Z</time>
      </trkpt>
      <trkpt lat="48.39263" lon="2.51526">
        <ele>78</ele>
        <time>2022-08-10T13:46:25.628Z</time>
      </trkpt>
      <trkpt lat="48.39264" lon="2.51536">
        <ele>77</ele>
        <time>2022-08-10T13:46:29.629Z</time>
      </trkpt>
      <trkpt lat="48.39266" lon="2.51544">
        <ele>78</ele>
        <time>2022-08-10T13:46:33.618Z</time>
      </trkpt>
      <trkpt lat="48.39269" lon="2.51551">
        <ele>78</ele>
        <time>2022-08-10T13:46:37.638Z</time>
      </trkpt>
      <trkpt lat="48.39271" lon="2.51558">
        <ele>78</ele>
        <time>2022-08-10T13:46:42.617Z</time>
      </trkpt>
      <trkpt lat="48.39272" lon="2.51565">
        <ele>78</ele>
        <time>2022-08-10T13:46:46.639Z</time>
      </trkpt>
      <trkpt lat="48.39274" lon="2.5157">
        <ele>78</ele>
        <time>2022-08-10T13:46:51.646Z</time>
      </trkpt>
      <trkpt lat="48.39277" lon="2.51576">
        <ele>78</ele>
        <time>2022-08-10T13:46:56.644Z</time>
      </trkpt>
      <trkpt lat="48.39279" lon="2.51576">
        <ele>78</ele>
        <time>2022-08-10T13:47:01.634Z</time>
      </trkpt>
      <trkpt lat="48.39275" lon="2.51568">
        <ele>78</ele>
        <time>2022-08-10T13:47:05.636Z</time>
      </trkpt>
      <trkpt lat="48.3927" lon="2.51565">
        <ele>78</ele>
        <time>2022-08-10T13:47:10.627Z</time>
      </trkpt>
      <trkpt lat="48.39266" lon="2.51571">
        <ele>78</ele>
        <time>2022-08-10T13:47:15.622Z</time>
      </trkpt>
      <trkpt lat="48.39261" lon="2.51574">
        <ele>78</ele>
        <time>2022-08-10T13:47:19.630Z</time>
      </trkpt>
      <trkpt lat="48.39257" lon="2.51581">
        <ele>78</ele>
        <time>2022-08-10T13:47:24.628Z</time>
      </trkpt>
      <trkpt lat="48.39253" lon="2.51589">
        <ele>78</ele>
        <time>2022-08-10T13:47:28.640Z</time>
      </trkpt>
      <trkpt lat="48.3925" lon="2.51597">
        <ele>78</ele>
        <time>2022-08-10T13:47:33.635Z</time>
      </trkpt>
      <trkpt lat="48.39247" lon="2.51607">
        <ele>79</ele>
        <time>2022-08-10T13:47:37.637Z</time>
      </trkpt>
      <trkpt lat="48.39243" lon="2.51613">
        <ele>79</ele>
        <time>2022-08-10T13:47:42.630Z</time>
      </trkpt>
      <trkpt lat="48.39238" lon="2.51619">
        <ele>79</ele>
        <time>2022-08-10T13:47:46.630Z</time>
      </trkpt>
      <trkpt lat="48.39235" lon="2.51624">
        <ele>80</ele>
        <time>2022-08-10T13:47:50.622Z</time>
      </trkpt>
      <trkpt lat="48.39231" lon="2.51629">
        <ele>81</ele>
        <time>2022-08-10T13:47:54.641Z</time>
      </trkpt>
      <trkpt lat="48.39227" lon="2.51633">
        <ele>81</ele>
        <time>2022-08-10T13:47:59.638Z</time>
      </trkpt>
      <trkpt lat="48.39224" lon="2.51638">
        <ele>81</ele>
        <time>2022-08-10T13:48:03.672Z</time>
      </trkpt>
      <trkpt lat="48.3922" lon="2.51643">
        <ele>81</ele>
        <time>2022-08-10T13:48:08.655Z</time>
      </trkpt>
      <trkpt lat="48.39215" lon="2.51647">
        <ele>81</ele>
        <time>2022-08-10T13:48:13.643Z</time>
      </trkpt>
      <trkpt lat="48.3921" lon="2.51651">
        <ele>81</ele>
        <time>2022-08-10T13:48:18.651Z</time>
      </trkpt>
      <trkpt lat="48.39202" lon="2.51652">
        <ele>80</ele>
        <time>2022-08-10T13:48:23.662Z</time>
      </trkpt>
      <trkpt lat="48.39195" lon="2.51655">
        <ele>81</ele>
        <time>2022-08-10T13:48:28.653Z</time>
      </trkpt>
      <trkpt lat="48.39189" lon="2.51657">
        <ele>81</ele>
        <time>2022-08-10T13:48:33.665Z</time>
      </trkpt>
      <trkpt lat="48.39184" lon="2.51659">
        <ele>81</ele>
        <time>2022-08-10T13:48:38.654Z</time>
      </trkpt>
      <trkpt lat="48.39177" lon="2.51661">
        <ele>79</ele>
        <time>2022-08-10T13:48:43.681Z</time>
      </trkpt>
      <trkpt lat="48.39171" lon="2.51664">
        <ele>79</ele>
        <time>2022-08-10T13:48:48.640Z</time>
      </trkpt>
      <trkpt lat="48.39165" lon="2.51669">
        <ele>79</ele>
        <time>2022-08-10T13:48:53.653Z</time>
      </trkpt>
      <trkpt lat="48.39159" lon="2.51673">
        <ele>79</ele>
        <time>2022-08-10T13:48:58.660Z</time>
      </trkpt>
      <trkpt lat="48.39154" lon="2.5168">
        <ele>79</ele>
        <time>2022-08-10T13:49:03.674Z</time>
      </trkpt>
      <trkpt lat="48.39151" lon="2.51687">
        <ele>79</ele>
        <time>2022-08-10T13:49:07.636Z</time>
      </trkpt>
      <trkpt lat="48.39148" lon="2.51695">
        <ele>79</ele>
        <time>2022-08-10T13:49:12.630Z</time>
      </trkpt>
      <trkpt lat="48.39143" lon="2.51704">
        <ele>79</ele>
        <time>2022-08-10T13:49:17.643Z</time>
      </trkpt>
      <trkpt lat="48.39142" lon="2.51713">
        <ele>79</ele>
        <time>2022-08-10T13:49:21.677Z</time>
      </trkpt>
      <trkpt lat="48.39141" lon="2.51723">
        <ele>79</ele>
        <time>2022-08-10T13:49:26.643Z</time>
      </trkpt>
      <trkpt lat="48.39137" lon="2.51731">
        <ele>79</ele>
        <time>2022-08-10T13:49:30.649Z</time>
      </trkpt>
      <trkpt lat="48.39136" lon="2.51739">
        <ele>79</ele>
        <time>2022-08-10T13:49:35.655Z</time>
      </trkpt>
      <trkpt lat="48.39133" lon="2.51751">
        <ele>79</ele>
        <time>2022-08-10T13:49:40.636Z</time>
      </trkpt>
      <trkpt lat="48.39133" lon="2.51759">
        <ele>79</ele>
        <time>2022-08-10T13:49:45.646Z</time>
      </trkpt>
      <trkpt lat="48.39134" lon="2.51767">
        <ele>78</ele>
        <time>2022-08-10T13:49:49.660Z</time>
      </trkpt>
      <trkpt lat="48.39135" lon="2.51774">
        <ele>78</ele>
        <time>2022-08-10T13:49:54.640Z</time>
      </trkpt>
      <trkpt lat="48.39134" lon="2.51781">
        <ele>78</ele>
        <time>2022-08-10T13:49:58.640Z</time>
      </trkpt>
      <trkpt lat="48.39133" lon="2.5179">
        <ele>78</ele>
        <time>2022-08-10T13:50:03.642Z</time>
      </trkpt>
      <trkpt lat="48.39133" lon="2.518">
        <ele>79</ele>
        <time>2022-08-10T13:50:07.644Z</time>
      </trkpt>
      <trkpt lat="48.39131" lon="2.51807">
        <ele>79</ele>
        <time>2022-08-10T13:50:12.639Z</time>
      </trkpt>
      <trkpt lat="48.39131" lon="2.51818">
        <ele>79</ele>
        <time>2022-08-10T13:50:17.662Z</time>
      </trkpt>
      <trkpt lat="48.39131" lon="2.51824">
        <ele>79</ele>
        <time>2022-08-10T13:50:22.668Z</time>
      </trkpt>
      <trkpt lat="48.3913" lon="2.51835">
        <ele>79</ele>
        <time>2022-08-10T13:50:26.632Z</time>
      </trkpt>
      <trkpt lat="48.39131" lon="2.51846">
        <ele>79</ele>
        <time>2022-08-10T13:50:31.634Z</time>
      </trkpt>
      <trkpt lat="48.39131" lon="2.51854">
        <ele>79</ele>
        <time>2022-08-10T13:50:35.658Z</time>
      </trkpt>
      <trkpt lat="48.39133" lon="2.5186">
        <ele>79</ele>
        <time>2022-08-10T13:50:39.641Z</time>
      </trkpt>
      <trkpt lat="48.39136" lon="2.51868">
        <ele>79</ele>
        <time>2022-08-10T13:50:44.653Z</time>
      </trkpt>
      <trkpt lat="48.39137" lon="2.51874">
        <ele>79</ele>
        <time>2022-08-10T13:50:48.636Z</time>
      </trkpt>
      <trkpt lat="48.39139" lon="2.51879">
        <ele>80</ele>
        <time>2022-08-10T13:50:53.651Z</time>
      </trkpt>
      <trkpt lat="48.39142" lon="2.51888">
        <ele>80</ele>
        <time>2022-08-10T13:50:57.643Z</time>
      </trkpt>
      <trkpt lat="48.39143" lon="2.51892">
        <ele>80</ele>
        <time>2022-08-10T13:51:02.620Z</time>
      </trkpt>
      <trkpt lat="48.3914" lon="2.51904">
        <ele>81</ele>
        <time>2022-08-10T13:51:07.631Z</time>
      </trkpt>
      <trkpt lat="48.39135" lon="2.5191">
        <ele>81</ele>
        <time>2022-08-10T13:51:11.636Z</time>
      </trkpt>
      <trkpt lat="48.39131" lon="2.51921">
        <ele>81</ele>
        <time>2022-08-10T13:51:15.634Z</time>
      </trkpt>
      <trkpt lat="48.3913" lon="2.51936">
        <ele>81</ele>
        <time>2022-08-10T13:51:19.647Z</time>
      </trkpt>
      <trkpt lat="48.39127" lon="2.51943">
        <ele>81</ele>
        <time>2022-08-10T13:51:24.634Z</time>
      </trkpt>
      <trkpt lat="48.39124" lon="2.51948">
        <ele>79</ele>
        <time>2022-08-10T13:51:28.642Z</time>
      </trkpt>
      <trkpt lat="48.3912" lon="2.51949">
        <ele>79</ele>
        <time>2022-08-10T13:51:33.646Z</time>
      </trkpt>
      <trkpt lat="48.39116" lon="2.51947">
        <ele>79</ele>
        <time>2022-08-10T13:51:38.630Z</time>
      </trkpt>
      <trkpt lat="48.39112" lon="2.51947">
        <ele>79</ele>
        <time>2022-08-10T13:51:43.634Z</time>
      </trkpt>
      <trkpt lat="48.39106" lon="2.51948">
        <ele>79</ele>
        <time>2022-08-10T13:51:47.648Z</time>
      </trkpt>
      <trkpt lat="48.391" lon="2.5195">
        <ele>79</ele>
        <time>2022-08-10T13:51:52.644Z</time>
      </trkpt>
      <trkpt lat="48.39097" lon="2.51953">
        <ele>77</ele>
        <time>2022-08-10T13:51:57.648Z</time>
      </trkpt>
      <trkpt lat="48.39093" lon="2.51955">
        <ele>77</ele>
        <time>2022-08-10T13:52:02.638Z</time>
      </trkpt>
      <trkpt lat="48.39088" lon="2.51958">
        <ele>77</ele>
        <time>2022-08-10T13:52:07.648Z</time>
      </trkpt>
      <trkpt lat="48.39086" lon="2.51963">
        <ele>78</ele>
        <time>2022-08-10T13:52:12.644Z</time>
      </trkpt>
      <trkpt lat="48.39082" lon="2.51968">
        <ele>78</ele>
        <time>2022-08-10T13:52:17.629Z</time>
      </trkpt>
      <trkpt lat="48.39078" lon="2.51974">
        <ele>78</ele>
        <time>2022-08-10T13:52:21.645Z</time>
      </trkpt>
      <trkpt lat="48.39075" lon="2.51976">
        <ele>78</ele>
        <time>2022-08-10T13:52:26.636Z</time>
      </trkpt>
      <trkpt lat="48.39074" lon="2.51973">
        <ele>78</ele>
        <time>2022-08-10T13:52:31.650Z</time>
      </trkpt>
      <trkpt lat="48.39072" lon="2.51967">
        <ele>78</ele>
        <time>2022-08-10T13:52:36.634Z</time>
      </trkpt>
      <trkpt lat="48.39072" lon="2.5196">
        <ele>78</ele>
        <time>2022-08-10T13:52:41.624Z</time>
      </trkpt>
      <trkpt lat="48.3907" lon="2.51953">
        <ele>77</ele>
        <time>2022-08-10T13:52:45.632Z</time>
      </trkpt>
      <trkpt lat="48.3907" lon="2.51948">
        <ele>77</ele>
        <time>2022-08-10T13:52:50.636Z</time>
      </trkpt>
      <trkpt lat="48.39069" lon="2.51944">
        <ele>74</ele>
        <time>2022-08-10T13:52:55.633Z</time>
      </trkpt>
      <trkpt lat="48.39067" lon="2.51939">
        <ele>74</ele>
        <time>2022-08-10T13:52:59.636Z</time>
      </trkpt>
      <trkpt lat="48.39064" lon="2.51933">
        <ele>74</ele>
        <time>2022-08-10T13:53:03.654Z</time>
      </trkpt>
      <trkpt lat="48.39064" lon="2.51932">
        <ele>74</ele>
        <time>2022-08-10T13:53:08.664Z</time>
      </trkpt>
      <trkpt lat="48.39063" lon="2.51932">
        <ele>74</ele>
        <time>2022-08-10T13:53:13.632Z</time>
      </trkpt>
      <trkpt lat="48.39064" lon="2.51932">
        <ele>74</ele>
        <time>2022-08-10T13:53:17.663Z</time>
      </trkpt>
      <trkpt lat="48.39063" lon="2.51926">
        <ele>73</ele>
        <time>2022-08-10T13:53:22.652Z</time>
      </trkpt>
      <trkpt lat="48.39059" lon="2.51917">
        <ele>73</ele>
        <time>2022-08-10T13:53:27.680Z</time>
      </trkpt>
      <trkpt lat="48.39056" lon="2.51911">
        <ele>73</ele>
        <time>2022-08-10T13:53:31.690Z</time>
      </trkpt>
      <trkpt lat="48.3905" lon="2.5191">
        <ele>73</ele>
        <time>2022-08-10T13:53:36.647Z</time>
      </trkpt>
      <trkpt lat="48.39045" lon="2.5191">
        <ele>73</ele>
        <time>2022-08-10T13:53:41.678Z</time>
      </trkpt>
      <trkpt lat="48.39039" lon="2.51909">
        <ele>72</ele>
        <time>2022-08-10T13:53:46.653Z</time>
      </trkpt>
      <trkpt lat="48.39032" lon="2.51908">
        <ele>72</ele>
        <time>2022-08-10T13:53:51.658Z</time>
      </trkpt>
      <trkpt lat="48.39026" lon="2.51904">
        <ele>72</ele>
        <time>2022-08-10T13:53:56.670Z</time>
      </trkpt>
      <trkpt lat="48.3902" lon="2.51903">
        <ele>71</ele>
        <time>2022-08-10T13:54:01.646Z</time>
      </trkpt>
      <trkpt lat="48.39014" lon="2.51901">
        <ele>72</ele>
        <time>2022-08-10T13:54:05.645Z</time>
      </trkpt>
      <trkpt lat="48.39008" lon="2.51901">
        <ele>72</ele>
        <time>2022-08-10T13:54:09.683Z</time>
      </trkpt>
      <trkpt lat="48.39006" lon="2.51902">
        <ele>72</ele>
        <time>2022-08-10T13:54:13.643Z</time>
      </trkpt>
      <trkpt lat="48.39007" lon="2.51906">
        <ele>74</ele>
        <time>2022-08-10T13:54:18.651Z</time>
      </trkpt>
      <trkpt lat="48.39008" lon="2.51913">
        <ele>74</ele>
        <time>2022-08-10T13:54:23.650Z</time>
      </trkpt>
      <trkpt lat="48.39009" lon="2.51921">
        <ele>74</ele>
        <time>2022-08-10T13:54:27.649Z</time>
      </trkpt>
      <trkpt lat="48.39013" lon="2.51929">
        <ele>74</ele>
        <time>2022-08-10T13:54:32.639Z</time>
      </trkpt>
      <trkpt lat="48.39015" lon="2.51938">
        <ele>73</ele>
        <time>2022-08-10T13:54:37.678Z</time>
      </trkpt>
      <trkpt lat="48.39017" lon="2.51945">
        <ele>73</ele>
        <time>2022-08-10T13:54:42.661Z</time>
      </trkpt>
      <trkpt lat="48.39018" lon="2.51954">
        <ele>73</ele>
        <time>2022-08-10T13:54:46.648Z</time>
      </trkpt>
      <trkpt lat="48.3902" lon="2.5196">
        <ele>74</ele>
        <time>2022-08-10T13:54:51.660Z</time>
      </trkpt>
      <trkpt lat="48.39023" lon="2.51968">
        <ele>74</ele>
        <time>2022-08-10T13:54:56.640Z</time>
      </trkpt>
      <trkpt lat="48.39026" lon="2.51975">
        <ele>74</ele>
        <time>2022-08-10T13:55:00.638Z</time>
      </trkpt>
      <trkpt lat="48.39027" lon="2.51986">
        <ele>74</ele>
        <time>2022-08-10T13:55:05.660Z</time>
      </trkpt>
      <trkpt lat="48.39029" lon="2.51997">
        <ele>76</ele>
        <time>2022-08-10T13:55:09.674Z</time>
      </trkpt>
      <trkpt lat="48.39032" lon="2.52004">
        <ele>76</ele>
        <time>2022-08-10T13:55:14.651Z</time>
      </trkpt>
      <trkpt lat="48.39033" lon="2.52013">
        <ele>76</ele>
        <time>2022-08-10T13:55:19.670Z</time>
      </trkpt>
      <trkpt lat="48.39034" lon="2.5202">
        <ele>77</ele>
        <time>2022-08-10T13:55:24.666Z</time>
      </trkpt>
      <trkpt lat="48.39035" lon="2.5203">
        <ele>77</ele>
        <time>2022-08-10T13:55:29.668Z</time>
      </trkpt>
      <trkpt lat="48.39034" lon="2.52037">
        <ele>77</ele>
        <time>2022-08-10T13:55:34.649Z</time>
      </trkpt>
      <trkpt lat="48.3903" lon="2.52044">
        <ele>77</ele>
        <time>2022-08-10T13:55:38.673Z</time>
      </trkpt>
      <trkpt lat="48.39024" lon="2.52047">
        <ele>77</ele>
        <time>2022-08-10T13:55:43.656Z</time>
      </trkpt>
      <trkpt lat="48.3902" lon="2.52048">
        <ele>77</ele>
        <time>2022-08-10T13:55:48.650Z</time>
      </trkpt>
      <trkpt lat="48.39015" lon="2.5205">
        <ele>77</ele>
        <time>2022-08-10T13:55:52.649Z</time>
      </trkpt>
      <trkpt lat="48.3901" lon="2.52053">
        <ele>78</ele>
        <time>2022-08-10T13:55:57.668Z</time>
      </trkpt>
      <trkpt lat="48.39005" lon="2.52054">
        <ele>78</ele>
        <time>2022-08-10T13:56:02.669Z</time>
      </trkpt>
      <trkpt lat="48.39002" lon="2.52054">
        <ele>78</ele>
        <time>2022-08-10T13:56:06.654Z</time>
      </trkpt>
      <trkpt lat="48.38998" lon="2.52058">
        <ele>78</ele>
        <time>2022-08-10T13:56:11.634Z</time>
      </trkpt>
      <trkpt lat="48.38994" lon="2.5206">
        <ele>78</ele>
        <time>2022-08-10T13:56:16.656Z</time>
      </trkpt>
      <trkpt lat="48.3899" lon="2.52061">
        <ele>78</ele>
        <time>2022-08-10T13:56:21.656Z</time>
      </trkpt>
      <trkpt lat="48.38986" lon="2.52063">
        <ele>78</ele>
        <time>2022-08-10T13:56:25.655Z</time>
      </trkpt>
      <trkpt lat="48.38983" lon="2.52067">
        <ele>80</ele>
        <time>2022-08-10T13:56:29.683Z</time>
      </trkpt>
      <trkpt lat="48.38981" lon="2.5207">
        <ele>83</ele>
        <time>2022-08-10T13:56:34.640Z</time>
      </trkpt>
      <trkpt lat="48.38979" lon="2.52071">
        <ele>83</ele>
        <time>2022-08-10T13:56:39.651Z</time>
      </trkpt>
      <trkpt lat="48.38979" lon="2.52071">
        <ele>83</ele>
        <time>2022-08-10T13:56:44.643Z</time>
      </trkpt>
      <trkpt lat="48.38978" lon="2.5207">
        <ele>83</ele>
        <time>2022-08-10T13:56:48.658Z</time>
      </trkpt>
      <trkpt lat="48.38976" lon="2.52074">
        <ele>83</ele>
        <time>2022-08-10T13:56:53.634Z</time>
      </trkpt>
      <trkpt lat="48.38976" lon="2.52079">
        <ele>83</ele>
        <time>2022-08-10T13:56:57.654Z</time>
      </trkpt>
      <trkpt lat="48.38976" lon="2.52085">
        <ele>83</ele>
        <time>2022-08-10T13:57:02.652Z</time>
      </trkpt>
      <trkpt lat="48.38976" lon="2.5209">
        <ele>83</ele>
        <time>2022-08-10T13:57:06.663Z</time>
      </trkpt>
      <trkpt lat="48.38977" lon="2.52094">
        <ele>83</ele>
        <time>2022-08-10T13:57:11.638Z</time>
      </trkpt>
      <trkpt lat="48.38975" lon="2.52101">
        <ele>86</ele>
        <time>2022-08-10T13:57:16.666Z</time>
      </trkpt>
      <trkpt lat="48.38972" lon="2.52107">
        <ele>86</ele>
        <time>2022-08-10T13:57:20.642Z</time>
      </trkpt>
      <trkpt lat="48.38968" lon="2.52113">
        <ele>86</ele>
        <time>2022-08-10T13:57:25.654Z</time>
      </trkpt>
      <trkpt lat="48.38964" lon="2.52116">
        <ele>86</ele>
        <time>2022-08-10T13:57:30.689Z</time>
      </trkpt>
      <trkpt lat="48.38962" lon="2.52124">
        <ele>86</ele>
        <time>2022-08-10T13:57:34.666Z</time>
      </trkpt>
      <trkpt lat="48.38959" lon="2.5213">
        <ele>89</ele>
        <time>2022-08-10T13:57:39.654Z</time>
      </trkpt>
      <trkpt lat="48.38958" lon="2.52132">
        <ele>90</ele>
        <time>2022-08-10T13:57:43.634Z</time>
      </trkpt>
      <trkpt lat="48.38959" lon="2.52136">
        <ele>89</ele>
        <time>2022-08-10T13:57:48.672Z</time>
      </trkpt>
      <trkpt lat="48.38959" lon="2.5214">
        <ele>89</ele>
        <time>2022-08-10T13:57:52.663Z</time>
      </trkpt>
      <trkpt lat="48.38957" lon="2.52144">
        <ele>90</ele>
        <time>2022-08-10T13:57:57.676Z</time>
      </trkpt>
      <trkpt lat="48.38955" lon="2.52147">
        <ele>90</ele>
        <time>2022-08-10T13:58:02.665Z</time>
      </trkpt>
      <trkpt lat="48.38953" lon="2.5215">
        <ele>90</ele>
        <time>2022-08-10T13:58:07.634Z</time>
      </trkpt>
      <trkpt lat="48.3895" lon="2.5215">
        <ele>90</ele>
        <time>2022-08-10T13:58:16.681Z</time>
      </trkpt>
      <trkpt lat="48.38946" lon="2.52153">
        <ele>93</ele>
        <time>2022-08-10T13:58:20.661Z</time>
      </trkpt>
      <trkpt lat="48.38943" lon="2.5216">
        <ele>93</ele>
        <time>2022-08-10T13:58:25.697Z</time>
      </trkpt>
      <trkpt lat="48.38942" lon="2.52169">
        <ele>93</ele>
        <time>2022-08-10T13:58:30.665Z</time>
      </trkpt>
      <trkpt lat="48.3894" lon="2.52172">
        <ele>93</ele>
        <time>2022-08-10T13:58:35.650Z</time>
      </trkpt>
      <trkpt lat="48.3894" lon="2.52177">
        <ele>93</ele>
        <time>2022-08-10T13:59:03.658Z</time>
      </trkpt>
      <trkpt lat="48.38941" lon="2.52179">
        <ele>93</ele>
        <time>2022-08-10T13:59:08.632Z</time>
      </trkpt>
      <trkpt lat="48.38941" lon="2.52183">
        <ele>98</ele>
        <time>2022-08-10T13:59:13.673Z</time>
      </trkpt>
      <trkpt lat="48.38941" lon="2.52199">
        <ele>98</ele>
        <time>2022-08-10T13:59:18.641Z</time>
      </trkpt>
      <trkpt lat="48.38942" lon="2.522">
        <ele>98</ele>
        <time>2022-08-10T13:59:23.647Z</time>
      </trkpt>
      <trkpt lat="48.38943" lon="2.52203">
        <ele>98</ele>
        <time>2022-08-10T13:59:27.665Z</time>
      </trkpt>
      <trkpt lat="48.38943" lon="2.52205">
        <ele>98</ele>
        <time>2022-08-10T13:59:32.685Z</time>
      </trkpt>
      <trkpt lat="48.38945" lon="2.52209">
        <ele>102</ele>
        <time>2022-08-10T13:59:36.669Z</time>
      </trkpt>
      <trkpt lat="48.38945" lon="2.52212">
        <ele>102</ele>
        <time>2022-08-10T13:59:41.667Z</time>
      </trkpt>
      <trkpt lat="48.38945" lon="2.52216">
        <ele>102</ele>
        <time>2022-08-10T13:59:46.638Z</time>
      </trkpt>
      <trkpt lat="48.38945" lon="2.52219">
        <ele>102</ele>
        <time>2022-08-10T13:59:55.671Z</time>
      </trkpt>
      <trkpt lat="48.38944" lon="2.52222">
        <ele>102</ele>
        <time>2022-08-10T14:00:00.672Z</time>
      </trkpt>
      <trkpt lat="48.38943" lon="2.52226">
        <ele>102</ele>
        <time>2022-08-10T14:00:04.659Z</time>
      </trkpt>
      <trkpt lat="48.38939" lon="2.52233">
        <ele>102</ele>
        <time>2022-08-10T14:00:09.684Z</time>
      </trkpt>
      <trkpt lat="48.38936" lon="2.52234">
        <ele>102</ele>
        <time>2022-08-10T14:00:13.662Z</time>
      </trkpt>
      <trkpt lat="48.38936" lon="2.52235">
        <ele>102</ele>
        <time>2022-08-10T14:00:22.679Z</time>
      </trkpt>
      <trkpt lat="48.38935" lon="2.52238">
        <ele>106</ele>
        <time>2022-08-10T14:00:27.653Z</time>
      </trkpt>
      <trkpt lat="48.38933" lon="2.52241">
        <ele>106</ele>
        <time>2022-08-10T14:00:32.666Z</time>
      </trkpt>
      <trkpt lat="48.38935" lon="2.52247">
        <ele>106</ele>
        <time>2022-08-10T14:00:37.680Z</time>
      </trkpt>
      <trkpt lat="48.38934" lon="2.5225">
        <ele>106</ele>
        <time>2022-08-10T14:00:42.662Z</time>
      </trkpt>
      <trkpt lat="48.38933" lon="2.52254">
        <ele>106</ele>
        <time>2022-08-10T14:01:05.661Z</time>
      </trkpt>
      <trkpt lat="48.38934" lon="2.52257">
        <ele>106</ele>
        <time>2022-08-10T14:01:10.652Z</time>
      </trkpt>
      <trkpt lat="48.38936" lon="2.5226">
        <ele>106</ele>
        <time>2022-08-10T14:01:15.637Z</time>
      </trkpt>
      <trkpt lat="48.38932" lon="2.52261">
        <ele>106</ele>
        <time>2022-08-10T14:01:19.676Z</time>
      </trkpt>
      <trkpt lat="48.3893" lon="2.52262">
        <ele>109</ele>
        <time>2022-08-10T14:01:23.653Z</time>
      </trkpt>
      <trkpt lat="48.38928" lon="2.52265">
        <ele>113</ele>
        <time>2022-08-10T14:01:28.655Z</time>
      </trkpt>
      <trkpt lat="48.38928" lon="2.52268">
        <ele>113</ele>
        <time>2022-08-10T14:01:32.658Z</time>
      </trkpt>
      <trkpt lat="48.38925" lon="2.52271">
        <ele>113</ele>
        <time>2022-08-10T14:01:36.659Z</time>
      </trkpt>
      <trkpt lat="48.38921" lon="2.52274">
        <ele>113</ele>
        <time>2022-08-10T14:01:41.664Z</time>
      </trkpt>
      <trkpt lat="48.38918" lon="2.52278">
        <ele>113</ele>
        <time>2022-08-10T14:07:59.647Z</time>
      </trkpt>
      <trkpt lat="48.38915" lon="2.52279">
        <ele>113</ele>
        <time>2022-08-10T14:08:03.653Z</time>
      </trkpt>
      <trkpt lat="48.38913" lon="2.52282">
        <ele>113</ele>
        <time>2022-08-10T14:08:07.664Z</time>
      </trkpt>
      <trkpt lat="48.38908" lon="2.52289">
        <ele>113</ele>
        <time>2022-08-10T14:08:12.652Z</time>
      </trkpt>
      <trkpt lat="48.38908" lon="2.52291">
        <ele>113</ele>
        <time>2022-08-10T14:08:16.657Z</time>
      </trkpt>
      <trkpt lat="48.38904" lon="2.52287">
        <ele>113</ele>
        <time>2022-08-10T14:08:21.650Z</time>
      </trkpt>
      <trkpt lat="48.38901" lon="2.52283">
        <ele>111</ele>
        <time>2022-08-10T14:08:25.653Z</time>
      </trkpt>
      <trkpt lat="48.38897" lon="2.52281">
        <ele>111</ele>
        <time>2022-08-10T14:08:29.647Z</time>
      </trkpt>
      <trkpt lat="48.38892" lon="2.52282">
        <ele>111</ele>
        <time>2022-08-10T14:08:34.643Z</time>
      </trkpt>
      <trkpt lat="48.38889" lon="2.52282">
        <ele>111</ele>
        <time>2022-08-10T14:08:43.657Z</time>
      </trkpt>
      <trkpt lat="48.38885" lon="2.52282">
        <ele>111</ele>
        <time>2022-08-10T14:08:48.652Z</time>
      </trkpt>
      <trkpt lat="48.38881" lon="2.52285">
        <ele>111</ele>
        <time>2022-08-10T14:08:52.667Z</time>
      </trkpt>
      <trkpt lat="48.38874" lon="2.52286">
        <ele>107</ele>
        <time>2022-08-10T14:08:56.668Z</time>
      </trkpt>
      <trkpt lat="48.38872" lon="2.52282">
        <ele>107</ele>
        <time>2022-08-10T14:09:01.656Z</time>
      </trkpt>
      <trkpt lat="48.38873" lon="2.5228">
        <ele>107</ele>
        <time>2022-08-10T14:09:29.639Z</time>
      </trkpt>
      <trkpt lat="48.38872" lon="2.52278">
        <ele>107</ele>
        <time>2022-08-10T14:09:33.652Z</time>
      </trkpt>
      <trkpt lat="48.38871" lon="2.52278">
        <ele>107</ele>
        <time>2022-08-10T14:09:38.652Z</time>
      </trkpt>
      <trkpt lat="48.38867" lon="2.52269">
        <ele>107</ele>
        <time>2022-08-10T14:09:43.656Z</time>
      </trkpt>
      <trkpt lat="48.38865" lon="2.52272">
        <ele>107</ele>
        <time>2022-08-10T14:09:47.651Z</time>
      </trkpt>
      <trkpt lat="48.38864" lon="2.52272">
        <ele>107</ele>
        <time>2022-08-10T14:10:14.652Z</time>
      </trkpt>
      <trkpt lat="48.38864" lon="2.52272">
        <ele>107</ele>
        <time>2022-08-10T14:10:19.649Z</time>
      </trkpt>
      <trkpt lat="48.38861" lon="2.52271">
        <ele>107</ele>
        <time>2022-08-10T14:10:24.639Z</time>
      </trkpt>
      <trkpt lat="48.38859" lon="2.52266">
        <ele>107</ele>
        <time>2022-08-10T14:10:29.661Z</time>
      </trkpt>
      <trkpt lat="48.38857" lon="2.52263">
        <ele>104</ele>
        <time>2022-08-10T14:10:34.655Z</time>
      </trkpt>
      <trkpt lat="48.38855" lon="2.52262">
        <ele>104</ele>
        <time>2022-08-10T14:10:39.650Z</time>
      </trkpt>
      <trkpt lat="48.38853" lon="2.52269">
        <ele>107</ele>
        <time>2022-08-10T14:10:44.651Z</time>
      </trkpt>
      <trkpt lat="48.3885" lon="2.52273">
        <ele>107</ele>
        <time>2022-08-10T14:10:49.642Z</time>
      </trkpt>
      <trkpt lat="48.38849" lon="2.52273">
        <ele>107</ele>
        <time>2022-08-10T14:10:54.659Z</time>
      </trkpt>
      <trkpt lat="48.38845" lon="2.52274">
        <ele>102</ele>
        <time>2022-08-10T14:10:59.663Z</time>
      </trkpt>
      <trkpt lat="48.38843" lon="2.52273">
        <ele>102</ele>
        <time>2022-08-10T14:11:03.665Z</time>
      </trkpt>
      <trkpt lat="48.3884" lon="2.52272">
        <ele>102</ele>
        <time>2022-08-10T14:11:08.667Z</time>
      </trkpt>
      <trkpt lat="48.38838" lon="2.52278">
        <ele>102</ele>
        <time>2022-08-10T14:11:13.639Z</time>
      </trkpt>
      <trkpt lat="48.38834" lon="2.52281">
        <ele>102</ele>
        <time>2022-08-10T14:11:17.666Z</time>
      </trkpt>
      <trkpt lat="48.38831" lon="2.52284">
        <ele>102</ele>
        <time>2022-08-10T14:11:22.667Z</time>
      </trkpt>
      <trkpt lat="48.38827" lon="2.52284">
        <ele>102</ele>
        <time>2022-08-10T14:11:27.654Z</time>
      </trkpt>
      <trkpt lat="48.38824" lon="2.52279">
        <ele>102</ele>
        <time>2022-08-10T14:11:31.650Z</time>
      </trkpt>
      <trkpt lat="48.38819" lon="2.52275">
        <ele>96</ele>
        <time>2022-08-10T14:11:35.649Z</time>
      </trkpt>
      <trkpt lat="48.38815" lon="2.52275">
        <ele>96</ele>
        <time>2022-08-10T14:11:40.645Z</time>
      </trkpt>
      <trkpt lat="48.38812" lon="2.52275">
        <ele>96</ele>
        <time>2022-08-10T14:11:44.646Z</time>
      </trkpt>
      <trkpt lat="48.38811" lon="2.52274">
        <ele>96</ele>
        <time>2022-08-10T14:11:49.655Z</time>
      </trkpt>
      <trkpt lat="48.38809" lon="2.52275">
        <ele>96</ele>
        <time>2022-08-10T14:11:53.644Z</time>
      </trkpt>
      <trkpt lat="48.38806" lon="2.52275">
        <ele>96</ele>
        <time>2022-08-10T14:11:57.668Z</time>
      </trkpt>
      <trkpt lat="48.38803" lon="2.52274">
        <ele>96</ele>
        <time>2022-08-10T14:12:02.670Z</time>
      </trkpt>
      <trkpt lat="48.38802" lon="2.52269">
        <ele>96</ele>
        <time>2022-08-10T14:12:06.646Z</time>
      </trkpt>
      <trkpt lat="48.38799" lon="2.52266">
        <ele>96</ele>
        <time>2022-08-10T14:12:10.659Z</time>
      </trkpt>
      <trkpt lat="48.38795" lon="2.52263">
        <ele>96</ele>
        <time>2022-08-10T14:12:15.649Z</time>
      </trkpt>
      <trkpt lat="48.38793" lon="2.52259">
        <ele>96</ele>
        <time>2022-08-10T14:12:19.656Z</time>
      </trkpt>
      <trkpt lat="48.3879" lon="2.52258">
        <ele>89</ele>
        <time>2022-08-10T14:12:24.656Z</time>
      </trkpt>
      <trkpt lat="48.38786" lon="2.52258">
        <ele>89</ele>
        <time>2022-08-10T14:12:29.638Z</time>
      </trkpt>
      <trkpt lat="48.38781" lon="2.52257">
        <ele>89</ele>
        <time>2022-08-10T14:12:34.658Z</time>
      </trkpt>
      <trkpt lat="48.38775" lon="2.52262">
        <ele>89</ele>
        <time>2022-08-10T14:12:38.663Z</time>
      </trkpt>
      <trkpt lat="48.3877" lon="2.52266">
        <ele>89</ele>
        <time>2022-08-10T14:12:42.678Z</time>
      </trkpt>
      <trkpt lat="48.38767" lon="2.52272">
        <ele>89</ele>
        <time>2022-08-10T14:12:47.663Z</time>
      </trkpt>
      <trkpt lat="48.38764" lon="2.52276">
        <ele>89</ele>
        <time>2022-08-10T14:12:52.634Z</time>
      </trkpt>
      <trkpt lat="48.38762" lon="2.5228">
        <ele>84</ele>
        <time>2022-08-10T14:12:57.644Z</time>
      </trkpt>
      <trkpt lat="48.38758" lon="2.52285">
        <ele>84</ele>
        <time>2022-08-10T14:13:01.680Z</time>
      </trkpt>
      <trkpt lat="48.38756" lon="2.52292">
        <ele>85</ele>
        <time>2022-08-10T14:13:06.659Z</time>
      </trkpt>
      <trkpt lat="48.38752" lon="2.52299">
        <ele>85</ele>
        <time>2022-08-10T14:13:11.666Z</time>
      </trkpt>
      <trkpt lat="48.3875" lon="2.52304">
        <ele>85</ele>
        <time>2022-08-10T14:13:16.633Z</time>
      </trkpt>
      <trkpt lat="48.38745" lon="2.52308">
        <ele>85</ele>
        <time>2022-08-10T14:13:20.651Z</time>
      </trkpt>
      <trkpt lat="48.3874" lon="2.52315">
        <ele>85</ele>
        <time>2022-08-10T14:13:25.623Z</time>
      </trkpt>
      <trkpt lat="48.38734" lon="2.52319">
        <ele>82</ele>
        <time>2022-08-10T14:13:29.634Z</time>
      </trkpt>
      <trkpt lat="48.38729" lon="2.52322">
        <ele>82</ele>
        <time>2022-08-10T14:13:33.648Z</time>
      </trkpt>
      <trkpt lat="48.38724" lon="2.52321">
        <ele>82</ele>
        <time>2022-08-10T14:13:38.626Z</time>
      </trkpt>
      <trkpt lat="48.38719" lon="2.52324">
        <ele>82</ele>
        <time>2022-08-10T14:13:42.653Z</time>
      </trkpt>
      <trkpt lat="48.38715" lon="2.52323">
        <ele>82</ele>
        <time>2022-08-10T14:13:47.654Z</time>
      </trkpt>
      <trkpt lat="48.38709" lon="2.52322">
        <ele>82</ele>
        <time>2022-08-10T14:13:51.656Z</time>
      </trkpt>
      <trkpt lat="48.38705" lon="2.52321">
        <ele>79</ele>
        <time>2022-08-10T14:13:56.630Z</time>
      </trkpt>
      <trkpt lat="48.387" lon="2.52319">
        <ele>79</ele>
        <time>2022-08-10T14:14:01.632Z</time>
      </trkpt>
      <trkpt lat="48.38695" lon="2.5232">
        <ele>79</ele>
        <time>2022-08-10T14:14:05.659Z</time>
      </trkpt>
      <trkpt lat="48.3869" lon="2.52321">
        <ele>79</ele>
        <time>2022-08-10T14:14:10.643Z</time>
      </trkpt>
      <trkpt lat="48.38688" lon="2.52321">
        <ele>79</ele>
        <time>2022-08-10T14:14:15.656Z</time>
      </trkpt>
      <trkpt lat="48.38686" lon="2.52322">
        <ele>79</ele>
        <time>2022-08-10T14:14:20.644Z</time>
      </trkpt>
      <trkpt lat="48.38688" lon="2.52323">
        <ele>79</ele>
        <time>2022-08-10T14:14:25.649Z</time>
      </trkpt>
      <trkpt lat="48.38692" lon="2.52317">
        <ele>79</ele>
        <time>2022-08-10T14:14:30.657Z</time>
      </trkpt>
      <trkpt lat="48.38693" lon="2.52312">
        <ele>79</ele>
        <time>2022-08-10T14:14:34.650Z</time>
      </trkpt>
      <trkpt lat="48.38694" lon="2.52312">
        <ele>79</ele>
        <time>2022-08-10T14:14:39.646Z</time>
      </trkpt>
      <trkpt lat="48.38696" lon="2.52306">
        <ele>79</ele>
        <time>2022-08-10T14:14:44.661Z</time>
      </trkpt>
      <trkpt lat="48.38698" lon="2.52298">
        <ele>79</ele>
        <time>2022-08-10T14:14:48.645Z</time>
      </trkpt>
      <trkpt lat="48.387" lon="2.52289">
        <ele>79</ele>
        <time>2022-08-10T14:14:52.689Z</time>
      </trkpt>
      <trkpt lat="48.38704" lon="2.5228">
        <ele>79</ele>
        <time>2022-08-10T14:14:57.666Z</time>
      </trkpt>
      <trkpt lat="48.38705" lon="2.52272">
        <ele>79</ele>
        <time>2022-08-10T14:15:02.660Z</time>
      </trkpt>
      <trkpt lat="48.38706" lon="2.52264">
        <ele>79</ele>
        <time>2022-08-10T14:15:06.654Z</time>
      </trkpt>
      <trkpt lat="48.38706" lon="2.52254">
        <ele>78</ele>
        <time>2022-08-10T14:15:10.641Z</time>
      </trkpt>
      <trkpt lat="48.38708" lon="2.52247">
        <ele>78</ele>
        <time>2022-08-10T14:15:14.657Z</time>
      </trkpt>
      <trkpt lat="48.3871" lon="2.52239">
        <ele>80</ele>
        <time>2022-08-10T14:15:19.641Z</time>
      </trkpt>
      <trkpt lat="48.38709" lon="2.52232">
        <ele>78</ele>
        <time>2022-08-10T14:15:23.643Z</time>
      </trkpt>
      <trkpt lat="48.38711" lon="2.52223">
        <ele>78</ele>
        <time>2022-08-10T14:15:28.648Z</time>
      </trkpt>
      <trkpt lat="48.38713" lon="2.52213">
        <ele>78</ele>
        <time>2022-08-10T14:15:33.650Z</time>
      </trkpt>
      <trkpt lat="48.38714" lon="2.52206">
        <ele>77</ele>
        <time>2022-08-10T14:15:37.652Z</time>
      </trkpt>
      <trkpt lat="48.38716" lon="2.52196">
        <ele>77</ele>
        <time>2022-08-10T14:15:42.651Z</time>
      </trkpt>
      <trkpt lat="48.38718" lon="2.52187">
        <ele>77</ele>
        <time>2022-08-10T14:15:46.652Z</time>
      </trkpt>
      <trkpt lat="48.38719" lon="2.52179">
        <ele>76</ele>
        <time>2022-08-10T14:15:51.646Z</time>
      </trkpt>
      <trkpt lat="48.38719" lon="2.5217">
        <ele>76</ele>
        <time>2022-08-10T14:15:56.678Z</time>
      </trkpt>
      <trkpt lat="48.38721" lon="2.52163">
        <ele>76</ele>
        <time>2022-08-10T14:16:01.685Z</time>
      </trkpt>
      <trkpt lat="48.38722" lon="2.5215">
        <ele>76</ele>
        <time>2022-08-10T14:16:06.655Z</time>
      </trkpt>
      <trkpt lat="48.38723" lon="2.52139">
        <ele>76</ele>
        <time>2022-08-10T14:16:11.644Z</time>
      </trkpt>
      <trkpt lat="48.38726" lon="2.5213">
        <ele>76</ele>
        <time>2022-08-10T14:16:15.650Z</time>
      </trkpt>
      <trkpt lat="48.38728" lon="2.52121">
        <ele>75</ele>
        <time>2022-08-10T14:16:19.665Z</time>
      </trkpt>
      <trkpt lat="48.38732" lon="2.5211">
        <ele>75</ele>
        <time>2022-08-10T14:16:24.654Z</time>
      </trkpt>
      <trkpt lat="48.38734" lon="2.52101">
        <ele>75</ele>
        <time>2022-08-10T14:16:29.660Z</time>
      </trkpt>
      <trkpt lat="48.38736" lon="2.52092">
        <ele>75</ele>
        <time>2022-08-10T14:16:34.648Z</time>
      </trkpt>
      <trkpt lat="48.38739" lon="2.5208">
        <ele>77</ele>
        <time>2022-08-10T14:16:39.635Z</time>
      </trkpt>
      <trkpt lat="48.38741" lon="2.52072">
        <ele>77</ele>
        <time>2022-08-10T14:16:43.657Z</time>
      </trkpt>
      <trkpt lat="48.38743" lon="2.52063">
        <ele>76</ele>
        <time>2022-08-10T14:16:48.635Z</time>
      </trkpt>
      <trkpt lat="48.38747" lon="2.52052">
        <ele>76</ele>
        <time>2022-08-10T14:16:53.636Z</time>
      </trkpt>
      <trkpt lat="48.38748" lon="2.52046">
        <ele>76</ele>
        <time>2022-08-10T14:16:58.661Z</time>
      </trkpt>
      <trkpt lat="48.38751" lon="2.52039">
        <ele>75</ele>
        <time>2022-08-10T14:17:02.643Z</time>
      </trkpt>
      <trkpt lat="48.38756" lon="2.5203">
        <ele>75</ele>
        <time>2022-08-10T14:17:07.676Z</time>
      </trkpt>
      <trkpt lat="48.38758" lon="2.52021">
        <ele>75</ele>
        <time>2022-08-10T14:17:11.690Z</time>
      </trkpt>
      <trkpt lat="48.3876" lon="2.52014">
        <ele>75</ele>
        <time>2022-08-10T14:17:16.659Z</time>
      </trkpt>
      <trkpt lat="48.38764" lon="2.52007">
        <ele>76</ele>
        <time>2022-08-10T14:17:20.651Z</time>
      </trkpt>
      <trkpt lat="48.38767" lon="2.51999">
        <ele>76</ele>
        <time>2022-08-10T14:17:25.669Z</time>
      </trkpt>
      <trkpt lat="48.38771" lon="2.51989">
        <ele>76</ele>
        <time>2022-08-10T14:17:30.626Z</time>
      </trkpt>
      <trkpt lat="48.38773" lon="2.51987">
        <ele>76</ele>
        <time>2022-08-10T14:17:34.637Z</time>
      </trkpt>
      <trkpt lat="48.3878" lon="2.51984">
        <ele>74</ele>
        <time>2022-08-10T14:17:38.662Z</time>
      </trkpt>
      <trkpt lat="48.38785" lon="2.51976">
        <ele>74</ele>
        <time>2022-08-10T14:17:43.622Z</time>
      </trkpt>
      <trkpt lat="48.38789" lon="2.51968">
        <ele>74</ele>
      </trkpt>
      <trkpt lat="48.38791" lon="2.51964">
        <ele>74</ele>
      </trkpt>
      <trkpt lat="48.38794" lon="2.51958">
        <ele>75</ele>
      </trkpt>
    </trkseg>
  </trk>
</gpx>